Wetterdaten: Donnerstag, 24.05.2018
Datum Zeit Temp. A. Feuchte A. Luftdruck Regen Wind Richtung Richtung Sonnenschein ET UV Solar Taupunkt Windchill Windböen
24.05.2018 00:00 10,8 °C 94 % 1015,5 hPa 0,0 mm 4,3 km/h (1 Bft) S-SW 196 ° 0 min 0,000 mm 0,0 UV-I 0 W/m² 9,9 °C 10,8 °C 6,4 km/h (2 Bft)
24.05.2018 00:01 10,9 °C 94 % 1015,5 hPa 0,0 mm 3,2 km/h (1 Bft) S-SW 196 ° 0 min 0,000 mm 0,0 UV-I 0 W/m² 10,0 °C 10,9 °C 3,2 km/h (1 Bft)
24.05.2018 00:02 10,9 °C 94 % 1015,5 hPa 0,0 mm 3,2 km/h (1 Bft) S-SW 196 ° 0 min 0,000 mm 0,0 UV-I 0 W/m² 10,0 °C 10,9 °C 3,2 km/h (1 Bft)
24.05.2018 00:03 10,9 °C 94 % 1015,5 hPa 0,0 mm 3,5 km/h (1 Bft) S-SW 198 ° 0 min 0,000 mm 0,0 UV-I 0 W/m² 10,0 °C 10,9 °C 6,4 km/h (2 Bft)
24.05.2018 00:04 10,9 °C 94 % 1015,5 hPa 0,0 mm 1,9 km/h (1 Bft) S-SW 198 ° 0 min 0,000 mm 0,0 UV-I 0 W/m² 10,0 °C 10,9 °C 4,8 km/h (1 Bft)
24.05.2018 00:05 11,0 °C 94 % 1015,6 hPa 0,0 mm 1,7 km/h (1 Bft) S-SW 198 ° 0 min 0,000 mm 0,0 UV-I 0 W/m² 10,1 °C 11,0 °C 3,2 km/h (1 Bft)
24.05.2018 00:06 11,1 °C 94 % 1015,6 hPa 0,0 mm 0,0 km/h (0 Bft) S-SW 198 ° 0 min 0,000 mm 0,0 UV-I 0 W/m² 10,2 °C 11,1 °C 0,0 km/h (0 Bft)
24.05.2018 00:07 11,1 °C 94 % 1015,6 hPa 0,0 mm 0,6 km/h (0 Bft) S-SW 198 ° 0 min 0,000 mm 0,0 UV-I 0 W/m² 10,2 °C 11,1 °C 3,2 km/h (1 Bft)
24.05.2018 00:08 11,1 °C 94 % 1015,6 hPa 0,0 mm 0,5 km/h (0 Bft) S-SW 198 ° 0 min 0,000 mm 0,0 UV-I 0 W/m² 10,2 °C 11,1 °C 1,6 km/h (1 Bft)
24.05.2018 00:09 11,1 °C 94 % 1015,7 hPa 0,0 mm 0,1 km/h (0 Bft) S-SW 198 ° 0 min 0,000 mm 0,0 UV-I 0 W/m² 10,2 °C 11,1 °C 1,6 km/h (1 Bft)
24.05.2018 00:10 11,1 °C 94 % 1015,7 hPa 0,0 mm 0,0 km/h (0 Bft) S-SW 198 ° 0 min 0,000 mm 0,0 UV-I 0 W/m² 10,2 °C 11,1 °C 0,0 km/h (0 Bft)
24.05.2018 00:11 11,1 °C 94 % 1015,7 hPa 0,0 mm 0,0 km/h (0 Bft) S-SW 198 ° 0 min 0,000 mm 0,0 UV-I 0 W/m² 10,2 °C 11,1 °C 0,0 km/h (0 Bft)
24.05.2018 00:12 11,0 °C 94 % 1015,7 hPa 0,0 mm 0,0 km/h (0 Bft) S-SW 198 ° 0 min 0,000 mm 0,0 UV-I 0 W/m² 10,1 °C 11,0 °C 0,0 km/h (0 Bft)
24.05.2018 00:13 10,9 °C 94 % 1015,8 hPa 0,0 mm 0,0 km/h (0 Bft) S-SW 198 ° 0 min 0,000 mm 0,0 UV-I 0 W/m² 10,0 °C 10,9 °C 0,0 km/h (0 Bft)
24.05.2018 00:14 10,9 °C 94 % 1015,8 hPa 0,0 mm 0,0 km/h (0 Bft) S-SW 198 ° 0 min 0,000 mm 0,0 UV-I 0 W/m² 10,0 °C 10,9 °C 0,0 km/h (0 Bft)
24.05.2018 00:15 10,9 °C 94 % 1015,8 hPa 0,0 mm 0,0 km/h (0 Bft) S-SW 198 ° 0 min 0,000 mm 0,0 UV-I 0 W/m² 10,0 °C 10,9 °C 0,0 km/h (0 Bft)
24.05.2018 00:16 10,9 °C 94 % 1015,9 hPa 0,0 mm 0,0 km/h (0 Bft) S-SW 198 ° 0 min 0,000 mm 0,0 UV-I 0 W/m² 10,0 °C 10,9 °C 0,0 km/h (0 Bft)
24.05.2018 00:17 10,9 °C 94 % 1015,8 hPa 0,0 mm 0,0 km/h (0 Bft) S-SW 198 ° 0 min 0,000 mm 0,0 UV-I 0 W/m² 10,0 °C 10,9 °C 0,0 km/h (0 Bft)
24.05.2018 00:18 10,8 °C 94 % 1015,9 hPa 0,0 mm 0,0 km/h (0 Bft) S-SW 198 ° 0 min 0,000 mm 0,0 UV-I 0 W/m² 9,9 °C 10,8 °C 0,0 km/h (0 Bft)
24.05.2018 00:19 10,8 °C 94 % 1015,9 hPa 0,0 mm 0,0 km/h (0 Bft) S-SW 198 ° 0 min 0,000 mm 0,0 UV-I 0 W/m² 9,9 °C 10,8 °C 0,0 km/h (0 Bft)
24.05.2018 00:20 10,7 °C 93 % 1015,9 hPa 0,0 mm 0,0 km/h (0 Bft) S-SW 198 ° 0 min 0,000 mm 0,0 UV-I 0 W/m² 9,6 °C 10,7 °C 0,0 km/h (0 Bft)
24.05.2018 00:21 10,7 °C 93 % 1015,8 hPa 0,0 mm 0,0 km/h (0 Bft) S-SW 198 ° 0 min 0,000 mm 0,0 UV-I 0 W/m² 9,6 °C 10,7 °C 0,0 km/h (0 Bft)
24.05.2018 00:22 10,7 °C 94 % 1015,8 hPa 0,0 mm 0,0 km/h (0 Bft) S-SW 198 ° 0 min 0,000 mm 0,0 UV-I 0 W/m² 9,8 °C 10,7 °C 0,0 km/h (0 Bft)
24.05.2018 00:23 10,8 °C 94 % 1015,8 hPa 0,0 mm 1,9 km/h (1 Bft) S-SW 198 ° 0 min 0,000 mm 0,0 UV-I 0 W/m² 9,9 °C 10,8 °C 3,2 km/h (1 Bft)
24.05.2018 00:24 10,8 °C 94 % 1015,8 hPa 0,0 mm 3,6 km/h (1 Bft) S-SW 198 ° 0 min 0,000 mm 0,0 UV-I 0 W/m² 9,9 °C 10,8 °C 4,8 km/h (1 Bft)
24.05.2018 00:25 10,9 °C 94 % 1015,8 hPa 0,0 mm 3,4 km/h (1 Bft) S-SW 198 ° 0 min 0,000 mm 0,0 UV-I 0 W/m² 10,0 °C 10,9 °C 6,4 km/h (2 Bft)
24.05.2018 00:26 11,0 °C 94 % 1015,9 hPa 0,0 mm 3,7 km/h (1 Bft) S 188 ° 0 min 0,000 mm 0,0 UV-I 0 W/m² 10,1 °C 11,0 °C 6,4 km/h (2 Bft)
24.05.2018 00:27 11,1 °C 94 % 1015,8 hPa 0,0 mm 1,5 km/h (1 Bft) S 188 ° 0 min 0,000 mm 0,0 UV-I 0 W/m² 10,2 °C 11,1 °C 3,2 km/h (1 Bft)
24.05.2018 00:28 11,1 °C 94 % 1015,8 hPa 0,0 mm 0,8 km/h (0 Bft) S 188 ° 0 min 0,000 mm 0,0 UV-I 0 W/m² 10,2 °C 11,1 °C 1,6 km/h (1 Bft)
24.05.2018 00:29 11,1 °C 93 % 1015,8 hPa 0,0 mm 0,6 km/h (0 Bft) S 188 ° 0 min 0,000 mm 0,0 UV-I 0 W/m² 10,0 °C 11,1 °C 1,6 km/h (1 Bft)
24.05.2018 00:30 11,1 °C 94 % 1015,8 hPa 0,0 mm 0,4 km/h (0 Bft) S 188 ° 0 min 0,000 mm 0,0 UV-I 0 W/m² 10,2 °C 11,1 °C 1,6 km/h (1 Bft)
24.05.2018 00:31 11,1 °C 94 % 1015,8 hPa 0,0 mm 0,2 km/h (0 Bft) S 188 ° 0 min 0,000 mm 0,0 UV-I 0 W/m² 10,2 °C 11,1 °C 1,6 km/h (1 Bft)
24.05.2018 00:32 11,1 °C 93 % 1015,8 hPa 0,0 mm 0,0 km/h (0 Bft) S 188 ° 0 min 0,000 mm 0,0 UV-I 0 W/m² 10,0 °C 11,1 °C 0,0 km/h (0 Bft)
24.05.2018 00:33 11,1 °C 93 % 1015,8 hPa 0,0 mm 0,3 km/h (0 Bft) S 188 ° 0 min 0,000 mm 0,0 UV-I 0 W/m² 10,0 °C 11,1 °C 1,6 km/h (1 Bft)
24.05.2018 00:34 11,0 °C 94 % 1015,8 hPa 0,0 mm 0,1 km/h (0 Bft) S 188 ° 0 min 0,000 mm 0,0 UV-I 0 W/m² 10,1 °C 11,0 °C 1,6 km/h (1 Bft)
24.05.2018 00:35 11,0 °C 94 % 1015,9 hPa 0,0 mm 0,2 km/h (0 Bft) S 188 ° 0 min 0,000 mm 0,0 UV-I 0 W/m² 10,1 °C 11,0 °C 1,6 km/h (1 Bft)
24.05.2018 00:36 11,1 °C 94 % 1015,8 hPa 0,0 mm 1,0 km/h (0 Bft) S 188 ° 0 min 0,000 mm 0,0 UV-I 0 W/m² 10,2 °C 11,1 °C 3,2 km/h (1 Bft)
24.05.2018 00:37 11,1 °C 94 % 1015,9 hPa 0,0 mm 0,0 km/h (0 Bft) S 188 ° 0 min 0,000 mm 0,0 UV-I 0 W/m² 10,2 °C 11,1 °C 0,0 km/h (0 Bft)
24.05.2018 00:38 11,1 °C 94 % 1015,9 hPa 0,0 mm 0,1 km/h (0 Bft) S 188 ° 0 min 0,000 mm 0,0 UV-I 0 W/m² 10,2 °C 11,1 °C 1,6 km/h (1 Bft)
24.05.2018 00:39 11,1 °C 94 % 1015,9 hPa 0,0 mm 2,1 km/h (1 Bft) W 267 ° 0 min 0,000 mm 0,0 UV-I 0 W/m² 10,2 °C 11,1 °C 4,8 km/h (1 Bft)
24.05.2018 00:40 11,1 °C 93 % 1015,9 hPa 0,0 mm 0,4 km/h (0 Bft) W 267 ° 0 min 0,000 mm 0,0 UV-I 0 W/m² 10,0 °C 11,1 °C 1,6 km/h (1 Bft)
24.05.2018 00:41 11,1 °C 94 % 1015,9 hPa 0,0 mm 0,0 km/h (0 Bft) W 267 ° 0 min 0,000 mm 0,0 UV-I 0 W/m² 10,2 °C 11,1 °C 0,0 km/h (0 Bft)
24.05.2018 00:42 11,0 °C 93 % 1015,9 hPa 0,0 mm 0,0 km/h (0 Bft) W 267 ° 0 min 0,000 mm 0,0 UV-I 0 W/m² 9,9 °C 11,0 °C 0,0 km/h (0 Bft)
24.05.2018 00:43 10,9 °C 93 % 1015,9 hPa 0,0 mm 0,0 km/h (0 Bft) W 267 ° 0 min 0,000 mm 0,0 UV-I 0 W/m² 9,8 °C 10,9 °C 0,0 km/h (0 Bft)
24.05.2018 00:44 10,9 °C 93 % 1015,9 hPa 0,0 mm 0,0 km/h (0 Bft) W 267 ° 0 min 0,000 mm 0,0 UV-I 0 W/m² 9,8 °C 10,9 °C 0,0 km/h (0 Bft)
24.05.2018 00:45 10,9 °C 93 % 1015,9 hPa 0,0 mm 0,3 km/h (0 Bft) W-SW 257 ° 0 min 0,000 mm 0,0 UV-I 0 W/m² 9,8 °C 10,9 °C 1,6 km/h (1 Bft)
24.05.2018 00:46 11,0 °C 94 % 1015,9 hPa 0,0 mm 1,7 km/h (1 Bft) S-SW 207 ° 0 min 0,000 mm 0,0 UV-I 0 W/m² 10,1 °C 11,0 °C 3,2 km/h (1 Bft)
24.05.2018 00:47 11,1 °C 94 % 1015,9 hPa 0,0 mm 2,8 km/h (1 Bft) S-SW 204 ° 0 min 0,000 mm 0,0 UV-I 0 W/m² 10,2 °C 11,1 °C 6,4 km/h (2 Bft)
24.05.2018 00:48 11,1 °C 94 % 1015,9 hPa 0,0 mm 0,6 km/h (0 Bft) S-SW 204 ° 0 min 0,000 mm 0,0 UV-I 0 W/m² 10,2 °C 11,1 °C 3,2 km/h (1 Bft)
24.05.2018 00:49 11,2 °C 94 % 1015,9 hPa 0,0 mm 1,0 km/h (0 Bft) S-SW 204 ° 0 min 0,000 mm 0,0 UV-I 0 W/m² 10,3 °C 11,2 °C 3,2 km/h (1 Bft)
24.05.2018 00:50 11,2 °C 94 % 1015,9 hPa 0,0 mm 0,0 km/h (0 Bft) S-SW 204 ° 0 min 0,000 mm 0,0 UV-I 0 W/m² 10,3 °C 11,2 °C 0,0 km/h (0 Bft)
24.05.2018 00:51 11,3 °C 94 % 1015,8 hPa 0,0 mm 0,6 km/h (0 Bft) S-SW 204 ° 0 min 0,000 mm 0,0 UV-I 0 W/m² 10,4 °C 11,3 °C 1,6 km/h (1 Bft)
24.05.2018 00:52 11,3 °C 94 % 1016,0 hPa 0,0 mm 0,9 km/h (0 Bft) S-SW 204 ° 0 min 0,000 mm 0,0 UV-I 0 W/m² 10,4 °C 11,3 °C 3,2 km/h (1 Bft)
24.05.2018 00:53 11,3 °C 94 % 1016,0 hPa 0,0 mm 0,5 km/h (0 Bft) S-SW 204 ° 0 min 0,000 mm 0,0 UV-I 0 W/m² 10,4 °C 11,3 °C 1,6 km/h (1 Bft)
24.05.2018 00:54 11,3 °C 94 % 1015,9 hPa 0,0 mm 0,1 km/h (0 Bft) S-SW 204 ° 0 min 0,000 mm 0,0 UV-I 0 W/m² 10,4 °C 11,3 °C 1,6 km/h (1 Bft)
24.05.2018 00:55 11,3 °C 94 % 1016,0 hPa 0,0 mm 1,3 km/h (1 Bft) S-SW 204 ° 0 min 0,000 mm 0,0 UV-I 0 W/m² 10,4 °C 11,3 °C 3,2 km/h (1 Bft)
24.05.2018 00:56 11,3 °C 94 % 1015,9 hPa 0,0 mm 2,1 km/h (1 Bft) S-SW 204 ° 0 min 0,000 mm 0,0 UV-I 0 W/m² 10,4 °C 11,3 °C 3,2 km/h (1 Bft)
24.05.2018 00:57 11,3 °C 94 % 1016,0 hPa 0,0 mm 1,5 km/h (1 Bft) S-SW 204 ° 0 min 0,000 mm 0,0 UV-I 0 W/m² 10,4 °C 11,3 °C 3,2 km/h (1 Bft)
24.05.2018 00:58 11,3 °C 94 % 1016,0 hPa 0,0 mm 0,7 km/h (0 Bft) S-SW 204 ° 0 min 0,000 mm 0,0 UV-I 0 W/m² 10,4 °C 11,3 °C 1,6 km/h (1 Bft)
24.05.2018 00:59 11,3 °C 94 % 1015,9 hPa 0,0 mm 0,0 km/h (0 Bft) S-SW 204 ° 0 min 0,000 mm 0,0 UV-I 0 W/m² 10,4 °C 11,3 °C 0,0 km/h (0 Bft)
24.05.2018 01:00 11,4 °C 94 % 1015,8 hPa 0,0 mm 0,0 km/h (0 Bft) S-SW 204 ° 0 min 0,000 mm 0,0 UV-I 0 W/m² 10,5 °C 11,4 °C 0,0 km/h (0 Bft)
24.05.2018 01:01 11,4 °C 94 % 1015,9 hPa 0,0 mm 0,0 km/h (0 Bft) S-SW 204 ° 0 min 0,000 mm 0,0 UV-I 0 W/m² 10,5 °C 11,4 °C 0,0 km/h (0 Bft)
24.05.2018 01:02 11,4 °C 94 % 1016,0 hPa 0,0 mm 0,0 km/h (0 Bft) S-SW 204 ° 0 min 0,000 mm 0,0 UV-I 0 W/m² 10,5 °C 11,4 °C 0,0 km/h (0 Bft)
24.05.2018 01:03 11,4 °C 94 % 1015,9 hPa 0,0 mm 0,0 km/h (0 Bft) S-SW 204 ° 0 min 0,000 mm 0,0 UV-I 0 W/m² 10,5 °C 11,4 °C 0,0 km/h (0 Bft)
24.05.2018 01:04 11,4 °C 94 % 1015,9 hPa 0,0 mm 0,0 km/h (0 Bft) S-SW 204 ° 0 min 0,000 mm 0,0 UV-I 0 W/m² 10,5 °C 11,4 °C 0,0 km/h (0 Bft)
24.05.2018 01:05 11,4 °C 94 % 1015,9 hPa 0,0 mm 0,0 km/h (0 Bft) S-SW 204 ° 0 min 0,000 mm 0,0 UV-I 0 W/m² 10,5 °C 11,4 °C 0,0 km/h (0 Bft)
24.05.2018 01:06 11,3 °C 93 % 1015,9 hPa 0,0 mm 0,0 km/h (0 Bft) S-SW 204 ° 0 min 0,000 mm 0,0 UV-I 0 W/m² 10,2 °C 11,3 °C 0,0 km/h (0 Bft)
24.05.2018 01:07 11,3 °C 93 % 1015,9 hPa 0,0 mm 0,0 km/h (0 Bft) S-SW 204 ° 0 min 0,000 mm 0,0 UV-I 0 W/m² 10,2 °C 11,3 °C 0,0 km/h (0 Bft)
24.05.2018 01:08 11,3 °C 93 % 1015,9 hPa 0,0 mm 0,0 km/h (0 Bft) S-SW 204 ° 0 min 0,000 mm 0,0 UV-I 0 W/m² 10,2 °C 11,3 °C 0,0 km/h (0 Bft)
24.05.2018 01:09 11,3 °C 93 % 1015,9 hPa 0,0 mm 0,0 km/h (0 Bft) S-SW 204 ° 0 min 0,000 mm 0,0 UV-I 0 W/m² 10,2 °C 11,3 °C 0,0 km/h (0 Bft)
24.05.2018 01:10 11,2 °C 93 % 1015,9 hPa 0,0 mm 0,0 km/h (0 Bft) S-SW 204 ° 0 min 0,000 mm 0,0 UV-I 0 W/m² 10,1 °C 11,2 °C 0,0 km/h (0 Bft)
24.05.2018 01:11 11,2 °C 93 % 1015,9 hPa 0,0 mm 0,0 km/h (0 Bft) S-SW 204 ° 0 min 0,000 mm 0,0 UV-I 0 W/m² 10,1 °C 11,2 °C 0,0 km/h (0 Bft)
24.05.2018 01:12 11,1 °C 93 % 1015,9 hPa 0,0 mm 0,0 km/h (0 Bft) S-SW 204 ° 0 min 0,000 mm 0,0 UV-I 0 W/m² 10,0 °C 11,1 °C 0,0 km/h (0 Bft)
24.05.2018 01:13 11,1 °C 93 % 1015,9 hPa 0,0 mm 0,0 km/h (0 Bft) S-SW 204 ° 0 min 0,000 mm 0,0 UV-I 0 W/m² 10,0 °C 11,1 °C 0,0 km/h (0 Bft)
24.05.2018 01:14 11,1 °C 93 % 1015,9 hPa 0,0 mm 0,0 km/h (0 Bft) S-SW 204 ° 0 min 0,000 mm 0,0 UV-I 0 W/m² 10,0 °C 11,1 °C 0,0 km/h (0 Bft)
24.05.2018 01:15 11,1 °C 93 % 1015,9 hPa 0,0 mm 0,0 km/h (0 Bft) S-SW 204 ° 0 min 0,000 mm 0,0 UV-I 0 W/m² 10,0 °C 11,1 °C 0,0 km/h (0 Bft)
24.05.2018 01:16 11,1 °C 93 % 1015,9 hPa 0,0 mm 0,0 km/h (0 Bft) S-SW 204 ° 0 min 0,000 mm 0,0 UV-I 0 W/m² 10,0 °C 11,1 °C 0,0 km/h (0 Bft)
24.05.2018 01:17 11,1 °C 93 % 1015,8 hPa 0,0 mm 0,0 km/h (0 Bft) S-SW 204 ° 0 min 0,000 mm 0,0 UV-I 0 W/m² 10,0 °C 11,1 °C 0,0 km/h (0 Bft)
24.05.2018 01:18 11,0 °C 93 % 1015,9 hPa 0,0 mm 0,0 km/h (0 Bft) S-SW 204 ° 0 min 0,000 mm 0,0 UV-I 0 W/m² 9,9 °C 11,0 °C 0,0 km/h (0 Bft)
24.05.2018 01:19 11,0 °C 93 % 1015,9 hPa 0,0 mm 0,0 km/h (0 Bft) S-SW 204 ° 0 min 0,000 mm 0,0 UV-I 0 W/m² 9,9 °C 11,0 °C 0,0 km/h (0 Bft)
24.05.2018 01:20 10,9 °C 93 % 1015,9 hPa 0,0 mm 0,0 km/h (0 Bft) S-SW 204 ° 0 min 0,000 mm 0,0 UV-I 0 W/m² 9,8 °C 10,9 °C 0,0 km/h (0 Bft)
24.05.2018 01:21 10,9 °C 93 % 1016,0 hPa 0,0 mm 0,0 km/h (0 Bft) S-SW 204 ° 0 min 0,000 mm 0,0 UV-I 0 W/m² 9,8 °C 10,9 °C 0,0 km/h (0 Bft)
24.05.2018 01:22 10,9 °C 94 % 1015,9 hPa 0,0 mm 0,0 km/h (0 Bft) S-SW 204 ° 0 min 0,000 mm 0,0 UV-I 0 W/m² 10,0 °C 10,9 °C 0,0 km/h (0 Bft)
24.05.2018 01:23 10,9 °C 94 % 1015,9 hPa 0,0 mm 0,0 km/h (0 Bft) S-SW 204 ° 0 min 0,000 mm 0,0 UV-I 0 W/m² 10,0 °C 10,9 °C 0,0 km/h (0 Bft)
24.05.2018 01:24 10,9 °C 94 % 1016,0 hPa 0,0 mm 0,0 km/h (0 Bft) S-SW 204 ° 0 min 0,000 mm 0,0 UV-I 0 W/m² 10,0 °C 10,9 °C 0,0 km/h (0 Bft)
24.05.2018 01:25 10,9 °C 94 % 1015,9 hPa 0,0 mm 0,0 km/h (0 Bft) S-SW 204 ° 0 min 0,000 mm 0,0 UV-I 0 W/m² 10,0 °C 10,9 °C 0,0 km/h (0 Bft)
24.05.2018 01:26 10,8 °C 94 % 1015,9 hPa 0,0 mm 0,0 km/h (0 Bft) S-SW 204 ° 0 min 0,000 mm 0,0 UV-I 0 W/m² 9,9 °C 10,8 °C 0,0 km/h (0 Bft)
24.05.2018 01:27 10,8 °C 94 % 1015,9 hPa 0,0 mm 0,1 km/h (0 Bft) S-SW 204 ° 0 min 0,000 mm 0,0 UV-I 0 W/m² 9,9 °C 10,8 °C 1,6 km/h (1 Bft)
24.05.2018 01:28 10,8 °C 94 % 1015,9 hPa 0,0 mm 0,0 km/h (0 Bft) S-SW 204 ° 0 min 0,000 mm 0,0 UV-I 0 W/m² 9,9 °C 10,8 °C 0,0 km/h (0 Bft)
24.05.2018 01:29 10,9 °C 94 % 1015,9 hPa 0,0 mm 0,0 km/h (0 Bft) S-SW 204 ° 0 min 0,000 mm 0,0 UV-I 0 W/m² 10,0 °C 10,9 °C 0,0 km/h (0 Bft)
24.05.2018 01:30 10,9 °C 94 % 1015,8 hPa 0,0 mm 0,0 km/h (0 Bft) S-SW 204 ° 0 min 0,000 mm 0,0 UV-I 0 W/m² 10,0 °C 10,9 °C 0,0 km/h (0 Bft)
24.05.2018 01:31 10,9 °C 94 % 1015,8 hPa 0,0 mm 0,0 km/h (0 Bft) S-SW 204 ° 0 min 0,000 mm 0,0 UV-I 0 W/m² 10,0 °C 10,9 °C 0,0 km/h (0 Bft)
24.05.2018 01:32 10,8 °C 94 % 1015,8 hPa 0,0 mm 0,0 km/h (0 Bft) S-SW 204 ° 0 min 0,000 mm 0,0 UV-I 0 W/m² 9,9 °C 10,8 °C 0,0 km/h (0 Bft)
24.05.2018 01:33 10,8 °C 94 % 1015,8 hPa 0,0 mm 0,0 km/h (0 Bft) S-SW 204 ° 0 min 0,000 mm 0,0 UV-I 0 W/m² 9,9 °C 10,8 °C 0,0 km/h (0 Bft)
24.05.2018 01:34 10,8 °C 94 % 1015,9 hPa 0,0 mm 0,0 km/h (0 Bft) S-SW 204 ° 0 min 0,000 mm 0,0 UV-I 0 W/m² 9,9 °C 10,8 °C 0,0 km/h (0 Bft)
24.05.2018 01:35 10,8 °C 94 % 1015,9 hPa 0,0 mm 0,0 km/h (0 Bft) S-SW 204 ° 0 min 0,000 mm 0,0 UV-I 0 W/m² 9,9 °C 10,8 °C 0,0 km/h (0 Bft)
24.05.2018 01:36 10,8 °C 94 % 1015,9 hPa 0,0 mm 0,0 km/h (0 Bft) S-SW 204 ° 0 min 0,000 mm 0,0 UV-I 0 W/m² 9,9 °C 10,8 °C 0,0 km/h (0 Bft)
24.05.2018 01:37 10,8 °C 94 % 1015,9 hPa 0,0 mm 0,0 km/h (0 Bft) S-SW 204 ° 0 min 0,000 mm 0,0 UV-I 0 W/m² 9,9 °C 10,8 °C 0,0 km/h (0 Bft)
24.05.2018 01:38 10,7 °C 94 % 1015,9 hPa 0,0 mm 0,0 km/h (0 Bft) S-SW 204 ° 0 min 0,000 mm 0,0 UV-I 0 W/m² 9,8 °C 10,7 °C 0,0 km/h (0 Bft)
24.05.2018 01:39 10,8 °C 94 % 1015,9 hPa 0,0 mm 0,0 km/h (0 Bft) S-SW 204 ° 0 min 0,000 mm 0,0 UV-I 0 W/m² 9,9 °C 10,8 °C 0,0 km/h (0 Bft)
24.05.2018 01:40 10,8 °C 94 % 1015,9 hPa 0,0 mm 0,0 km/h (0 Bft) S-SW 204 ° 0 min 0,000 mm 0,0 UV-I 0 W/m² 9,9 °C 10,8 °C 0,0 km/h (0 Bft)
24.05.2018 01:41 10,8 °C 94 % 1015,8 hPa 0,0 mm 0,0 km/h (0 Bft) S-SW 204 ° 0 min 0,000 mm 0,0 UV-I 0 W/m² 9,9 °C 10,8 °C 0,0 km/h (0 Bft)
24.05.2018 01:42 10,8 °C 94 % 1015,8 hPa 0,0 mm 0,0 km/h (0 Bft) S-SW 204 ° 0 min 0,000 mm 0,0 UV-I 0 W/m² 9,9 °C 10,8 °C 0,0 km/h (0 Bft)
24.05.2018 01:43 10,7 °C 94 % 1015,8 hPa 0,0 mm 0,0 km/h (0 Bft) S-SW 204 ° 0 min 0,000 mm 0,0 UV-I 0 W/m² 9,8 °C 10,7 °C 0,0 km/h (0 Bft)
24.05.2018 01:44 10,8 °C 94 % 1015,8 hPa 0,0 mm 0,0 km/h (0 Bft) S-SW 204 ° 0 min 0,000 mm 0,0 UV-I 0 W/m² 9,9 °C 10,8 °C 0,0 km/h (0 Bft)
24.05.2018 01:45 10,8 °C 94 % 1015,8 hPa 0,0 mm 0,0 km/h (0 Bft) S-SW 204 ° 0 min 0,000 mm 0,0 UV-I 0 W/m² 9,9 °C 10,8 °C 0,0 km/h (0 Bft)
24.05.2018 01:46 10,8 °C 94 % 1015,7 hPa 0,0 mm 0,0 km/h (0 Bft) S-SW 204 ° 0 min 0,000 mm 0,0 UV-I 0 W/m² 9,9 °C 10,8 °C 0,0 km/h (0 Bft)
24.05.2018 01:47 10,7 °C 94 % 1015,8 hPa 0,0 mm 0,0 km/h (0 Bft) S-SW 204 ° 0 min 0,000 mm 0,0 UV-I 0 W/m² 9,8 °C 10,7 °C 0,0 km/h (0 Bft)
24.05.2018 01:48 10,8 °C 94 % 1015,8 hPa 0,0 mm 0,0 km/h (0 Bft) S-SW 204 ° 0 min 0,000 mm 0,0 UV-I 0 W/m² 9,9 °C 10,8 °C 0,0 km/h (0 Bft)
24.05.2018 01:49 10,8 °C 94 % 1015,8 hPa 0,0 mm 0,0 km/h (0 Bft) S-SW 204 ° 0 min 0,000 mm 0,0 UV-I 0 W/m² 9,9 °C 10,8 °C 0,0 km/h (0 Bft)
24.05.2018 01:50 10,8 °C 94 % 1015,8 hPa 0,0 mm 0,0 km/h (0 Bft) S-SW 204 ° 0 min 0,000 mm 0,0 UV-I 0 W/m² 9,9 °C 10,8 °C 0,0 km/h (0 Bft)
24.05.2018 01:51 10,8 °C 94 % 1015,9 hPa 0,0 mm 0,0 km/h (0 Bft) S-SW 204 ° 0 min 0,000 mm 0,0 UV-I 0 W/m² 9,9 °C 10,8 °C 0,0 km/h (0 Bft)
24.05.2018 01:52 10,7 °C 94 % 1015,9 hPa 0,0 mm 0,0 km/h (0 Bft) S-SW 204 ° 0 min 0,000 mm 0,0 UV-I 0 W/m² 9,8 °C 10,7 °C 0,0 km/h (0 Bft)
24.05.2018 01:53 10,8 °C 94 % 1015,9 hPa 0,0 mm 0,0 km/h (0 Bft) S-SW 204 ° 0 min 0,000 mm 0,0 UV-I 0 W/m² 9,9 °C 10,8 °C 0,0 km/h (0 Bft)
24.05.2018 01:54 10,7 °C 94 % 1015,9 hPa 0,0 mm 0,0 km/h (0 Bft) S-SW 204 ° 0 min 0,000 mm 0,0 UV-I 0 W/m² 9,8 °C 10,7 °C 0,0 km/h (0 Bft)
24.05.2018 01:55 10,7 °C 94 % 1015,9 hPa 0,0 mm 0,0 km/h (0 Bft) S-SW 204 ° 0 min 0,000 mm 0,0 UV-I 0 W/m² 9,8 °C 10,7 °C 0,0 km/h (0 Bft)
24.05.2018 01:56 10,7 °C 94 % 1015,9 hPa 0,0 mm 0,0 km/h (0 Bft) S-SW 204 ° 0 min 0,000 mm 0,0 UV-I 0 W/m² 9,8 °C 10,7 °C 0,0 km/h (0 Bft)
24.05.2018 01:57 10,6 °C 94 % 1015,9 hPa 0,0 mm 0,0 km/h (0 Bft) S-SW 204 ° 0 min 0,000 mm 0,0 UV-I 0 W/m² 9,7 °C 10,6 °C 0,0 km/h (0 Bft)
24.05.2018 01:58 10,6 °C 94 % 1015,9 hPa 0,0 mm 0,0 km/h (0 Bft) S-SW 204 ° 0 min 0,000 mm 0,0 UV-I 0 W/m² 9,7 °C 10,6 °C 0,0 km/h (0 Bft)
24.05.2018 01:59 10,6 °C 94 % 1015,9 hPa 0,0 mm 0,0 km/h (0 Bft) S-SW 204 ° 0 min 0,000 mm 0,0 UV-I 0 W/m² 9,7 °C 10,6 °C 0,0 km/h (0 Bft)
24.05.2018 02:00 10,6 °C 94 % 1016,0 hPa 0,0 mm 0,0 km/h (0 Bft) S-SW 204 ° 0 min 0,000 mm 0,0 UV-I 0 W/m² 9,7 °C 10,6 °C 0,0 km/h (0 Bft)
24.05.2018 02:01 10,6 °C 94 % 1015,9 hPa 0,0 mm 0,0 km/h (0 Bft) S-SW 204 ° 0 min 0,000 mm 0,0 UV-I 0 W/m² 9,7 °C 10,6 °C 0,0 km/h (0 Bft)
24.05.2018 02:02 10,7 °C 94 % 1015,9 hPa 0,0 mm 0,0 km/h (0 Bft) S-SW 204 ° 0 min 0,000 mm 0,0 UV-I 0 W/m² 9,8 °C 10,7 °C 0,0 km/h (0 Bft)
24.05.2018 02:03 10,7 °C 94 % 1015,9 hPa 0,0 mm 0,0 km/h (0 Bft) S-SW 204 ° 0 min 0,000 mm 0,0 UV-I 0 W/m² 9,8 °C 10,7 °C 0,0 km/h (0 Bft)
24.05.2018 02:04 10,7 °C 94 % 1016,0 hPa 0,0 mm 0,0 km/h (0 Bft) S-SW 204 ° 0 min 0,000 mm 0,0 UV-I 0 W/m² 9,8 °C 10,7 °C 0,0 km/h (0 Bft)
24.05.2018 02:05 10,6 °C 94 % 1016,0 hPa 0,0 mm 0,0 km/h (0 Bft) S-SW 204 ° 0 min 0,000 mm 0,0 UV-I 0 W/m² 9,7 °C 10,6 °C 0,0 km/h (0 Bft)
24.05.2018 02:06 10,6 °C 94 % 1016,0 hPa 0,0 mm 0,0 km/h (0 Bft) S-SW 204 ° 0 min 0,000 mm 0,0 UV-I 0 W/m² 9,7 °C 10,6 °C 0,0 km/h (0 Bft)
24.05.2018 02:07 10,6 °C 94 % 1016,0 hPa 0,0 mm 0,0 km/h (0 Bft) S-SW 204 ° 0 min 0,000 mm 0,0 UV-I 0 W/m² 9,7 °C 10,6 °C 0,0 km/h (0 Bft)
24.05.2018 02:08 10,5 °C 94 % 1016,0 hPa 0,0 mm 0,0 km/h (0 Bft) S-SW 204 ° 0 min 0,000 mm 0,0 UV-I 0 W/m² 9,6 °C 10,5 °C 0,0 km/h (0 Bft)
24.05.2018 02:09 10,4 °C 94 % 1016,0 hPa 0,0 mm 0,0 km/h (0 Bft) S-SW 204 ° 0 min 0,000 mm 0,0 UV-I 0 W/m² 9,5 °C 10,4 °C 0,0 km/h (0 Bft)
24.05.2018 02:10 10,3 °C 94 % 1016,0 hPa 0,0 mm 0,0 km/h (0 Bft) S-SW 204 ° 0 min 0,000 mm 0,0 UV-I 0 W/m² 9,4 °C 10,3 °C 0,0 km/h (0 Bft)
24.05.2018 02:11 10,3 °C 94 % 1015,9 hPa 0,0 mm 0,0 km/h (0 Bft) S-SW 204 ° 0 min 0,000 mm 0,0 UV-I 0 W/m² 9,4 °C 10,3 °C 0,0 km/h (0 Bft)
24.05.2018 02:12 10,3 °C 94 % 1015,9 hPa 0,0 mm 0,0 km/h (0 Bft) S-SW 204 ° 0 min 0,000 mm 0,0 UV-I 0 W/m² 9,4 °C 10,3 °C 0,0 km/h (0 Bft)
24.05.2018 02:13 10,3 °C 94 % 1015,9 hPa 0,0 mm 0,0 km/h (0 Bft) S-SW 204 ° 0 min 0,000 mm 0,0 UV-I 0 W/m² 9,4 °C 10,3 °C 0,0 km/h (0 Bft)
24.05.2018 02:14 10,3 °C 94 % 1015,9 hPa 0,0 mm 0,0 km/h (0 Bft) S-SW 204 ° 0 min 0,000 mm 0,0 UV-I 0 W/m² 9,4 °C 10,3 °C 0,0 km/h (0 Bft)
24.05.2018 02:15 10,3 °C 94 % 1015,9 hPa 0,0 mm 0,0 km/h (0 Bft) S-SW 204 ° 0 min 0,000 mm 0,0 UV-I 0 W/m² 9,4 °C 10,3 °C 0,0 km/h (0 Bft)
24.05.2018 02:16 10,3 °C 94 % 1015,9 hPa 0,0 mm 0,0 km/h (0 Bft) S-SW 204 ° 0 min 0,000 mm 0,0 UV-I 0 W/m² 9,4 °C 10,3 °C 0,0 km/h (0 Bft)
24.05.2018 02:17 10,2 °C 94 % 1015,9 hPa 0,0 mm 0,0 km/h (0 Bft) S-SW 204 ° 0 min 0,000 mm 0,0 UV-I 0 W/m² 9,3 °C 10,2 °C 0,0 km/h (0 Bft)
24.05.2018 02:18 10,2 °C 94 % 1015,9 hPa 0,0 mm 0,0 km/h (0 Bft) S-SW 204 ° 0 min 0,000 mm 0,0 UV-I 0 W/m² 9,3 °C 10,2 °C 0,0 km/h (0 Bft)
24.05.2018 02:19 10,2 °C 94 % 1015,9 hPa 0,0 mm 0,0 km/h (0 Bft) S-SW 204 ° 0 min 0,000 mm 0,0 UV-I 0 W/m² 9,3 °C 10,2 °C 0,0 km/h (0 Bft)
24.05.2018 02:20 10,2 °C 94 % 1015,9 hPa 0,0 mm 0,0 km/h (0 Bft) S-SW 204 ° 0 min 0,000 mm 0,0 UV-I 0 W/m² 9,3 °C 10,2 °C 0,0 km/h (0 Bft)
24.05.2018 02:21 10,2 °C 94 % 1015,9 hPa 0,0 mm 0,0 km/h (0 Bft) S-SW 204 ° 0 min 0,000 mm 0,0 UV-I 0 W/m² 9,3 °C 10,2 °C 0,0 km/h (0 Bft)
24.05.2018 02:22 10,2 °C 94 % 1015,9 hPa 0,0 mm 0,0 km/h (0 Bft) S-SW 204 ° 0 min 0,000 mm 0,0 UV-I 0 W/m² 9,3 °C 10,2 °C 0,0 km/h (0 Bft)
24.05.2018 02:23 10,2 °C 94 % 1015,9 hPa 0,0 mm 0,0 km/h (0 Bft) S-SW 204 ° 0 min 0,000 mm 0,0 UV-I 0 W/m² 9,3 °C 10,2 °C 0,0 km/h (0 Bft)
24.05.2018 02:24 10,2 °C 94 % 1015,9 hPa 0,0 mm 0,0 km/h (0 Bft) S-SW 204 ° 0 min 0,000 mm 0,0 UV-I 0 W/m² 9,3 °C 10,2 °C 0,0 km/h (0 Bft)
24.05.2018 02:25 10,3 °C 94 % 1015,9 hPa 0,0 mm 0,0 km/h (0 Bft) S-SW 204 ° 0 min 0,000 mm 0,0 UV-I 0 W/m² 9,4 °C 10,3 °C 0,0 km/h (0 Bft)
24.05.2018 02:26 10,3 °C 94 % 1015,8 hPa 0,0 mm 0,0 km/h (0 Bft) S-SW 204 ° 0 min 0,000 mm 0,0 UV-I 0 W/m² 9,4 °C 10,3 °C 0,0 km/h (0 Bft)
24.05.2018 02:27 10,3 °C 94 % 1015,8 hPa 0,0 mm 0,0 km/h (0 Bft) S-SW 204 ° 0 min 0,000 mm 0,0 UV-I 0 W/m² 9,4 °C 10,3 °C 0,0 km/h (0 Bft)
24.05.2018 02:28 10,3 °C 94 % 1015,8 hPa 0,0 mm 0,0 km/h (0 Bft) S-SW 204 ° 0 min 0,000 mm 0,0 UV-I 0 W/m² 9,4 °C 10,3 °C 0,0 km/h (0 Bft)
24.05.2018 02:29 10,3 °C 94 % 1015,8 hPa 0,0 mm 0,0 km/h (0 Bft) S-SW 204 ° 0 min 0,000 mm 0,0 UV-I 0 W/m² 9,4 °C 10,3 °C 0,0 km/h (0 Bft)
24.05.2018 02:30 10,3 °C 94 % 1015,8 hPa 0,0 mm 0,0 km/h (0 Bft) S-SW 204 ° 0 min 0,000 mm 0,0 UV-I 0 W/m² 9,4 °C 10,3 °C 0,0 km/h (0 Bft)
24.05.2018 02:31 10,3 °C 94 % 1015,9 hPa 0,0 mm 0,0 km/h (0 Bft) S-SW 204 ° 0 min 0,000 mm 0,0 UV-I 0 W/m² 9,4 °C 10,3 °C 0,0 km/h (0 Bft)
24.05.2018 02:32 10,3 °C 94 % 1015,9 hPa 0,0 mm 0,0 km/h (0 Bft) S-SW 204 ° 0 min 0,000 mm 0,0 UV-I 0 W/m² 9,4 °C 10,3 °C 0,0 km/h (0 Bft)
24.05.2018 02:33 10,4 °C 94 % 1015,9 hPa 0,0 mm 0,0 km/h (0 Bft) S-SW 204 ° 0 min 0,000 mm 0,0 UV-I 0 W/m² 9,5 °C 10,4 °C 0,0 km/h (0 Bft)
24.05.2018 02:34 10,4 °C 94 % 1015,9 hPa 0,0 mm 0,0 km/h (0 Bft) S-SW 204 ° 0 min 0,000 mm 0,0 UV-I 0 W/m² 9,5 °C 10,4 °C 0,0 km/h (0 Bft)
24.05.2018 02:35 10,4 °C 94 % 1015,9 hPa 0,0 mm 0,0 km/h (0 Bft) S-SW 204 ° 0 min 0,000 mm 0,0 UV-I 0 W/m² 9,5 °C 10,4 °C 0,0 km/h (0 Bft)
24.05.2018 02:36 10,4 °C 94 % 1015,9 hPa 0,0 mm 0,0 km/h (0 Bft) S-SW 204 ° 0 min 0,000 mm 0,0 UV-I 0 W/m² 9,5 °C 10,4 °C 0,0 km/h (0 Bft)
24.05.2018 02:37 10,3 °C 94 % 1015,9 hPa 0,0 mm 0,0 km/h (0 Bft) S-SW 204 ° 0 min 0,000 mm 0,0 UV-I 0 W/m² 9,4 °C 10,3 °C 0,0 km/h (0 Bft)
24.05.2018 02:38 10,3 °C 94 % 1015,9 hPa 0,0 mm 0,0 km/h (0 Bft) S-SW 204 ° 0 min 0,000 mm 0,0 UV-I 0 W/m² 9,4 °C 10,3 °C 0,0 km/h (0 Bft)
24.05.2018 02:39 10,2 °C 94 % 1015,8 hPa 0,0 mm 0,0 km/h (0 Bft) S-SW 204 ° 0 min 0,000 mm 0,0 UV-I 0 W/m² 9,3 °C 10,2 °C 0,0 km/h (0 Bft)
24.05.2018 02:40 10,1 °C 94 % 1015,8 hPa 0,0 mm 0,0 km/h (0 Bft) S-SW 204 ° 0 min 0,000 mm 0,0 UV-I 0 W/m² 9,2 °C 10,1 °C 0,0 km/h (0 Bft)
24.05.2018 02:41 10,1 °C 94 % 1015,8 hPa 0,0 mm 0,0 km/h (0 Bft) S-SW 204 ° 0 min 0,000 mm 0,0 UV-I 0 W/m² 9,2 °C 10,1 °C 0,0 km/h (0 Bft)
24.05.2018 02:42 10,1 °C 94 % 1015,8 hPa 0,0 mm 0,0 km/h (0 Bft) S-SW 204 ° 0 min 0,000 mm 0,0 UV-I 0 W/m² 9,2 °C 10,1 °C 0,0 km/h (0 Bft)
24.05.2018 02:43 10,1 °C 94 % 1015,7 hPa 0,0 mm 0,0 km/h (0 Bft) S-SW 204 ° 0 min 0,000 mm 0,0 UV-I 0 W/m² 9,2 °C 10,1 °C 0,0 km/h (0 Bft)
24.05.2018 02:44 10,1 °C 94 % 1015,7 hPa 0,0 mm 0,0 km/h (0 Bft) S-SW 204 ° 0 min 0,000 mm 0,0 UV-I 0 W/m² 9,2 °C 10,1 °C 0,0 km/h (0 Bft)
24.05.2018 02:45 10,1 °C 94 % 1015,7 hPa 0,0 mm 0,0 km/h (0 Bft) S-SW 204 ° 0 min 0,000 mm 0,0 UV-I 0 W/m² 9,2 °C 10,1 °C 0,0 km/h (0 Bft)
24.05.2018 02:46 10,1 °C 94 % 1015,7 hPa 0,0 mm 0,0 km/h (0 Bft) S-SW 204 ° 0 min 0,000 mm 0,0 UV-I 0 W/m² 9,2 °C 10,1 °C 0,0 km/h (0 Bft)
24.05.2018 02:47 10,1 °C 94 % 1015,7 hPa 0,0 mm 0,0 km/h (0 Bft) S-SW 204 ° 0 min 0,000 mm 0,0 UV-I 0 W/m² 9,2 °C 10,1 °C 0,0 km/h (0 Bft)
24.05.2018 02:48 10,2 °C 94 % 1015,7 hPa 0,0 mm 0,0 km/h (0 Bft) S-SW 204 ° 0 min 0,000 mm 0,0 UV-I 0 W/m² 9,3 °C 10,2 °C 0,0 km/h (0 Bft)
24.05.2018 02:49 10,2 °C 94 % 1015,7 hPa 0,0 mm 0,0 km/h (0 Bft) S-SW 204 ° 0 min 0,000 mm 0,0 UV-I 0 W/m² 9,3 °C 10,2 °C 0,0 km/h (0 Bft)
24.05.2018 02:50 10,1 °C 94 % 1015,7 hPa 0,0 mm 0,0 km/h (0 Bft) S-SW 204 ° 0 min 0,000 mm 0,0 UV-I 0 W/m² 9,2 °C 10,1 °C 0,0 km/h (0 Bft)
24.05.2018 02:51 10,1 °C 94 % 1015,7 hPa 0,0 mm 0,0 km/h (0 Bft) S-SW 204 ° 0 min 0,000 mm 0,0 UV-I 0 W/m² 9,2 °C 10,1 °C 0,0 km/h (0 Bft)
24.05.2018 02:52 10,0 °C 94 % 1015,7 hPa 0,0 mm 0,0 km/h (0 Bft) S-SW 204 ° 0 min 0,000 mm 0,0 UV-I 0 W/m² 9,1 °C 10,0 °C 0,0 km/h (0 Bft)
24.05.2018 02:53 9,9 °C 94 % 1015,7 hPa 0,0 mm 0,0 km/h (0 Bft) S-SW 204 ° 0 min 0,000 mm 0,0 UV-I 0 W/m² 9,0 °C 9,9 °C 0,0 km/h (0 Bft)
24.05.2018 02:54 9,9 °C 94 % 1015,7 hPa 0,0 mm 0,0 km/h (0 Bft) S-SW 204 ° 0 min 0,000 mm 0,0 UV-I 0 W/m² 9,0 °C 9,9 °C 0,0 km/h (0 Bft)
24.05.2018 02:55 9,9 °C 94 % 1015,7 hPa 0,0 mm 0,0 km/h (0 Bft) S-SW 204 ° 0 min 0,000 mm 0,0 UV-I 0 W/m² 9,0 °C 9,9 °C 0,0 km/h (0 Bft)
24.05.2018 02:56 9,9 °C 94 % 1015,7 hPa 0,0 mm 0,0 km/h (0 Bft) S-SW 204 ° 0 min 0,000 mm 0,0 UV-I 0 W/m² 9,0 °C 9,9 °C 0,0 km/h (0 Bft)
24.05.2018 02:57 9,9 °C 94 % 1015,7 hPa 0,0 mm 0,0 km/h (0 Bft) S-SW 204 ° 0 min 0,000 mm 0,0 UV-I 0 W/m² 9,0 °C 9,9 °C 0,0 km/h (0 Bft)
24.05.2018 02:58 9,9 °C 94 % 1015,6 hPa 0,0 mm 0,0 km/h (0 Bft) S-SW 204 ° 0 min 0,000 mm 0,0 UV-I 0 W/m² 9,0 °C 9,9 °C 0,0 km/h (0 Bft)
24.05.2018 02:59 9,9 °C 94 % 1015,6 hPa 0,0 mm 0,0 km/h (0 Bft) S-SW 204 ° 0 min 0,000 mm 0,0 UV-I 0 W/m² 9,0 °C 9,9 °C 0,0 km/h (0 Bft)
24.05.2018 03:00 10,0 °C 94 % 1015,6 hPa 0,0 mm 0,0 km/h (0 Bft) S-SW 204 ° 0 min 0,000 mm 0,0 UV-I 0 W/m² 9,1 °C 10,0 °C 0,0 km/h (0 Bft)
24.05.2018 03:01 9,9 °C 94 % 1015,6 hPa 0,0 mm 0,0 km/h (0 Bft) S-SW 204 ° 0 min 0,000 mm 0,0 UV-I 0 W/m² 9,0 °C 9,9 °C 0,0 km/h (0 Bft)
24.05.2018 03:02 9,9 °C 94 % 1015,6 hPa 0,0 mm 0,0 km/h (0 Bft) S-SW 204 ° 0 min 0,000 mm 0,0 UV-I 0 W/m² 9,0 °C 9,9 °C 0,0 km/h (0 Bft)
24.05.2018 03:03 9,9 °C 94 % 1015,6 hPa 0,0 mm 0,0 km/h (0 Bft) S-SW 204 ° 0 min 0,000 mm 0,0 UV-I 0 W/m² 9,0 °C 9,9 °C 0,0 km/h (0 Bft)
24.05.2018 03:04 9,9 °C 94 % 1015,6 hPa 0,0 mm 0,0 km/h (0 Bft) S-SW 204 ° 0 min 0,000 mm 0,0 UV-I 0 W/m² 9,0 °C 9,9 °C 0,0 km/h (0 Bft)
24.05.2018 03:05 9,9 °C 94 % 1015,6 hPa 0,0 mm 0,0 km/h (0 Bft) S-SW 204 ° 0 min 0,000 mm 0,0 UV-I 0 W/m² 9,0 °C 9,9 °C 0,0 km/h (0 Bft)
24.05.2018 03:06 9,9 °C 94 % 1015,7 hPa 0,0 mm 0,0 km/h (0 Bft) S-SW 204 ° 0 min 0,000 mm 0,0 UV-I 0 W/m² 9,0 °C 9,9 °C 0,0 km/h (0 Bft)
24.05.2018 03:07 9,9 °C 94 % 1015,6 hPa 0,0 mm 0,0 km/h (0 Bft) S-SW 204 ° 0 min 0,000 mm 0,0 UV-I 0 W/m² 9,0 °C 9,9 °C 0,0 km/h (0 Bft)
24.05.2018 03:08 9,9 °C 94 % 1015,7 hPa 0,0 mm 0,0 km/h (0 Bft) S-SW 204 ° 0 min 0,000 mm 0,0 UV-I 0 W/m² 9,0 °C 9,9 °C 0,0 km/h (0 Bft)
24.05.2018 03:09 9,9 °C 94 % 1015,7 hPa 0,0 mm 0,0 km/h (0 Bft) S-SW 204 ° 0 min 0,000 mm 0,0 UV-I 0 W/m² 9,0 °C 9,9 °C 0,0 km/h (0 Bft)
24.05.2018 03:10 9,9 °C 94 % 1015,7 hPa 0,0 mm 0,0 km/h (0 Bft) S-SW 204 ° 0 min 0,000 mm 0,0 UV-I 0 W/m² 9,0 °C 9,9 °C 0,0 km/h (0 Bft)
24.05.2018 03:11 9,9 °C 94 % 1015,7 hPa 0,0 mm 0,0 km/h (0 Bft) S-SW 204 ° 0 min 0,000 mm 0,0 UV-I 0 W/m² 9,0 °C 9,9 °C 0,0 km/h (0 Bft)
24.05.2018 03:12 9,9 °C 95 % 1015,7 hPa 0,0 mm 0,0 km/h (0 Bft) S-SW 204 ° 0 min 0,000 mm 0,0 UV-I 0 W/m² 9,1 °C 9,9 °C 0,0 km/h (0 Bft)
24.05.2018 03:13 9,8 °C 94 % 1015,7 hPa 0,0 mm 0,0 km/h (0 Bft) S-SW 204 ° 0 min 0,000 mm 0,0 UV-I 0 W/m² 8,9 °C 9,8 °C 0,0 km/h (0 Bft)
24.05.2018 03:14 9,8 °C 94 % 1015,8 hPa 0,0 mm 0,0 km/h (0 Bft) S-SW 204 ° 0 min 0,000 mm 0,0 UV-I 0 W/m² 8,9 °C 9,8 °C 0,0 km/h (0 Bft)
24.05.2018 03:15 9,7 °C 94 % 1015,8 hPa 0,0 mm 0,0 km/h (0 Bft) S-SW 204 ° 0 min 0,000 mm 0,0 UV-I 0 W/m² 8,8 °C 9,7 °C 0,0 km/h (0 Bft)
24.05.2018 03:16 9,7 °C 94 % 1015,8 hPa 0,0 mm 0,0 km/h (0 Bft) S-SW 204 ° 0 min 0,000 mm 0,0 UV-I 0 W/m² 8,8 °C 9,7 °C 0,0 km/h (0 Bft)
24.05.2018 03:17 9,7 °C 94 % 1015,8 hPa 0,0 mm 0,0 km/h (0 Bft) S-SW 204 ° 0 min 0,000 mm 0,0 UV-I 0 W/m² 8,8 °C 9,7 °C 0,0 km/h (0 Bft)
24.05.2018 03:18 9,8 °C 94 % 1015,8 hPa 0,0 mm 0,0 km/h (0 Bft) S-SW 204 ° 0 min 0,000 mm 0,0 UV-I 0 W/m² 8,9 °C 9,8 °C 0,0 km/h (0 Bft)
24.05.2018 03:19 9,9 °C 95 % 1015,8 hPa 0,0 mm 0,0 km/h (0 Bft) S-SW 204 ° 0 min 0,000 mm 0,0 UV-I 0 W/m² 9,1 °C 9,9 °C 0,0 km/h (0 Bft)
24.05.2018 03:20 9,9 °C 95 % 1015,8 hPa 0,0 mm 0,0 km/h (0 Bft) S-SW 204 ° 0 min 0,000 mm 0,0 UV-I 0 W/m² 9,1 °C 9,9 °C 0,0 km/h (0 Bft)
24.05.2018 03:21 10,0 °C 95 % 1015,8 hPa 0,0 mm 0,0 km/h (0 Bft) S-SW 204 ° 0 min 0,000 mm 0,0 UV-I 0 W/m² 9,2 °C 10,0 °C 0,0 km/h (0 Bft)
24.05.2018 03:22 10,0 °C 95 % 1015,8 hPa 0,0 mm 0,0 km/h (0 Bft) S-SW 204 ° 0 min 0,000 mm 0,0 UV-I 0 W/m² 9,2 °C 10,0 °C 0,0 km/h (0 Bft)
24.05.2018 03:23 10,1 °C 95 % 1015,8 hPa 0,0 mm 0,0 km/h (0 Bft) S-SW 204 ° 0 min 0,000 mm 0,0 UV-I 0 W/m² 9,3 °C 10,1 °C 0,0 km/h (0 Bft)
24.05.2018 03:24 10,1 °C 95 % 1015,8 hPa 0,0 mm 0,0 km/h (0 Bft) S-SW 204 ° 0 min 0,000 mm 0,0 UV-I 0 W/m² 9,3 °C 10,1 °C 0,0 km/h (0 Bft)
24.05.2018 03:25 10,1 °C 95 % 1015,8 hPa 0,0 mm 0,0 km/h (0 Bft) S-SW 204 ° 0 min 0,000 mm 0,0 UV-I 0 W/m² 9,3 °C 10,1 °C 0,0 km/h (0 Bft)
24.05.2018 03:26 10,0 °C 95 % 1015,7 hPa 0,0 mm 0,0 km/h (0 Bft) S-SW 204 ° 0 min 0,000 mm 0,0 UV-I 0 W/m² 9,2 °C 10,0 °C 0,0 km/h (0 Bft)
24.05.2018 03:27 10,0 °C 95 % 1015,8 hPa 0,0 mm 0,0 km/h (0 Bft) S-SW 204 ° 0 min 0,000 mm 0,0 UV-I 0 W/m² 9,2 °C 10,0 °C 0,0 km/h (0 Bft)
24.05.2018 03:28 9,9 °C 94 % 1015,7 hPa 0,0 mm 0,0 km/h (0 Bft) S-SW 204 ° 0 min 0,000 mm 0,0 UV-I 0 W/m² 9,0 °C 9,9 °C 0,0 km/h (0 Bft)
24.05.2018 03:29 9,8 °C 94 % 1015,8 hPa 0,0 mm 0,0 km/h (0 Bft) S-SW 204 ° 0 min 0,000 mm 0,0 UV-I 0 W/m² 8,9 °C 9,8 °C 0,0 km/h (0 Bft)
24.05.2018 03:30 9,8 °C 94 % 1015,8 hPa 0,0 mm 0,0 km/h (0 Bft) S-SW 204 ° 0 min 0,000 mm 0,0 UV-I 0 W/m² 8,9 °C 9,8 °C 0,0 km/h (0 Bft)
24.05.2018 03:31 9,7 °C 94 % 1015,8 hPa 0,0 mm 0,0 km/h (0 Bft) S-SW 204 ° 0 min 0,000 mm 0,0 UV-I 0 W/m² 8,8 °C 9,7 °C 0,0 km/h (0 Bft)
24.05.2018 03:32 9,6 °C 94 % 1015,7 hPa 0,0 mm 0,0 km/h (0 Bft) S-SW 204 ° 0 min 0,000 mm 0,0 UV-I 0 W/m² 8,7 °C 9,6 °C 0,0 km/h (0 Bft)
24.05.2018 03:33 9,7 °C 94 % 1015,6 hPa 0,0 mm 0,0 km/h (0 Bft) S-SW 204 ° 0 min 0,000 mm 0,0 UV-I 0 W/m² 8,8 °C 9,7 °C 0,0 km/h (0 Bft)
24.05.2018 03:34 9,7 °C 95 % 1015,6 hPa 0,0 mm 0,0 km/h (0 Bft) S-SW 204 ° 0 min 0,000 mm 0,0 UV-I 0 W/m² 8,9 °C 9,7 °C 0,0 km/h (0 Bft)
24.05.2018 03:35 9,7 °C 95 % 1015,6 hPa 0,0 mm 0,0 km/h (0 Bft) S-SW 204 ° 0 min 0,000 mm 0,0 UV-I 0 W/m² 8,9 °C 9,7 °C 0,0 km/h (0 Bft)
24.05.2018 03:36 9,8 °C 95 % 1015,6 hPa 0,0 mm 0,0 km/h (0 Bft) S-SW 204 ° 0 min 0,000 mm 0,0 UV-I 0 W/m² 9,0 °C 9,8 °C 0,0 km/h (0 Bft)
24.05.2018 03:37 9,9 °C 95 % 1015,6 hPa 0,0 mm 0,0 km/h (0 Bft) S-SW 204 ° 0 min 0,000 mm 0,0 UV-I 0 W/m² 9,1 °C 9,9 °C 0,0 km/h (0 Bft)
24.05.2018 03:38 9,9 °C 95 % 1015,6 hPa 0,0 mm 0,0 km/h (0 Bft) S-SW 204 ° 0 min 0,000 mm 0,0 UV-I 0 W/m² 9,1 °C 9,9 °C 0,0 km/h (0 Bft)
24.05.2018 03:39 9,9 °C 95 % 1015,7 hPa 0,0 mm 0,0 km/h (0 Bft) S-SW 204 ° 0 min 0,000 mm 0,0 UV-I 0 W/m² 9,1 °C 9,9 °C 0,0 km/h (0 Bft)
24.05.2018 03:40 9,8 °C 95 % 1015,7 hPa 0,0 mm 0,0 km/h (0 Bft) S-SW 204 ° 0 min 0,000 mm 0,0 UV-I 0 W/m² 9,0 °C 9,8 °C 0,0 km/h (0 Bft)
24.05.2018 03:41 9,8 °C 94 % 1015,7 hPa 0,0 mm 0,0 km/h (0 Bft) S-SW 204 ° 0 min 0,000 mm 0,0 UV-I 0 W/m² 8,9 °C 9,8 °C 0,0 km/h (0 Bft)
24.05.2018 03:42 9,7 °C 94 % 1015,7 hPa 0,0 mm 0,0 km/h (0 Bft) S-SW 204 ° 0 min 0,000 mm 0,0 UV-I 0 W/m² 8,8 °C 9,7 °C 0,0 km/h (0 Bft)
24.05.2018 03:43 9,7 °C 94 % 1015,7 hPa 0,0 mm 0,0 km/h (0 Bft) S-SW 204 ° 0 min 0,000 mm 0,0 UV-I 0 W/m² 8,8 °C 9,7 °C 0,0 km/h (0 Bft)
24.05.2018 03:44 9,6 °C 94 % 1015,7 hPa 0,0 mm 0,0 km/h (0 Bft) S-SW 204 ° 0 min 0,000 mm 0,0 UV-I 0 W/m² 8,7 °C 9,6 °C 0,0 km/h (0 Bft)
24.05.2018 03:45 9,6 °C 94 % 1015,7 hPa 0,0 mm 0,0 km/h (0 Bft) S-SW 204 ° 0 min 0,000 mm 0,0 UV-I 0 W/m² 8,7 °C 9,6 °C 0,0 km/h (0 Bft)
24.05.2018 03:46 9,5 °C 94 % 1015,7 hPa 0,0 mm 0,0 km/h (0 Bft) S-SW 204 ° 0 min 0,000 mm 0,0 UV-I 0 W/m² 8,6 °C 9,5 °C 0,0 km/h (0 Bft)
24.05.2018 03:47 9,4 °C 94 % 1015,7 hPa 0,0 mm 0,0 km/h (0 Bft) S-SW 204 ° 0 min 0,000 mm 0,0 UV-I 0 W/m² 8,5 °C 9,4 °C 0,0 km/h (0 Bft)
24.05.2018 03:48 9,4 °C 94 % 1015,7 hPa 0,0 mm 0,0 km/h (0 Bft) S-SW 204 ° 0 min 0,000 mm 0,0 UV-I 0 W/m² 8,5 °C 9,4 °C 0,0 km/h (0 Bft)
24.05.2018 03:49 9,4 °C 95 % 1015,8 hPa 0,0 mm 0,0 km/h (0 Bft) S-SW 204 ° 0 min 0,000 mm 0,0 UV-I 0 W/m² 8,6 °C 9,4 °C 0,0 km/h (0 Bft)
24.05.2018 03:50 9,5 °C 95 % 1015,8 hPa 0,0 mm 0,0 km/h (0 Bft) S-SW 204 ° 0 min 0,000 mm 0,0 UV-I 0 W/m² 8,7 °C 9,5 °C 0,0 km/h (0 Bft)
24.05.2018 03:51 9,5 °C 95 % 1015,8 hPa 0,0 mm 0,0 km/h (0 Bft) S-SW 204 ° 0 min 0,000 mm 0,0 UV-I 0 W/m² 8,7 °C 9,5 °C 0,0 km/h (0 Bft)
24.05.2018 03:52 9,4 °C 95 % 1015,9 hPa 0,0 mm 0,0 km/h (0 Bft) S-SW 204 ° 0 min 0,000 mm 0,0 UV-I 0 W/m² 8,6 °C 9,4 °C 0,0 km/h (0 Bft)
24.05.2018 03:53 9,4 °C 94 % 1015,8 hPa 0,0 mm 0,0 km/h (0 Bft) S-SW 204 ° 0 min 0,000 mm 0,0 UV-I 0 W/m² 8,5 °C 9,4 °C 0,0 km/h (0 Bft)
24.05.2018 03:54 9,3 °C 94 % 1015,8 hPa 0,0 mm 0,0 km/h (0 Bft) S-SW 204 ° 0 min 0,000 mm 0,0 UV-I 0 W/m² 8,4 °C 9,3 °C 0,0 km/h (0 Bft)
24.05.2018 03:55 9,3 °C 94 % 1015,8 hPa 0,0 mm 0,0 km/h (0 Bft) S-SW 204 ° 0 min 0,000 mm 0,0 UV-I 0 W/m² 8,4 °C 9,3 °C 0,0 km/h (0 Bft)
24.05.2018 03:56 9,2 °C 95 % 1015,8 hPa 0,0 mm 0,0 km/h (0 Bft) S-SW 204 ° 0 min 0,000 mm 0,0 UV-I 0 W/m² 8,4 °C 9,2 °C 0,0 km/h (0 Bft)
24.05.2018 03:57 9,3 °C 95 % 1015,8 hPa 0,0 mm 0,0 km/h (0 Bft) S-SW 204 ° 0 min 0,000 mm 0,0 UV-I 0 W/m² 8,5 °C 9,3 °C 0,0 km/h (0 Bft)
24.05.2018 03:58 9,3 °C 95 % 1015,8 hPa 0,0 mm 0,0 km/h (0 Bft) S-SW 204 ° 0 min 0,000 mm 0,0 UV-I 0 W/m² 8,5 °C 9,3 °C 0,0 km/h (0 Bft)
24.05.2018 03:59 9,4 °C 95 % 1015,8 hPa 0,0 mm 0,0 km/h (0 Bft) S-SW 204 ° 0 min 0,000 mm 0,0 UV-I 0 W/m² 8,6 °C 9,4 °C 0,0 km/h (0 Bft)
24.05.2018 04:00 9,4 °C 95 % 1015,8 hPa 0,0 mm 0,0 km/h (0 Bft) S-SW 204 ° 0 min 0,000 mm 0,0 UV-I 0 W/m² 8,6 °C 9,4 °C 0,0 km/h (0 Bft)
24.05.2018 04:01 9,5 °C 95 % 1015,8 hPa 0,0 mm 0,0 km/h (0 Bft) S-SW 204 ° 0 min 0,000 mm 0,0 UV-I 0 W/m² 8,7 °C 9,5 °C 0,0 km/h (0 Bft)
24.05.2018 04:02 9,6 °C 95 % 1015,8 hPa 0,0 mm 0,0 km/h (0 Bft) S-SW 204 ° 0 min 0,000 mm 0,0 UV-I 0 W/m² 8,8 °C 9,6 °C 0,0 km/h (0 Bft)
24.05.2018 04:03 9,6 °C 95 % 1015,8 hPa 0,0 mm 0,0 km/h (0 Bft) S-SW 204 ° 0 min 0,000 mm 0,0 UV-I 0 W/m² 8,8 °C 9,6 °C 0,0 km/h (0 Bft)
24.05.2018 04:04 9,7 °C 95 % 1015,8 hPa 0,0 mm 0,0 km/h (0 Bft) S-SW 204 ° 0 min 0,000 mm 0,0 UV-I 0 W/m² 8,9 °C 9,7 °C 0,0 km/h (0 Bft)
24.05.2018 04:05 9,8 °C 95 % 1015,8 hPa 0,0 mm 0,0 km/h (0 Bft) S-SW 204 ° 0 min 0,000 mm 0,0 UV-I 0 W/m² 9,0 °C 9,8 °C 0,0 km/h (0 Bft)
24.05.2018 04:06 9,9 °C 95 % 1015,8 hPa 0,0 mm 2,4 km/h (1 Bft) S-SW 204 ° 0 min 0,000 mm 0,0 UV-I 0 W/m² 9,1 °C 9,9 °C 4,8 km/h (1 Bft)
24.05.2018 04:07 10,0 °C 95 % 1015,8 hPa 0,0 mm 1,8 km/h (1 Bft) S-SW 204 ° 0 min 0,000 mm 0,0 UV-I 0 W/m² 9,2 °C 10,0 °C 4,8 km/h (1 Bft)
24.05.2018 04:08 10,2 °C 95 % 1015,8 hPa 0,0 mm 2,0 km/h (1 Bft) S-SW 204 ° 0 min 0,000 mm 0,0 UV-I 0 W/m² 9,4 °C 10,2 °C 4,8 km/h (1 Bft)
24.05.2018 04:09 10,2 °C 95 % 1015,8 hPa 0,0 mm 4,7 km/h (1 Bft) S-SW 195 ° 0 min 0,000 mm 0,0 UV-I 0 W/m² 9,4 °C 10,2 °C 6,4 km/h (2 Bft)
24.05.2018 04:10 10,3 °C 95 % 1015,8 hPa 0,0 mm 5,2 km/h (1 Bft) S-SW 200 ° 0 min 0,000 mm 0,0 UV-I 0 W/m² 9,5 °C 10,3 °C 6,4 km/h (2 Bft)
24.05.2018 04:11 10,3 °C 95 % 1015,8 hPa 0,0 mm 3,5 km/h (1 Bft) S 188 ° 0 min 0,000 mm 0,0 UV-I 0 W/m² 9,5 °C 10,3 °C 6,4 km/h (2 Bft)
24.05.2018 04:12 10,3 °C 95 % 1015,8 hPa 0,0 mm 4,0 km/h (1 Bft) S-SW 197 ° 0 min 0,000 mm 0,0 UV-I 0 W/m² 9,5 °C 10,3 °C 6,4 km/h (2 Bft)
24.05.2018 04:13 10,3 °C 95 % 1015,8 hPa 0,0 mm 3,5 km/h (1 Bft) S-SW 197 ° 0 min 0,000 mm 0,0 UV-I 0 W/m² 9,5 °C 10,3 °C 4,8 km/h (1 Bft)
24.05.2018 04:14 10,3 °C 95 % 1015,8 hPa 0,0 mm 2,1 km/h (1 Bft) S-SW 197 ° 0 min 0,000 mm 0,0 UV-I 0 W/m² 9,5 °C 10,3 °C 3,2 km/h (1 Bft)
24.05.2018 04:15 10,4 °C 95 % 1015,8 hPa 0,0 mm 4,0 km/h (1 Bft) S-SW 194 ° 0 min 0,000 mm 0,0 UV-I 0 W/m² 9,6 °C 10,4 °C 4,8 km/h (1 Bft)
24.05.2018 04:16 10,4 °C 95 % 1015,8 hPa 0,0 mm 3,6 km/h (1 Bft) S 179 ° 0 min 0,000 mm 0,0 UV-I 0 W/m² 9,6 °C 10,4 °C 4,8 km/h (1 Bft)
24.05.2018 04:17 10,4 °C 95 % 1015,8 hPa 0,0 mm 3,2 km/h (1 Bft) S 179 ° 0 min 0,000 mm 0,0 UV-I 0 W/m² 9,6 °C 10,4 °C 4,8 km/h (1 Bft)
24.05.2018 04:18 10,4 °C 95 % 1015,8 hPa 0,0 mm 3,0 km/h (1 Bft) S 179 ° 0 min 0,000 mm 0,0 UV-I 0 W/m² 9,6 °C 10,4 °C 4,8 km/h (1 Bft)
24.05.2018 04:19 10,4 °C 95 % 1015,9 hPa 0,0 mm 3,1 km/h (1 Bft) S 179 ° 0 min 0,000 mm 0,0 UV-I 0 W/m² 9,6 °C 10,4 °C 4,8 km/h (1 Bft)
24.05.2018 04:20 10,5 °C 95 % 1015,9 hPa 0,0 mm 3,4 km/h (1 Bft) S 179 ° 0 min 0,000 mm 0,0 UV-I 0 W/m² 9,7 °C 10,5 °C 4,8 km/h (1 Bft)
24.05.2018 04:21 10,5 °C 95 % 1015,9 hPa 0,0 mm 2,1 km/h (1 Bft) S 179 ° 0 min 0,000 mm 0,0 UV-I 0 W/m² 9,7 °C 10,5 °C 3,2 km/h (1 Bft)
24.05.2018 04:22 10,6 °C 95 % 1016,0 hPa 0,0 mm 2,4 km/h (1 Bft) S 179 ° 0 min 0,000 mm 0,0 UV-I 0 W/m² 9,8 °C 10,6 °C 3,2 km/h (1 Bft)
24.05.2018 04:23 10,6 °C 95 % 1016,0 hPa 0,0 mm 2,5 km/h (1 Bft) S 179 ° 0 min 0,000 mm 0,0 UV-I 0 W/m² 9,8 °C 10,6 °C 3,2 km/h (1 Bft)
24.05.2018 04:24 10,6 °C 95 % 1015,9 hPa 0,0 mm 2,2 km/h (1 Bft) S 179 ° 0 min 0,000 mm 0,0 UV-I 0 W/m² 9,8 °C 10,6 °C 4,8 km/h (1 Bft)
24.05.2018 04:25 10,6 °C 95 % 1015,9 hPa 0,0 mm 2,7 km/h (1 Bft) S 179 ° 0 min 0,000 mm 0,0 UV-I 0 W/m² 9,8 °C 10,6 °C 4,8 km/h (1 Bft)
24.05.2018 04:26 10,5 °C 95 % 1015,9 hPa 0,0 mm 2,0 km/h (1 Bft) S 179 ° 0 min 0,000 mm 0,0 UV-I 0 W/m² 9,7 °C 10,5 °C 4,8 km/h (1 Bft)
24.05.2018 04:27 10,5 °C 95 % 1015,9 hPa 0,0 mm 1,3 km/h (1 Bft) S 179 ° 0 min 0,000 mm 0,0 UV-I 0 W/m² 9,7 °C 10,5 °C 3,2 km/h (1 Bft)
24.05.2018 04:28 10,5 °C 94 % 1015,9 hPa 0,0 mm 1,2 km/h (1 Bft) S 179 ° 0 min 0,000 mm 0,0 UV-I 0 W/m² 9,6 °C 10,5 °C 3,2 km/h (1 Bft)
24.05.2018 04:29 10,5 °C 95 % 1015,9 hPa 0,0 mm 0,0 km/h (0 Bft) S 179 ° 0 min 0,000 mm 0,0 UV-I 0 W/m² 9,7 °C 10,5 °C 0,0 km/h (0 Bft)
24.05.2018 04:30 10,5 °C 95 % 1015,9 hPa 0,0 mm 0,0 km/h (0 Bft) S 179 ° 0 min 0,000 mm 0,0 UV-I 0 W/m² 9,7 °C 10,5 °C 0,0 km/h (0 Bft)
24.05.2018 04:31 10,5 °C 95 % 1015,9 hPa 0,0 mm 0,0 km/h (0 Bft) S 179 ° 0 min 0,000 mm 0,0 UV-I 0 W/m² 9,7 °C 10,5 °C 0,0 km/h (0 Bft)
24.05.2018 04:32 10,5 °C 95 % 1015,8 hPa 0,0 mm 0,0 km/h (0 Bft) S 179 ° 0 min 0,000 mm 0,0 UV-I 0 W/m² 9,7 °C 10,5 °C 0,0 km/h (0 Bft)
24.05.2018 04:33 10,5 °C 95 % 1015,8 hPa 0,0 mm 0,0 km/h (0 Bft) S 179 ° 0 min 0,000 mm 0,0 UV-I 0 W/m² 9,7 °C 10,5 °C 0,0 km/h (0 Bft)
24.05.2018 04:34 10,6 °C 94 % 1015,8 hPa 0,0 mm 0,0 km/h (0 Bft) S 179 ° 0 min 0,000 mm 0,0 UV-I 0 W/m² 9,7 °C 10,6 °C 0,0 km/h (0 Bft)
24.05.2018 04:35 10,6 °C 94 % 1015,9 hPa 0,0 mm 0,0 km/h (0 Bft) S 179 ° 0 min 0,000 mm 0,0 UV-I 0 W/m² 9,7 °C 10,6 °C 0,0 km/h (0 Bft)
24.05.2018 04:36 10,6 °C 95 % 1015,8 hPa 0,0 mm 0,2 km/h (0 Bft) SW 229 ° 0 min 0,000 mm 0,0 UV-I 0 W/m² 9,8 °C 10,6 °C 3,2 km/h (1 Bft)
24.05.2018 04:37 10,5 °C 94 % 1015,8 hPa 0,0 mm 0,6 km/h (0 Bft) SW 229 ° 0 min 0,000 mm 0,0 UV-I 0 W/m² 9,6 °C 10,5 °C 3,2 km/h (1 Bft)
24.05.2018 04:38 10,6 °C 94 % 1015,8 hPa 0,0 mm 0,0 km/h (0 Bft) SW 229 ° 0 min 0,000 mm 0,0 UV-I 0 W/m² 9,7 °C 10,6 °C 0,0 km/h (0 Bft)
24.05.2018 04:39 10,5 °C 94 % 1015,9 hPa 0,0 mm 0,0 km/h (0 Bft) SW 229 ° 0 min 0,000 mm 0,0 UV-I 0 W/m² 9,6 °C 10,5 °C 0,0 km/h (0 Bft)
24.05.2018 04:40 10,4 °C 94 % 1015,9 hPa 0,0 mm 0,0 km/h (0 Bft) SW 229 ° 0 min 0,000 mm 0,0 UV-I 0 W/m² 9,5 °C 10,4 °C 0,0 km/h (0 Bft)
24.05.2018 04:41 10,4 °C 94 % 1015,9 hPa 0,0 mm 0,0 km/h (0 Bft) SW 229 ° 0 min 0,000 mm 0,0 UV-I 0 W/m² 9,5 °C 10,4 °C 0,0 km/h (0 Bft)
24.05.2018 04:42 10,4 °C 94 % 1015,9 hPa 0,0 mm 0,0 km/h (0 Bft) SW 229 ° 0 min 0,000 mm 0,0 UV-I 0 W/m² 9,5 °C 10,4 °C 0,0 km/h (0 Bft)
24.05.2018 04:43 10,4 °C 94 % 1015,9 hPa 0,0 mm 0,0 km/h (0 Bft) SW 229 ° 0 min 0,000 mm 0,0 UV-I 0 W/m² 9,5 °C 10,4 °C 0,0 km/h (0 Bft)
24.05.2018 04:44 10,4 °C 94 % 1015,9 hPa 0,0 mm 0,0 km/h (0 Bft) SW 229 ° 0 min 0,000 mm 0,0 UV-I 0 W/m² 9,5 °C 10,4 °C 0,0 km/h (0 Bft)
24.05.2018 04:45 10,3 °C 94 % 1015,9 hPa 0,0 mm 0,0 km/h (0 Bft) SW 229 ° 0 min 0,000 mm 0,0 UV-I 0 W/m² 9,4 °C 10,3 °C 0,0 km/h (0 Bft)
24.05.2018 04:46 10,3 °C 94 % 1015,9 hPa 0,0 mm 0,0 km/h (0 Bft) SW 229 ° 0 min 0,000 mm 0,0 UV-I 0 W/m² 9,4 °C 10,3 °C 0,0 km/h (0 Bft)
24.05.2018 04:47 10,3 °C 94 % 1015,9 hPa 0,0 mm 0,0 km/h (0 Bft) SW 229 ° 0 min 0,000 mm 0,0 UV-I 0 W/m² 9,4 °C 10,3 °C 0,0 km/h (0 Bft)
24.05.2018 04:48 10,3 °C 94 % 1015,8 hPa 0,0 mm 0,0 km/h (0 Bft) SW 229 ° 0 min 0,000 mm 0,0 UV-I 0 W/m² 9,4 °C 10,3 °C 0,0 km/h (0 Bft)
24.05.2018 04:49 10,3 °C 94 % 1015,8 hPa 0,0 mm 0,0 km/h (0 Bft) SW 229 ° 0 min 0,000 mm 0,0 UV-I 0 W/m² 9,4 °C 10,3 °C 0,0 km/h (0 Bft)
24.05.2018 04:50 10,3 °C 94 % 1015,8 hPa 0,0 mm 0,0 km/h (0 Bft) SW 229 ° 0 min 0,000 mm 0,0 UV-I 0 W/m² 9,4 °C 10,3 °C 0,0 km/h (0 Bft)
24.05.2018 04:51 10,3 °C 94 % 1015,8 hPa 0,0 mm 0,0 km/h (0 Bft) SW 229 ° 0 min 0,000 mm 0,0 UV-I 0 W/m² 9,4 °C 10,3 °C 0,0 km/h (0 Bft)
24.05.2018 04:52 10,3 °C 94 % 1015,8 hPa 0,0 mm 0,0 km/h (0 Bft) SW 229 ° 0 min 0,000 mm 0,0 UV-I 0 W/m² 9,4 °C 10,3 °C 0,0 km/h (0 Bft)
24.05.2018 04:53 10,3 °C 94 % 1015,8 hPa 0,0 mm 0,0 km/h (0 Bft) SW 229 ° 0 min 0,000 mm 0,0 UV-I 0 W/m² 9,4 °C 10,3 °C 0,0 km/h (0 Bft)
24.05.2018 04:54 10,3 °C 94 % 1015,8 hPa 0,0 mm 0,0 km/h (0 Bft) SW 229 ° 0 min 0,000 mm 0,0 UV-I 0 W/m² 9,4 °C 10,3 °C 0,0 km/h (0 Bft)
24.05.2018 04:55 10,3 °C 94 % 1015,8 hPa 0,0 mm 1,7 km/h (1 Bft) S-SW 192 ° 0 min 0,000 mm 0,0 UV-I 0 W/m² 9,4 °C 10,3 °C 6,4 km/h (2 Bft)
24.05.2018 04:56 10,4 °C 95 % 1015,8 hPa 0,0 mm 5,0 km/h (1 Bft) S-SW 203 ° 0 min 0,000 mm 0,0 UV-I 0 W/m² 9,6 °C 10,4 °C 8,0 km/h (2 Bft)
24.05.2018 04:57 10,4 °C 95 % 1015,8 hPa 0,0 mm 0,4 km/h (0 Bft) S-SW 203 ° 0 min 0,000 mm 0,0 UV-I 0 W/m² 9,6 °C 10,4 °C 1,6 km/h (1 Bft)
24.05.2018 04:58 10,4 °C 95 % 1015,7 hPa 0,0 mm 0,3 km/h (0 Bft) S-SW 202 ° 0 min 0,000 mm 0,0 UV-I 0 W/m² 9,6 °C 10,4 °C 1,6 km/h (1 Bft)
24.05.2018 04:59 10,5 °C 94 % 1015,8 hPa 0,0 mm 2,9 km/h (1 Bft) S 187 ° 0 min 0,000 mm 0,0 UV-I 0 W/m² 9,6 °C 10,5 °C 8,0 km/h (2 Bft)
24.05.2018 05:00 10,6 °C 94 % 1015,8 hPa 0,0 mm 6,9 km/h (2 Bft) S 187 ° 0 min 0,000 mm 0,0 UV-I 0 W/m² 9,7 °C 10,6 °C 8,0 km/h (2 Bft)
24.05.2018 05:01 10,6 °C 94 % 1015,8 hPa 0,0 mm 9,7 km/h (2 Bft) S-SW 192 ° 0 min 0,000 mm 0,0 UV-I 0 W/m² 9,7 °C 10,6 °C 12,9 km/h (3 Bft)
24.05.2018 05:02 10,7 °C 95 % 1015,8 hPa 0,0 mm 10,0 km/h (2 Bft) S 173 ° 0 min 0,000 mm 0,0 UV-I 0 W/m² 9,9 °C 10,7 °C 14,5 km/h (3 Bft)
24.05.2018 05:03 10,7 °C 95 % 1015,7 hPa 0,0 mm 5,1 km/h (1 Bft) S 184 ° 0 min 0,000 mm 0,0 UV-I 0 W/m² 9,9 °C 10,7 °C 9,7 km/h (2 Bft)
24.05.2018 05:04 10,8 °C 94 % 1015,7 hPa 0,0 mm 3,7 km/h (1 Bft) S-SW 194 ° 0 min 0,000 mm 0,0 UV-I 0 W/m² 9,9 °C 10,8 °C 6,4 km/h (2 Bft)
24.05.2018 05:05 10,9 °C 94 % 1015,7 hPa 0,0 mm 8,5 km/h (2 Bft) S 173 ° 0 min 0,000 mm 0,0 UV-I 0 W/m² 10,0 °C 10,9 °C 11,3 km/h (2 Bft)
24.05.2018 05:06 11,0 °C 94 % 1015,7 hPa 0,0 mm 9,1 km/h (2 Bft) S-SW 200 ° 0 min 0,000 mm 0,0 UV-I 0 W/m² 10,1 °C 11,0 °C 11,3 km/h (2 Bft)
24.05.2018 05:07 11,0 °C 94 % 1015,7 hPa 0,0 mm 8,9 km/h (2 Bft) S-SO 166 ° 0 min 0,000 mm 0,0 UV-I 0 W/m² 10,1 °C 11,0 °C 11,3 km/h (2 Bft)
24.05.2018 05:08 11,1 °C 94 % 1015,6 hPa 0,0 mm 3,7 km/h (1 Bft) S-SO 165 ° 0 min 0,000 mm 0,0 UV-I 0 W/m² 10,2 °C 11,1 °C 9,7 km/h (2 Bft)
24.05.2018 05:09 11,1 °C 94 % 1015,6 hPa 0,0 mm 2,7 km/h (1 Bft) S 188 ° 0 min 0,000 mm 0,0 UV-I 0 W/m² 10,2 °C 11,1 °C 6,4 km/h (2 Bft)
24.05.2018 05:10 11,2 °C 94 % 1015,6 hPa 0,0 mm 3,4 km/h (1 Bft) S-SO 163 ° 0 min 0,000 mm 0,0 UV-I 0 W/m² 10,3 °C 11,2 °C 8,0 km/h (2 Bft)
24.05.2018 05:11 11,2 °C 94 % 1015,6 hPa 0,0 mm 2,2 km/h (1 Bft) S-SW 198 ° 0 min 0,000 mm 0,0 UV-I 0 W/m² 10,3 °C 11,2 °C 6,4 km/h (2 Bft)
24.05.2018 05:12 11,3 °C 94 % 1015,6 hPa 0,0 mm 4,3 km/h (1 Bft) S-SW 192 ° 0 min 0,000 mm 0,0 UV-I 0 W/m² 10,4 °C 11,3 °C 8,0 km/h (2 Bft)
24.05.2018 05:13 11,3 °C 94 % 1015,6 hPa 0,0 mm 7,3 km/h (2 Bft) S 188 ° 0 min 0,000 mm 0,0 UV-I 0 W/m² 10,4 °C 11,3 °C 11,3 km/h (2 Bft)
24.05.2018 05:14 11,3 °C 93 % 1015,6 hPa 0,0 mm 3,3 km/h (1 Bft) S 182 ° 0 min 0,000 mm 0,0 UV-I 0 W/m² 10,2 °C 11,3 °C 6,4 km/h (2 Bft)
24.05.2018 05:15 11,3 °C 93 % 1015,6 hPa 0,0 mm 1,1 km/h (1 Bft) S 188 ° 0 min 0,000 mm 0,0 UV-I 0 W/m² 10,2 °C 11,3 °C 3,2 km/h (1 Bft)
24.05.2018 05:16 11,3 °C 93 % 1015,6 hPa 0,0 mm 3,4 km/h (1 Bft) S 191 ° 0 min 0,000 mm 0,0 UV-I 0 W/m² 10,2 °C 11,3 °C 9,7 km/h (2 Bft)
24.05.2018 05:17 11,3 °C 93 % 1015,6 hPa 0,0 mm 4,5 km/h (1 Bft) S-SW 198 ° 0 min 0,000 mm 0,0 UV-I 0 W/m² 10,2 °C 11,3 °C 8,0 km/h (2 Bft)
24.05.2018 05:18 11,3 °C 93 % 1015,6 hPa 0,0 mm 3,0 km/h (1 Bft) S-SW 195 ° 0 min 0,000 mm 0,0 UV-I 0 W/m² 10,2 °C 11,3 °C 4,8 km/h (1 Bft)
24.05.2018 05:19 11,3 °C 93 % 1015,6 hPa 0,0 mm 0,8 km/h (0 Bft) S-SW 198 ° 0 min 0,000 mm 0,0 UV-I 0 W/m² 10,2 °C 11,3 °C 3,2 km/h (1 Bft)
24.05.2018 05:20 11,4 °C 93 % 1015,6 hPa 0,0 mm 4,2 km/h (1 Bft) S 189 ° 0 min 0,000 mm 0,0 UV-I 0 W/m² 10,3 °C 11,4 °C 6,4 km/h (2 Bft)
24.05.2018 05:21 11,3 °C 93 % 1015,6 hPa 0,0 mm 1,5 km/h (1 Bft) S 189 ° 0 min 0,000 mm 0,0 UV-I 0 W/m² 10,2 °C 11,3 °C 4,8 km/h (1 Bft)
24.05.2018 05:22 11,3 °C 93 % 1015,6 hPa 0,0 mm 0,0 km/h (0 Bft) S 189 ° 0 min 0,000 mm 0,0 UV-I 0 W/m² 10,2 °C 11,3 °C 0,0 km/h (0 Bft)
24.05.2018 05:23 11,3 °C 93 % 1015,6 hPa 0,0 mm 2,5 km/h (1 Bft) S-SW 195 ° 0 min 0,000 mm 0,0 UV-I 0 W/m² 10,2 °C 11,3 °C 6,4 km/h (2 Bft)
24.05.2018 05:24 11,4 °C 92 % 1015,6 hPa 0,0 mm 4,2 km/h (1 Bft) S-SW 200 ° 0 min 0,000 mm 0,0 UV-I 0 W/m² 10,1 °C 11,4 °C 6,4 km/h (2 Bft)
24.05.2018 05:25 11,3 °C 92 % 1015,7 hPa 0,0 mm 1,5 km/h (1 Bft) S-SW 200 ° 0 min 0,000 mm 0,0 UV-I 0 W/m² 10,0 °C 11,3 °C 3,2 km/h (1 Bft)
24.05.2018 05:26 11,3 °C 92 % 1015,6 hPa 0,0 mm 0,1 km/h (0 Bft) S-SW 200 ° 0 min 0,000 mm 0,0 UV-I 0 W/m² 10,0 °C 11,3 °C 1,6 km/h (1 Bft)
24.05.2018 05:27 11,3 °C 92 % 1015,6 hPa 0,0 mm 0,1 km/h (0 Bft) S-SW 200 ° 0 min 0,000 mm 0,0 UV-I 0 W/m² 10,0 °C 11,3 °C 1,6 km/h (1 Bft)
24.05.2018 05:28 11,2 °C 92 % 1015,6 hPa 0,0 mm 0,1 km/h (0 Bft) S-SW 200 ° 0 min 0,000 mm 0,0 UV-I 0 W/m² 9,9 °C 11,2 °C 1,6 km/h (1 Bft)
24.05.2018 05:29 11,2 °C 92 % 1015,6 hPa 0,0 mm 1,3 km/h (1 Bft) S-SW 200 ° 0 min 0,000 mm 0,0 UV-I 0 W/m² 9,9 °C 11,2 °C 3,2 km/h (1 Bft)
24.05.2018 05:30 11,2 °C 92 % 1015,6 hPa 0,0 mm 0,5 km/h (0 Bft) S-SW 200 ° 0 min 0,000 mm 0,0 UV-I 0 W/m² 9,9 °C 11,2 °C 1,6 km/h (1 Bft)
24.05.2018 05:31 11,2 °C 92 % 1015,6 hPa 0,0 mm 0,1 km/h (0 Bft) S-SW 200 ° 0 min 0,000 mm 0,0 UV-I 0 W/m² 9,9 °C 11,2 °C 1,6 km/h (1 Bft)
24.05.2018 05:32 11,2 °C 92 % 1015,6 hPa 0,0 mm 0,0 km/h (0 Bft) S-SW 200 ° 0 min 0,000 mm 0,0 UV-I 0 W/m² 9,9 °C 11,2 °C 0,0 km/h (0 Bft)
24.05.2018 05:33 11,1 °C 92 % 1015,6 hPa 0,0 mm 0,0 km/h (0 Bft) S-SW 200 ° 0 min 0,000 mm 0,0 UV-I 0 W/m² 9,8 °C 11,1 °C 0,0 km/h (0 Bft)
24.05.2018 05:34 11,1 °C 92 % 1015,6 hPa 0,0 mm 0,0 km/h (0 Bft) S-SW 200 ° 0 min 0,000 mm 0,0 UV-I 0 W/m² 9,8 °C 11,1 °C 0,0 km/h (0 Bft)
24.05.2018 05:35 11,1 °C 92 % 1015,6 hPa 0,0 mm 0,0 km/h (0 Bft) S-SW 200 ° 0 min 0,000 mm 0,0 UV-I 0 W/m² 9,8 °C 11,1 °C 0,0 km/h (0 Bft)
24.05.2018 05:36 11,1 °C 92 % 1015,6 hPa 0,0 mm 0,0 km/h (0 Bft) S-SW 200 ° 0 min 0,000 mm 0,0 UV-I 0 W/m² 9,8 °C 11,1 °C 0,0 km/h (0 Bft)
24.05.2018 05:37 11,1 °C 92 % 1015,7 hPa 0,0 mm 0,7 km/h (0 Bft) S-SW 200 ° 0 min 0,000 mm 0,0 UV-I 5 W/m² 9,8 °C 11,1 °C 3,2 km/h (1 Bft)
24.05.2018 05:38 11,0 °C 92 % 1015,7 hPa 0,0 mm 0,1 km/h (0 Bft) S-SW 200 ° 0 min 0,000 mm 0,0 UV-I 5 W/m² 9,8 °C 11,0 °C 1,6 km/h (1 Bft)
24.05.2018 05:39 11,0 °C 92 % 1015,7 hPa 0,0 mm 0,0 km/h (0 Bft) S-SW 200 ° 0 min 0,000 mm 0,0 UV-I 5 W/m² 9,8 °C 11,0 °C 0,0 km/h (0 Bft)
24.05.2018 05:40 10,9 °C 92 % 1015,7 hPa 0,0 mm 0,0 km/h (0 Bft) S-SW 200 ° 0 min 0,000 mm 0,0 UV-I 5 W/m² 9,7 °C 10,9 °C 0,0 km/h (0 Bft)
24.05.2018 05:41 10,9 °C 93 % 1015,7 hPa 0,0 mm 0,0 km/h (0 Bft) S-SW 200 ° 0 min 0,000 mm 0,0 UV-I 7 W/m² 9,8 °C 10,9 °C 0,0 km/h (0 Bft)
24.05.2018 05:42 10,9 °C 92 % 1015,7 hPa 0,0 mm 0,0 km/h (0 Bft) S-SW 200 ° 0 min 0,000 mm 0,0 UV-I 7 W/m² 9,7 °C 10,9 °C 0,0 km/h (0 Bft)
24.05.2018 05:43 10,8 °C 92 % 1015,7 hPa 0,0 mm 0,0 km/h (0 Bft) S-SW 200 ° 0 min 0,000 mm 0,0 UV-I 7 W/m² 9,6 °C 10,8 °C 0,0 km/h (0 Bft)
24.05.2018 05:44 10,8 °C 93 % 1015,7 hPa 0,0 mm 0,0 km/h (0 Bft) S-SW 200 ° 0 min 0,000 mm 0,0 UV-I 9 W/m² 9,7 °C 10,8 °C 0,0 km/h (0 Bft)
24.05.2018 05:45 10,8 °C 93 % 1015,8 hPa 0,0 mm 0,0 km/h (0 Bft) S-SW 200 ° 0 min 0,000 mm 0,0 UV-I 9 W/m² 9,7 °C 10,8 °C 0,0 km/h (0 Bft)
24.05.2018 05:46 10,8 °C 93 % 1015,8 hPa 0,0 mm 0,0 km/h (0 Bft) S-SW 200 ° 0 min 0,000 mm 0,0 UV-I 9 W/m² 9,7 °C 10,8 °C 0,0 km/h (0 Bft)
24.05.2018 05:47 10,8 °C 93 % 1015,8 hPa 0,0 mm 0,0 km/h (0 Bft) S-SW 200 ° 0 min 0,000 mm 0,0 UV-I 11 W/m² 9,7 °C 10,8 °C 0,0 km/h (0 Bft)
24.05.2018 05:48 10,8 °C 93 % 1015,8 hPa 0,0 mm 0,0 km/h (0 Bft) S-SW 200 ° 0 min 0,000 mm 0,0 UV-I 11 W/m² 9,7 °C 10,8 °C 0,0 km/h (0 Bft)
24.05.2018 05:49 10,8 °C 93 % 1015,8 hPa 0,0 mm 0,0 km/h (0 Bft) S-SW 200 ° 0 min 0,000 mm 0,0 UV-I 11 W/m² 9,7 °C 10,8 °C 0,0 km/h (0 Bft)
24.05.2018 05:50 10,7 °C 93 % 1015,8 hPa 0,0 mm 0,0 km/h (0 Bft) S-SW 200 ° 0 min 0,000 mm 0,0 UV-I 12 W/m² 9,6 °C 10,7 °C 0,0 km/h (0 Bft)
24.05.2018 05:51 10,7 °C 93 % 1015,8 hPa 0,0 mm 0,0 km/h (0 Bft) S-SW 200 ° 0 min 0,000 mm 0,0 UV-I 12 W/m² 9,6 °C 10,7 °C 0,0 km/h (0 Bft)
24.05.2018 05:52 10,7 °C 93 % 1015,8 hPa 0,0 mm 0,0 km/h (0 Bft) S-SW 200 ° 0 min 0,000 mm 0,0 UV-I 14 W/m² 9,6 °C 10,7 °C 0,0 km/h (0 Bft)
24.05.2018 05:53 10,7 °C 93 % 1015,8 hPa 0,0 mm 0,0 km/h (0 Bft) S-SW 200 ° 0 min 0,000 mm 0,0 UV-I 14 W/m² 9,6 °C 10,7 °C 0,0 km/h (0 Bft)
24.05.2018 05:54 10,7 °C 93 % 1015,8 hPa 0,0 mm 0,0 km/h (0 Bft) S-SW 200 ° 0 min 0,000 mm 0,0 UV-I 16 W/m² 9,6 °C 10,7 °C 0,0 km/h (0 Bft)
24.05.2018 05:55 10,7 °C 93 % 1015,8 hPa 0,0 mm 0,0 km/h (0 Bft) S-SW 200 ° 0 min 0,000 mm 0,0 UV-I 18 W/m² 9,6 °C 10,7 °C 0,0 km/h (0 Bft)
24.05.2018 05:56 10,7 °C 93 % 1015,8 hPa 0,0 mm 0,0 km/h (0 Bft) S-SW 200 ° 0 min 0,000 mm 0,0 UV-I 19 W/m² 9,6 °C 10,7 °C 0,0 km/h (0 Bft)
24.05.2018 05:57 10,7 °C 93 % 1015,8 hPa 0,0 mm 0,0 km/h (0 Bft) S-SW 200 ° 0 min 0,000 mm 0,0 UV-I 21 W/m² 9,6 °C 10,7 °C 0,0 km/h (0 Bft)
24.05.2018 05:58 10,7 °C 93 % 1015,8 hPa 0,0 mm 0,0 km/h (0 Bft) S-SW 200 ° 0 min 0,000 mm 0,0 UV-I 21 W/m² 9,6 °C 10,7 °C 0,0 km/h (0 Bft)
24.05.2018 05:59 10,6 °C 93 % 1015,8 hPa 0,0 mm 0,0 km/h (0 Bft) S-SW 200 ° 0 min 0,000 mm 0,0 UV-I 21 W/m² 9,5 °C 10,6 °C 0,0 km/h (0 Bft)
24.05.2018 06:00 10,6 °C 93 % 1015,8 hPa 0,0 mm 0,0 km/h (0 Bft) S-SW 200 ° 0 min 0,000 mm 0,0 UV-I 21 W/m² 9,5 °C 10,6 °C 0,0 km/h (0 Bft)
24.05.2018 06:01 10,7 °C 93 % 1015,9 hPa 0,0 mm 0,0 km/h (0 Bft) S-SW 200 ° 0 min 0,000 mm 0,0 UV-I 19 W/m² 9,6 °C 10,7 °C 0,0 km/h (0 Bft)
24.05.2018 06:02 10,6 °C 93 % 1015,9 hPa 0,0 mm 0,0 km/h (0 Bft) S-SW 200 ° 0 min 0,000 mm 0,0 UV-I 19 W/m² 9,5 °C 10,6 °C 0,0 km/h (0 Bft)
24.05.2018 06:03 10,6 °C 93 % 1015,9 hPa 0,0 mm 0,0 km/h (0 Bft) S-SW 200 ° 0 min 0,000 mm 0,0 UV-I 19 W/m² 9,5 °C 10,6 °C 0,0 km/h (0 Bft)
24.05.2018 06:04 10,6 °C 93 % 1015,9 hPa 0,0 mm 0,0 km/h (0 Bft) S-SW 200 ° 0 min 0,000 mm 0,0 UV-I 19 W/m² 9,5 °C 10,6 °C 0,0 km/h (0 Bft)
24.05.2018 06:05 10,6 °C 93 % 1015,9 hPa 0,0 mm 0,0 km/h (0 Bft) S-SW 200 ° 0 min 0,000 mm 0,0 UV-I 19 W/m² 9,5 °C 10,6 °C 0,0 km/h (0 Bft)
24.05.2018 06:06 10,6 °C 93 % 1015,9 hPa 0,0 mm 0,0 km/h (0 Bft) S-SW 200 ° 0 min 0,000 mm 0,0 UV-I 19 W/m² 9,5 °C 10,6 °C 0,0 km/h (0 Bft)
24.05.2018 06:07 10,7 °C 93 % 1015,9 hPa 0,0 mm 0,0 km/h (0 Bft) S-SW 200 ° 0 min 0,000 mm 0,0 UV-I 19 W/m² 9,6 °C 10,7 °C 0,0 km/h (0 Bft)
24.05.2018 06:08 10,7 °C 94 % 1015,9 hPa 0,0 mm 0,0 km/h (0 Bft) S-SW 200 ° 0 min 0,000 mm 0,0 UV-I 19 W/m² 9,8 °C 10,7 °C 0,0 km/h (0 Bft)
24.05.2018 06:09 10,6 °C 94 % 1015,9 hPa 0,0 mm 0,0 km/h (0 Bft) S-SW 200 ° 0 min 0,000 mm 0,0 UV-I 19 W/m² 9,7 °C 10,6 °C 0,0 km/h (0 Bft)
24.05.2018 06:10 10,7 °C 94 % 1015,9 hPa 0,0 mm 0,0 km/h (0 Bft) S-SW 200 ° 0 min 0,000 mm 0,0 UV-I 19 W/m² 9,8 °C 10,7 °C 0,0 km/h (0 Bft)
24.05.2018 06:11 10,7 °C 94 % 1015,8 hPa 0,0 mm 0,0 km/h (0 Bft) S-SW 200 ° 0 min 0,000 mm 0,0 UV-I 21 W/m² 9,8 °C 10,7 °C 0,0 km/h (0 Bft)
24.05.2018 06:12 10,7 °C 94 % 1015,8 hPa 0,0 mm 0,0 km/h (0 Bft) S-SW 200 ° 0 min 0,000 mm 0,0 UV-I 21 W/m² 9,8 °C 10,7 °C 0,0 km/h (0 Bft)
24.05.2018 06:13 10,7 °C 94 % 1015,8 hPa 0,0 mm 0,0 km/h (0 Bft) S-SW 200 ° 0 min 0,000 mm 0,0 UV-I 23 W/m² 9,8 °C 10,7 °C 0,0 km/h (0 Bft)
24.05.2018 06:14 10,7 °C 94 % 1015,9 hPa 0,0 mm 0,0 km/h (0 Bft) S-SW 200 ° 0 min 0,000 mm 0,0 UV-I 23 W/m² 9,8 °C 10,7 °C 0,0 km/h (0 Bft)
24.05.2018 06:15 10,7 °C 93 % 1015,8 hPa 0,0 mm 0,0 km/h (0 Bft) S-SW 200 ° 0 min 0,000 mm 0,0 UV-I 25 W/m² 9,6 °C 10,7 °C 0,0 km/h (0 Bft)
24.05.2018 06:16 10,7 °C 94 % 1015,8 hPa 0,0 mm 0,0 km/h (0 Bft) S-SW 200 ° 0 min 0,000 mm 0,0 UV-I 26 W/m² 9,8 °C 10,7 °C 0,0 km/h (0 Bft)
24.05.2018 06:17 10,7 °C 94 % 1015,9 hPa 0,0 mm 0,0 km/h (0 Bft) S-SW 200 ° 0 min 0,000 mm 0,0 UV-I 26 W/m² 9,8 °C 10,7 °C 0,0 km/h (0 Bft)
24.05.2018 06:18 10,7 °C 94 % 1015,8 hPa 0,0 mm 0,0 km/h (0 Bft) S-SW 200 ° 0 min 0,000 mm 0,0 UV-I 28 W/m² 9,8 °C 10,7 °C 0,0 km/h (0 Bft)
24.05.2018 06:19 10,7 °C 94 % 1015,8 hPa 0,0 mm 0,0 km/h (0 Bft) S-SW 200 ° 0 min 0,000 mm 0,0 UV-I 30 W/m² 9,8 °C 10,7 °C 0,0 km/h (0 Bft)
24.05.2018 06:20 10,7 °C 94 % 1015,9 hPa 0,0 mm 0,0 km/h (0 Bft) S-SW 200 ° 0 min 0,000 mm 0,0 UV-I 30 W/m² 9,8 °C 10,7 °C 0,0 km/h (0 Bft)
24.05.2018 06:21 10,7 °C 94 % 1015,9 hPa 0,0 mm 0,0 km/h (0 Bft) S-SW 200 ° 0 min 0,000 mm 0,0 UV-I 32 W/m² 9,8 °C 10,7 °C 0,0 km/h (0 Bft)
24.05.2018 06:22 10,7 °C 94 % 1015,9 hPa 0,0 mm 0,0 km/h (0 Bft) S-SW 200 ° 0 min 0,000 mm 0,0 UV-I 32 W/m² 9,8 °C 10,7 °C 0,0 km/h (0 Bft)
24.05.2018 06:23 10,7 °C 94 % 1015,9 hPa 0,0 mm 0,0 km/h (0 Bft) S-SW 200 ° 0 min 0,000 mm 0,0 UV-I 32 W/m² 9,8 °C 10,7 °C 0,0 km/h (0 Bft)
24.05.2018 06:24 10,7 °C 94 % 1015,9 hPa 0,0 mm 0,0 km/h (0 Bft) S-SW 200 ° 0 min 0,000 mm 0,0 UV-I 32 W/m² 9,8 °C 10,7 °C 0,0 km/h (0 Bft)
24.05.2018 06:25 10,7 °C 94 % 1015,9 hPa 0,0 mm 0,0 km/h (0 Bft) S-SW 200 ° 0 min 0,000 mm 0,0 UV-I 33 W/m² 9,8 °C 10,7 °C 0,0 km/h (0 Bft)
24.05.2018 06:26 10,7 °C 94 % 1015,9 hPa 0,0 mm 0,0 km/h (0 Bft) S-SW 200 ° 0 min 0,000 mm 0,0 UV-I 33 W/m² 9,8 °C 10,7 °C 0,0 km/h (0 Bft)
24.05.2018 06:27 10,7 °C 94 % 1015,9 hPa 0,0 mm 0,0 km/h (0 Bft) S-SW 200 ° 0 min 0,000 mm 0,0 UV-I 33 W/m² 9,8 °C 10,7 °C 0,0 km/h (0 Bft)
24.05.2018 06:28 10,7 °C 94 % 1016,0 hPa 0,0 mm 0,0 km/h (0 Bft) S-SW 200 ° 0 min 0,000 mm 0,0 UV-I 33 W/m² 9,8 °C 10,7 °C 0,0 km/h (0 Bft)
24.05.2018 06:29 10,7 °C 94 % 1015,9 hPa 0,0 mm 0,0 km/h (0 Bft) S-SW 200 ° 0 min 0,000 mm 0,0 UV-I 32 W/m² 9,8 °C 10,7 °C 0,0 km/h (0 Bft)
24.05.2018 06:30 10,7 °C 94 % 1016,0 hPa 0,0 mm 0,0 km/h (0 Bft) S-SW 200 ° 0 min 0,000 mm 0,0 UV-I 32 W/m² 9,8 °C 10,7 °C 0,0 km/h (0 Bft)
24.05.2018 06:31 10,8 °C 94 % 1015,9 hPa 0,0 mm 0,0 km/h (0 Bft) S-SW 200 ° 0 min 0,000 mm 0,0 UV-I 32 W/m² 9,9 °C 10,8 °C 0,0 km/h (0 Bft)
24.05.2018 06:32 10,8 °C 94 % 1015,9 hPa 0,0 mm 0,0 km/h (0 Bft) S-SW 200 ° 0 min 0,000 mm 0,0 UV-I 32 W/m² 9,9 °C 10,8 °C 0,0 km/h (0 Bft)
24.05.2018 06:33 10,8 °C 94 % 1015,9 hPa 0,0 mm 0,0 km/h (0 Bft) S-SW 200 ° 0 min 0,000 mm 0,0 UV-I 32 W/m² 9,9 °C 10,8 °C 0,0 km/h (0 Bft)
24.05.2018 06:34 10,8 °C 94 % 1015,9 hPa 0,0 mm 0,0 km/h (0 Bft) S-SW 200 ° 0 min 0,000 mm 0,0 UV-I 32 W/m² 9,9 °C 10,8 °C 0,0 km/h (0 Bft)
24.05.2018 06:35 10,8 °C 94 % 1015,9 hPa 0,0 mm 0,0 km/h (0 Bft) S-SW 200 ° 0 min 0,000 mm 0,0 UV-I 32 W/m² 9,9 °C 10,8 °C 0,0 km/h (0 Bft)
24.05.2018 06:36 10,8 °C 94 % 1016,0 hPa 0,0 mm 0,0 km/h (0 Bft) S-SW 200 ° 0 min 0,000 mm 0,0 UV-I 32 W/m² 9,9 °C 10,8 °C 0,0 km/h (0 Bft)
24.05.2018 06:37 10,8 °C 94 % 1015,9 hPa 0,0 mm 0,0 km/h (0 Bft) S-SW 200 ° 0 min 0,000 mm 0,0 UV-I 33 W/m² 9,9 °C 10,8 °C 0,0 km/h (0 Bft)
24.05.2018 06:38 10,7 °C 94 % 1016,0 hPa 0,0 mm 0,0 km/h (0 Bft) S-SW 200 ° 0 min 0,000 mm 0,0 UV-I 33 W/m² 9,8 °C 10,7 °C 0,0 km/h (0 Bft)
24.05.2018 06:39 10,8 °C 94 % 1016,0 hPa 0,0 mm 0,0 km/h (0 Bft) S-SW 200 ° 0 min 0,000 mm 0,0 UV-I 33 W/m² 9,9 °C 10,8 °C 0,0 km/h (0 Bft)
24.05.2018 06:40 10,8 °C 94 % 1015,9 hPa 0,0 mm 0,0 km/h (0 Bft) S-SW 200 ° 0 min 0,000 mm 0,0 UV-I 35 W/m² 9,9 °C 10,8 °C 0,0 km/h (0 Bft)
24.05.2018 06:41 10,8 °C 94 % 1015,9 hPa 0,0 mm 0,0 km/h (0 Bft) S-SW 200 ° 0 min 0,000 mm 0,0 UV-I 37 W/m² 9,9 °C 10,8 °C 0,0 km/h (0 Bft)
24.05.2018 06:42 10,8 °C 94 % 1015,9 hPa 0,0 mm 0,0 km/h (0 Bft) S-SW 200 ° 0 min 0,000 mm 0,0 UV-I 37 W/m² 9,9 °C 10,8 °C 0,0 km/h (0 Bft)
24.05.2018 06:43 10,8 °C 94 % 1015,9 hPa 0,0 mm 0,0 km/h (0 Bft) S-SW 200 ° 0 min 0,000 mm 0,0 UV-I 39 W/m² 9,9 °C 10,8 °C 0,0 km/h (0 Bft)
24.05.2018 06:44 10,8 °C 94 % 1015,9 hPa 0,0 mm 0,0 km/h (0 Bft) S-SW 200 ° 0 min 0,000 mm 0,0 UV-I 40 W/m² 9,9 °C 10,8 °C 0,0 km/h (0 Bft)
24.05.2018 06:45 10,9 °C 94 % 1016,0 hPa 0,0 mm 0,0 km/h (0 Bft) S-SW 200 ° 0 min 0,000 mm 0,0 UV-I 40 W/m² 10,0 °C 10,9 °C 0,0 km/h (0 Bft)
24.05.2018 06:46 10,9 °C 94 % 1016,0 hPa 0,0 mm 0,0 km/h (0 Bft) S-SW 200 ° 0 min 0,000 mm 0,0 UV-I 40 W/m² 10,0 °C 10,9 °C 0,0 km/h (0 Bft)
24.05.2018 06:47 10,9 °C 94 % 1016,0 hPa 0,0 mm 0,0 km/h (0 Bft) S-SW 200 ° 0 min 0,000 mm 0,0 UV-I 40 W/m² 10,0 °C 10,9 °C 0,0 km/h (0 Bft)
24.05.2018 06:48 10,9 °C 94 % 1016,1 hPa 0,0 mm 0,0 km/h (0 Bft) S-SW 200 ° 0 min 0,000 mm 0,0 UV-I 42 W/m² 10,0 °C 10,9 °C 0,0 km/h (0 Bft)
24.05.2018 06:49 10,9 °C 94 % 1016,1 hPa 0,0 mm 0,0 km/h (0 Bft) S-SW 200 ° 0 min 0,000 mm 0,0 UV-I 42 W/m² 10,0 °C 10,9 °C 0,0 km/h (0 Bft)
24.05.2018 06:50 11,0 °C 94 % 1016,1 hPa 0,0 mm 0,0 km/h (0 Bft) S-SW 200 ° 0 min 0,000 mm 0,0 UV-I 42 W/m² 10,1 °C 11,0 °C 0,0 km/h (0 Bft)
24.05.2018 06:51 11,0 °C 94 % 1016,1 hPa 0,0 mm 0,0 km/h (0 Bft) S-SW 200 ° 0 min 0,000 mm 0,0 UV-I 44 W/m² 10,1 °C 11,0 °C 0,0 km/h (0 Bft)
24.05.2018 06:52 11,0 °C 94 % 1016,1 hPa 0,0 mm 0,0 km/h (0 Bft) S-SW 200 ° 0 min 0,000 mm 0,0 UV-I 44 W/m² 10,1 °C 11,0 °C 0,0 km/h (0 Bft)
24.05.2018 06:53 11,1 °C 94 % 1016,1 hPa 0,0 mm 0,0 km/h (0 Bft) S-SW 200 ° 0 min 0,000 mm 0,0 UV-I 46 W/m² 10,2 °C 11,1 °C 0,0 km/h (0 Bft)
24.05.2018 06:54 11,1 °C 94 % 1016,1 hPa 0,0 mm 0,0 km/h (0 Bft) S-SW 200 ° 0 min 0,000 mm 0,0 UV-I 46 W/m² 10,2 °C 11,1 °C 0,0 km/h (0 Bft)
24.05.2018 06:55 11,1 °C 94 % 1016,0 hPa 0,0 mm 0,0 km/h (0 Bft) S-SW 200 ° 0 min 0,000 mm 0,0 UV-I 47 W/m² 10,2 °C 11,1 °C 0,0 km/h (0 Bft)
24.05.2018 06:56 11,1 °C 94 % 1016,1 hPa 0,0 mm 0,0 km/h (0 Bft) S-SW 200 ° 0 min 0,000 mm 0,0 UV-I 47 W/m² 10,2 °C 11,1 °C 0,0 km/h (0 Bft)
24.05.2018 06:57 11,1 °C 94 % 1016,1 hPa 0,0 mm 0,0 km/h (0 Bft) S-SW 200 ° 0 min 0,000 mm 0,0 UV-I 49 W/m² 10,2 °C 11,1 °C 0,0 km/h (0 Bft)
24.05.2018 06:58 11,2 °C 94 % 1016,1 hPa 0,0 mm 0,0 km/h (0 Bft) S-SW 200 ° 0 min 0,000 mm 0,0 UV-I 49 W/m² 10,3 °C 11,2 °C 0,0 km/h (0 Bft)
24.05.2018 06:59 11,2 °C 94 % 1016,1 hPa 0,0 mm 0,0 km/h (0 Bft) S-SW 200 ° 0 min 0,000 mm 0,0 UV-I 49 W/m² 10,3 °C 11,2 °C 0,0 km/h (0 Bft)
24.05.2018 07:00 11,2 °C 94 % 1016,1 hPa 0,0 mm 0,0 km/h (0 Bft) S-SW 200 ° 0 min 0,025 mm 0,0 UV-I 49 W/m² 10,3 °C 11,2 °C 0,0 km/h (0 Bft)
24.05.2018 07:01 11,2 °C 94 % 1016,1 hPa 0,0 mm 0,0 km/h (0 Bft) S-SW 200 ° 0 min 0,000 mm 0,0 UV-I 51 W/m² 10,3 °C 11,2 °C 0,0 km/h (0 Bft)
24.05.2018 07:02 11,2 °C 94 % 1016,2 hPa 0,0 mm 0,0 km/h (0 Bft) S-SW 200 ° 0 min 0,000 mm 0,0 UV-I 51 W/m² 10,3 °C 11,2 °C 0,0 km/h (0 Bft)
24.05.2018 07:03 11,3 °C 94 % 1016,2 hPa 0,0 mm 0,0 km/h (0 Bft) S-SW 200 ° 0 min 0,000 mm 0,0 UV-I 51 W/m² 10,4 °C 11,3 °C 0,0 km/h (0 Bft)
24.05.2018 07:04 11,2 °C 94 % 1016,1 hPa 0,0 mm 0,0 km/h (0 Bft) S-SW 200 ° 0 min 0,000 mm 0,0 UV-I 49 W/m² 10,3 °C 11,2 °C 0,0 km/h (0 Bft)
24.05.2018 07:05 11,3 °C 94 % 1016,1 hPa 0,0 mm 0,0 km/h (0 Bft) S-SW 200 ° 0 min 0,000 mm 0,0 UV-I 49 W/m² 10,4 °C 11,3 °C 0,0 km/h (0 Bft)
24.05.2018 07:06 11,3 °C 94 % 1016,2 hPa 0,0 mm 0,0 km/h (0 Bft) S-SW 200 ° 0 min 0,000 mm 0,0 UV-I 49 W/m² 10,4 °C 11,3 °C 0,0 km/h (0 Bft)
24.05.2018 07:07 11,3 °C 94 % 1016,2 hPa 0,0 mm 0,0 km/h (0 Bft) S-SW 200 ° 0 min 0,000 mm 0,0 UV-I 49 W/m² 10,4 °C 11,3 °C 0,0 km/h (0 Bft)
24.05.2018 07:08 11,3 °C 94 % 1016,1 hPa 0,0 mm 0,0 km/h (0 Bft) S-SW 200 ° 0 min 0,000 mm 0,0 UV-I 47 W/m² 10,4 °C 11,3 °C 0,0 km/h (0 Bft)
24.05.2018 07:09 11,4 °C 94 % 1016,1 hPa 0,0 mm 0,0 km/h (0 Bft) S-SW 200 ° 0 min 0,000 mm 0,0 UV-I 47 W/m² 10,5 °C 11,4 °C 0,0 km/h (0 Bft)
24.05.2018 07:10 11,4 °C 94 % 1016,2 hPa 0,0 mm 0,0 km/h (0 Bft) S-SW 200 ° 0 min 0,000 mm 0,0 UV-I 47 W/m² 10,5 °C 11,4 °C 0,0 km/h (0 Bft)
24.05.2018 07:11 11,4 °C 94 % 1016,1 hPa 0,0 mm 0,0 km/h (0 Bft) S-SW 200 ° 0 min 0,000 mm 0,0 UV-I 47 W/m² 10,5 °C 11,4 °C 0,0 km/h (0 Bft)
24.05.2018 07:12 11,5 °C 94 % 1016,2 hPa 0,0 mm 0,0 km/h (0 Bft) S-SW 200 ° 0 min 0,000 mm 0,0 UV-I 49 W/m² 10,6 °C 11,5 °C 0,0 km/h (0 Bft)
24.05.2018 07:13 11,5 °C 94 % 1016,2 hPa 0,0 mm 0,0 km/h (0 Bft) S-SW 200 ° 0 min 0,000 mm 0,0 UV-I 49 W/m² 10,6 °C 11,5 °C 0,0 km/h (0 Bft)
24.05.2018 07:14 11,6 °C 94 % 1016,2 hPa 0,0 mm 0,0 km/h (0 Bft) S-SW 200 ° 0 min 0,000 mm 0,0 UV-I 49 W/m² 10,7 °C 11,6 °C 0,0 km/h (0 Bft)
24.05.2018 07:15 11,6 °C 94 % 1016,2 hPa 0,0 mm 0,0 km/h (0 Bft) S-SW 200 ° 0 min 0,000 mm 0,0 UV-I 51 W/m² 10,7 °C 11,6 °C 0,0 km/h (0 Bft)
24.05.2018 07:16 11,6 °C 94 % 1016,2 hPa 0,0 mm 0,0 km/h (0 Bft) S-SW 200 ° 0 min 0,000 mm 0,0 UV-I 53 W/m² 10,7 °C 11,6 °C 0,0 km/h (0 Bft)
24.05.2018 07:17 11,6 °C 94 % 1016,2 hPa 0,0 mm 0,0 km/h (0 Bft) S-SW 200 ° 0 min 0,000 mm 0,0 UV-I 54 W/m² 10,7 °C 11,6 °C 0,0 km/h (0 Bft)
24.05.2018 07:18 11,6 °C 94 % 1016,2 hPa 0,0 mm 0,0 km/h (0 Bft) S-SW 200 ° 0 min 0,000 mm 0,0 UV-I 58 W/m² 10,7 °C 11,6 °C 0,0 km/h (0 Bft)
24.05.2018 07:19 11,6 °C 94 % 1016,2 hPa 0,0 mm 0,0 km/h (0 Bft) S-SW 200 ° 0 min 0,000 mm 0,0 UV-I 60 W/m² 10,7 °C 11,6 °C 0,0 km/h (0 Bft)
24.05.2018 07:20 11,7 °C 94 % 1016,2 hPa 0,0 mm 0,0 km/h (0 Bft) S-SW 200 ° 0 min 0,000 mm 0,0 UV-I 62 W/m² 10,8 °C 11,7 °C 0,0 km/h (0 Bft)
24.05.2018 07:21 11,7 °C 94 % 1016,2 hPa 0,0 mm 0,0 km/h (0 Bft) S-SW 200 ° 0 min 0,000 mm 0,0 UV-I 63 W/m² 10,8 °C 11,7 °C 0,0 km/h (0 Bft)
24.05.2018 07:22 11,7 °C 94 % 1016,2 hPa 0,0 mm 0,0 km/h (0 Bft) S-SW 200 ° 0 min 0,000 mm 0,0 UV-I 63 W/m² 10,8 °C 11,7 °C 0,0 km/h (0 Bft)
24.05.2018 07:23 11,7 °C 94 % 1016,2 hPa 0,0 mm 0,0 km/h (0 Bft) S-SW 200 ° 0 min 0,000 mm 0,0 UV-I 65 W/m² 10,8 °C 11,7 °C 0,0 km/h (0 Bft)
24.05.2018 07:24 11,7 °C 94 % 1016,2 hPa 0,0 mm 0,0 km/h (0 Bft) S-SW 200 ° 0 min 0,000 mm 0,0 UV-I 65 W/m² 10,8 °C 11,7 °C 0,0 km/h (0 Bft)
24.05.2018 07:25 11,7 °C 94 % 1016,2 hPa 0,0 mm 0,0 km/h (0 Bft) S-SW 200 ° 0 min 0,000 mm 0,0 UV-I 63 W/m² 10,8 °C 11,7 °C 0,0 km/h (0 Bft)
24.05.2018 07:26 11,8 °C 94 % 1016,2 hPa 0,0 mm 0,0 km/h (0 Bft) S-SW 200 ° 0 min 0,000 mm 0,0 UV-I 63 W/m² 10,9 °C 11,8 °C 0,0 km/h (0 Bft)
24.05.2018 07:27 11,8 °C 94 % 1016,3 hPa 0,0 mm 0,0 km/h (0 Bft) S-SW 200 ° 0 min 0,000 mm 0,0 UV-I 62 W/m² 10,9 °C 11,8 °C 0,0 km/h (0 Bft)
24.05.2018 07:28 11,8 °C 94 % 1016,3 hPa 0,0 mm 0,0 km/h (0 Bft) S-SW 200 ° 0 min 0,000 mm 0,0 UV-I 62 W/m² 10,9 °C 11,8 °C 0,0 km/h (0 Bft)
24.05.2018 07:29 11,8 °C 94 % 1016,3 hPa 0,0 mm 0,0 km/h (0 Bft) S-SW 200 ° 0 min 0,000 mm 0,0 UV-I 62 W/m² 10,9 °C 11,8 °C 0,0 km/h (0 Bft)
24.05.2018 07:30 11,8 °C 94 % 1016,3 hPa 0,0 mm 0,0 km/h (0 Bft) S-SW 200 ° 0 min 0,000 mm 0,0 UV-I 63 W/m² 10,9 °C 11,8 °C 0,0 km/h (0 Bft)
24.05.2018 07:31 11,9 °C 94 % 1016,3 hPa 0,0 mm 0,0 km/h (0 Bft) S-SW 200 ° 0 min 0,000 mm 0,0 UV-I 67 W/m² 11,0 °C 11,9 °C 0,0 km/h (0 Bft)
24.05.2018 07:32 11,9 °C 94 % 1016,3 hPa 0,0 mm 0,0 km/h (0 Bft) S-SW 200 ° 0 min 0,000 mm 0,0 UV-I 69 W/m² 11,0 °C 11,9 °C 0,0 km/h (0 Bft)
24.05.2018 07:33 11,9 °C 94 % 1016,3 hPa 0,0 mm 0,0 km/h (0 Bft) S-SW 200 ° 0 min 0,000 mm 0,5 UV-I 72 W/m² 11,0 °C 11,9 °C 0,0 km/h (0 Bft)
24.05.2018 07:34 11,9 °C 94 % 1016,4 hPa 0,0 mm 0,0 km/h (0 Bft) S-SW 200 ° 0 min 0,000 mm 0,5 UV-I 76 W/m² 11,0 °C 11,9 °C 0,0 km/h (0 Bft)
24.05.2018 07:35 11,9 °C 94 % 1016,4 hPa 0,0 mm 0,0 km/h (0 Bft) S-SW 200 ° 0 min 0,000 mm 0,5 UV-I 81 W/m² 11,0 °C 11,9 °C 0,0 km/h (0 Bft)
24.05.2018 07:36 11,9 °C 94 % 1016,3 hPa 0,0 mm 0,0 km/h (0 Bft) S-SW 200 ° 0 min 0,000 mm 0,5 UV-I 84 W/m² 11,0 °C 11,9 °C 0,0 km/h (0 Bft)
24.05.2018 07:37 12,0 °C 94 % 1016,3 hPa 0,0 mm 0,0 km/h (0 Bft) S-SW 200 ° 0 min 0,000 mm 0,5 UV-I 86 W/m² 11,1 °C 12,0 °C 0,0 km/h (0 Bft)
24.05.2018 07:38 12,1 °C 94 % 1016,3 hPa 0,0 mm 0,0 km/h (0 Bft) S-SW 200 ° 0 min 0,000 mm 0,6 UV-I 88 W/m² 11,2 °C 12,1 °C 0,0 km/h (0 Bft)
24.05.2018 07:39 12,1 °C 93 % 1016,3 hPa 0,0 mm 0,0 km/h (0 Bft) S-SW 200 ° 0 min 0,000 mm 0,6 UV-I 91 W/m² 11,0 °C 12,1 °C 0,0 km/h (0 Bft)
24.05.2018 07:40 12,2 °C 93 % 1016,3 hPa 0,0 mm 0,0 km/h (0 Bft) S-SW 200 ° 0 min 0,000 mm 0,6 UV-I 93 W/m² 11,1 °C 12,2 °C 0,0 km/h (0 Bft)
24.05.2018 07:41 12,2 °C 93 % 1016,4 hPa 0,0 mm 0,0 km/h (0 Bft) S-SW 200 ° 0 min 0,000 mm 0,6 UV-I 95 W/m² 11,1 °C 12,2 °C 0,0 km/h (0 Bft)
24.05.2018 07:42 12,2 °C 94 % 1016,4 hPa 0,0 mm 0,0 km/h (0 Bft) S-SW 200 ° 0 min 0,000 mm 0,6 UV-I 95 W/m² 11,3 °C 12,2 °C 0,0 km/h (0 Bft)
24.05.2018 07:43 12,2 °C 93 % 1016,4 hPa 0,0 mm 0,0 km/h (0 Bft) S-SW 200 ° 0 min 0,000 mm 0,6 UV-I 95 W/m² 11,1 °C 12,2 °C 0,0 km/h (0 Bft)
24.05.2018 07:44 12,2 °C 93 % 1016,4 hPa 0,0 mm 0,0 km/h (0 Bft) S-SW 200 ° 0 min 0,000 mm 0,6 UV-I 95 W/m² 11,1 °C 12,2 °C 0,0 km/h (0 Bft)
24.05.2018 07:45 12,2 °C 93 % 1016,4 hPa 0,0 mm 0,0 km/h (0 Bft) S-SW 200 ° 0 min 0,000 mm 0,6 UV-I 93 W/m² 11,1 °C 12,2 °C 0,0 km/h (0 Bft)
24.05.2018 07:46 12,2 °C 93 % 1016,4 hPa 0,0 mm 0,0 km/h (0 Bft) S-SW 200 ° 0 min 0,000 mm 0,6 UV-I 91 W/m² 11,1 °C 12,2 °C 0,0 km/h (0 Bft)
24.05.2018 07:47 12,3 °C 93 % 1016,4 hPa 0,0 mm 0,0 km/h (0 Bft) S-SW 200 ° 0 min 0,000 mm 0,6 UV-I 86 W/m² 11,2 °C 12,3 °C 0,0 km/h (0 Bft)
24.05.2018 07:48 12,3 °C 93 % 1016,5 hPa 0,0 mm 0,0 km/h (0 Bft) S-SW 200 ° 0 min 0,000 mm 0,5 UV-I 83 W/m² 11,2 °C 12,3 °C 0,0 km/h (0 Bft)
24.05.2018 07:49 12,3 °C 92 % 1016,4 hPa 0,0 mm 0,0 km/h (0 Bft) S-SW 200 ° 0 min 0,000 mm 0,5 UV-I 79 W/m² 11,0 °C 12,3 °C 0,0 km/h (0 Bft)
24.05.2018 07:50 12,4 °C 92 % 1016,5 hPa 0,0 mm 0,0 km/h (0 Bft) S-SW 200 ° 0 min 0,000 mm 0,5 UV-I 76 W/m² 11,1 °C 12,4 °C 0,0 km/h (0 Bft)
24.05.2018 07:51 12,4 °C 93 % 1016,5 hPa 0,0 mm 0,0 km/h (0 Bft) S-SW 200 ° 0 min 0,000 mm 0,5 UV-I 72 W/m² 11,3 °C 12,4 °C 0,0 km/h (0 Bft)
24.05.2018 07:52 12,4 °C 92 % 1016,5 hPa 0,0 mm 0,0 km/h (0 Bft) S-SW 200 ° 0 min 0,000 mm 0,5 UV-I 69 W/m² 11,1 °C 12,4 °C 0,0 km/h (0 Bft)
24.05.2018 07:53 12,4 °C 93 % 1016,5 hPa 0,0 mm 0,0 km/h (0 Bft) S-SW 200 ° 0 min 0,000 mm 0,0 UV-I 60 W/m² 11,3 °C 12,4 °C 0,0 km/h (0 Bft)
24.05.2018 07:54 12,5 °C 93 % 1016,5 hPa 0,0 mm 0,0 km/h (0 Bft) S-SW 200 ° 0 min 0,000 mm 0,0 UV-I 56 W/m² 11,4 °C 12,5 °C 0,0 km/h (0 Bft)
24.05.2018 07:55 12,5 °C 93 % 1016,6 hPa 0,0 mm 0,0 km/h (0 Bft) S-SW 200 ° 0 min 0,000 mm 0,0 UV-I 53 W/m² 11,4 °C 12,5 °C 0,0 km/h (0 Bft)
24.05.2018 07:56 12,6 °C 93 % 1016,5 hPa 0,0 mm 0,0 km/h (0 Bft) S-SW 200 ° 0 min 0,000 mm 0,0 UV-I 51 W/m² 11,5 °C 12,6 °C 0,0 km/h (0 Bft)
24.05.2018 07:57 12,6 °C 93 % 1016,6 hPa 0,0 mm 0,0 km/h (0 Bft) S-SW 200 ° 0 min 0,000 mm 0,0 UV-I 49 W/m² 11,5 °C 12,6 °C 0,0 km/h (0 Bft)
24.05.2018 07:58 12,6 °C 93 % 1016,6 hPa 0,0 mm 0,0 km/h (0 Bft) S-SW 200 ° 0 min 0,000 mm 0,0 UV-I 47 W/m² 11,5 °C 12,6 °C 0,0 km/h (0 Bft)
24.05.2018 07:59 12,6 °C 93 % 1016,5 hPa 0,0 mm 0,0 km/h (0 Bft) S-SW 200 ° 0 min 0,000 mm 0,0 UV-I 46 W/m² 11,5 °C 12,6 °C 0,0 km/h (0 Bft)
24.05.2018 08:00 12,7 °C 93 % 1016,6 hPa 0,0 mm 0,0 km/h (0 Bft) S-SW 200 ° 0 min 0,000 mm 0,0 UV-I 46 W/m² 11,6 °C 12,7 °C 0,0 km/h (0 Bft)
24.05.2018 08:01 12,7 °C 93 % 1016,6 hPa 0,0 mm 0,0 km/h (0 Bft) S-SW 200 ° 0 min 0,026 mm 0,0 UV-I 47 W/m² 11,6 °C 12,7 °C 0,0 km/h (0 Bft)
24.05.2018 08:02 12,8 °C 93 % 1016,5 hPa 0,0 mm 0,0 km/h (0 Bft) S-SW 200 ° 0 min 0,000 mm 0,0 UV-I 47 W/m² 11,7 °C 12,8 °C 0,0 km/h (0 Bft)
24.05.2018 08:03 12,8 °C 93 % 1016,5 hPa 0,0 mm 0,0 km/h (0 Bft) S-SW 200 ° 0 min 0,000 mm 0,0 UV-I 49 W/m² 11,7 °C 12,8 °C 0,0 km/h (0 Bft)
24.05.2018 08:04 12,8 °C 93 % 1016,5 hPa 0,0 mm 0,0 km/h (0 Bft) S-SW 200 ° 0 min 0,000 mm 0,0 UV-I 51 W/m² 11,7 °C 12,8 °C 0,0 km/h (0 Bft)
24.05.2018 08:05 12,8 °C 93 % 1016,5 hPa 0,0 mm 0,0 km/h (0 Bft) S-SW 200 ° 0 min 0,000 mm 0,0 UV-I 54 W/m² 11,7 °C 12,8 °C 0,0 km/h (0 Bft)
24.05.2018 08:06 12,8 °C 93 % 1016,5 hPa 0,0 mm 0,0 km/h (0 Bft) S-SW 200 ° 0 min 0,000 mm 0,0 UV-I 54 W/m² 11,7 °C 12,8 °C 0,0 km/h (0 Bft)
24.05.2018 08:07 12,8 °C 93 % 1016,5 hPa 0,0 mm 0,0 km/h (0 Bft) S-SW 200 ° 0 min 0,000 mm 0,0 UV-I 54 W/m² 11,7 °C 12,8 °C 0,0 km/h (0 Bft)
24.05.2018 08:08 12,8 °C 93 % 1016,5 hPa 0,0 mm 0,0 km/h (0 Bft) S-SW 200 ° 0 min 0,000 mm 0,0 UV-I 54 W/m² 11,7 °C 12,8 °C 0,0 km/h (0 Bft)
24.05.2018 08:09 12,8 °C 93 % 1016,6 hPa 0,0 mm 0,0 km/h (0 Bft) S-SW 200 ° 0 min 0,000 mm 0,0 UV-I 54 W/m² 11,7 °C 12,8 °C 0,0 km/h (0 Bft)
24.05.2018 08:10 12,8 °C 93 % 1016,5 hPa 0,0 mm 0,0 km/h (0 Bft) S-SW 200 ° 0 min 0,000 mm 0,0 UV-I 54 W/m² 11,7 °C 12,8 °C 0,0 km/h (0 Bft)
24.05.2018 08:11 12,8 °C 93 % 1016,6 hPa 0,0 mm 0,0 km/h (0 Bft) S-SW 200 ° 0 min 0,000 mm 0,0 UV-I 56 W/m² 11,7 °C 12,8 °C 0,0 km/h (0 Bft)
24.05.2018 08:12 12,8 °C 93 % 1016,6 hPa 0,2 mm 0,0 km/h (0 Bft) S-SW 200 ° 0 min 0,000 mm 0,0 UV-I 56 W/m² 11,7 °C 12,8 °C 0,0 km/h (0 Bft)
24.05.2018 08:13 12,8 °C 93 % 1016,5 hPa 0,0 mm 0,0 km/h (0 Bft) S-SW 200 ° 0 min 0,000 mm 0,0 UV-I 58 W/m² 11,7 °C 12,8 °C 0,0 km/h (0 Bft)
24.05.2018 08:14 12,8 °C 93 % 1016,6 hPa 0,0 mm 0,0 km/h (0 Bft) S-SW 200 ° 0 min 0,000 mm 0,0 UV-I 60 W/m² 11,7 °C 12,8 °C 0,0 km/h (0 Bft)
24.05.2018 08:15 12,8 °C 93 % 1016,5 hPa 0,0 mm 0,0 km/h (0 Bft) S-SW 200 ° 0 min 0,000 mm 0,0 UV-I 60 W/m² 11,7 °C 12,8 °C 0,0 km/h (0 Bft)
24.05.2018 08:16 12,8 °C 93 % 1016,6 hPa 0,0 mm 0,0 km/h (0 Bft) S-SW 200 ° 0 min 0,000 mm 0,0 UV-I 58 W/m² 11,7 °C 12,8 °C 0,0 km/h (0 Bft)
24.05.2018 08:17 12,8 °C 93 % 1016,6 hPa 0,0 mm 0,0 km/h (0 Bft) S-SW 200 ° 0 min 0,000 mm 0,0 UV-I 56 W/m² 11,7 °C 12,8 °C 0,0 km/h (0 Bft)
24.05.2018 08:18 12,9 °C 93 % 1016,6 hPa 0,0 mm 0,0 km/h (0 Bft) S-SW 200 ° 0 min 0,000 mm 0,0 UV-I 56 W/m² 11,8 °C 12,9 °C 0,0 km/h (0 Bft)
24.05.2018 08:19 12,9 °C 93 % 1016,6 hPa 0,0 mm 0,0 km/h (0 Bft) S-SW 200 ° 0 min 0,000 mm 0,0 UV-I 56 W/m² 11,8 °C 12,9 °C 0,0 km/h (0 Bft)
24.05.2018 08:20 12,9 °C 93 % 1016,6 hPa 0,0 mm 0,0 km/h (0 Bft) S-SW 200 ° 0 min 0,000 mm 0,0 UV-I 56 W/m² 11,8 °C 12,9 °C 0,0 km/h (0 Bft)
24.05.2018 08:21 12,9 °C 93 % 1016,6 hPa 0,0 mm 0,0 km/h (0 Bft) S-SW 200 ° 0 min 0,000 mm 0,0 UV-I 58 W/m² 11,8 °C 12,9 °C 0,0 km/h (0 Bft)
24.05.2018 08:22 12,8 °C 93 % 1016,6 hPa 0,0 mm 0,0 km/h (0 Bft) S-SW 200 ° 0 min 0,000 mm 0,0 UV-I 60 W/m² 11,7 °C 12,8 °C 0,0 km/h (0 Bft)
24.05.2018 08:23 12,8 °C 93 % 1016,6 hPa 0,0 mm 0,0 km/h (0 Bft) S-SW 200 ° 0 min 0,000 mm 0,0 UV-I 62 W/m² 11,7 °C 12,8 °C 0,0 km/h (0 Bft)
24.05.2018 08:24 12,8 °C 93 % 1016,6 hPa 0,0 mm 0,0 km/h (0 Bft) S-SW 200 ° 0 min 0,000 mm 0,0 UV-I 62 W/m² 11,7 °C 12,8 °C 0,0 km/h (0 Bft)
24.05.2018 08:25 12,9 °C 93 % 1016,7 hPa 0,0 mm 0,0 km/h (0 Bft) S-SW 200 ° 0 min 0,000 mm 0,5 UV-I 63 W/m² 11,8 °C 12,9 °C 0,0 km/h (0 Bft)
24.05.2018 08:26 12,9 °C 93 % 1016,7 hPa 0,0 mm 0,0 km/h (0 Bft) S-SW 200 ° 0 min 0,000 mm 0,5 UV-I 67 W/m² 11,8 °C 12,9 °C 0,0 km/h (0 Bft)
24.05.2018 08:27 12,9 °C 93 % 1016,6 hPa 0,0 mm 0,0 km/h (0 Bft) S-SW 200 ° 0 min 0,000 mm 0,5 UV-I 69 W/m² 11,8 °C 12,9 °C 0,0 km/h (0 Bft)
24.05.2018 08:28 12,9 °C 93 % 1016,6 hPa 0,0 mm 0,0 km/h (0 Bft) S-SW 200 ° 0 min 0,000 mm 0,5 UV-I 74 W/m² 11,8 °C 12,9 °C 0,0 km/h (0 Bft)
24.05.2018 08:29 13,0 °C 93 % 1016,6 hPa 0,0 mm 0,0 km/h (0 Bft) S-SW 200 ° 0 min 0,000 mm 0,6 UV-I 77 W/m² 11,9 °C 13,0 °C 0,0 km/h (0 Bft)
24.05.2018 08:30 13,1 °C 93 % 1016,5 hPa 0,0 mm 0,0 km/h (0 Bft) S-SW 200 ° 0 min 0,000 mm 0,6 UV-I 77 W/m² 12,0 °C 13,1 °C 0,0 km/h (0 Bft)
24.05.2018 08:31 13,1 °C 93 % 1016,6 hPa 0,0 mm 0,0 km/h (0 Bft) S-SW 200 ° 0 min 0,000 mm 0,6 UV-I 77 W/m² 12,0 °C 13,1 °C 0,0 km/h (0 Bft)
24.05.2018 08:32 13,2 °C 93 % 1016,6 hPa 0,0 mm 0,0 km/h (0 Bft) S-SW 200 ° 0 min 0,000 mm 0,6 UV-I 76 W/m² 12,1 °C 13,2 °C 0,0 km/h (0 Bft)
24.05.2018 08:33 13,2 °C 93 % 1016,6 hPa 0,0 mm 0,0 km/h (0 Bft) S-SW 200 ° 0 min 0,000 mm 0,6 UV-I 74 W/m² 12,1 °C 13,2 °C 0,0 km/h (0 Bft)
24.05.2018 08:34 13,2 °C 93 % 1016,7 hPa 0,0 mm 0,0 km/h (0 Bft) S-SW 200 ° 0 min 0,000 mm 0,5 UV-I 67 W/m² 12,1 °C 13,2 °C 0,0 km/h (0 Bft)
24.05.2018 08:35 13,2 °C 93 % 1016,7 hPa 0,0 mm 0,0 km/h (0 Bft) S-SW 200 ° 0 min 0,000 mm 0,5 UV-I 63 W/m² 12,1 °C 13,2 °C 0,0 km/h (0 Bft)
24.05.2018 08:36 13,2 °C 93 % 1016,7 hPa 0,0 mm 1,2 km/h (1 Bft) S-SW 200 ° 0 min 0,000 mm 0,5 UV-I 60 W/m² 12,1 °C 13,2 °C 3,2 km/h (1 Bft)
24.05.2018 08:37 13,2 °C 92 % 1016,7 hPa 0,0 mm 0,9 km/h (0 Bft) S-SW 200 ° 0 min 0,000 mm 0,5 UV-I 58 W/m² 11,9 °C 13,2 °C 3,2 km/h (1 Bft)
24.05.2018 08:38 13,2 °C 92 % 1016,7 hPa 0,0 mm 0,6 km/h (0 Bft) S-SW 200 ° 0 min 0,000 mm 0,0 UV-I 56 W/m² 11,9 °C 13,2 °C 3,2 km/h (1 Bft)
24.05.2018 08:39 13,2 °C 92 % 1016,7 hPa 0,0 mm 0,7 km/h (0 Bft) S-SW 200 ° 0 min 0,000 mm 0,0 UV-I 58 W/m² 11,9 °C 13,2 °C 3,2 km/h (1 Bft)
24.05.2018 08:40 13,2 °C 91 % 1016,8 hPa 0,0 mm 3,2 km/h (1 Bft) S-SW 200 ° 0 min 0,000 mm 0,5 UV-I 63 W/m² 11,8 °C 13,2 °C 4,8 km/h (1 Bft)
24.05.2018 08:41 13,2 °C 91 % 1016,7 hPa 0,0 mm 1,2 km/h (1 Bft) S-SW 200 ° 0 min 0,000 mm 0,5 UV-I 69 W/m² 11,8 °C 13,2 °C 1,6 km/h (1 Bft)
24.05.2018 08:42 13,2 °C 91 % 1016,7 hPa 0,0 mm 0,0 km/h (0 Bft) S-SW 200 ° 0 min 0,000 mm 0,6 UV-I 74 W/m² 11,8 °C 13,2 °C 0,0 km/h (0 Bft)
24.05.2018 08:43 13,3 °C 91 % 1016,7 hPa 0,0 mm 0,0 km/h (0 Bft) S-SW 200 ° 0 min 0,000 mm 0,6 UV-I 81 W/m² 11,9 °C 13,3 °C 0,0 km/h (0 Bft)
24.05.2018 08:44 13,3 °C 91 % 1016,7 hPa 0,0 mm 0,0 km/h (0 Bft) S-SW 200 ° 0 min 0,000 mm 0,7 UV-I 90 W/m² 11,9 °C 13,3 °C 0,0 km/h (0 Bft)
24.05.2018 08:45 13,3 °C 92 % 1016,7 hPa 0,0 mm 0,0 km/h (0 Bft) S-SW 200 ° 0 min 0,000 mm 0,7 UV-I 97 W/m² 12,0 °C 13,3 °C 0,0 km/h (0 Bft)
24.05.2018 08:46 13,3 °C 92 % 1016,7 hPa 0,0 mm 0,0 km/h (0 Bft) S-SW 200 ° 0 min 0,000 mm 0,8 UV-I 111 W/m² 12,0 °C 13,3 °C 0,0 km/h (0 Bft)
24.05.2018 08:47 13,3 °C 91 % 1016,7 hPa 0,0 mm 0,0 km/h (0 Bft) S-SW 200 ° 0 min 0,000 mm 0,8 UV-I 118 W/m² 11,9 °C 13,3 °C 0,0 km/h (0 Bft)
24.05.2018 08:48 13,4 °C 92 % 1016,8 hPa 0,0 mm 0,0 km/h (0 Bft) S-SW 200 ° 0 min 0,000 mm 0,9 UV-I 123 W/m² 12,1 °C 13,4 °C 0,0 km/h (0 Bft)
24.05.2018 08:49 13,4 °C 92 % 1016,8 hPa 0,0 mm 0,0 km/h (0 Bft) S-SW 200 ° 0 min 0,000 mm 0,9 UV-I 128 W/m² 12,1 °C 13,4 °C 0,0 km/h (0 Bft)
24.05.2018 08:50 13,5 °C 92 % 1016,8 hPa 0,0 mm 0,2 km/h (0 Bft) S-SW 200 ° 0 min 0,000 mm 0,9 UV-I 134 W/m² 12,2 °C 13,5 °C 1,6 km/h (1 Bft)
24.05.2018 08:51 13,6 °C 91 % 1016,8 hPa 0,0 mm 1,7 km/h (1 Bft) S-SW 200 ° 0 min 0,000 mm 1,0 UV-I 135 W/m² 12,2 °C 13,6 °C 3,2 km/h (1 Bft)
24.05.2018 08:52 13,6 °C 91 % 1016,8 hPa 0,0 mm 2,1 km/h (1 Bft) S-SW 200 ° 0 min 0,000 mm 1,0 UV-I 137 W/m² 12,2 °C 13,6 °C 3,2 km/h (1 Bft)
24.05.2018 08:53 13,6 °C 91 % 1016,8 hPa 0,0 mm 2,5 km/h (1 Bft) S-SW 201 ° 0 min 0,000 mm 1,0 UV-I 134 W/m² 12,2 °C 13,6 °C 4,8 km/h (1 Bft)
24.05.2018 08:54 13,7 °C 91 % 1016,8 hPa 0,0 mm 1,0 km/h (0 Bft) S-SW 201 ° 0 min 0,000 mm 1,0 UV-I 128 W/m² 12,3 °C 13,7 °C 1,6 km/h (1 Bft)
24.05.2018 08:55 13,7 °C 91 % 1016,8 hPa 0,0 mm 0,4 km/h (0 Bft) S-SW 201 ° 0 min 0,000 mm 0,9 UV-I 123 W/m² 12,3 °C 13,7 °C 3,2 km/h (1 Bft)
24.05.2018 08:56 13,7 °C 91 % 1016,8 hPa 0,0 mm 0,2 km/h (0 Bft) S-SW 201 ° 0 min 0,000 mm 0,9 UV-I 118 W/m² 12,3 °C 13,7 °C 1,6 km/h (1 Bft)
24.05.2018 08:57 13,7 °C 91 % 1016,8 hPa 0,0 mm 0,0 km/h (0 Bft) S-SW 201 ° 0 min 0,000 mm 0,9 UV-I 111 W/m² 12,3 °C 13,7 °C 0,0 km/h (0 Bft)
24.05.2018 08:58 13,7 °C 90 % 1016,8 hPa 0,0 mm 0,0 km/h (0 Bft) S-SW 201 ° 0 min 0,000 mm 0,9 UV-I 113 W/m² 12,1 °C 13,7 °C 0,0 km/h (0 Bft)
24.05.2018 08:59 13,8 °C 91 % 1016,8 hPa 0,0 mm 0,0 km/h (0 Bft) S-SW 201 ° 0 min 0,000 mm 0,9 UV-I 118 W/m² 12,4 °C 13,8 °C 0,0 km/h (0 Bft)
24.05.2018 09:00 13,8 °C 91 % 1016,9 hPa 0,0 mm 0,0 km/h (0 Bft) S-SW 201 ° 0 min 0,000 mm 0,9 UV-I 125 W/m² 12,4 °C 13,8 °C 0,0 km/h (0 Bft)
24.05.2018 09:01 13,8 °C 90 % 1016,8 hPa 0,0 mm 0,9 km/h (0 Bft) SW 231 ° 0 min 0,051 mm 1,0 UV-I 134 W/m² 12,2 °C 13,8 °C 3,2 km/h (1 Bft)
24.05.2018 09:02 13,8 °C 90 % 1016,8 hPa 0,0 mm 1,9 km/h (1 Bft) SW 231 ° 0 min 0,000 mm 1,0 UV-I 141 W/m² 12,2 °C 13,8 °C 3,2 km/h (1 Bft)
24.05.2018 09:03 13,8 °C 90 % 1016,9 hPa 0,0 mm 0,1 km/h (0 Bft) SW 231 ° 0 min 0,000 mm 1,1 UV-I 160 W/m² 12,2 °C 13,8 °C 1,6 km/h (1 Bft)
24.05.2018 09:04 13,9 °C 90 % 1016,8 hPa 0,0 mm 0,4 km/h (0 Bft) SW 231 ° 0 min 0,000 mm 1,1 UV-I 171 W/m² 12,3 °C 13,9 °C 1,6 km/h (1 Bft)
24.05.2018 09:05 13,9 °C 90 % 1016,8 hPa 0,0 mm 1,5 km/h (1 Bft) SW 231 ° 0 min 0,000 mm 1,3 UV-I 179 W/m² 12,3 °C 13,9 °C 3,2 km/h (1 Bft)
24.05.2018 09:06 13,9 °C 90 % 1016,8 hPa 0,0 mm 1,9 km/h (1 Bft) SW 231 ° 0 min 0,000 mm 1,3 UV-I 188 W/m² 12,3 °C 13,9 °C 3,2 km/h (1 Bft)
24.05.2018 09:07 14,1 °C 90 % 1016,8 hPa 0,0 mm 0,9 km/h (0 Bft) SW 231 ° 0 min 0,000 mm 1,4 UV-I 195 W/m² 12,5 °C 14,1 °C 3,2 km/h (1 Bft)
24.05.2018 09:08 14,1 °C 90 % 1016,8 hPa 0,0 mm 0,1 km/h (0 Bft) SW 231 ° 0 min 0,000 mm 1,4 UV-I 200 W/m² 12,5 °C 14,1 °C 1,6 km/h (1 Bft)
24.05.2018 09:09 14,1 °C 90 % 1016,8 hPa 0,0 mm 2,8 km/h (1 Bft) W-SW 241 ° 0 min 0,000 mm 1,5 UV-I 218 W/m² 12,5 °C 14,1 °C 4,8 km/h (1 Bft)
24.05.2018 09:10 14,1 °C 90 % 1016,8 hPa 0,0 mm 0,7 km/h (0 Bft) W-SW 241 ° 0 min 0,000 mm 1,5 UV-I 211 W/m² 12,5 °C 14,1 °C 4,8 km/h (1 Bft)
24.05.2018 09:11 14,1 °C 89 % 1016,8 hPa 0,0 mm 0,0 km/h (0 Bft) W-SW 241 ° 0 min 0,000 mm 1,5 UV-I 206 W/m² 12,3 °C 14,1 °C 0,0 km/h (0 Bft)
24.05.2018 09:12 14,2 °C 89 % 1016,8 hPa 0,0 mm 0,0 km/h (0 Bft) W-SW 241 ° 0 min 0,000 mm 1,5 UV-I 200 W/m² 12,4 °C 14,2 °C 0,0 km/h (0 Bft)
24.05.2018 09:13 14,1 °C 89 % 1016,8 hPa 0,0 mm 0,0 km/h (0 Bft) W-SW 241 ° 0 min 0,000 mm 1,5 UV-I 197 W/m² 12,3 °C 14,1 °C 0,0 km/h (0 Bft)
24.05.2018 09:14 14,1 °C 89 % 1016,7 hPa 0,0 mm 0,0 km/h (0 Bft) W-SW 241 ° 0 min 0,000 mm 1,6 UV-I 195 W/m² 12,3 °C 14,1 °C 0,0 km/h (0 Bft)
24.05.2018 09:15 14,1 °C 89 % 1016,7 hPa 0,0 mm 0,0 km/h (0 Bft) W-SW 241 ° 0 min 0,000 mm 1,6 UV-I 199 W/m² 12,3 °C 14,1 °C 0,0 km/h (0 Bft)
24.05.2018 09:16 14,2 °C 89 % 1016,7 hPa 0,0 mm 0,5 km/h (0 Bft) W-SW 247 ° 0 min 0,000 mm 1,6 UV-I 204 W/m² 12,4 °C 14,2 °C 3,2 km/h (1 Bft)
24.05.2018 09:17 14,2 °C 89 % 1016,7 hPa 0,0 mm 2,3 km/h (1 Bft) W-SW 247 ° 0 min 0,000 mm 1,7 UV-I 209 W/m² 12,4 °C 14,2 °C 4,8 km/h (1 Bft)
24.05.2018 09:18 14,2 °C 89 % 1016,6 hPa 0,0 mm 0,0 km/h (0 Bft) W-SW 247 ° 0 min 0,000 mm 1,7 UV-I 216 W/m² 12,4 °C 14,2 °C 0,0 km/h (0 Bft)
24.05.2018 09:19 14,3 °C 89 % 1016,6 hPa 0,0 mm 1,0 km/h (0 Bft) W-SW 247 ° 0 min 0,000 mm 1,7 UV-I 213 W/m² 12,5 °C 14,3 °C 3,2 km/h (1 Bft)
24.05.2018 09:20 14,2 °C 88 % 1016,6 hPa 0,0 mm 1,1 km/h (1 Bft) W-SW 247 ° 0 min 0,000 mm 1,7 UV-I 218 W/m² 12,2 °C 14,2 °C 1,6 km/h (1 Bft)
24.05.2018 09:21 14,3 °C 89 % 1016,7 hPa 0,0 mm 0,4 km/h (0 Bft) W-SW 247 ° 0 min 0,000 mm 1,8 UV-I 230 W/m² 12,5 °C 14,3 °C 1,6 km/h (1 Bft)
24.05.2018 09:22 14,4 °C 90 % 1016,6 hPa 0,0 mm 0,0 km/h (0 Bft) W-SW 247 ° 0 min 0,000 mm 1,8 UV-I 237 W/m² 12,8 °C 14,4 °C 0,0 km/h (0 Bft)
24.05.2018 09:23 14,4 °C 90 % 1016,6 hPa 0,0 mm 0,1 km/h (0 Bft) W-SW 247 ° 0 min 0,000 mm 2,0 UV-I 274 W/m² 12,8 °C 14,4 °C 1,6 km/h (1 Bft)
24.05.2018 09:24 14,5 °C 89 % 1016,6 hPa 0,0 mm 0,5 km/h (0 Bft) W-SW 247 ° 0 min 0,000 mm 1,9 UV-I 267 W/m² 12,7 °C 14,5 °C 3,2 km/h (1 Bft)
24.05.2018 09:25 14,6 °C 89 % 1016,7 hPa 0,0 mm 1,7 km/h (1 Bft) W-SW 247 ° 0 min 0,000 mm 2,1 UV-I 301 W/m² 12,8 °C 14,6 °C 3,2 km/h (1 Bft)
24.05.2018 09:26 14,6 °C 89 % 1016,7 hPa 0,0 mm 0,1 km/h (0 Bft) W-SW 247 ° 0 min 0,000 mm 2,1 UV-I 309 W/m² 12,8 °C 14,6 °C 1,6 km/h (1 Bft)
24.05.2018 09:27 14,7 °C 89 % 1016,7 hPa 0,0 mm 1,2 km/h (1 Bft) W-SW 254 ° 0 min 0,000 mm 2,0 UV-I 278 W/m² 12,9 °C 14,7 °C 3,2 km/h (1 Bft)
24.05.2018 09:28 14,7 °C 88 % 1016,7 hPa 0,0 mm 2,1 km/h (1 Bft) W-SW 254 ° 0 min 0,000 mm 1,9 UV-I 265 W/m² 12,7 °C 14,7 °C 3,2 km/h (1 Bft)
24.05.2018 09:29 14,7 °C 88 % 1016,7 hPa 0,0 mm 2,3 km/h (1 Bft) W-SW 254 ° 0 min 0,000 mm 1,8 UV-I 246 W/m² 12,7 °C 14,7 °C 4,8 km/h (1 Bft)
24.05.2018 09:30 14,8 °C 88 % 1016,7 hPa 0,0 mm 1,7 km/h (1 Bft) W-SW 255 ° 0 min 0,000 mm 1,8 UV-I 239 W/m² 12,8 °C 14,8 °C 4,8 km/h (1 Bft)
24.05.2018 09:31 14,9 °C 89 % 1016,6 hPa 0,0 mm 1,8 km/h (1 Bft) W-SW 255 ° 0 min 0,000 mm 1,9 UV-I 260 W/m² 13,1 °C 14,9 °C 3,2 km/h (1 Bft)
24.05.2018 09:32 14,9 °C 88 % 1016,7 hPa 0,0 mm 0,8 km/h (0 Bft) W-SW 255 ° 0 min 0,000 mm 2,3 UV-I 260 W/m² 12,9 °C 14,9 °C 3,2 km/h (1 Bft)
24.05.2018 09:33 14,9 °C 87 % 1016,7 hPa 0,0 mm 1,3 km/h (1 Bft) W-NW 297 ° 0 min 0,000 mm 2,3 UV-I 366 W/m² 12,8 °C 14,9 °C 4,8 km/h (1 Bft)
24.05.2018 09:34 15,0 °C 88 % 1016,7 hPa 0,0 mm 2,9 km/h (1 Bft) NW 322 ° 0 min 0,000 mm 2,2 UV-I 343 W/m² 13,0 °C 15,0 °C 4,8 km/h (1 Bft)
24.05.2018 09:35 15,1 °C 88 % 1016,7 hPa 0,0 mm 2,0 km/h (1 Bft) W-NW 292 ° 0 min 0,000 mm 2,2 UV-I 332 W/m² 13,1 °C 15,1 °C 3,2 km/h (1 Bft)
24.05.2018 09:36 15,1 °C 87 % 1016,7 hPa 0,0 mm 4,4 km/h (1 Bft) W-SW 252 ° 0 min 0,000 mm 2,5 UV-I 404 W/m² 13,0 °C 15,1 °C 6,4 km/h (2 Bft)
24.05.2018 09:37 15,2 °C 87 % 1016,7 hPa 0,0 mm 5,0 km/h (1 Bft) W 281 ° 0 min 0,000 mm 2,3 UV-I 350 W/m² 13,0 °C 15,2 °C 9,7 km/h (2 Bft)
24.05.2018 09:38 15,2 °C 86 % 1016,7 hPa 0,0 mm 2,5 km/h (1 Bft) W 281 ° 0 min 0,000 mm 2,3 UV-I 345 W/m² 12,9 °C 15,2 °C 4,8 km/h (1 Bft)
24.05.2018 09:39 15,2 °C 86 % 1016,7 hPa 0,0 mm 1,3 km/h (1 Bft) W 275 ° 0 min 0,000 mm 2,2 UV-I 364 W/m² 12,9 °C 15,2 °C 4,8 km/h (1 Bft)
24.05.2018 09:40 15,2 °C 86 % 1016,7 hPa 0,0 mm 2,8 km/h (1 Bft) W-NW 302 ° 0 min 0,000 mm 2,9 UV-I 364 W/m² 12,9 °C 15,2 °C 4,8 km/h (1 Bft)
24.05.2018 09:41 15,3 °C 87 % 1016,7 hPa 0,0 mm 3,8 km/h (1 Bft) NW 319 ° 0 min 0,000 mm 3,1 UV-I 550 W/m² 13,1 °C 15,3 °C 4,8 km/h (1 Bft)
24.05.2018 09:42 15,4 °C 86 % 1016,7 hPa 0,0 mm 3,2 km/h (1 Bft) NW 322 ° 1 min 0,000 mm 3,4 UV-I 619 W/m² 13,1 °C 15,4 °C 4,8 km/h (1 Bft)
24.05.2018 09:43 15,6 °C 86 % 1016,7 hPa 0,0 mm 1,7 km/h (1 Bft) NW 322 ° 0 min 0,000 mm 3,0 UV-I 520 W/m² 13,3 °C 15,6 °C 3,2 km/h (1 Bft)
24.05.2018 09:44 15,7 °C 86 % 1016,6 hPa 0,0 mm 2,2 km/h (1 Bft) W-NW 284 ° 0 min 0,000 mm 2,6 UV-I 425 W/m² 13,4 °C 15,7 °C 4,8 km/h (1 Bft)
24.05.2018 09:45 15,8 °C 87 % 1016,6 hPa 0,0 mm 2,9 km/h (1 Bft) W-NW 284 ° 0 min 0,000 mm 3,0 UV-I 487 W/m² 13,6 °C 15,8 °C 6,4 km/h (2 Bft)
24.05.2018 09:46 15,8 °C 85 % 1016,6 hPa 0,0 mm 2,9 km/h (1 Bft) W-NW 293 ° 0 min 0,000 mm 3,0 UV-I 497 W/m² 13,3 °C 15,8 °C 4,8 km/h (1 Bft)
24.05.2018 09:47 16,1 °C 87 % 1016,6 hPa 0,0 mm 4,2 km/h (1 Bft) W-NW 283 ° 0 min 0,000 mm 3,1 UV-I 475 W/m² 13,9 °C 16,1 °C 6,4 km/h (2 Bft)
24.05.2018 09:48 16,1 °C 86 % 1016,6 hPa 0,0 mm 8,4 km/h (2 Bft) W 276 ° 0 min 0,000 mm 3,3 UV-I 534 W/m² 13,8 °C 16,1 °C 14,5 km/h (3 Bft)
24.05.2018 09:49 16,1 °C 85 % 1016,6 hPa 0,0 mm 4,6 km/h (1 Bft) W-NW 288 ° 0 min 0,000 mm 3,1 UV-I 497 W/m² 13,6 °C 16,1 °C 6,4 km/h (2 Bft)
24.05.2018 09:50 16,1 °C 84 % 1016,6 hPa 0,0 mm 4,3 km/h (1 Bft) W-NW 300 ° 0 min 0,000 mm 2,9 UV-I 418 W/m² 13,4 °C 16,1 °C 8,0 km/h (2 Bft)
24.05.2018 09:51 16,1 °C 83 % 1016,6 hPa 0,0 mm 5,5 km/h (1 Bft) W-NW 282 ° 0 min 0,000 mm 2,5 UV-I 348 W/m² 13,2 °C 16,1 °C 9,7 km/h (2 Bft)
24.05.2018 09:52 16,0 °C 83 % 1016,6 hPa 0,0 mm 3,9 km/h (1 Bft) W-NW 282 ° 0 min 0,000 mm 2,7 UV-I 385 W/m² 13,1 °C 16,0 °C 4,8 km/h (1 Bft)
24.05.2018 09:53 16,0 °C 83 % 1016,5 hPa 0,0 mm 2,2 km/h (1 Bft) W-NW 282 ° 0 min 0,000 mm 2,7 UV-I 404 W/m² 13,1 °C 16,0 °C 4,8 km/h (1 Bft)
24.05.2018 09:54 15,9 °C 83 % 1016,6 hPa 0,0 mm 3,9 km/h (1 Bft) W-NW 283 ° 0 min 0,000 mm 2,7 UV-I 376 W/m² 13,0 °C 15,9 °C 4,8 km/h (1 Bft)
24.05.2018 09:55 15,9 °C 83 % 1016,5 hPa 0,0 mm 4,1 km/h (1 Bft) NW 308 ° 0 min 0,000 mm 2,6 UV-I 359 W/m² 13,0 °C 15,9 °C 6,4 km/h (2 Bft)
24.05.2018 09:56 15,9 °C 84 % 1016,5 hPa 0,0 mm 3,8 km/h (1 Bft) W 275 ° 0 min 0,000 mm 2,6 UV-I 338 W/m² 13,2 °C 15,9 °C 4,8 km/h (1 Bft)
24.05.2018 09:57 15,9 °C 83 % 1016,5 hPa 0,0 mm 4,6 km/h (1 Bft) W 275 ° 0 min 0,000 mm 2,5 UV-I 343 W/m² 13,0 °C 15,9 °C 8,0 km/h (2 Bft)
24.05.2018 09:58 15,9 °C 86 % 1016,5 hPa 0,0 mm 1,9 km/h (1 Bft) W 275 ° 0 min 0,000 mm 2,5 UV-I 345 W/m² 13,6 °C 15,9 °C 4,8 km/h (1 Bft)
24.05.2018 09:59 15,9 °C 83 % 1016,5 hPa 0,0 mm 0,5 km/h (0 Bft) W 275 ° 0 min 0,000 mm 2,5 UV-I 327 W/m² 13,0 °C 15,9 °C 3,2 km/h (1 Bft)
24.05.2018 10:00 15,9 °C 85 % 1016,5 hPa 0,0 mm 2,2 km/h (1 Bft) W-NW 284 ° 0 min 0,152 mm 2,4 UV-I 315 W/m² 13,4 °C 15,9 °C 9,7 km/h (2 Bft)
24.05.2018 10:01 15,9 °C 84 % 1016,5 hPa 0,0 mm 5,8 km/h (2 Bft) W-NW 289 ° 0 min 0,000 mm 2,4 UV-I 313 W/m² 13,2 °C 15,9 °C 8,0 km/h (2 Bft)
24.05.2018 10:02 15,9 °C 85 % 1016,5 hPa 0,0 mm 5,1 km/h (1 Bft) NW 306 ° 0 min 0,000 mm 2,4 UV-I 309 W/m² 13,4 °C 15,9 °C 6,4 km/h (2 Bft)
24.05.2018 10:03 15,9 °C 84 % 1016,5 hPa 0,0 mm 3,4 km/h (1 Bft) W-NW 283 ° 0 min 0,000 mm 2,3 UV-I 306 W/m² 13,2 °C 15,9 °C 6,4 km/h (2 Bft)
24.05.2018 10:04 15,8 °C 84 % 1016,5 hPa 0,0 mm 6,0 km/h (2 Bft) W-NW 286 ° 0 min 0,000 mm 2,3 UV-I 308 W/m² 13,1 °C 15,8 °C 9,7 km/h (2 Bft)
24.05.2018 10:05 15,8 °C 83 % 1016,5 hPa 0,0 mm 2,9 km/h (1 Bft) W-NW 293 ° 0 min 0,000 mm 2,3 UV-I 308 W/m² 12,9 °C 15,8 °C 4,8 km/h (1 Bft)
24.05.2018 10:06 15,7 °C 83 % 1016,6 hPa 0,0 mm 4,3 km/h (1 Bft) W-NW 300 ° 0 min 0,000 mm 2,3 UV-I 304 W/m² 12,8 °C 15,7 °C 6,4 km/h (2 Bft)
24.05.2018 10:07 15,7 °C 84 % 1016,6 hPa 0,0 mm 5,6 km/h (1 Bft) NW 315 ° 0 min 0,000 mm 2,2 UV-I 297 W/m² 13,0 °C 15,7 °C 6,4 km/h (2 Bft)
24.05.2018 10:08 15,7 °C 84 % 1016,6 hPa 0,0 mm 2,0 km/h (1 Bft) NW 315 ° 0 min 0,000 mm 2,2 UV-I 287 W/m² 13,0 °C 15,7 °C 3,2 km/h (1 Bft)
24.05.2018 10:09 15,7 °C 84 % 1016,7 hPa 0,0 mm 2,2 km/h (1 Bft) NW 323 ° 0 min 0,000 mm 2,2 UV-I 283 W/m² 13,0 °C 15,7 °C 4,8 km/h (1 Bft)
24.05.2018 10:10 15,7 °C 85 % 1016,7 hPa 0,0 mm 3,6 km/h (1 Bft) NW 323 ° 0 min 0,000 mm 2,1 UV-I 283 W/m² 13,2 °C 15,7 °C 4,8 km/h (1 Bft)
24.05.2018 10:11 15,7 °C 84 % 1016,7 hPa 0,0 mm 2,3 km/h (1 Bft) W 275 ° 0 min 0,000 mm 2,2 UV-I 281 W/m² 13,0 °C 15,7 °C 9,7 km/h (2 Bft)
24.05.2018 10:12 15,7 °C 83 % 1016,7 hPa 0,0 mm 4,6 km/h (1 Bft) W 271 ° 0 min 0,000 mm 2,1 UV-I 279 W/m² 12,8 °C 15,7 °C 9,7 km/h (2 Bft)
24.05.2018 10:13 15,6 °C 83 % 1016,7 hPa 0,0 mm 1,0 km/h (0 Bft) W 271 ° 0 min 0,000 mm 2,1 UV-I 274 W/m² 12,7 °C 15,6 °C 3,2 km/h (1 Bft)
24.05.2018 10:14 15,6 °C 84 % 1016,7 hPa 0,0 mm 1,7 km/h (1 Bft) W-NW 298 ° 0 min 0,000 mm 2,1 UV-I 271 W/m² 12,9 °C 15,6 °C 4,8 km/h (1 Bft)
24.05.2018 10:15 15,6 °C 85 % 1016,7 hPa 0,0 mm 1,5 km/h (1 Bft) W-NW 302 ° 0 min 0,000 mm 2,1 UV-I 269 W/m² 13,1 °C 15,6 °C 4,8 km/h (1 Bft)
24.05.2018 10:16 15,6 °C 85 % 1016,6 hPa 0,0 mm 2,9 km/h (1 Bft) W-NW 289 ° 0 min 0,000 mm 2,1 UV-I 269 W/m² 13,1 °C 15,6 °C 4,8 km/h (1 Bft)
24.05.2018 10:17 15,6 °C 85 % 1016,7 hPa 0,0 mm 4,6 km/h (1 Bft) W-NW 296 ° 0 min 0,000 mm 2,1 UV-I 271 W/m² 13,1 °C 15,6 °C 6,4 km/h (2 Bft)
24.05.2018 10:18 15,7 °C 85 % 1016,7 hPa 0,0 mm 2,4 km/h (1 Bft) W-NW 297 ° 0 min 0,000 mm 2,2 UV-I 272 W/m² 13,2 °C 15,7 °C 4,8 km/h (1 Bft)
24.05.2018 10:19 15,7 °C 85 % 1016,7 hPa 0,0 mm 4,3 km/h (1 Bft) W-NW 286 ° 0 min 0,000 mm 2,2 UV-I 276 W/m² 13,2 °C 15,7 °C 6,4 km/h (2 Bft)
24.05.2018 10:20 15,7 °C 85 % 1016,6 hPa 0,0 mm 3,6 km/h (1 Bft) W-NW 286 ° 0 min 0,000 mm 2,2 UV-I 279 W/m² 13,2 °C 15,7 °C 4,8 km/h (1 Bft)
24.05.2018 10:21 15,7 °C 84 % 1016,6 hPa 0,0 mm 4,3 km/h (1 Bft) W-NW 298 ° 0 min 0,000 mm 2,2 UV-I 281 W/m² 13,0 °C 15,7 °C 6,4 km/h (2 Bft)
24.05.2018 10:22 15,7 °C 83 % 1016,6 hPa 0,0 mm 4,4 km/h (1 Bft) NW 322 ° 0 min 0,000 mm 2,2 UV-I 285 W/m² 12,8 °C 15,7 °C 4,8 km/h (1 Bft)
24.05.2018 10:23 15,7 °C 84 % 1016,6 hPa 0,0 mm 3,9 km/h (1 Bft) NW 312 ° 0 min 0,000 mm 2,3 UV-I 288 W/m² 13,0 °C 15,7 °C 6,4 km/h (2 Bft)
24.05.2018 10:24 15,7 °C 84 % 1016,6 hPa 0,0 mm 4,0 km/h (1 Bft) NW 318 ° 0 min 0,000 mm 2,3 UV-I 290 W/m² 13,0 °C 15,7 °C 4,8 km/h (1 Bft)
24.05.2018 10:25 15,7 °C 84 % 1016,5 hPa 0,0 mm 4,0 km/h (1 Bft) W-NW 300 ° 0 min 0,000 mm 2,3 UV-I 301 W/m² 13,0 °C 15,7 °C 4,8 km/h (1 Bft)
24.05.2018 10:26 15,7 °C 83 % 1016,5 hPa 0,0 mm 2,2 km/h (1 Bft) NW 308 ° 0 min 0,000 mm 2,4 UV-I 309 W/m² 12,8 °C 15,7 °C 4,8 km/h (1 Bft)
24.05.2018 10:27 15,7 °C 83 % 1016,5 hPa 0,0 mm 3,2 km/h (1 Bft) NW 313 ° 0 min 0,000 mm 2,5 UV-I 320 W/m² 12,8 °C 15,7 °C 4,8 km/h (1 Bft)
24.05.2018 10:28 15,8 °C 84 % 1016,5 hPa 0,0 mm 2,3 km/h (1 Bft) NW 315 ° 0 min 0,000 mm 2,6 UV-I 338 W/m² 13,1 °C 15,8 °C 4,8 km/h (1 Bft)
24.05.2018 10:29 15,8 °C 84 % 1016,5 hPa 0,0 mm 3,9 km/h (1 Bft) NW 315 ° 0 min 0,000 mm 2,7 UV-I 353 W/m² 13,1 °C 15,8 °C 4,8 km/h (1 Bft)
24.05.2018 10:30 15,9 °C 83 % 1016,5 hPa 0,0 mm 1,8 km/h (1 Bft) NW 315 ° 0 min 0,000 mm 2,8 UV-I 373 W/m² 13,0 °C 15,9 °C 3,2 km/h (1 Bft)
24.05.2018 10:31 15,9 °C 84 % 1016,5 hPa 0,0 mm 2,0 km/h (1 Bft) NW 315 ° 0 min 0,000 mm 2,9 UV-I 392 W/m² 13,2 °C 15,9 °C 3,2 km/h (1 Bft)
24.05.2018 10:32 15,9 °C 84 % 1016,6 hPa 0,0 mm 2,1 km/h (1 Bft) NW 315 ° 0 min 0,000 mm 2,9 UV-I 383 W/m² 13,2 °C 15,9 °C 3,2 km/h (1 Bft)
24.05.2018 10:33 15,9 °C 83 % 1016,6 hPa 0,0 mm 0,1 km/h (0 Bft) NW 315 ° 0 min 0,000 mm 3,1 UV-I 417 W/m² 13,0 °C 15,9 °C 1,6 km/h (1 Bft)
24.05.2018 10:34 16,0 °C 82 % 1016,6 hPa 0,0 mm 0,0 km/h (0 Bft) NW 315 ° 0 min 0,000 mm 3,2 UV-I 431 W/m² 12,9 °C 16,0 °C 0,0 km/h (0 Bft)
24.05.2018 10:35 15,9 °C 82 % 1016,6 hPa 0,0 mm 0,0 km/h (0 Bft) NW 315 ° 0 min 0,000 mm 3,5 UV-I 503 W/m² 12,8 °C 15,9 °C 0,0 km/h (0 Bft)
24.05.2018 10:36 15,9 °C 83 % 1016,7 hPa 0,0 mm 0,3 km/h (0 Bft) NW 315 ° 0 min 0,000 mm 3,4 UV-I 480 W/m² 13,0 °C 15,9 °C 3,2 km/h (1 Bft)
24.05.2018 10:37 15,9 °C 82 % 1016,6 hPa 0,0 mm 1,3 km/h (1 Bft) W-SW 248 ° 0 min 0,000 mm 3,7 UV-I 531 W/m² 12,8 °C 15,9 °C 3,2 km/h (1 Bft)
24.05.2018 10:38 15,8 °C 82 % 1016,7 hPa 0,0 mm 0,8 km/h (0 Bft) S-SW 205 ° 0 min 0,000 mm 3,6 UV-I 499 W/m² 12,7 °C 15,8 °C 3,2 km/h (1 Bft)
24.05.2018 10:39 15,8 °C 82 % 1016,6 hPa 0,0 mm 2,4 km/h (1 Bft) S-SW 205 ° 0 min 0,000 mm 3,4 UV-I 469 W/m² 12,7 °C 15,8 °C 3,2 km/h (1 Bft)
24.05.2018 10:40 15,8 °C 83 % 1016,7 hPa 0,0 mm 0,8 km/h (0 Bft) S-SW 205 ° 0 min 0,000 mm 3,7 UV-I 517 W/m² 12,9 °C 15,8 °C 1,6 km/h (1 Bft)
24.05.2018 10:41 15,9 °C 84 % 1016,7 hPa 0,0 mm 1,1 km/h (1 Bft) W 269 ° 0 min 0,000 mm 3,5 UV-I 461 W/m² 13,2 °C 15,9 °C 3,2 km/h (1 Bft)
24.05.2018 10:42 16,0 °C 83 % 1016,7 hPa 0,0 mm 1,4 km/h (1 Bft) NW 304 ° 0 min 0,000 mm 3,6 UV-I 496 W/m² 13,1 °C 16,0 °C 3,2 km/h (1 Bft)
24.05.2018 10:43 16,1 °C 83 % 1016,6 hPa 0,0 mm 3,6 km/h (1 Bft) NW 313 ° 0 min 0,000 mm 3,6 UV-I 459 W/m² 13,2 °C 16,1 °C 4,8 km/h (1 Bft)
24.05.2018 10:44 16,2 °C 83 % 1016,6 hPa 0,0 mm 2,3 km/h (1 Bft) NW 317 ° 0 min 0,000 mm 3,8 UV-I 494 W/m² 13,3 °C 16,2 °C 6,4 km/h (2 Bft)
24.05.2018 10:45 16,3 °C 83 % 1016,6 hPa 0,0 mm 3,6 km/h (1 Bft) NW 313 ° 0 min 0,000 mm 3,8 UV-I 541 W/m² 13,4 °C 16,3 °C 6,4 km/h (2 Bft)
24.05.2018 10:46 16,4 °C 83 % 1016,6 hPa 0,0 mm 2,7 km/h (1 Bft) W-NW 294 ° 0 min 0,000 mm 4,1 UV-I 584 W/m² 13,5 °C 16,4 °C 4,8 km/h (1 Bft)
24.05.2018 10:47 16,6 °C 83 % 1016,6 hPa 0,0 mm 6,4 km/h (2 Bft) W-NW 287 ° 0 min 0,000 mm 4,4 UV-I 540 W/m² 13,7 °C 16,6 °C 11,3 km/h (2 Bft)
24.05.2018 10:48 16,5 °C 79 % 1016,6 hPa 0,0 mm 3,2 km/h (1 Bft) NW 304 ° 0 min 0,000 mm 4,4 UV-I 540 W/m² 12,8 °C 16,5 °C 6,4 km/h (2 Bft)
24.05.2018 10:49 16,5 °C 79 % 1016,6 hPa 0,0 mm 0,9 km/h (0 Bft) NW 304 ° 0 min 0,000 mm 4,4 UV-I 591 W/m² 12,8 °C 16,5 °C 3,2 km/h (1 Bft)
24.05.2018 10:50 16,6 °C 81 % 1016,6 hPa 0,0 mm 0,6 km/h (0 Bft) NW 304 ° 0 min 0,000 mm 4,9 UV-I 591 W/m² 13,3 °C 16,6 °C 3,2 km/h (1 Bft)
24.05.2018 10:51 16,5 °C 80 % 1016,6 hPa 0,0 mm 0,1 km/h (0 Bft) NW 304 ° 1 min 0,000 mm 4,8 UV-I 775 W/m² 13,0 °C 16,5 °C 1,6 km/h (1 Bft)
24.05.2018 10:52 16,6 °C 84 % 1016,6 hPa 0,0 mm 3,6 km/h (1 Bft) W 267 ° 1 min 0,000 mm 4,6 UV-I 775 W/m² 13,9 °C 16,6 °C 8,0 km/h (2 Bft)
24.05.2018 10:53 16,8 °C 82 % 1016,6 hPa 0,0 mm 5,3 km/h (1 Bft) W 269 ° 1 min 0,000 mm 4,6 UV-I 622 W/m² 13,7 °C 16,8 °C 9,7 km/h (2 Bft)
24.05.2018 10:54 16,9 °C 81 % 1016,6 hPa 0,0 mm 2,7 km/h (1 Bft) W-NW 301 ° 0 min 0,000 mm 4,2 UV-I 501 W/m² 13,6 °C 16,9 °C 4,8 km/h (1 Bft)
24.05.2018 10:55 16,9 °C 82 % 1016,6 hPa 0,0 mm 0,9 km/h (0 Bft) W-NW 301 ° 0 min 0,000 mm 3,9 UV-I 478 W/m² 13,8 °C 16,9 °C 3,2 km/h (1 Bft)
24.05.2018 10:56 16,9 °C 80 % 1016,6 hPa 0,0 mm 3,6 km/h (1 Bft) NO 49 ° 0 min 0,000 mm 3,8 UV-I 468 W/m² 13,4 °C 16,9 °C 8,0 km/h (2 Bft)
24.05.2018 10:57 16,9 °C 80 % 1016,6 hPa 0,0 mm 3,2 km/h (1 Bft) NO 35 ° 0 min 0,000 mm 3,7 UV-I 475 W/m² 13,4 °C 16,9 °C 8,0 km/h (2 Bft)
24.05.2018 10:58 16,9 °C 82 % 1016,6 hPa 0,0 mm 2,3 km/h (1 Bft) N-NW 327 ° 0 min 0,000 mm 3,8 UV-I 476 W/m² 13,8 °C 16,9 °C 4,8 km/h (1 Bft)
24.05.2018 10:59 16,9 °C 79 % 1016,7 hPa 0,0 mm 1,6 km/h (1 Bft) N-NW 327 ° 0 min 0,000 mm 3,6 UV-I 462 W/m² 13,2 °C 16,9 °C 4,8 km/h (1 Bft)
24.05.2018 11:00 16,8 °C 78 % 1016,7 hPa 0,0 mm 2,3 km/h (1 Bft) N-NW 327 ° 0 min 0,000 mm 3,5 UV-I 417 W/m² 12,9 °C 16,8 °C 4,8 km/h (1 Bft)
24.05.2018 11:01 16,8 °C 80 % 1016,6 hPa 0,0 mm 1,6 km/h (1 Bft) N-NW 327 ° 0 min 0,229 mm 3,3 UV-I 404 W/m² 13,3 °C 16,8 °C 3,2 km/h (1 Bft)
24.05.2018 11:02 16,9 °C 81 % 1016,7 hPa 0,0 mm 2,1 km/h (1 Bft) N-NW 327 ° 0 min 0,000 mm 3,1 UV-I 396 W/m² 13,6 °C 16,9 °C 3,2 km/h (1 Bft)
24.05.2018 11:03 16,9 °C 82 % 1016,7 hPa 0,0 mm 0,8 km/h (0 Bft) N-NW 327 ° 0 min 0,000 mm 3,0 UV-I 383 W/m² 13,8 °C 16,9 °C 3,2 km/h (1 Bft)
24.05.2018 11:04 17,1 °C 81 % 1016,7 hPa 0,0 mm 6,6 km/h (2 Bft) W-NW 294 ° 0 min 0,000 mm 3,0 UV-I 376 W/m² 13,8 °C 17,1 °C 9,7 km/h (2 Bft)
24.05.2018 11:05 17,0 °C 81 % 1016,7 hPa 0,0 mm 4,1 km/h (1 Bft) W-NW 292 ° 0 min 0,000 mm 3,0 UV-I 374 W/m² 13,7 °C 17,0 °C 4,8 km/h (1 Bft)
24.05.2018 11:06 16,9 °C 80 % 1016,7 hPa 0,0 mm 3,6 km/h (1 Bft) W-NW 292 ° 0 min 0,000 mm 3,1 UV-I 401 W/m² 13,4 °C 16,9 °C 4,8 km/h (1 Bft)
24.05.2018 11:07 16,8 °C 79 % 1016,7 hPa 0,0 mm 3,2 km/h (1 Bft) NW 326 ° 0 min 0,000 mm 3,3 UV-I 422 W/m² 13,1 °C 16,8 °C 4,8 km/h (1 Bft)
24.05.2018 11:08 16,8 °C 80 % 1016,7 hPa 0,0 mm 6,4 km/h (2 Bft) N-NW 339 ° 0 min 0,000 mm 3,4 UV-I 439 W/m² 13,3 °C 16,8 °C 8,0 km/h (2 Bft)
24.05.2018 11:09 16,7 °C 80 % 1016,6 hPa 0,0 mm 5,4 km/h (1 Bft) N-NW 338 ° 0 min 0,000 mm 3,4 UV-I 438 W/m² 13,2 °C 16,7 °C 8,0 km/h (2 Bft)
24.05.2018 11:10 16,8 °C 81 % 1016,6 hPa 0,0 mm 4,7 km/h (1 Bft) N 11 ° 0 min 0,000 mm 3,5 UV-I 432 W/m² 13,5 °C 16,8 °C 6,4 km/h (2 Bft)
24.05.2018 11:11 16,8 °C 80 % 1016,7 hPa 0,0 mm 1,1 km/h (1 Bft) N 11 ° 0 min 0,000 mm 3,5 UV-I 434 W/m² 13,3 °C 16,8 °C 4,8 km/h (1 Bft)
24.05.2018 11:12 16,8 °C 80 % 1016,7 hPa 0,0 mm 0,3 km/h (0 Bft) N 11 ° 0 min 0,000 mm 3,5 UV-I 418 W/m² 13,3 °C 16,8 °C 1,6 km/h (1 Bft)
24.05.2018 11:13 16,7 °C 80 % 1016,6 hPa 0,0 mm 0,9 km/h (0 Bft) N 11 ° 0 min 0,000 mm 3,4 UV-I 411 W/m² 13,2 °C 16,7 °C 3,2 km/h (1 Bft)
24.05.2018 11:14 16,8 °C 81 % 1016,6 hPa 0,0 mm 4,5 km/h (1 Bft) N 5 ° 0 min 0,000 mm 3,4 UV-I 410 W/m² 13,5 °C 16,8 °C 4,8 km/h (1 Bft)
24.05.2018 11:15 16,8 °C 80 % 1016,7 hPa 0,0 mm 4,2 km/h (1 Bft) N-NW 348 ° 0 min 0,000 mm 3,5 UV-I 413 W/m² 13,3 °C 16,8 °C 6,4 km/h (2 Bft)
24.05.2018 11:16 16,9 °C 82 % 1016,7 hPa 0,0 mm 4,7 km/h (1 Bft) N 355 ° 0 min 0,000 mm 3,5 UV-I 422 W/m² 13,8 °C 16,9 °C 6,4 km/h (2 Bft)
24.05.2018 11:17 17,1 °C 81 % 1016,7 hPa 0,0 mm 1,5 km/h (1 Bft) N 355 ° 0 min 0,000 mm 3,6 UV-I 436 W/m² 13,8 °C 17,1 °C 4,8 km/h (1 Bft)
24.05.2018 11:18 17,1 °C 80 % 1016,7 hPa 0,0 mm 1,5 km/h (1 Bft) N-NO 16 ° 0 min 0,000 mm 3,8 UV-I 476 W/m² 13,6 °C 17,1 °C 3,2 km/h (1 Bft)
24.05.2018 11:19 17,1 °C 79 % 1016,7 hPa 0,0 mm 1,9 km/h (1 Bft) N-NO 15 ° 0 min 0,000 mm 4,0 UV-I 501 W/m² 13,4 °C 17,1 °C 3,2 km/h (1 Bft)
24.05.2018 11:20 17,2 °C 81 % 1016,7 hPa 0,0 mm 2,4 km/h (1 Bft) N-NO 16 ° 0 min 0,000 mm 4,1 UV-I 512 W/m² 13,9 °C 17,2 °C 3,2 km/h (1 Bft)
24.05.2018 11:21 17,1 °C 78 % 1016,6 hPa 0,0 mm 1,1 km/h (1 Bft) N-NW 347 ° 0 min 0,000 mm 4,3 UV-I 538 W/m² 13,2 °C 17,1 °C 3,2 km/h (1 Bft)
24.05.2018 11:22 17,1 °C 80 % 1016,6 hPa 0,0 mm 1,3 km/h (1 Bft) N-NW 347 ° 0 min 0,000 mm 4,1 UV-I 499 W/m² 13,6 °C 17,1 °C 3,2 km/h (1 Bft)
24.05.2018 11:23 17,1 °C 80 % 1016,6 hPa 0,0 mm 1,4 km/h (1 Bft) N-NW 347 ° 0 min 0,000 mm 4,1 UV-I 494 W/m² 13,6 °C 17,1 °C 3,2 km/h (1 Bft)
24.05.2018 11:24 17,2 °C 80 % 1016,6 hPa 0,0 mm 3,4 km/h (1 Bft) N-NO 16 ° 0 min 0,000 mm 4,1 UV-I 499 W/m² 13,7 °C 17,2 °C 4,8 km/h (1 Bft)
24.05.2018 11:25 17,2 °C 81 % 1016,5 hPa 0,0 mm 3,2 km/h (1 Bft) N 351 ° 0 min 0,000 mm 4,4 UV-I 547 W/m² 13,9 °C 17,2 °C 6,4 km/h (2 Bft)
24.05.2018 11:26 17,2 °C 79 % 1016,5 hPa 0,0 mm 5,4 km/h (1 Bft) N 360 ° 0 min 0,000 mm 4,3 UV-I 524 W/m² 13,5 °C 17,2 °C 8,0 km/h (2 Bft)
24.05.2018 11:27 17,2 °C 78 % 1016,6 hPa 0,0 mm 6,1 km/h (2 Bft) N-NO 26 ° 0 min 0,000 mm 4,3 UV-I 510 W/m² 13,3 °C 17,2 °C 9,7 km/h (2 Bft)
24.05.2018 11:28 17,2 °C 77 % 1016,6 hPa 0,0 mm 5,0 km/h (1 Bft) N 360 ° 1 min 0,000 mm 4,7 UV-I 610 W/m² 13,1 °C 17,2 °C 8,0 km/h (2 Bft)
24.05.2018 11:29 17,1 °C 79 % 1016,6 hPa 0,0 mm 6,3 km/h (2 Bft) N-NW 344 ° 1 min 0,000 mm 4,8 UV-I 613 W/m² 13,4 °C 17,1 °C 9,7 km/h (2 Bft)
24.05.2018 11:30 17,1 °C 79 % 1016,6 hPa 0,0 mm 4,8 km/h (1 Bft) NW 317 ° 1 min 0,000 mm 5,1 UV-I 675 W/m² 13,4 °C 17,1 °C 6,4 km/h (2 Bft)
24.05.2018 11:31 17,2 °C 78 % 1016,6 hPa 0,0 mm 6,8 km/h (2 Bft) N-NW 329 ° 1 min 0,000 mm 6,1 UV-I 675 W/m² 13,3 °C 17,2 °C 9,7 km/h (2 Bft)
24.05.2018 11:32 17,4 °C 80 % 1016,7 hPa 0,0 mm 5,5 km/h (1 Bft) N 355 ° 1 min 0,000 mm 6,7 UV-I 895 W/m² 13,9 °C 17,4 °C 6,4 km/h (2 Bft)
24.05.2018 11:33 17,6 °C 78 % 1016,7 hPa 0,0 mm 4,4 km/h (1 Bft) N-NW 339 ° 1 min 0,000 mm 5,7 UV-I 838 W/m² 13,7 °C 17,6 °C 6,4 km/h (2 Bft)
24.05.2018 11:34 17,6 °C 81 % 1016,7 hPa 0,0 mm 1,5 km/h (1 Bft) N-NW 339 ° 1 min 0,000 mm 5,9 UV-I 802 W/m² 14,3 °C 17,6 °C 3,2 km/h (1 Bft)
24.05.2018 11:35 17,7 °C 78 % 1016,6 hPa 0,0 mm 4,9 km/h (1 Bft) N-NO 16 ° 1 min 0,000 mm 5,4 UV-I 724 W/m² 13,8 °C 17,7 °C 8,0 km/h (2 Bft)
24.05.2018 11:36 17,7 °C 76 % 1016,6 hPa 0,0 mm 1,3 km/h (1 Bft) N-NO 16 ° 0 min 0,000 mm 4,7 UV-I 534 W/m² 13,4 °C 17,7 °C 4,8 km/h (1 Bft)
24.05.2018 11:37 17,6 °C 80 % 1016,6 hPa 0,0 mm 1,7 km/h (1 Bft) N-NW 333 ° 0 min 0,000 mm 4,2 UV-I 517 W/m² 14,1 °C 17,6 °C 4,8 km/h (1 Bft)
24.05.2018 11:38 17,6 °C 79 % 1016,6 hPa 0,0 mm 3,7 km/h (1 Bft) N-NW 347 ° 0 min 0,000 mm 3,9 UV-I 476 W/m² 13,9 °C 17,6 °C 4,8 km/h (1 Bft)
24.05.2018 11:39 17,6 °C 78 % 1016,7 hPa 0,0 mm 3,6 km/h (1 Bft) N-NW 342 ° 0 min 0,000 mm 3,6 UV-I 438 W/m² 13,7 °C 17,6 °C 4,8 km/h (1 Bft)
24.05.2018 11:40 17,5 °C 75 % 1016,6 hPa 0,0 mm 2,5 km/h (1 Bft) N-NW 342 ° 0 min 0,000 mm 3,5 UV-I 422 W/m² 13,0 °C 17,5 °C 3,2 km/h (1 Bft)
24.05.2018 11:41 17,3 °C 77 % 1016,6 hPa 0,0 mm 0,1 km/h (0 Bft) N-NW 342 ° 0 min 0,000 mm 3,5 UV-I 410 W/m² 13,2 °C 17,3 °C 1,6 km/h (1 Bft)
24.05.2018 11:42 17,2 °C 76 % 1016,6 hPa 0,0 mm 0,0 km/h (0 Bft) N-NW 342 ° 0 min 0,000 mm 4,0 UV-I 499 W/m² 12,9 °C 17,2 °C 0,0 km/h (0 Bft)
24.05.2018 11:43 17,1 °C 77 % 1016,6 hPa 0,0 mm 0,0 km/h (0 Bft) N-NW 342 ° 0 min 0,000 mm 3,7 UV-I 424 W/m² 13,0 °C 17,1 °C 0,0 km/h (0 Bft)
24.05.2018 11:44 17,0 °C 78 % 1016,6 hPa 0,0 mm 0,5 km/h (0 Bft) N-NO 22 ° 0 min 0,000 mm 4,0 UV-I 522 W/m² 13,1 °C 17,0 °C 3,2 km/h (1 Bft)
24.05.2018 11:45 17,0 °C 80 % 1016,5 hPa 0,0 mm 3,4 km/h (1 Bft) N 355 ° 0 min 0,000 mm 3,3 UV-I 432 W/m² 13,5 °C 17,0 °C 4,8 km/h (1 Bft)
24.05.2018 11:46 17,1 °C 79 % 1016,5 hPa 0,0 mm 3,3 km/h (1 Bft) SW 226 ° 0 min 0,000 mm 3,2 UV-I 390 W/m² 13,4 °C 17,1 °C 4,8 km/h (1 Bft)
24.05.2018 11:47 17,1 °C 78 % 1016,5 hPa 0,0 mm 0,2 km/h (0 Bft) SW 236 ° 0 min 0,000 mm 3,1 UV-I 360 W/m² 13,2 °C 17,1 °C 1,6 km/h (1 Bft)
24.05.2018 11:48 17,2 °C 80 % 1016,5 hPa 0,0 mm 2,6 km/h (1 Bft) N 5 ° 0 min 0,000 mm 2,9 UV-I 341 W/m² 13,7 °C 17,2 °C 4,8 km/h (1 Bft)
24.05.2018 11:49 17,2 °C 79 % 1016,5 hPa 0,0 mm 2,1 km/h (1 Bft) N 5 ° 0 min 0,000 mm 2,8 UV-I 322 W/m² 13,5 °C 17,2 °C 3,2 km/h (1 Bft)
24.05.2018 11:50 17,3 °C 78 % 1016,5 hPa 0,0 mm 5,8 km/h (2 Bft) N-NW 347 ° 0 min 0,000 mm 2,8 UV-I 315 W/m² 13,4 °C 17,3 °C 9,7 km/h (2 Bft)
24.05.2018 11:51 17,3 °C 78 % 1016,5 hPa 0,0 mm 5,6 km/h (1 Bft) N 5 ° 0 min 0,000 mm 2,8 UV-I 313 W/m² 13,4 °C 17,3 °C 9,7 km/h (2 Bft)
24.05.2018 11:52 17,3 °C 79 % 1016,5 hPa 0,0 mm 4,6 km/h (1 Bft) N-NW 340 ° 0 min 0,000 mm 2,8 UV-I 316 W/m² 13,6 °C 17,3 °C 6,4 km/h (2 Bft)
24.05.2018 11:53 17,3 °C 76 % 1016,6 hPa 0,0 mm 3,7 km/h (1 Bft) N-NW 334 ° 0 min 0,000 mm 2,9 UV-I 345 W/m² 13,0 °C 17,3 °C 6,4 km/h (2 Bft)
24.05.2018 11:54 17,2 °C 76 % 1016,6 hPa 0,0 mm 3,6 km/h (1 Bft) N-NW 335 ° 0 min 0,000 mm 3,3 UV-I 371 W/m² 12,9 °C 17,2 °C 6,4 km/h (2 Bft)
24.05.2018 11:55 17,2 °C 76 % 1016,5 hPa 0,0 mm 0,7 km/h (0 Bft) N-NW 335 ° 0 min 0,000 mm 3,6 UV-I 406 W/m² 12,9 °C 17,2 °C 1,6 km/h (1 Bft)
24.05.2018 11:56 17,1 °C 75 % 1016,5 hPa 0,0 mm 0,0 km/h (0 Bft) N-NW 335 ° 0 min 0,000 mm 4,1 UV-I 471 W/m² 12,6 °C 17,1 °C 0,0 km/h (0 Bft)
24.05.2018 11:57 17,2 °C 79 % 1016,5 hPa 0,0 mm 0,3 km/h (0 Bft) N-NW 335 ° 0 min 0,000 mm 6,3 UV-I 471 W/m² 13,5 °C 17,2 °C 1,6 km/h (1 Bft)
24.05.2018 11:58 17,3 °C 78 % 1016,5 hPa 0,0 mm 0,9 km/h (0 Bft) N-NW 346 ° 0 min 0,000 mm 7,2 UV-I 471 W/m² 13,4 °C 17,3 °C 3,2 km/h (1 Bft)
24.05.2018 11:59 17,4 °C 78 % 1016,5 hPa 0,0 mm 3,7 km/h (1 Bft) O-SO 108 ° 0 min 0,000 mm 7,2 UV-I 471 W/m² 13,5 °C 17,4 °C 6,4 km/h (2 Bft)
24.05.2018 12:00 17,4 °C 77 % 1016,5 hPa 0,0 mm 5,4 km/h (1 Bft) NO 54 ° 0 min 0,279 mm 5,9 UV-I 471 W/m² 13,3 °C 17,4 °C 8,0 km/h (2 Bft)
24.05.2018 12:01 17,6 °C 76 % 1016,5 hPa 0,0 mm 5,8 km/h (2 Bft) N-NW 347 ° 1 min 0,000 mm 5,7 UV-I 700 W/m² 13,3 °C 17,6 °C 6,4 km/h (2 Bft)
24.05.2018 12:02 17,7 °C 78 % 1016,5 hPa 0,0 mm 5,2 km/h (1 Bft) NW 306 ° 1 min 0,000 mm 6,7 UV-I 700 W/m² 13,8 °C 17,7 °C 8,0 km/h (2 Bft)
24.05.2018 12:03 17,8 °C 75 % 1016,5 hPa 0,0 mm 3,8 km/h (1 Bft) W-NW 293 ° 1 min 0,000 mm 6,7 UV-I 909 W/m² 13,3 °C 17,8 °C 6,4 km/h (2 Bft)
24.05.2018 12:04 17,9 °C 74 % 1016,5 hPa 0,0 mm 0,7 km/h (0 Bft) NO 37 ° 1 min 0,000 mm 6,7 UV-I 909 W/m² 13,2 °C 17,9 °C 4,8 km/h (1 Bft)
24.05.2018 12:05 17,9 °C 74 % 1016,4 hPa 0,0 mm 4,6 km/h (1 Bft) NO 34 ° 1 min 0,000 mm 8,2 UV-I 1223 W/m² 13,2 °C 17,9 °C 8,0 km/h (2 Bft)
24.05.2018 12:06 17,9 °C 74 % 1016,4 hPa 0,0 mm 1,9 km/h (1 Bft) NO 50 ° 1 min 0,000 mm 6,3 UV-I 1223 W/m² 13,2 °C 17,9 °C 4,8 km/h (1 Bft)
24.05.2018 12:07 18,1 °C 77 % 1016,3 hPa 0,0 mm 1,7 km/h (1 Bft) NO 46 ° 1 min 0,000 mm 5,0 UV-I 1223 W/m² 14,0 °C 18,1 °C 8,0 km/h (2 Bft)
24.05.2018 12:08 18,1 °C 73 % 1016,4 hPa 0,0 mm 3,7 km/h (1 Bft) N-NO 28 ° 1 min 0,000 mm 5,0 UV-I 603 W/m² 13,2 °C 18,1 °C 6,4 km/h (2 Bft)
24.05.2018 12:09 18,1 °C 73 % 1016,4 hPa 0,0 mm 5,4 km/h (1 Bft) O-NO 61 ° 1 min 0,000 mm 5,9 UV-I 603 W/m² 13,2 °C 18,1 °C 8,0 km/h (2 Bft)
24.05.2018 12:10 18,1 °C 74 % 1016,4 hPa 0,0 mm 5,9 km/h (2 Bft) O-NO 70 ° 1 min 0,000 mm 6,4 UV-I 603 W/m² 13,4 °C 18,1 °C 8,0 km/h (2 Bft)
24.05.2018 12:11 18,1 °C 72 % 1016,4 hPa 0,0 mm 6,5 km/h (2 Bft) O 88 ° 1 min 0,000 mm 6,4 UV-I 951 W/m² 13,0 °C 18,1 °C 8,0 km/h (2 Bft)
24.05.2018 12:12 17,9 °C 73 % 1016,4 hPa 0,0 mm 3,8 km/h (1 Bft) O-SO 108 ° 1 min 0,000 mm 4,1 UV-I 951 W/m² 13,0 °C 17,9 °C 6,4 km/h (2 Bft)
24.05.2018 12:13 17,8 °C 75 % 1016,3 hPa 0,0 mm 1,4 km/h (1 Bft) O-SO 108 ° 0 min 0,000 mm 4,0 UV-I 475 W/m² 13,3 °C 17,8 °C 3,2 km/h (1 Bft)
24.05.2018 12:14 17,7 °C 74 % 1016,3 hPa 0,0 mm 2,3 km/h (1 Bft) O-SO 108 ° 0 min 0,000 mm 3,8 UV-I 454 W/m² 13,0 °C 17,7 °C 4,8 km/h (1 Bft)
24.05.2018 12:15 17,7 °C 74 % 1016,3 hPa 0,0 mm 0,5 km/h (0 Bft) O-SO 108 ° 0 min 0,000 mm 3,7 UV-I 429 W/m² 13,0 °C 17,7 °C 1,6 km/h (1 Bft)
24.05.2018 12:16 17,8 °C 75 % 1016,3 hPa 0,0 mm 3,2 km/h (1 Bft) NW 325 ° 0 min 0,000 mm 3,5 UV-I 396 W/m² 13,3 °C 17,8 °C 6,4 km/h (2 Bft)
24.05.2018 12:17 17,9 °C 75 % 1016,3 hPa 0,0 mm 4,8 km/h (1 Bft) NO 40 ° 0 min 0,000 mm 3,5 UV-I 401 W/m² 13,4 °C 17,9 °C 8,0 km/h (2 Bft)
24.05.2018 12:18 17,9 °C 74 % 1016,3 hPa 0,0 mm 2,9 km/h (1 Bft) NO 39 ° 0 min 0,000 mm 3,5 UV-I 392 W/m² 13,2 °C 17,9 °C 6,4 km/h (2 Bft)
24.05.2018 12:19 17,8 °C 74 % 1016,3 hPa 0,0 mm 4,3 km/h (1 Bft) N-NO 28 ° 0 min 0,000 mm 4,3 UV-I 392 W/m² 13,1 °C 17,8 °C 4,8 km/h (1 Bft)
24.05.2018 12:20 17,8 °C 76 % 1016,3 hPa 0,0 mm 5,0 km/h (1 Bft) N 355 ° 0 min 0,000 mm 4,2 UV-I 392 W/m² 13,5 °C 17,8 °C 6,4 km/h (2 Bft)
24.05.2018 12:21 17,9 °C 74 % 1016,3 hPa 0,0 mm 1,9 km/h (1 Bft) N 355 ° 0 min 0,000 mm 4,6 UV-I 392 W/m² 13,2 °C 17,9 °C 4,8 km/h (1 Bft)
24.05.2018 12:22 17,9 °C 74 % 1016,3 hPa 0,0 mm 2,7 km/h (1 Bft) N-NW 344 ° 0 min 0,000 mm 4,9 UV-I 506 W/m² 13,2 °C 17,9 °C 3,2 km/h (1 Bft)
24.05.2018 12:23 17,9 °C 74 % 1016,2 hPa 0,0 mm 1,9 km/h (1 Bft) N-NW 344 ° 0 min 0,000 mm 4,0 UV-I 443 W/m² 13,2 °C 17,9 °C 3,2 km/h (1 Bft)
24.05.2018 12:24 17,9 °C 77 % 1016,3 hPa 0,0 mm 4,3 km/h (1 Bft) O 92 ° 0 min 0,000 mm 4,0 UV-I 438 W/m² 13,8 °C 17,9 °C 6,4 km/h (2 Bft)
24.05.2018 12:25 17,7 °C 73 % 1016,2 hPa 0,0 mm 2,1 km/h (1 Bft) O 92 ° 0 min 0,000 mm 3,9 UV-I 418 W/m² 12,8 °C 17,7 °C 4,8 km/h (1 Bft)
24.05.2018 12:26 17,7 °C 74 % 1016,2 hPa 0,0 mm 3,4 km/h (1 Bft) N-NO 30 ° 0 min 0,000 mm 3,9 UV-I 422 W/m² 13,0 °C 17,7 °C 4,8 km/h (1 Bft)
24.05.2018 12:27 17,7 °C 76 % 1016,2 hPa 0,0 mm 3,2 km/h (1 Bft) NO 49 ° 0 min 0,000 mm 4,0 UV-I 436 W/m² 13,4 °C 17,7 °C 4,8 km/h (1 Bft)
24.05.2018 12:28 17,7 °C 74 % 1016,2 hPa 0,0 mm 0,0 km/h (0 Bft) NO 49 ° 0 min 0,000 mm 4,1 UV-I 452 W/m² 13,0 °C 17,7 °C 0,0 km/h (0 Bft)
24.05.2018 12:29 17,7 °C 77 % 1016,2 hPa 0,0 mm 1,5 km/h (1 Bft) N 360 ° 0 min 0,000 mm 4,0 UV-I 445 W/m² 13,6 °C 17,7 °C 3,2 km/h (1 Bft)
24.05.2018 12:30 17,8 °C 77 % 1016,2 hPa 0,0 mm 1,3 km/h (1 Bft) N 5 ° 0 min 0,000 mm 4,0 UV-I 448 W/m² 13,7 °C 17,8 °C 3,2 km/h (1 Bft)
24.05.2018 12:31 17,8 °C 76 % 1016,1 hPa 0,0 mm 1,4 km/h (1 Bft) NO 38 ° 0 min 0,000 mm 4,1 UV-I 461 W/m² 13,5 °C 17,8 °C 3,2 km/h (1 Bft)
24.05.2018 12:32 17,8 °C 76 % 1016,1 hPa 0,0 mm 1,9 km/h (1 Bft) NO 42 ° 0 min 0,000 mm 4,1 UV-I 475 W/m² 13,5 °C 17,8 °C 3,2 km/h (1 Bft)
24.05.2018 12:33 17,8 °C 76 % 1016,2 hPa 0,0 mm 0,3 km/h (0 Bft) NO 42 ° 0 min 0,000 mm 4,3 UV-I 503 W/m² 13,5 °C 17,8 °C 1,6 km/h (1 Bft)
24.05.2018 12:34 17,8 °C 78 % 1016,1 hPa 0,0 mm 2,1 km/h (1 Bft) N 9 ° 0 min 0,000 mm 4,8 UV-I 575 W/m² 13,9 °C 17,8 °C 4,8 km/h (1 Bft)
24.05.2018 12:35 18,0 °C 78 % 1016,1 hPa 0,0 mm 4,3 km/h (1 Bft) N-NO 24 ° 0 min 0,000 mm 6,1 UV-I 575 W/m² 14,1 °C 18,0 °C 8,0 km/h (2 Bft)
24.05.2018 12:36 18,1 °C 76 % 1016,1 hPa 0,0 mm 2,0 km/h (1 Bft) N-NO 24 ° 1 min 0,000 mm 6,1 UV-I 779 W/m² 13,8 °C 18,1 °C 4,8 km/h (1 Bft)
24.05.2018 12:37 18,2 °C 76 % 1016,1 hPa 0,0 mm 3,5 km/h (1 Bft) N-NO 24 ° 1 min 0,000 mm 5,1 UV-I 773 W/m² 13,9 °C 18,2 °C 8,0 km/h (2 Bft)
24.05.2018 12:38 18,2 °C 74 % 1016,1 hPa 0,0 mm 4,0 km/h (1 Bft) NO 42 ° 1 min 0,000 mm 4,8 UV-I 773 W/m² 13,5 °C 18,2 °C 6,4 km/h (2 Bft)
24.05.2018 12:39 18,1 °C 73 % 1016,1 hPa 0,0 mm 0,7 km/h (0 Bft) NO 42 ° 0 min 0,000 mm 4,0 UV-I 533 W/m² 13,2 °C 18,1 °C 1,6 km/h (1 Bft)
24.05.2018 12:40 18,0 °C 75 % 1016,1 hPa 0,0 mm 0,1 km/h (0 Bft) NO 42 ° 0 min 0,000 mm 3,6 UV-I 390 W/m² 13,5 °C 18,0 °C 1,6 km/h (1 Bft)
24.05.2018 12:41 17,9 °C 76 % 1016,1 hPa 0,0 mm 0,3 km/h (0 Bft) NO 42 ° 0 min 0,000 mm 3,3 UV-I 388 W/m² 13,6 °C 17,9 °C 1,6 km/h (1 Bft)
24.05.2018 12:42 17,8 °C 77 % 1016,1 hPa 0,0 mm 1,6 km/h (1 Bft) NO 49 ° 0 min 0,000 mm 3,3 UV-I 396 W/m² 13,7 °C 17,8 °C 4,8 km/h (1 Bft)
24.05.2018 12:43 17,8 °C 74 % 1016,1 hPa 0,0 mm 3,5 km/h (1 Bft) NO 49 ° 0 min 0,000 mm 3,1 UV-I 364 W/m² 13,1 °C 17,8 °C 4,8 km/h (1 Bft)
24.05.2018 12:44 17,7 °C 74 % 1016,1 hPa 0,0 mm 1,7 km/h (1 Bft) NO 49 ° 0 min 0,000 mm 3,1 UV-I 371 W/m² 13,0 °C 17,7 °C 3,2 km/h (1 Bft)
24.05.2018 12:45 17,8 °C 77 % 1016,0 hPa 0,0 mm 1,6 km/h (1 Bft) NO 49 ° 0 min 0,000 mm 3,2 UV-I 390 W/m² 13,7 °C 17,8 °C 3,2 km/h (1 Bft)
24.05.2018 12:46 17,9 °C 78 % 1016,1 hPa 0,0 mm 2,1 km/h (1 Bft) NO 49 ° 0 min 0,000 mm 3,5 UV-I 434 W/m² 14,0 °C 17,9 °C 3,2 km/h (1 Bft)
24.05.2018 12:47 17,9 °C 75 % 1016,1 hPa 0,0 mm 0,2 km/h (0 Bft) NO 49 ° 0 min 0,000 mm 6,6 UV-I 434 W/m² 13,4 °C 17,9 °C 1,6 km/h (1 Bft)
24.05.2018 12:48 18,2 °C 75 % 1016,1 hPa 0,0 mm 3,6 km/h (1 Bft) N-NW 333 ° 0 min 0,000 mm 3,7 UV-I 434 W/m² 13,7 °C 18,2 °C 6,4 km/h (2 Bft)
24.05.2018 12:49 18,2 °C 75 % 1016,0 hPa 0,0 mm 3,8 km/h (1 Bft) NW 321 ° 0 min 0,000 mm 2,6 UV-I 434 W/m² 13,7 °C 18,2 °C 6,4 km/h (2 Bft)
24.05.2018 12:50 18,2 °C 75 % 1016,0 hPa 0,0 mm 5,5 km/h (1 Bft) NW 325 ° 0 min 0,000 mm 2,1 UV-I 269 W/m² 13,7 °C 18,2 °C 8,0 km/h (2 Bft)
24.05.2018 12:51 18,3 °C 76 % 1016,1 hPa 0,0 mm 6,7 km/h (2 Bft) W-SW 251 ° 0 min 0,000 mm 1,8 UV-I 213 W/m² 14,0 °C 18,3 °C 9,7 km/h (2 Bft)
24.05.2018 12:52 18,2 °C 75 % 1016,0 hPa 0,0 mm 4,7 km/h (1 Bft) NW 310 ° 0 min 0,000 mm 1,6 UV-I 171 W/m² 13,7 °C 18,2 °C 9,7 km/h (2 Bft)
24.05.2018 12:53 18,1 °C 75 % 1016,0 hPa 0,0 mm 5,3 km/h (1 Bft) NW 317 ° 0 min 0,000 mm 1,5 UV-I 162 W/m² 13,6 °C 18,1 °C 6,4 km/h (2 Bft)
24.05.2018 12:54 17,9 °C 75 % 1016,0 hPa 0,0 mm 7,4 km/h (2 Bft) N-NW 329 ° 0 min 0,000 mm 1,5 UV-I 162 W/m² 13,4 °C 17,9 °C 12,9 km/h (3 Bft)
24.05.2018 12:55 17,8 °C 76 % 1016,0 hPa 0,0 mm 6,9 km/h (2 Bft) NW 321 ° 0 min 0,000 mm 1,5 UV-I 160 W/m² 13,5 °C 17,8 °C 12,9 km/h (3 Bft)
24.05.2018 12:56 17,7 °C 77 % 1015,9 hPa 0,0 mm 5,9 km/h (2 Bft) NW 321 ° 0 min 0,000 mm 1,6 UV-I 169 W/m² 13,6 °C 17,7 °C 9,7 km/h (2 Bft)
24.05.2018 12:57 17,7 °C 78 % 1015,9 hPa 0,0 mm 4,7 km/h (1 Bft) W-NW 286 ° 0 min 0,000 mm 1,7 UV-I 179 W/m² 13,8 °C 17,7 °C 8,0 km/h (2 Bft)
24.05.2018 12:58 17,6 °C 77 % 1015,9 hPa 0,0 mm 3,1 km/h (1 Bft) N-NW 327 ° 0 min 0,000 mm 1,8 UV-I 195 W/m² 13,5 °C 17,6 °C 6,4 km/h (2 Bft)
24.05.2018 12:59 17,6 °C 77 % 1015,9 hPa 0,0 mm 4,1 km/h (1 Bft) NW 317 ° 0 min 0,000 mm 2,6 UV-I 294 W/m² 13,5 °C 17,6 °C 6,4 km/h (2 Bft)
24.05.2018 13:00 17,6 °C 77 % 1015,9 hPa 0,0 mm 2,9 km/h (1 Bft) NW 310 ° 0 min 0,000 mm 2,5 UV-I 304 W/m² 13,5 °C 17,6 °C 4,8 km/h (1 Bft)
24.05.2018 13:01 17,6 °C 78 % 1015,9 hPa 0,0 mm 4,1 km/h (1 Bft) NW 322 ° 0 min 0,305 mm 2,7 UV-I 320 W/m² 13,7 °C 17,6 °C 6,4 km/h (2 Bft)
24.05.2018 13:02 17,6 °C 80 % 1015,9 hPa 0,0 mm 4,7 km/h (1 Bft) NW 311 ° 0 min 0,000 mm 2,6 UV-I 306 W/m² 14,1 °C 17,6 °C 8,0 km/h (2 Bft)
24.05.2018 13:03 17,6 °C 78 % 1015,8 hPa 0,0 mm 1,1 km/h (1 Bft) W-NW 296 ° 0 min 0,000 mm 2,7 UV-I 287 W/m² 13,7 °C 17,6 °C 4,8 km/h (1 Bft)
24.05.2018 13:04 17,7 °C 78 % 1015,8 hPa 0,0 mm 4,0 km/h (1 Bft) W-NW 284 ° 0 min 0,000 mm 5,7 UV-I 287 W/m² 13,8 °C 17,7 °C 6,4 km/h (2 Bft)
24.05.2018 13:05 17,7 °C 78 % 1015,8 hPa 0,0 mm 3,2 km/h (1 Bft) W-NW 290 ° 1 min 0,000 mm 5,1 UV-I 793 W/m² 13,8 °C 17,7 °C 4,8 km/h (1 Bft)
24.05.2018 13:06 17,9 °C 78 % 1015,8 hPa 0,0 mm 4,9 km/h (1 Bft) NW 322 ° 1 min 0,000 mm 6,4 UV-I 793 W/m² 14,0 °C 17,9 °C 6,4 km/h (2 Bft)
24.05.2018 13:07 18,2 °C 80 % 1015,8 hPa 0,0 mm 3,6 km/h (1 Bft) NW 306 ° 1 min 0,000 mm 6,4 UV-I 1011 W/m² 14,7 °C 18,2 °C 6,4 km/h (2 Bft)
24.05.2018 13:08 18,4 °C 77 % 1015,8 hPa 0,0 mm 5,3 km/h (1 Bft) NW 309 ° 1 min 0,000 mm 6,3 UV-I 984 W/m² 14,3 °C 18,4 °C 8,0 km/h (2 Bft)
24.05.2018 13:09 18,6 °C 76 % 1015,8 hPa 0,0 mm 5,0 km/h (1 Bft) N-NW 340 ° 1 min 0,000 mm 6,3 UV-I 977 W/m² 14,3 °C 18,6 °C 8,0 km/h (2 Bft)
24.05.2018 13:10 18,8 °C 79 % 1015,8 hPa 0,0 mm 4,1 km/h (1 Bft) W-NW 301 ° 1 min 0,000 mm 6,9 UV-I 1058 W/m² 15,1 °C 18,8 °C 6,4 km/h (2 Bft)
24.05.2018 13:11 19,0 °C 77 % 1015,8 hPa 0,0 mm 6,8 km/h (2 Bft) N-NW 328 ° 1 min 0,000 mm 6,9 UV-I 1062 W/m² 14,9 °C 19,0 °C 12,9 km/h (3 Bft)
24.05.2018 13:12 19,1 °C 77 % 1015,8 hPa 0,0 mm 5,4 km/h (1 Bft) N-NW 328 ° 1 min 0,000 mm 6,2 UV-I 1062 W/m² 15,0 °C 19,1 °C 8,0 km/h (2 Bft)
24.05.2018 13:13 19,1 °C 75 % 1015,8 hPa 0,0 mm 3,4 km/h (1 Bft) N 355 ° 1 min 0,000 mm 5,6 UV-I 1062 W/m² 14,6 °C 19,1 °C 8,0 km/h (2 Bft)
24.05.2018 13:14 19,2 °C 78 % 1015,8 hPa 0,0 mm 3,7 km/h (1 Bft) W-NW 296 ° 1 min 0,000 mm 4,5 UV-I 1062 W/m² 15,3 °C 19,2 °C 6,4 km/h (2 Bft)
24.05.2018 13:15 19,1 °C 73 % 1015,8 hPa 0,0 mm 5,7 km/h (1 Bft) W-NW 298 ° 0 min 0,000 mm 3,8 UV-I 378 W/m² 14,1 °C 19,1 °C 11,3 km/h (2 Bft)
24.05.2018 13:16 18,8 °C 74 % 1015,8 hPa 0,0 mm 8,4 km/h (2 Bft) W 280 ° 0 min 0,000 mm 3,7 UV-I 385 W/m² 14,1 °C 18,8 °C 12,9 km/h (3 Bft)
24.05.2018 13:17 18,7 °C 77 % 1015,7 hPa 0,0 mm 5,0 km/h (1 Bft) W-NW 291 ° 0 min 0,000 mm 4,2 UV-I 385 W/m² 14,6 °C 18,7 °C 11,3 km/h (2 Bft)
24.05.2018 13:18 18,6 °C 74 % 1015,8 hPa 0,0 mm 4,9 km/h (1 Bft) W-NW 291 ° 0 min 0,000 mm 4,7 UV-I 385 W/m² 13,9 °C 18,6 °C 9,7 km/h (2 Bft)
24.05.2018 13:19 18,4 °C 76 % 1015,8 hPa 0,0 mm 2,9 km/h (1 Bft) NW 321 ° 0 min 0,000 mm 4,7 UV-I 385 W/m² 14,1 °C 18,4 °C 6,4 km/h (2 Bft)
24.05.2018 13:20 18,4 °C 77 % 1015,8 hPa 0,0 mm 5,9 km/h (2 Bft) W-NW 294 ° 0 min 0,000 mm 4,5 UV-I 568 W/m² 14,3 °C 18,4 °C 12,9 km/h (3 Bft)
24.05.2018 13:21 18,4 °C 76 % 1015,8 hPa 0,0 mm 2,6 km/h (1 Bft) W-NW 300 ° 0 min 0,000 mm 4,0 UV-I 427 W/m² 14,1 °C 18,4 °C 6,4 km/h (2 Bft)
24.05.2018 13:22 18,3 °C 76 % 1015,8 hPa 0,0 mm 3,4 km/h (1 Bft) NW 325 ° 0 min 0,000 mm 3,7 UV-I 394 W/m² 14,0 °C 18,3 °C 4,8 km/h (1 Bft)
24.05.2018 13:23 18,2 °C 75 % 1015,8 hPa 0,0 mm 5,4 km/h (1 Bft) NW 307 ° 0 min 0,000 mm 4,0 UV-I 434 W/m² 13,7 °C 18,2 °C 6,4 km/h (2 Bft)
24.05.2018 13:24 18,2 °C 77 % 1015,8 hPa 0,0 mm 4,6 km/h (1 Bft) NW 307 ° 0 min 0,000 mm 4,4 UV-I 510 W/m² 14,1 °C 18,2 °C 6,4 km/h (2 Bft)
24.05.2018 13:25 18,2 °C 77 % 1015,8 hPa 0,0 mm 6,8 km/h (2 Bft) NW 304 ° 0 min 0,000 mm 4,3 UV-I 510 W/m² 14,1 °C 18,2 °C 11,3 km/h (2 Bft)
24.05.2018 13:26 18,3 °C 76 % 1015,8 hPa 0,0 mm 6,5 km/h (2 Bft) W-NW 284 ° 0 min 0,000 mm 4,3 UV-I 510 W/m² 14,0 °C 18,3 °C 11,3 km/h (2 Bft)
24.05.2018 13:27 18,2 °C 73 % 1015,8 hPa 0,0 mm 3,0 km/h (1 Bft) W-NW 288 ° 0 min 0,000 mm 3,1 UV-I 302 W/m² 13,3 °C 18,2 °C 4,8 km/h (1 Bft)
24.05.2018 13:28 18,1 °C 74 % 1015,8 hPa 0,0 mm 6,2 km/h (2 Bft) NW 318 ° 0 min 0,000 mm 3,1 UV-I 301 W/m² 13,4 °C 18,1 °C 8,0 km/h (2 Bft)
24.05.2018 13:29 18,1 °C 76 % 1015,8 hPa 0,0 mm 5,8 km/h (2 Bft) NW 324 ° 0 min 0,000 mm 3,5 UV-I 401 W/m² 13,8 °C 18,1 °C 8,0 km/h (2 Bft)
24.05.2018 13:30 18,1 °C 73 % 1015,7 hPa 0,0 mm 2,8 km/h (1 Bft) NW 315 ° 0 min 0,000 mm 3,9 UV-I 401 W/m² 13,2 °C 18,1 °C 6,4 km/h (2 Bft)
24.05.2018 13:31 18,0 °C 74 % 1015,7 hPa 0,0 mm 3,2 km/h (1 Bft) NW 306 ° 0 min 0,000 mm 3,2 UV-I 401 W/m² 13,3 °C 18,0 °C 4,8 km/h (1 Bft)
24.05.2018 13:32 18,0 °C 75 % 1015,7 hPa 0,0 mm 1,9 km/h (1 Bft) NW 306 ° 0 min 0,000 mm 3,4 UV-I 345 W/m² 13,5 °C 18,0 °C 3,2 km/h (1 Bft)
24.05.2018 13:33 18,0 °C 73 % 1015,7 hPa 0,0 mm 1,7 km/h (1 Bft) NW 306 ° 0 min 0,000 mm 3,4 UV-I 383 W/m² 13,1 °C 18,0 °C 3,2 km/h (1 Bft)
24.05.2018 13:34 17,9 °C 75 % 1015,7 hPa 0,0 mm 3,9 km/h (1 Bft) W-NW 298 ° 0 min 0,000 mm 3,0 UV-I 292 W/m² 13,4 °C 17,9 °C 6,4 km/h (2 Bft)
24.05.2018 13:35 18,0 °C 76 % 1015,7 hPa 0,0 mm 5,5 km/h (1 Bft) W 275 ° 0 min 0,000 mm 2,9 UV-I 272 W/m² 13,7 °C 18,0 °C 8,0 km/h (2 Bft)
24.05.2018 13:36 17,9 °C 74 % 1015,7 hPa 0,0 mm 2,5 km/h (1 Bft) W 281 ° 0 min 0,000 mm 2,7 UV-I 255 W/m² 13,2 °C 17,9 °C 6,4 km/h (2 Bft)
24.05.2018 13:37 17,9 °C 74 % 1015,7 hPa 0,0 mm 1,5 km/h (1 Bft) W 281 ° 0 min 0,000 mm 2,6 UV-I 236 W/m² 13,2 °C 17,9 °C 3,2 km/h (1 Bft)
24.05.2018 13:38 17,8 °C 75 % 1015,7 hPa 0,0 mm 1,7 km/h (1 Bft) W 281 ° 0 min 0,000 mm 2,6 UV-I 241 W/m² 13,3 °C 17,8 °C 3,2 km/h (1 Bft)
24.05.2018 13:39 17,7 °C 77 % 1015,7 hPa 0,0 mm 0,3 km/h (0 Bft) W 281 ° 0 min 0,000 mm 2,6 UV-I 244 W/m² 13,6 °C 17,7 °C 1,6 km/h (1 Bft)
24.05.2018 13:40 17,7 °C 79 % 1015,6 hPa 0,0 mm 0,1 km/h (0 Bft) W 281 ° 0 min 0,000 mm 2,5 UV-I 236 W/m² 14,0 °C 17,7 °C 1,6 km/h (1 Bft)
24.05.2018 13:41 17,7 °C 75 % 1015,6 hPa 0,0 mm 0,0 km/h (0 Bft) W 281 ° 0 min 0,000 mm 2,5 UV-I 236 W/m² 13,2 °C 17,7 °C 0,0 km/h (0 Bft)
24.05.2018 13:42 17,6 °C 75 % 1015,6 hPa 0,0 mm 0,0 km/h (0 Bft) W 281 ° 0 min 0,000 mm 2,5 UV-I 250 W/m² 13,1 °C 17,6 °C 0,0 km/h (0 Bft)
24.05.2018 13:43 17,6 °C 77 % 1015,6 hPa 0,0 mm 0,0 km/h (0 Bft) W 281 ° 0 min 0,000 mm 2,4 UV-I 260 W/m² 13,5 °C 17,6 °C 0,0 km/h (0 Bft)
24.05.2018 13:44 17,6 °C 77 % 1015,6 hPa 0,0 mm 0,0 km/h (0 Bft) W 281 ° 0 min 0,000 mm 2,1 UV-I 192 W/m² 13,5 °C 17,6 °C 0,0 km/h (0 Bft)
24.05.2018 13:45 17,6 °C 78 % 1015,6 hPa 0,0 mm 0,3 km/h (0 Bft) W 281 ° 0 min 0,000 mm 1,9 UV-I 174 W/m² 13,7 °C 17,6 °C 3,2 km/h (1 Bft)
24.05.2018 13:46 17,7 °C 77 % 1015,7 hPa 0,0 mm 1,9 km/h (1 Bft) N 10 ° 0 min 0,000 mm 1,6 UV-I 165 W/m² 13,6 °C 17,7 °C 3,2 km/h (1 Bft)
24.05.2018 13:47 17,7 °C 78 % 1015,7 hPa 0,0 mm 2,2 km/h (1 Bft) N-NO 13 ° 0 min 0,000 mm 1,5 UV-I 156 W/m² 13,8 °C 17,7 °C 4,8 km/h (1 Bft)
24.05.2018 13:48 17,7 °C 74 % 1015,6 hPa 0,0 mm 2,7 km/h (1 Bft) N-NO 13 ° 0 min 0,000 mm 1,4 UV-I 153 W/m² 13,0 °C 17,7 °C 3,2 km/h (1 Bft)
24.05.2018 13:49 17,8 °C 74 % 1015,6 hPa 0,0 mm 1,1 km/h (1 Bft) N-NO 13 ° 0 min 0,000 mm 1,3 UV-I 146 W/m² 13,1 °C 17,8 °C 1,6 km/h (1 Bft)
24.05.2018 13:50 17,8 °C 74 % 1015,6 hPa 0,0 mm 3,1 km/h (1 Bft) N-NO 26 ° 0 min 0,000 mm 1,3 UV-I 137 W/m² 13,1 °C 17,8 °C 4,8 km/h (1 Bft)
24.05.2018 13:51 17,9 °C 78 % 1015,7 hPa 0,0 mm 4,8 km/h (1 Bft) NO 38 ° 0 min 0,000 mm 1,2 UV-I 134 W/m² 14,0 °C 17,9 °C 11,3 km/h (2 Bft)
24.05.2018 13:52 17,8 °C 77 % 1015,6 hPa 0,0 mm 8,0 km/h (2 Bft) O-NO 73 ° 0 min 0,000 mm 1,2 UV-I 134 W/m² 13,7 °C 17,8 °C 12,9 km/h (3 Bft)
24.05.2018 13:53 17,7 °C 78 % 1015,7 hPa 0,0 mm 7,5 km/h (2 Bft) O-NO 61 ° 0 min 0,000 mm 1,2 UV-I 134 W/m² 13,8 °C 17,7 °C 12,9 km/h (3 Bft)
24.05.2018 13:54 17,5 °C 79 % 1015,7 hPa 0,0 mm 5,5 km/h (1 Bft) O 79 ° 0 min 0,000 mm 1,2 UV-I 134 W/m² 13,8 °C 17,5 °C 8,0 km/h (2 Bft)
24.05.2018 13:55 17,4 °C 80 % 1015,7 hPa 0,0 mm 4,0 km/h (1 Bft) O 89 ° 0 min 0,000 mm 1,2 UV-I 134 W/m² 13,9 °C 17,4 °C 6,4 km/h (2 Bft)
24.05.2018 13:56 17,3 °C 80 % 1015,7 hPa 0,0 mm 3,8 km/h (1 Bft) O 85 ° 0 min 0,000 mm 1,2 UV-I 128 W/m² 13,8 °C 17,3 °C 11,3 km/h (2 Bft)
24.05.2018 13:57 17,2 °C 80 % 1015,7 hPa 0,0 mm 4,0 km/h (1 Bft) O-NO 77 ° 0 min 0,000 mm 1,2 UV-I 127 W/m² 13,7 °C 17,2 °C 6,4 km/h (2 Bft)
24.05.2018 13:58 17,2 °C 81 % 1015,7 hPa 0,0 mm 5,6 km/h (1 Bft) O-NO 66 ° 0 min 0,000 mm 1,2 UV-I 125 W/m² 13,9 °C 17,2 °C 6,4 km/h (2 Bft)
24.05.2018 13:59 17,2 °C 80 % 1015,7 hPa 0,0 mm 4,0 km/h (1 Bft) O-NO 71 ° 0 min 0,000 mm 1,2 UV-I 123 W/m² 13,7 °C 17,2 °C 6,4 km/h (2 Bft)
24.05.2018 14:00 17,1 °C 81 % 1015,7 hPa 0,0 mm 7,3 km/h (2 Bft) NO 49 ° 0 min 0,000 mm 1,1 UV-I 120 W/m² 13,8 °C 17,1 °C 9,7 km/h (2 Bft)
24.05.2018 14:01 17,1 °C 82 % 1015,7 hPa 0,0 mm 7,5 km/h (2 Bft) O-NO 64 ° 0 min 0,228 mm 1,1 UV-I 114 W/m² 14,0 °C 17,1 °C 16,1 km/h (3 Bft)
24.05.2018 14:02 17,1 °C 82 % 1015,7 hPa 0,0 mm 4,9 km/h (1 Bft) NO 46 ° 0 min 0,000 mm 1,0 UV-I 102 W/m² 14,0 °C 17,1 °C 8,0 km/h (2 Bft)
24.05.2018 14:03 17,0 °C 82 % 1015,8 hPa 0,0 mm 3,6 km/h (1 Bft) NO 53 ° 0 min 0,000 mm 0,9 UV-I 97 W/m² 13,9 °C 17,0 °C 6,4 km/h (2 Bft)
24.05.2018 14:04 16,9 °C 82 % 1015,8 hPa 0,0 mm 6,7 km/h (2 Bft) NO 55 ° 0 min 0,000 mm 0,9 UV-I 95 W/m² 13,8 °C 16,9 °C 9,7 km/h (2 Bft)
24.05.2018 14:05 16,9 °C 83 % 1015,7 hPa 0,0 mm 5,9 km/h (2 Bft) O-NO 78 ° 0 min 0,000 mm 0,9 UV-I 93 W/m² 14,0 °C 16,9 °C 11,3 km/h (2 Bft)
24.05.2018 14:06 16,8 °C 82 % 1015,7 hPa 0,0 mm 4,6 km/h (1 Bft) O-NO 62 ° 0 min 0,000 mm 0,9 UV-I 91 W/m² 13,7 °C 16,8 °C 8,0 km/h (2 Bft)
24.05.2018 14:07 16,7 °C 82 % 1015,8 hPa 0,0 mm 5,2 km/h (1 Bft) O 80 ° 0 min 0,000 mm 0,9 UV-I 90 W/m² 13,6 °C 16,7 °C 9,7 km/h (2 Bft)
24.05.2018 14:08 16,5 °C 82 % 1015,7 hPa 0,0 mm 4,1 km/h (1 Bft) O 84 ° 0 min 0,000 mm 0,8 UV-I 77 W/m² 13,4 °C 16,5 °C 8,0 km/h (2 Bft)
24.05.2018 14:09 16,4 °C 82 % 1015,7 hPa 0,0 mm 5,5 km/h (1 Bft) O 94 ° 0 min 0,000 mm 0,7 UV-I 70 W/m² 13,3 °C 16,4 °C 11,3 km/h (2 Bft)
24.05.2018 14:10 16,4 °C 83 % 1015,8 hPa 0,0 mm 5,5 km/h (1 Bft) SO 144 ° 0 min 0,000 mm 0,6 UV-I 63 W/m² 13,5 °C 16,4 °C 12,9 km/h (3 Bft)
24.05.2018 14:11 16,3 °C 83 % 1015,7 hPa 0,0 mm 6,6 km/h (2 Bft) O 81 ° 0 min 0,000 mm 0,6 UV-I 58 W/m² 13,4 °C 16,3 °C 12,9 km/h (3 Bft)
24.05.2018 14:12 16,2 °C 84 % 1015,8 hPa 0,0 mm 2,7 km/h (1 Bft) O 84 ° 0 min 0,000 mm 0,0 UV-I 53 W/m² 13,5 °C 16,2 °C 4,8 km/h (1 Bft)
24.05.2018 14:13 16,1 °C 84 % 1015,8 hPa 0,0 mm 4,6 km/h (1 Bft) O-NO 63 ° 0 min 0,000 mm 0,0 UV-I 49 W/m² 13,4 °C 16,1 °C 6,4 km/h (2 Bft)
24.05.2018 14:14 15,9 °C 84 % 1015,8 hPa 0,0 mm 3,0 km/h (1 Bft) O 88 ° 0 min 0,000 mm 0,0 UV-I 44 W/m² 13,2 °C 15,9 °C 6,4 km/h (2 Bft)
24.05.2018 14:15 15,9 °C 85 % 1015,8 hPa 0,0 mm 2,0 km/h (1 Bft) O 82 ° 0 min 0,000 mm 0,0 UV-I 40 W/m² 13,4 °C 15,9 °C 4,8 km/h (1 Bft)
24.05.2018 14:16 15,8 °C 86 % 1015,8 hPa 0,0 mm 1,3 km/h (1 Bft) SO 128 ° 0 min 0,000 mm 0,0 UV-I 39 W/m² 13,5 °C 15,8 °C 4,8 km/h (1 Bft)
24.05.2018 14:17 15,7 °C 86 % 1015,8 hPa 0,0 mm 2,5 km/h (1 Bft) S 184 ° 0 min 0,000 mm 0,0 UV-I 37 W/m² 13,4 °C 15,7 °C 6,4 km/h (2 Bft)
24.05.2018 14:18 15,5 °C 86 % 1015,8 hPa 0,0 mm 2,4 km/h (1 Bft) O-NO 71 ° 0 min 0,000 mm 0,0 UV-I 35 W/m² 13,2 °C 15,5 °C 6,4 km/h (2 Bft)
24.05.2018 14:19 15,4 °C 87 % 1015,8 hPa 0,0 mm 0,3 km/h (0 Bft) O-NO 71 ° 0 min 0,000 mm 0,0 UV-I 33 W/m² 13,2 °C 15,4 °C 3,2 km/h (1 Bft)
24.05.2018 14:20 15,3 °C 87 % 1015,8 hPa 0,0 mm 0,0 km/h (0 Bft) O-NO 71 ° 0 min 0,000 mm 0,0 UV-I 32 W/m² 13,1 °C 15,3 °C 0,0 km/h (0 Bft)
24.05.2018 14:21 15,2 °C 87 % 1015,8 hPa 0,0 mm 0,2 km/h (0 Bft) O-NO 71 ° 0 min 0,000 mm 0,0 UV-I 32 W/m² 13,0 °C 15,2 °C 1,6 km/h (1 Bft)
24.05.2018 14:22 15,2 °C 88 % 1015,8 hPa 0,0 mm 1,2 km/h (1 Bft) SO 135 ° 0 min 0,000 mm 0,0 UV-I 33 W/m² 13,2 °C 15,2 °C 4,8 km/h (1 Bft)
24.05.2018 14:23 15,1 °C 89 % 1015,8 hPa 0,0 mm 3,2 km/h (1 Bft) SO 143 ° 0 min 0,000 mm 0,0 UV-I 33 W/m² 13,3 °C 15,1 °C 4,8 km/h (1 Bft)
24.05.2018 14:24 15,1 °C 89 % 1015,9 hPa 0,0 mm 2,4 km/h (1 Bft) O 96 ° 0 min 0,000 mm 0,0 UV-I 33 W/m² 13,3 °C 15,1 °C 4,8 km/h (1 Bft)
24.05.2018 14:25 14,9 °C 89 % 1015,8 hPa 0,0 mm 0,0 km/h (0 Bft) O 96 ° 0 min 0,000 mm 0,0 UV-I 35 W/m² 13,1 °C 14,9 °C 0,0 km/h (0 Bft)
24.05.2018 14:26 14,9 °C 89 % 1015,9 hPa 0,0 mm 0,1 km/h (0 Bft) O 96 ° 0 min 0,000 mm 0,0 UV-I 35 W/m² 13,1 °C 14,9 °C 1,6 km/h (1 Bft)
24.05.2018 14:27 14,8 °C 89 % 1015,9 hPa 0,0 mm 2,1 km/h (1 Bft) O 96 ° 0 min 0,000 mm 0,0 UV-I 35 W/m² 13,0 °C 14,8 °C 3,2 km/h (1 Bft)
24.05.2018 14:28 14,8 °C 89 % 1015,9 hPa 0,0 mm 0,9 km/h (0 Bft) O 96 ° 0 min 0,000 mm 0,0 UV-I 37 W/m² 13,0 °C 14,8 °C 3,2 km/h (1 Bft)
24.05.2018 14:29 14,8 °C 90 % 1015,9 hPa 0,0 mm 1,4 km/h (1 Bft) O 96 ° 0 min 0,000 mm 0,0 UV-I 39 W/m² 13,2 °C 14,8 °C 3,2 km/h (1 Bft)
24.05.2018 14:30 14,8 °C 90 % 1015,9 hPa 0,0 mm 0,3 km/h (0 Bft) O 96 ° 0 min 0,000 mm 0,0 UV-I 40 W/m² 13,2 °C 14,8 °C 1,6 km/h (1 Bft)
24.05.2018 14:31 14,7 °C 90 % 1016,0 hPa 0,0 mm 1,9 km/h (1 Bft) O 96 ° 0 min 0,000 mm 0,0 UV-I 44 W/m² 13,1 °C 14,7 °C 3,2 km/h (1 Bft)
24.05.2018 14:32 14,6 °C 90 % 1015,9 hPa 0,0 mm 0,2 km/h (0 Bft) O 96 ° 0 min 0,000 mm 0,0 UV-I 46 W/m² 13,0 °C 14,6 °C 1,6 km/h (1 Bft)
24.05.2018 14:33 14,6 °C 91 % 1015,9 hPa 0,0 mm 0,0 km/h (0 Bft) O 96 ° 0 min 0,000 mm 0,0 UV-I 47 W/m² 13,1 °C 14,6 °C 0,0 km/h (0 Bft)
24.05.2018 14:34 14,5 °C 91 % 1016,0 hPa 0,0 mm 0,0 km/h (0 Bft) O 96 ° 0 min 0,000 mm 0,0 UV-I 47 W/m² 13,0 °C 14,5 °C 0,0 km/h (0 Bft)
24.05.2018 14:35 14,4 °C 91 % 1016,0 hPa 0,0 mm 0,0 km/h (0 Bft) O 96 ° 0 min 0,000 mm 0,0 UV-I 46 W/m² 12,9 °C 14,4 °C 0,0 km/h (0 Bft)
24.05.2018 14:36 14,4 °C 91 % 1016,0 hPa 0,0 mm 0,0 km/h (0 Bft) O 96 ° 0 min 0,000 mm 0,0 UV-I 46 W/m² 12,9 °C 14,4 °C 0,0 km/h (0 Bft)
24.05.2018 14:37 14,4 °C 91 % 1015,9 hPa 0,0 mm 0,0 km/h (0 Bft) O 96 ° 0 min 0,000 mm 0,0 UV-I 42 W/m² 12,9 °C 14,4 °C 0,0 km/h (0 Bft)
24.05.2018 14:38 14,4 °C 91 % 1016,1 hPa 0,0 mm 0,0 km/h (0 Bft) O 96 ° 0 min 0,000 mm 0,0 UV-I 40 W/m² 12,9 °C 14,4 °C 0,0 km/h (0 Bft)
24.05.2018 14:39 14,4 °C 92 % 1015,9 hPa 0,0 mm 0,0 km/h (0 Bft) O 96 ° 0 min 0,000 mm 0,0 UV-I 39 W/m² 13,1 °C 14,4 °C 0,0 km/h (0 Bft)
24.05.2018 14:40 14,4 °C 92 % 1015,9 hPa 0,0 mm 0,0 km/h (0 Bft) O 96 ° 0 min 0,000 mm 0,0 UV-I 37 W/m² 13,1 °C 14,4 °C 0,0 km/h (0 Bft)
24.05.2018 14:41 14,4 °C 92 % 1015,9 hPa 0,0 mm 2,8 km/h (1 Bft) N-NO 14 ° 0 min 0,000 mm 0,0 UV-I 35 W/m² 13,1 °C 14,4 °C 4,8 km/h (1 Bft)
24.05.2018 14:42 14,4 °C 92 % 1015,9 hPa 0,0 mm 2,7 km/h (1 Bft) NO 46 ° 0 min 0,000 mm 0,0 UV-I 33 W/m² 13,1 °C 14,4 °C 4,8 km/h (1 Bft)
24.05.2018 14:43 14,4 °C 92 % 1015,9 hPa 0,0 mm 2,5 km/h (1 Bft) NO 46 ° 0 min 0,000 mm 0,0 UV-I 32 W/m² 13,1 °C 14,4 °C 4,8 km/h (1 Bft)
24.05.2018 14:44 14,4 °C 91 % 1015,9 hPa 0,0 mm 2,3 km/h (1 Bft) NO 46 ° 0 min 0,000 mm 0,0 UV-I 30 W/m² 12,9 °C 14,4 °C 4,8 km/h (1 Bft)
24.05.2018 14:45 14,3 °C 91 % 1015,9 hPa 0,0 mm 2,3 km/h (1 Bft) NO 46 ° 0 min 0,000 mm 0,0 UV-I 28 W/m² 12,8 °C 14,3 °C 3,2 km/h (1 Bft)
24.05.2018 14:46 14,3 °C 91 % 1015,9 hPa 0,0 mm 0,1 km/h (0 Bft) NO 46 ° 0 min 0,000 mm 0,0 UV-I 26 W/m² 12,8 °C 14,3 °C 1,6 km/h (1 Bft)
24.05.2018 14:47 14,3 °C 91 % 1016,0 hPa 0,0 mm 1,3 km/h (1 Bft) NO 46 ° 0 min 0,000 mm 0,0 UV-I 25 W/m² 12,8 °C 14,3 °C 3,2 km/h (1 Bft)
24.05.2018 14:48 14,3 °C 91 % 1016,0 hPa 0,0 mm 1,4 km/h (1 Bft) NO 46 ° 0 min 0,000 mm 0,0 UV-I 23 W/m² 12,8 °C 14,3 °C 3,2 km/h (1 Bft)
24.05.2018 14:49 14,4 °C 91 % 1016,1 hPa 0,0 mm 0,4 km/h (0 Bft) NO 46 ° 0 min 0,000 mm 0,0 UV-I 21 W/m² 12,9 °C 14,4 °C 1,6 km/h (1 Bft)
24.05.2018 14:50 14,4 °C 91 % 1016,1 hPa 0,0 mm 1,1 km/h (1 Bft) NO 46 ° 0 min 0,000 mm 0,0 UV-I 21 W/m² 12,9 °C 14,4 °C 1,6 km/h (1 Bft)
24.05.2018 14:51 14,3 °C 91 % 1016,1 hPa 0,0 mm 1,0 km/h (0 Bft) NO 46 ° 0 min 0,000 mm 0,0 UV-I 19 W/m² 12,8 °C 14,3 °C 3,2 km/h (1 Bft)
24.05.2018 14:52 14,3 °C 91 % 1016,1 hPa 0,0 mm 3,5 km/h (1 Bft) N 355 ° 0 min 0,000 mm 0,0 UV-I 19 W/m² 12,8 °C 14,3 °C 4,8 km/h (1 Bft)
24.05.2018 14:53 14,3 °C 91 % 1016,2 hPa 0,0 mm 2,1 km/h (1 Bft) N 355 ° 0 min 0,000 mm 0,0 UV-I 19 W/m² 12,8 °C 14,3 °C 3,2 km/h (1 Bft)
24.05.2018 14:54 14,2 °C 91 % 1016,2 hPa 0,0 mm 0,4 km/h (0 Bft) N 355 ° 0 min 0,000 mm 0,0 UV-I 19 W/m² 12,8 °C 14,2 °C 1,6 km/h (1 Bft)
24.05.2018 14:55 14,1 °C 91 % 1016,2 hPa 0,2 mm 0,0 km/h (0 Bft) N 355 ° 0 min 0,000 mm 0,0 UV-I 18 W/m² 12,7 °C 14,1 °C 0,0 km/h (0 Bft)
24.05.2018 14:56 14,1 °C 91 % 1016,2 hPa 0,0 mm 0,3 km/h (0 Bft) N 355 ° 0 min 0,000 mm 0,0 UV-I 18 W/m² 12,7 °C 14,1 °C 1,6 km/h (1 Bft)
24.05.2018 14:57 14,0 °C 90 % 1016,3 hPa 0,0 mm 0,0 km/h (0 Bft) N 355 ° 0 min 0,000 mm 0,0 UV-I 18 W/m² 12,4 °C 14,0 °C 0,0 km/h (0 Bft)
24.05.2018 14:58 14,0 °C 90 % 1016,3 hPa 0,0 mm 0,0 km/h (0 Bft) N 355 ° 0 min 0,000 mm 0,0 UV-I 18 W/m² 12,4 °C 14,0 °C 0,0 km/h (0 Bft)
24.05.2018 14:59 14,0 °C 90 % 1016,3 hPa 0,0 mm 0,0 km/h (0 Bft) N 355 ° 0 min 0,000 mm 0,0 UV-I 18 W/m² 12,4 °C 14,0 °C 0,0 km/h (0 Bft)
24.05.2018 15:00 13,9 °C 91 % 1016,3 hPa 0,0 mm 0,0 km/h (0 Bft) N 355 ° 0 min 0,000 mm 0,0 UV-I 18 W/m² 12,5 °C 13,9 °C 0,0 km/h (0 Bft)
24.05.2018 15:01 13,9 °C 91 % 1016,4 hPa 0,0 mm 0,0 km/h (0 Bft) N 355 ° 0 min 0,026 mm 0,0 UV-I 19 W/m² 12,5 °C 13,9 °C 0,0 km/h (0 Bft)
24.05.2018 15:02 13,9 °C 91 % 1016,4 hPa 0,0 mm 0,0 km/h (0 Bft) N 355 ° 0 min 0,000 mm 0,0 UV-I 19 W/m² 12,5 °C 13,9 °C 0,0 km/h (0 Bft)
24.05.2018 15:03 13,8 °C 91 % 1016,4 hPa 0,0 mm 1,0 km/h (0 Bft) N 355 ° 0 min 0,000 mm 0,0 UV-I 21 W/m² 12,4 °C 13,8 °C 3,2 km/h (1 Bft)
24.05.2018 15:04 13,8 °C 91 % 1016,4 hPa 0,0 mm 1,7 km/h (1 Bft) N 355 ° 0 min 0,000 mm 0,0 UV-I 21 W/m² 12,4 °C 13,8 °C 3,2 km/h (1 Bft)
24.05.2018 15:05 13,8 °C 91 % 1016,4 hPa 0,0 mm 1,3 km/h (1 Bft) N-NO 20 ° 0 min 0,000 mm 0,0 UV-I 23 W/m² 12,4 °C 13,8 °C 3,2 km/h (1 Bft)
24.05.2018 15:06 13,8 °C 91 % 1016,4 hPa 0,0 mm 0,8 km/h (0 Bft) O-SO 104 ° 0 min 0,000 mm 0,0 UV-I 26 W/m² 12,4 °C 13,8 °C 3,2 km/h (1 Bft)
24.05.2018 15:07 13,8 °C 91 % 1016,3 hPa 0,0 mm 3,2 km/h (1 Bft) S-SW 202 ° 0 min 0,000 mm 0,0 UV-I 28 W/m² 12,4 °C 13,8 °C 6,4 km/h (2 Bft)
24.05.2018 15:08 13,8 °C 91 % 1016,3 hPa 0,0 mm 1,9 km/h (1 Bft) S-SW 202 ° 0 min 0,000 mm 0,0 UV-I 30 W/m² 12,4 °C 13,8 °C 3,2 km/h (1 Bft)
24.05.2018 15:09 13,7 °C 91 % 1016,3 hPa 0,0 mm 1,7 km/h (1 Bft) S-SW 202 ° 0 min 0,000 mm 0,0 UV-I 32 W/m² 12,3 °C 13,7 °C 3,2 km/h (1 Bft)
24.05.2018 15:10 13,7 °C 91 % 1016,3 hPa 0,0 mm 0,3 km/h (0 Bft) S-SW 202 ° 0 min 0,000 mm 0,0 UV-I 33 W/m² 12,3 °C 13,7 °C 1,6 km/h (1 Bft)
24.05.2018 15:11 13,7 °C 91 % 1016,4 hPa 0,0 mm 0,0 km/h (0 Bft) S-SW 202 ° 0 min 0,000 mm 0,0 UV-I 35 W/m² 12,3 °C 13,7 °C 0,0 km/h (0 Bft)
24.05.2018 15:12 13,7 °C 92 % 1016,4 hPa 0,0 mm 2,9 km/h (1 Bft) W-NW 286 ° 0 min 0,000 mm 0,0 UV-I 42 W/m² 12,4 °C 13,7 °C 3,2 km/h (1 Bft)
24.05.2018 15:13 13,7 °C 92 % 1016,4 hPa 0,0 mm 3,9 km/h (1 Bft) W-NW 287 ° 0 min 0,000 mm 0,0 UV-I 46 W/m² 12,4 °C 13,7 °C 4,8 km/h (1 Bft)
24.05.2018 15:14 13,6 °C 91 % 1016,4 hPa 0,0 mm 2,7 km/h (1 Bft) W-NW 288 ° 0 min 0,000 mm 0,0 UV-I 49 W/m² 12,2 °C 13,6 °C 4,8 km/h (1 Bft)
24.05.2018 15:15 13,6 °C 91 % 1016,4 hPa 0,0 mm 2,4 km/h (1 Bft) W-NW 294 ° 0 min 0,000 mm 0,0 UV-I 53 W/m² 12,2 °C 13,6 °C 4,8 km/h (1 Bft)
24.05.2018 15:16 13,6 °C 91 % 1016,3 hPa 0,0 mm 3,4 km/h (1 Bft) W-NW 290 ° 0 min 0,000 mm 0,0 UV-I 54 W/m² 12,2 °C 13,6 °C 4,8 km/h (1 Bft)
24.05.2018 15:17 13,6 °C 91 % 1016,3 hPa 0,0 mm 2,0 km/h (1 Bft) W-NW 290 ° 0 min 0,000 mm 0,5 UV-I 58 W/m² 12,2 °C 13,6 °C 4,8 km/h (1 Bft)
24.05.2018 15:18 13,4 °C 90 % 1016,3 hPa 0,0 mm 1,5 km/h (1 Bft) W-NW 290 ° 0 min 0,000 mm 0,5 UV-I 65 W/m² 11,8 °C 13,4 °C 3,2 km/h (1 Bft)
24.05.2018 15:19 13,4 °C 90 % 1016,2 hPa 0,0 mm 0,7 km/h (0 Bft) W-NW 290 ° 0 min 0,000 mm 0,6 UV-I 67 W/m² 11,8 °C 13,4 °C 1,6 km/h (1 Bft)
24.05.2018 15:20 13,4 °C 90 % 1016,2 hPa 0,0 mm 0,0 km/h (0 Bft) W-NW 290 ° 0 min 0,000 mm 0,6 UV-I 70 W/m² 11,8 °C 13,4 °C 0,0 km/h (0 Bft)
24.05.2018 15:21 13,3 °C 90 % 1016,2 hPa 0,0 mm 0,0 km/h (0 Bft) W-NW 290 ° 0 min 0,000 mm 0,6 UV-I 72 W/m² 11,7 °C 13,3 °C 0,0 km/h (0 Bft)
24.05.2018 15:22 13,3 °C 90 % 1016,2 hPa 0,0 mm 0,2 km/h (0 Bft) W-NW 290 ° 0 min 0,000 mm 0,6 UV-I 74 W/m² 11,7 °C 13,3 °C 1,6 km/h (1 Bft)
24.05.2018 15:23 13,2 °C 90 % 1016,2 hPa 0,0 mm 0,5 km/h (0 Bft) W-NW 290 ° 0 min 0,000 mm 0,7 UV-I 77 W/m² 11,6 °C 13,2 °C 1,6 km/h (1 Bft)
24.05.2018 15:24 13,2 °C 91 % 1016,2 hPa 0,0 mm 0,3 km/h (0 Bft) W-NW 290 ° 0 min 0,000 mm 0,7 UV-I 84 W/m² 11,8 °C 13,2 °C 1,6 km/h (1 Bft)
24.05.2018 15:25 13,2 °C 91 % 1016,2 hPa 0,0 mm 1,2 km/h (1 Bft) W 265 ° 0 min 0,000 mm 0,8 UV-I 90 W/m² 11,8 °C 13,2 °C 3,2 km/h (1 Bft)
24.05.2018 15:26 13,2 °C 91 % 1016,1 hPa 0,0 mm 2,1 km/h (1 Bft) W 265 ° 0 min 0,000 mm 0,8 UV-I 93 W/m² 11,8 °C 13,2 °C 3,2 km/h (1 Bft)
24.05.2018 15:27 13,1 °C 91 % 1016,2 hPa 0,0 mm 2,1 km/h (1 Bft) W 263 ° 0 min 0,000 mm 0,8 UV-I 95 W/m² 11,7 °C 13,1 °C 3,2 km/h (1 Bft)
24.05.2018 15:28 13,0 °C 91 % 1016,1 hPa 0,0 mm 3,1 km/h (1 Bft) W 263 ° 0 min 0,000 mm 0,8 UV-I 98 W/m² 11,6 °C 13,0 °C 4,8 km/h (1 Bft)
24.05.2018 15:29 12,9 °C 91 % 1016,1 hPa 0,0 mm 0,2 km/h (0 Bft) W 263 ° 0 min 0,000 mm 0,9 UV-I 100 W/m² 11,5 °C 12,9 °C 1,6 km/h (1 Bft)
24.05.2018 15:30 12,9 °C 91 % 1016,1 hPa 0,0 mm 1,4 km/h (1 Bft) W 263 ° 0 min 0,000 mm 0,9 UV-I 104 W/m² 11,5 °C 12,9 °C 4,8 km/h (1 Bft)
24.05.2018 15:31 12,8 °C 91 % 1016,0 hPa 0,0 mm 2,8 km/h (1 Bft) W 263 ° 0 min 0,000 mm 0,9 UV-I 102 W/m² 11,4 °C 12,8 °C 3,2 km/h (1 Bft)
24.05.2018 15:32 12,8 °C 91 % 1016,1 hPa 0,0 mm 2,0 km/h (1 Bft) W 263 ° 0 min 0,000 mm 0,8 UV-I 100 W/m² 11,4 °C 12,8 °C 3,2 km/h (1 Bft)
24.05.2018 15:33 12,8 °C 91 % 1015,9 hPa 0,0 mm 3,7 km/h (1 Bft) W 263 ° 0 min 0,000 mm 0,8 UV-I 98 W/m² 11,4 °C 12,8 °C 4,8 km/h (1 Bft)
24.05.2018 15:34 12,7 °C 92 % 1015,9 hPa 0,0 mm 1,0 km/h (0 Bft) W 263 ° 0 min 0,000 mm 0,8 UV-I 97 W/m² 11,4 °C 12,7 °C 3,2 km/h (1 Bft)
24.05.2018 15:35 12,7 °C 92 % 1015,9 hPa 0,0 mm 0,9 km/h (0 Bft) W 263 ° 0 min 0,000 mm 0,8 UV-I 95 W/m² 11,4 °C 12,7 °C 3,2 km/h (1 Bft)
24.05.2018 15:36 12,7 °C 92 % 1015,9 hPa 0,0 mm 1,1 km/h (1 Bft) W 263 ° 0 min 0,000 mm 0,8 UV-I 91 W/m² 11,4 °C 12,7 °C 1,6 km/h (1 Bft)
24.05.2018 15:38 12,6 °C 92 % 1015,9 hPa 0,0 mm 0,3 km/h (0 Bft) W 263 ° 0 min 0,000 mm 0,8 UV-I 90 W/m² 11,3 °C 12,6 °C 1,6 km/h (1 Bft)
24.05.2018 15:39 12,5 °C 92 % 1015,9 hPa 0,0 mm 0,5 km/h (0 Bft) W 263 ° 0 min 0,000 mm 0,8 UV-I 90 W/m² 11,2 °C 12,5 °C 3,2 km/h (1 Bft)
24.05.2018 15:40 12,5 °C 92 % 1015,9 hPa 0,0 mm 0,9 km/h (0 Bft) W 263 ° 0 min 0,000 mm 0,8 UV-I 90 W/m² 11,2 °C 12,5 °C 3,2 km/h (1 Bft)
24.05.2018 15:41 12,4 °C 92 % 1015,9 hPa 0,0 mm 2,7 km/h (1 Bft) W-SW 249 ° 0 min 0,000 mm 0,8 UV-I 90 W/m² 11,1 °C 12,4 °C 4,8 km/h (1 Bft)
24.05.2018 15:42 12,4 °C 92 % 1015,9 hPa 0,0 mm 3,0 km/h (1 Bft) W-SW 248 ° 0 min 0,000 mm 0,8 UV-I 90 W/m² 11,1 °C 12,4 °C 4,8 km/h (1 Bft)
24.05.2018 15:43 12,4 °C 92 % 1015,9 hPa 0,0 mm 1,5 km/h (1 Bft) W-SW 248 ° 0 min 0,000 mm 0,8 UV-I 90 W/m² 11,1 °C 12,4 °C 3,2 km/h (1 Bft)
24.05.2018 15:44 12,5 °C 92 % 1015,9 hPa 0,0 mm 1,0 km/h (0 Bft) W-SW 248 ° 0 min 0,000 mm 0,8 UV-I 90 W/m² 11,2 °C 12,5 °C 3,2 km/h (1 Bft)
24.05.2018 15:45 12,6 °C 93 % 1015,9 hPa 0,0 mm 1,4 km/h (1 Bft) W-SW 248 ° 0 min 0,000 mm 0,8 UV-I 91 W/m² 11,5 °C 12,6 °C 1,6 km/h (1 Bft)
24.05.2018 15:46 12,6 °C 93 % 1015,9 hPa 0,0 mm 0,5 km/h (0 Bft) W-SW 248 ° 0 min 0,000 mm 0,8 UV-I 91 W/m² 11,5 °C 12,6 °C 1,6 km/h (1 Bft)
24.05.2018 15:47 12,6 °C 93 % 1015,9 hPa 0,0 mm 0,0 km/h (0 Bft) W-SW 248 ° 0 min 0,000 mm 0,8 UV-I 93 W/m² 11,5 °C 12,6 °C 0,0 km/h (0 Bft)
24.05.2018 15:48 12,6 °C 93 % 1015,9 hPa 0,0 mm 0,0 km/h (0 Bft) W-SW 248 ° 0 min 0,000 mm 0,8 UV-I 93 W/m² 11,5 °C 12,6 °C 0,0 km/h (0 Bft)
24.05.2018 15:49 12,7 °C 93 % 1016,0 hPa 0,0 mm 0,1 km/h (0 Bft) W-SW 248 ° 0 min 0,000 mm 0,8 UV-I 95 W/m² 11,6 °C 12,7 °C 1,6 km/h (1 Bft)
24.05.2018 15:50 12,8 °C 93 % 1015,9 hPa 0,0 mm 0,5 km/h (0 Bft) W-SW 248 ° 0 min 0,000 mm 0,8 UV-I 97 W/m² 11,7 °C 12,8 °C 1,6 km/h (1 Bft)
24.05.2018 15:51 12,8 °C 93 % 1015,9 hPa 0,0 mm 1,7 km/h (1 Bft) W-SW 248 ° 0 min 0,000 mm 0,8 UV-I 98 W/m² 11,7 °C 12,8 °C 3,2 km/h (1 Bft)
24.05.2018 15:52 12,8 °C 93 % 1015,9 hPa 0,0 mm 1,6 km/h (1 Bft) W-SW 248 ° 0 min 0,000 mm 0,8 UV-I 102 W/m² 11,7 °C 12,8 °C 1,6 km/h (1 Bft)
24.05.2018 15:53 12,9 °C 93 % 1015,9 hPa 0,0 mm 2,1 km/h (1 Bft) W-SW 248 ° 0 min 0,000 mm 0,8 UV-I 105 W/m² 11,8 °C 12,9 °C 3,2 km/h (1 Bft)
24.05.2018 15:54 12,9 °C 93 % 1015,9 hPa 0,0 mm 1,3 km/h (1 Bft) W-SW 248 ° 0 min 0,000 mm 0,8 UV-I 105 W/m² 11,8 °C 12,9 °C 1,6 km/h (1 Bft)
24.05.2018 15:55 12,9 °C 93 % 1015,9 hPa 0,0 mm 0,3 km/h (0 Bft) W-SW 248 ° 0 min 0,000 mm 0,8 UV-I 107 W/m² 11,8 °C 12,9 °C 1,6 km/h (1 Bft)
24.05.2018 15:56 12,9 °C 93 % 1015,8 hPa 0,0 mm 0,0 km/h (0 Bft) W-SW 248 ° 0 min 0,000 mm 0,8 UV-I 107 W/m² 11,8 °C 12,9 °C 0,0 km/h (0 Bft)
24.05.2018 15:57 12,9 °C 93 % 1015,8 hPa 0,0 mm 0,0 km/h (0 Bft) W-SW 248 ° 0 min 0,000 mm 0,8 UV-I 107 W/m² 11,8 °C 12,9 °C 0,0 km/h (0 Bft)
24.05.2018 15:58 12,9 °C 93 % 1015,8 hPa 0,0 mm 0,5 km/h (0 Bft) W-SW 248 ° 0 min 0,000 mm 0,8 UV-I 109 W/m² 11,8 °C 12,9 °C 3,2 km/h (1 Bft)
24.05.2018 15:59 13,0 °C 93 % 1015,7 hPa 0,0 mm 0,0 km/h (0 Bft) W-SW 248 ° 0 min 0,000 mm 0,8 UV-I 109 W/m² 11,9 °C 13,0 °C 0,0 km/h (0 Bft)
24.05.2018 16:00 13,0 °C 94 % 1015,7 hPa 0,0 mm 0,0 km/h (0 Bft) W-SW 248 ° 0 min 0,000 mm 0,9 UV-I 109 W/m² 12,1 °C 13,0 °C 0,0 km/h (0 Bft)
24.05.2018 16:01 12,9 °C 93 % 1015,7 hPa 0,0 mm 0,1 km/h (0 Bft) W-SW 248 ° 0 min 0,051 mm 0,9 UV-I 109 W/m² 11,8 °C 12,9 °C 1,6 km/h (1 Bft)
24.05.2018 16:02 13,0 °C 93 % 1015,6 hPa 0,0 mm 0,4 km/h (0 Bft) W-SW 248 ° 0 min 0,000 mm 0,9 UV-I 109 W/m² 11,9 °C 13,0 °C 3,2 km/h (1 Bft)
24.05.2018 16:03 13,0 °C 93 % 1015,6 hPa 0,0 mm 0,2 km/h (0 Bft) W-SW 248 ° 0 min 0,000 mm 0,9 UV-I 109 W/m² 11,9 °C 13,0 °C 1,6 km/h (1 Bft)
24.05.2018 16:04 13,1 °C 93 % 1015,6 hPa 0,0 mm 0,3 km/h (0 Bft) W-SW 248 ° 0 min 0,000 mm 0,9 UV-I 109 W/m² 12,0 °C 13,1 °C 1,6 km/h (1 Bft)
24.05.2018 16:05 13,1 °C 94 % 1015,6 hPa 0,0 mm 0,0 km/h (0 Bft) W-SW 248 ° 0 min 0,000 mm 0,9 UV-I 111 W/m² 12,2 °C 13,1 °C 0,0 km/h (0 Bft)
24.05.2018 16:06 13,2 °C 93 % 1015,5 hPa 0,0 mm 0,0 km/h (0 Bft) W-SW 248 ° 0 min 0,000 mm 0,9 UV-I 109 W/m² 12,1 °C 13,2 °C 0,0 km/h (0 Bft)
24.05.2018 16:07 13,2 °C 93 % 1015,6 hPa 0,0 mm 0,0 km/h (0 Bft) W-SW 248 ° 0 min 0,000 mm 0,9 UV-I 111 W/m² 12,1 °C 13,2 °C 0,0 km/h (0 Bft)
24.05.2018 16:08 13,2 °C 93 % 1015,5 hPa 0,0 mm 0,0 km/h (0 Bft) W-SW 248 ° 0 min 0,000 mm 0,9 UV-I 111 W/m² 12,1 °C 13,2 °C 0,0 km/h (0 Bft)
24.05.2018 16:09 13,2 °C 93 % 1015,5 hPa 0,0 mm 0,8 km/h (0 Bft) W-SW 248 ° 0 min 0,000 mm 0,9 UV-I 111 W/m² 12,1 °C 13,2 °C 3,2 km/h (1 Bft)
24.05.2018 16:10 13,2 °C 93 % 1015,4 hPa 0,0 mm 0,0 km/h (0 Bft) W-SW 248 ° 0 min 0,000 mm 0,9 UV-I 113 W/m² 12,1 °C 13,2 °C 0,0 km/h (0 Bft)
24.05.2018 16:11 13,3 °C 93 % 1015,4 hPa 0,0 mm 0,0 km/h (0 Bft) W-SW 248 ° 0 min 0,000 mm 0,9 UV-I 116 W/m² 12,2 °C 13,3 °C 0,0 km/h (0 Bft)
24.05.2018 16:12 13,3 °C 93 % 1015,4 hPa 0,0 mm 0,0 km/h (0 Bft) W-SW 248 ° 0 min 0,000 mm 0,9 UV-I 118 W/m² 12,2 °C 13,3 °C 0,0 km/h (0 Bft)
24.05.2018 16:13 13,3 °C 93 % 1015,4 hPa 0,0 mm 0,0 km/h (0 Bft) W-SW 248 ° 0 min 0,000 mm 0,9 UV-I 118 W/m² 12,2 °C 13,3 °C 0,0 km/h (0 Bft)
24.05.2018 16:14 13,3 °C 94 % 1015,3 hPa 0,0 mm 0,0 km/h (0 Bft) W-SW 248 ° 0 min 0,000 mm 1,0 UV-I 121 W/m² 12,4 °C 13,3 °C 0,0 km/h (0 Bft)
24.05.2018 16:15 13,4 °C 94 % 1015,3 hPa 0,0 mm 0,0 km/h (0 Bft) W-SW 248 ° 0 min 0,000 mm 1,0 UV-I 123 W/m² 12,5 °C 13,4 °C 0,0 km/h (0 Bft)
24.05.2018 16:16 13,4 °C 94 % 1015,4 hPa 0,0 mm 0,0 km/h (0 Bft) W-SW 248 ° 0 min 0,000 mm 1,0 UV-I 127 W/m² 12,5 °C 13,4 °C 0,0 km/h (0 Bft)
24.05.2018 16:17 13,4 °C 94 % 1015,3 hPa 0,0 mm 0,0 km/h (0 Bft) W-SW 248 ° 0 min 0,000 mm 1,0 UV-I 137 W/m² 12,5 °C 13,4 °C 0,0 km/h (0 Bft)
24.05.2018 16:18 13,4 °C 94 % 1015,4 hPa 0,0 mm 0,0 km/h (0 Bft) W-SW 248 ° 0 min 0,000 mm 1,1 UV-I 144 W/m² 12,5 °C 13,4 °C 0,0 km/h (0 Bft)
24.05.2018 16:19 13,6 °C 94 % 1015,3 hPa 0,0 mm 0,0 km/h (0 Bft) W-SW 248 ° 0 min 0,000 mm 1,2 UV-I 151 W/m² 12,7 °C 13,6 °C 0,0 km/h (0 Bft)
24.05.2018 16:20 13,6 °C 94 % 1015,4 hPa 0,0 mm 0,0 km/h (0 Bft) W-SW 248 ° 0 min 0,000 mm 1,2 UV-I 158 W/m² 12,7 °C 13,6 °C 0,0 km/h (0 Bft)
24.05.2018 16:21 13,7 °C 94 % 1015,3 hPa 0,0 mm 0,0 km/h (0 Bft) W-SW 248 ° 0 min 0,000 mm 1,3 UV-I 165 W/m² 12,8 °C 13,7 °C 0,0 km/h (0 Bft)
24.05.2018 16:22 13,8 °C 94 % 1015,3 hPa 0,0 mm 0,0 km/h (0 Bft) W-SW 248 ° 0 min 0,000 mm 1,3 UV-I 174 W/m² 12,9 °C 13,8 °C 0,0 km/h (0 Bft)
24.05.2018 16:23 13,8 °C 94 % 1015,3 hPa 0,0 mm 0,0 km/h (0 Bft) W-SW 248 ° 0 min 0,000 mm 1,3 UV-I 174 W/m² 12,9 °C 13,8 °C 0,0 km/h (0 Bft)
24.05.2018 16:24 13,8 °C 94 % 1015,3 hPa 0,0 mm 0,0 km/h (0 Bft) W-SW 248 ° 0 min 0,000 mm 1,3 UV-I 176 W/m² 12,9 °C 13,8 °C 0,0 km/h (0 Bft)
24.05.2018 16:25 13,9 °C 93 % 1015,3 hPa 0,0 mm 0,0 km/h (0 Bft) W-SW 248 ° 0 min 0,000 mm 1,3 UV-I 174 W/m² 12,8 °C 13,9 °C 0,0 km/h (0 Bft)
24.05.2018 16:26 14,0 °C 93 % 1015,3 hPa 0,0 mm 0,0 km/h (0 Bft) W-SW 248 ° 0 min 0,000 mm 1,3 UV-I 171 W/m² 12,9 °C 14,0 °C 0,0 km/h (0 Bft)
24.05.2018 16:27 14,0 °C 93 % 1015,3 hPa 0,0 mm 0,0 km/h (0 Bft) W-SW 248 ° 0 min 0,000 mm 1,3 UV-I 169 W/m² 12,9 °C 14,0 °C 0,0 km/h (0 Bft)
24.05.2018 16:28 14,1 °C 93 % 1015,3 hPa 0,0 mm 0,0 km/h (0 Bft) W-SW 248 ° 0 min 0,000 mm 1,3 UV-I 160 W/m² 13,0 °C 14,1 °C 0,0 km/h (0 Bft)
24.05.2018 16:29 14,2 °C 94 % 1015,3 hPa 0,0 mm 0,0 km/h (0 Bft) W-SW 248 ° 0 min 0,000 mm 1,3 UV-I 155 W/m² 13,2 °C 14,2 °C 0,0 km/h (0 Bft)
24.05.2018 16:30 14,2 °C 94 % 1015,3 hPa 0,0 mm 0,0 km/h (0 Bft) W-SW 248 ° 0 min 0,000 mm 1,3 UV-I 148 W/m² 13,2 °C 14,2 °C 0,0 km/h (0 Bft)
24.05.2018 16:31 14,3 °C 94 % 1015,3 hPa 0,0 mm 0,0 km/h (0 Bft) W-SW 248 ° 0 min 0,000 mm 1,2 UV-I 142 W/m² 13,3 °C 14,3 °C 0,0 km/h (0 Bft)
24.05.2018 16:32 14,3 °C 93 % 1015,4 hPa 0,0 mm 0,0 km/h (0 Bft) W-SW 248 ° 0 min 0,000 mm 1,2 UV-I 139 W/m² 13,2 °C 14,3 °C 0,0 km/h (0 Bft)
24.05.2018 16:33 14,3 °C 93 % 1015,4 hPa 0,0 mm 0,0 km/h (0 Bft) W-SW 248 ° 0 min 0,000 mm 1,2 UV-I 135 W/m² 13,2 °C 14,3 °C 0,0 km/h (0 Bft)
24.05.2018 16:34 14,3 °C 93 % 1015,3 hPa 0,0 mm 0,0 km/h (0 Bft) W-SW 248 ° 0 min 0,000 mm 1,2 UV-I 132 W/m² 13,2 °C 14,3 °C 0,0 km/h (0 Bft)
24.05.2018 16:35 14,3 °C 93 % 1015,4 hPa 0,0 mm 0,0 km/h (0 Bft) W-SW 248 ° 0 min 0,000 mm 1,1 UV-I 130 W/m² 13,2 °C 14,3 °C 0,0 km/h (0 Bft)
24.05.2018 16:36 14,3 °C 93 % 1015,4 hPa 0,0 mm 0,0 km/h (0 Bft) W-SW 248 ° 0 min 0,000 mm 1,1 UV-I 130 W/m² 13,2 °C 14,3 °C 0,0 km/h (0 Bft)
24.05.2018 16:37 14,3 °C 93 % 1015,3 hPa 0,0 mm 0,0 km/h (0 Bft) W-SW 248 ° 0 min 0,000 mm 1,1 UV-I 130 W/m² 13,2 °C 14,3 °C 0,0 km/h (0 Bft)
24.05.2018 16:38 14,3 °C 93 % 1015,3 hPa 0,0 mm 0,0 km/h (0 Bft) W-SW 248 ° 0 min 0,000 mm 1,1 UV-I 130 W/m² 13,2 °C 14,3 °C 0,0 km/h (0 Bft)
24.05.2018 16:39 14,3 °C 93 % 1015,3 hPa 0,0 mm 0,0 km/h (0 Bft) W-SW 248 ° 0 min 0,000 mm 1,1 UV-I 128 W/m² 13,2 °C 14,3 °C 0,0 km/h (0 Bft)
24.05.2018 16:40 14,3 °C 93 % 1015,4 hPa 0,0 mm 0,0 km/h (0 Bft) W-SW 248 ° 0 min 0,000 mm 1,1 UV-I 121 W/m² 13,2 °C 14,3 °C 0,0 km/h (0 Bft)
24.05.2018 16:41 14,3 °C 93 % 1015,4 hPa 0,0 mm 0,0 km/h (0 Bft) W-SW 248 ° 0 min 0,000 mm 1,1 UV-I 118 W/m² 13,2 °C 14,3 °C 0,0 km/h (0 Bft)
24.05.2018 16:42 14,3 °C 93 % 1015,4 hPa 0,0 mm 0,0 km/h (0 Bft) W-SW 248 ° 0 min 0,000 mm 1,0 UV-I 114 W/m² 13,2 °C 14,3 °C 0,0 km/h (0 Bft)
24.05.2018 16:43 14,4 °C 93 % 1015,4 hPa 0,0 mm 0,0 km/h (0 Bft) W-SW 248 ° 0 min 0,000 mm 1,0 UV-I 113 W/m² 13,3 °C 14,4 °C 0,0 km/h (0 Bft)
24.05.2018 16:44 14,4 °C 93 % 1015,3 hPa 0,0 mm 0,0 km/h (0 Bft) W-SW 248 ° 0 min 0,000 mm 1,0 UV-I 111 W/m² 13,3 °C 14,4 °C 0,0 km/h (0 Bft)
24.05.2018 16:45 14,4 °C 94 % 1015,4 hPa 0,0 mm 0,0 km/h (0 Bft) W-SW 248 ° 0 min 0,000 mm 1,0 UV-I 109 W/m² 13,4 °C 14,4 °C 0,0 km/h (0 Bft)
24.05.2018 16:46 14,4 °C 94 % 1015,4 hPa 0,0 mm 0,0 km/h (0 Bft) W-SW 248 ° 0 min 0,000 mm 1,0 UV-I 113 W/m² 13,4 °C 14,4 °C 0,0 km/h (0 Bft)
24.05.2018 16:47 14,4 °C 93 % 1015,4 hPa 0,0 mm 0,0 km/h (0 Bft) W-SW 248 ° 0 min 0,000 mm 1,1 UV-I 116 W/m² 13,3 °C 14,4 °C 0,0 km/h (0 Bft)
24.05.2018 16:48 14,4 °C 93 % 1015,4 hPa 0,0 mm 0,0 km/h (0 Bft) W-SW 248 ° 0 min 0,000 mm 1,1 UV-I 121 W/m² 13,3 °C 14,4 °C 0,0 km/h (0 Bft)
24.05.2018 16:49 14,4 °C 93 % 1015,4 hPa 0,0 mm 0,0 km/h (0 Bft) W-SW 248 ° 0 min 0,000 mm 1,2 UV-I 127 W/m² 13,3 °C 14,4 °C 0,0 km/h (0 Bft)
24.05.2018 16:50 14,4 °C 93 % 1015,3 hPa 0,0 mm 0,0 km/h (0 Bft) W-SW 248 ° 0 min 0,000 mm 1,2 UV-I 130 W/m² 13,3 °C 14,4 °C 0,0 km/h (0 Bft)
24.05.2018 16:51 14,5 °C 94 % 1015,3 hPa 0,0 mm 0,0 km/h (0 Bft) W-SW 248 ° 0 min 0,000 mm 1,3 UV-I 135 W/m² 13,5 °C 14,5 °C 0,0 km/h (0 Bft)
24.05.2018 16:52 14,5 °C 94 % 1015,3 hPa 0,0 mm 0,0 km/h (0 Bft) W-SW 248 ° 0 min 0,000 mm 1,3 UV-I 142 W/m² 13,5 °C 14,5 °C 0,0 km/h (0 Bft)
24.05.2018 16:53 14,6 °C 94 % 1015,3 hPa 0,0 mm 0,0 km/h (0 Bft) W-SW 248 ° 0 min 0,000 mm 1,3 UV-I 146 W/m² 13,6 °C 14,6 °C 0,0 km/h (0 Bft)
24.05.2018 16:54 14,6 °C 94 % 1015,3 hPa 0,0 mm 0,0 km/h (0 Bft) W-SW 248 ° 0 min 0,000 mm 1,3 UV-I 151 W/m² 13,6 °C 14,6 °C 0,0 km/h (0 Bft)
24.05.2018 16:55 14,6 °C 94 % 1015,3 hPa 0,0 mm 0,0 km/h (0 Bft) W-SW 248 ° 0 min 0,000 mm 1,4 UV-I 155 W/m² 13,6 °C 14,6 °C 0,0 km/h (0 Bft)
24.05.2018 16:56 14,6 °C 94 % 1015,3 hPa 0,0 mm 0,1 km/h (0 Bft) W-SW 248 ° 0 min 0,000 mm 1,4 UV-I 160 W/m² 13,6 °C 14,6 °C 1,6 km/h (1 Bft)
24.05.2018 16:57 14,7 °C 94 % 1015,3 hPa 0,0 mm 0,2 km/h (0 Bft) W-SW 248 ° 0 min 0,000 mm 1,4 UV-I 165 W/m² 13,7 °C 14,7 °C 1,6 km/h (1 Bft)
24.05.2018 16:58 14,7 °C 94 % 1015,3 hPa 0,0 mm 0,1 km/h (0 Bft) W-SW 248 ° 0 min 0,000 mm 1,4 UV-I 174 W/m² 13,7 °C 14,7 °C 1,6 km/h (1 Bft)
24.05.2018 16:59 14,7 °C 94 % 1015,3 hPa 0,0 mm 0,0 km/h (0 Bft) W-SW 248 ° 0 min 0,000 mm 1,5 UV-I 181 W/m² 13,7 °C 14,7 °C 0,0 km/h (0 Bft)
24.05.2018 17:00 14,8 °C 94 % 1015,3 hPa 0,0 mm 0,0 km/h (0 Bft) W-SW 248 ° 0 min 0,076 mm 1,5 UV-I 186 W/m² 13,8 °C 14,8 °C 0,0 km/h (0 Bft)
24.05.2018 17:01 14,9 °C 94 % 1015,3 hPa 0,0 mm 0,0 km/h (0 Bft) W-SW 248 ° 0 min 0,000 mm 1,6 UV-I 193 W/m² 13,9 °C 14,9 °C 0,0 km/h (0 Bft)
24.05.2018 17:02 15,0 °C 94 % 1015,3 hPa 0,0 mm 0,0 km/h (0 Bft) W-SW 248 ° 0 min 0,000 mm 1,6 UV-I 199 W/m² 14,0 °C 15,0 °C 0,0 km/h (0 Bft)
24.05.2018 17:03 15,1 °C 94 % 1015,3 hPa 0,0 mm 0,0 km/h (0 Bft) W-SW 248 ° 0 min 0,000 mm 1,6 UV-I 200 W/m² 14,1 °C 15,1 °C 0,0 km/h (0 Bft)
24.05.2018 17:04 15,1 °C 94 % 1015,3 hPa 0,0 mm 0,0 km/h (0 Bft) W-SW 248 ° 0 min 0,000 mm 1,6 UV-I 199 W/m² 14,1 °C 15,1 °C 0,0 km/h (0 Bft)
24.05.2018 17:05 15,2 °C 94 % 1015,3 hPa 0,0 mm 0,0 km/h (0 Bft) W-SW 248 ° 0 min 0,000 mm 1,6 UV-I 199 W/m² 14,2 °C 15,2 °C 0,0 km/h (0 Bft)
24.05.2018 17:06 15,3 °C 94 % 1015,3 hPa 0,0 mm 0,0 km/h (0 Bft) W-SW 248 ° 0 min 0,000 mm 1,6 UV-I 200 W/m² 14,3 °C 15,3 °C 0,0 km/h (0 Bft)
24.05.2018 17:07 15,4 °C 94 % 1015,3 hPa 0,0 mm 0,0 km/h (0 Bft) W-SW 248 ° 0 min 0,000 mm 1,6 UV-I 202 W/m² 14,4 °C 15,4 °C 0,0 km/h (0 Bft)
24.05.2018 17:08 15,6 °C 93 % 1015,3 hPa 0,0 mm 0,1 km/h (0 Bft) W-SW 248 ° 0 min 0,000 mm 1,6 UV-I 207 W/m² 14,5 °C 15,6 °C 1,6 km/h (1 Bft)
24.05.2018 17:09 15,6 °C 93 % 1015,4 hPa 0,0 mm 0,1 km/h (0 Bft) W-SW 248 ° 0 min 0,000 mm 1,6 UV-I 211 W/m² 14,5 °C 15,6 °C 1,6 km/h (1 Bft)
24.05.2018 17:10 15,6 °C 92 % 1015,4 hPa 0,0 mm 0,1 km/h (0 Bft) W-SW 248 ° 0 min 0,000 mm 1,6 UV-I 223 W/m² 14,3 °C 15,6 °C 1,6 km/h (1 Bft)
24.05.2018 17:11 15,7 °C 92 % 1015,3 hPa 0,0 mm 0,0 km/h (0 Bft) W-SW 248 ° 0 min 0,000 mm 1,6 UV-I 227 W/m² 14,4 °C 15,7 °C 0,0 km/h (0 Bft)
24.05.2018 17:12 15,7 °C 92 % 1015,3 hPa 0,0 mm 0,0 km/h (0 Bft) W-SW 248 ° 0 min 0,000 mm 1,6 UV-I 229 W/m² 14,4 °C 15,7 °C 0,0 km/h (0 Bft)
24.05.2018 17:13 15,8 °C 92 % 1015,4 hPa 0,0 mm 0,0 km/h (0 Bft) W-SW 248 ° 0 min 0,000 mm 1,6 UV-I 229 W/m² 14,5 °C 15,8 °C 0,0 km/h (0 Bft)
24.05.2018 17:14 15,8 °C 92 % 1015,3 hPa 0,0 mm 0,0 km/h (0 Bft) W-SW 248 ° 0 min 0,000 mm 1,6 UV-I 227 W/m² 14,5 °C 15,8 °C 0,0 km/h (0 Bft)
24.05.2018 17:15 15,7 °C 92 % 1015,3 hPa 0,0 mm 0,0 km/h (0 Bft) W-SW 248 ° 0 min 0,000 mm 1,6 UV-I 213 W/m² 14,4 °C 15,7 °C 0,0 km/h (0 Bft)
24.05.2018 17:16 15,7 °C 92 % 1015,4 hPa 0,0 mm 0,0 km/h (0 Bft) W-SW 248 ° 0 min 0,000 mm 1,5 UV-I 202 W/m² 14,4 °C 15,7 °C 0,0 km/h (0 Bft)
24.05.2018 17:17 15,8 °C 92 % 1015,3 hPa 0,0 mm 0,0 km/h (0 Bft) W-SW 248 ° 0 min 0,000 mm 1,4 UV-I 190 W/m² 14,5 °C 15,8 °C 0,0 km/h (0 Bft)
24.05.2018 17:18 15,8 °C 92 % 1015,3 hPa 0,0 mm 0,0 km/h (0 Bft) W-SW 248 ° 0 min 0,000 mm 1,4 UV-I 179 W/m² 14,5 °C 15,8 °C 0,0 km/h (0 Bft)
24.05.2018 17:19 15,8 °C 92 % 1015,4 hPa 0,0 mm 0,0 km/h (0 Bft) W-SW 248 ° 0 min 0,000 mm 1,3 UV-I 169 W/m² 14,5 °C 15,8 °C 0,0 km/h (0 Bft)
24.05.2018 17:20 15,8 °C 92 % 1015,4 hPa 0,0 mm 0,0 km/h (0 Bft) W-SW 248 ° 0 min 0,000 mm 1,3 UV-I 160 W/m² 14,5 °C 15,8 °C 0,0 km/h (0 Bft)
24.05.2018 17:21 15,8 °C 92 % 1015,3 hPa 0,0 mm 0,0 km/h (0 Bft) W-SW 248 ° 0 min 0,000 mm 1,2 UV-I 146 W/m² 14,5 °C 15,8 °C 0,0 km/h (0 Bft)
24.05.2018 17:22 15,8 °C 91 % 1015,3 hPa 0,0 mm 0,0 km/h (0 Bft) W-SW 248 ° 0 min 0,000 mm 1,2 UV-I 141 W/m² 14,3 °C 15,8 °C 0,0 km/h (0 Bft)
24.05.2018 17:23 15,9 °C 91 % 1015,3 hPa 0,0 mm 2,9 km/h (1 Bft) W-SW 248 ° 0 min 0,000 mm 1,1 UV-I 135 W/m² 14,4 °C 15,9 °C 4,8 km/h (1 Bft)
24.05.2018 17:24 15,9 °C 92 % 1015,4 hPa 0,0 mm 3,6 km/h (1 Bft) W-SW 248 ° 0 min 0,000 mm 1,1 UV-I 132 W/m² 14,6 °C 15,9 °C 4,8 km/h (1 Bft)
24.05.2018 17:25 16,0 °C 92 % 1015,4 hPa 0,0 mm 1,9 km/h (1 Bft) W-SW 248 ° 0 min 0,000 mm 1,1 UV-I 128 W/m² 14,7 °C 16,0 °C 3,2 km/h (1 Bft)
24.05.2018 17:26 16,0 °C 92 % 1015,4 hPa 0,0 mm 1,5 km/h (1 Bft) W-SW 248 ° 0 min 0,000 mm 1,1 UV-I 127 W/m² 14,7 °C 16,0 °C 3,2 km/h (1 Bft)
24.05.2018 17:27 16,0 °C 92 % 1015,4 hPa 0,0 mm 2,7 km/h (1 Bft) W-SW 248 ° 0 min 0,000 mm 1,1 UV-I 121 W/m² 14,7 °C 16,0 °C 4,8 km/h (1 Bft)
24.05.2018 17:28 15,9 °C 92 % 1015,4 hPa 0,0 mm 0,0 km/h (0 Bft) W-SW 248 ° 0 min 0,000 mm 1,0 UV-I 120 W/m² 14,6 °C 15,9 °C 0,0 km/h (0 Bft)
24.05.2018 17:29 15,8 °C 91 % 1015,4 hPa 0,0 mm 1,6 km/h (1 Bft) W-SW 242 ° 0 min 0,000 mm 1,0 UV-I 116 W/m² 14,3 °C 15,8 °C 4,8 km/h (1 Bft)
24.05.2018 17:30 15,8 °C 91 % 1015,3 hPa 0,0 mm 0,0 km/h (0 Bft) W-SW 242 ° 0 min 0,000 mm 1,0 UV-I 113 W/m² 14,3 °C 15,8 °C 0,0 km/h (0 Bft)
24.05.2018 17:31 15,7 °C 91 % 1015,3 hPa 0,0 mm 0,0 km/h (0 Bft) W-SW 242 ° 0 min 0,000 mm 1,0 UV-I 109 W/m² 14,2 °C 15,7 °C 0,0 km/h (0 Bft)
24.05.2018 17:32 15,6 °C 92 % 1015,3 hPa 0,0 mm 0,0 km/h (0 Bft) W-SW 242 ° 0 min 0,000 mm 0,9 UV-I 105 W/m² 14,3 °C 15,6 °C 0,0 km/h (0 Bft)
24.05.2018 17:33 15,5 °C 92 % 1015,3 hPa 0,0 mm 0,0 km/h (0 Bft) W-SW 242 ° 0 min 0,000 mm 0,9 UV-I 98 W/m² 14,2 °C 15,5 °C 0,0 km/h (0 Bft)
24.05.2018 17:34 15,4 °C 92 % 1015,3 hPa 0,0 mm 0,0 km/h (0 Bft) W-SW 242 ° 0 min 0,000 mm 0,9 UV-I 97 W/m² 14,1 °C 15,4 °C 0,0 km/h (0 Bft)
24.05.2018 17:35 15,4 °C 92 % 1015,3 hPa 0,0 mm 0,0 km/h (0 Bft) W-SW 242 ° 0 min 0,000 mm 0,8 UV-I 93 W/m² 14,1 °C 15,4 °C 0,0 km/h (0 Bft)
24.05.2018 17:36 15,4 °C 92 % 1015,3 hPa 0,0 mm 0,0 km/h (0 Bft) W-SW 242 ° 0 min 0,000 mm 0,8 UV-I 93 W/m² 14,1 °C 15,4 °C 0,0 km/h (0 Bft)
24.05.2018 17:37 15,4 °C 92 % 1015,3 hPa 0,0 mm 0,0 km/h (0 Bft) W-SW 242 ° 0 min 0,000 mm 0,8 UV-I 91 W/m² 14,1 °C 15,4 °C 0,0 km/h (0 Bft)
24.05.2018 17:38 15,3 °C 92 % 1015,3 hPa 0,0 mm 0,0 km/h (0 Bft) W-SW 242 ° 0 min 0,000 mm 0,8 UV-I 90 W/m² 14,0 °C 15,3 °C 0,0 km/h (0 Bft)
24.05.2018 17:39 15,3 °C 92 % 1015,3 hPa 0,0 mm 0,0 km/h (0 Bft) W-SW 242 ° 0 min 0,000 mm 0,8 UV-I 88 W/m² 14,0 °C 15,3 °C 0,0 km/h (0 Bft)
24.05.2018 17:40 15,3 °C 92 % 1015,3 hPa 0,0 mm 0,0 km/h (0 Bft) W-SW 242 ° 0 min 0,000 mm 0,7 UV-I 88 W/m² 14,0 °C 15,3 °C 0,0 km/h (0 Bft)
24.05.2018 17:41 15,3 °C 92 % 1015,3 hPa 0,0 mm 0,0 km/h (0 Bft) W-SW 242 ° 0 min 0,000 mm 0,7 UV-I 86 W/m² 14,0 °C 15,3 °C 0,0 km/h (0 Bft)
24.05.2018 17:42 15,2 °C 92 % 1015,3 hPa 0,0 mm 0,0 km/h (0 Bft) W-SW 242 ° 0 min 0,000 mm 0,7 UV-I 86 W/m² 13,9 °C 15,2 °C 0,0 km/h (0 Bft)
24.05.2018 17:43 15,2 °C 92 % 1015,3 hPa 0,0 mm 0,0 km/h (0 Bft) W-SW 242 ° 0 min 0,000 mm 0,7 UV-I 86 W/m² 13,9 °C 15,2 °C 0,0 km/h (0 Bft)
24.05.2018 17:44 15,2 °C 92 % 1015,3 hPa 0,0 mm 0,0 km/h (0 Bft) W-SW 242 ° 0 min 0,000 mm 0,7 UV-I 86 W/m² 13,9 °C 15,2 °C 0,0 km/h (0 Bft)
24.05.2018 17:45 15,1 °C 92 % 1015,3 hPa 0,0 mm 0,0 km/h (0 Bft) W-SW 242 ° 0 min 0,000 mm 0,7 UV-I 88 W/m² 13,8 °C 15,1 °C 0,0 km/h (0 Bft)
24.05.2018 17:46 15,1 °C 92 % 1015,3 hPa 0,0 mm 0,0 km/h (0 Bft) W-SW 242 ° 0 min 0,000 mm 0,7 UV-I 88 W/m² 13,8 °C 15,1 °C 0,0 km/h (0 Bft)
24.05.2018 17:47 15,0 °C 92 % 1015,2 hPa 0,0 mm 0,0 km/h (0 Bft) W-SW 242 ° 0 min 0,000 mm 0,7 UV-I 90 W/m² 13,7 °C 15,0 °C 0,0 km/h (0 Bft)
24.05.2018 17:48 15,0 °C 92 % 1015,3 hPa 0,0 mm 0,0 km/h (0 Bft) W-SW 242 ° 0 min 0,000 mm 0,7 UV-I 90 W/m² 13,7 °C 15,0 °C 0,0 km/h (0 Bft)
24.05.2018 17:49 15,0 °C 92 % 1015,3 hPa 0,0 mm 0,0 km/h (0 Bft) W-SW 242 ° 0 min 0,000 mm 0,7 UV-I 91 W/m² 13,7 °C 15,0 °C 0,0 km/h (0 Bft)
24.05.2018 17:50 15,1 °C 92 % 1015,2 hPa 0,0 mm 0,0 km/h (0 Bft) W-SW 242 ° 0 min 0,000 mm 0,7 UV-I 93 W/m² 13,8 °C 15,1 °C 0,0 km/h (0 Bft)
24.05.2018 17:51 15,1 °C 93 % 1015,2 hPa 0,0 mm 0,0 km/h (0 Bft) W-SW 242 ° 0 min 0,000 mm 0,7 UV-I 95 W/m² 14,0 °C 15,1 °C 0,0 km/h (0 Bft)
24.05.2018 17:52 15,1 °C 92 % 1015,3 hPa 0,0 mm 0,0 km/h (0 Bft) W-SW 242 ° 0 min 0,000 mm 0,7 UV-I 97 W/m² 13,8 °C 15,1 °C 0,0 km/h (0 Bft)
24.05.2018 17:53 15,1 °C 92 % 1015,2 hPa 0,0 mm 0,0 km/h (0 Bft) W-SW 242 ° 0 min 0,000 mm 0,7 UV-I 98 W/m² 13,8 °C 15,1 °C 0,0 km/h (0 Bft)
24.05.2018 17:54 15,1 °C 93 % 1015,2 hPa 0,0 mm 0,0 km/h (0 Bft) W-SW 242 ° 0 min 0,000 mm 0,7 UV-I 100 W/m² 14,0 °C 15,1 °C 0,0 km/h (0 Bft)
24.05.2018 17:55 15,1 °C 93 % 1015,2 hPa 0,0 mm 0,0 km/h (0 Bft) W-SW 242 ° 0 min 0,000 mm 0,8 UV-I 102 W/m² 14,0 °C 15,1 °C 0,0 km/h (0 Bft)
24.05.2018 17:56 15,1 °C 92 % 1015,2 hPa 0,0 mm 0,0 km/h (0 Bft) W-SW 242 ° 0 min 0,000 mm 0,8 UV-I 105 W/m² 13,8 °C 15,1 °C 0,0 km/h (0 Bft)
24.05.2018 17:57 15,1 °C 93 % 1015,2 hPa 0,0 mm 0,0 km/h (0 Bft) W-SW 242 ° 0 min 0,000 mm 0,8 UV-I 107 W/m² 14,0 °C 15,1 °C 0,0 km/h (0 Bft)
24.05.2018 17:58 15,1 °C 92 % 1015,3 hPa 0,0 mm 0,0 km/h (0 Bft) W-SW 242 ° 0 min 0,000 mm 0,8 UV-I 109 W/m² 13,8 °C 15,1 °C 0,0 km/h (0 Bft)
24.05.2018 17:59 15,2 °C 92 % 1015,3 hPa 0,0 mm 0,0 km/h (0 Bft) W-SW 242 ° 0 min 0,000 mm 0,8 UV-I 111 W/m² 13,9 °C 15,2 °C 0,0 km/h (0 Bft)
24.05.2018 18:00 15,2 °C 92 % 1015,3 hPa 0,0 mm 0,0 km/h (0 Bft) W-SW 242 ° 0 min 0,000 mm 0,8 UV-I 113 W/m² 13,9 °C 15,2 °C 0,0 km/h (0 Bft)
24.05.2018 18:01 15,3 °C 92 % 1015,3 hPa 0,0 mm 0,0 km/h (0 Bft) W-SW 242 ° 0 min 0,076 mm 0,8 UV-I 114 W/m² 14,0 °C 15,3 °C 0,0 km/h (0 Bft)
24.05.2018 18:02 15,3 °C 92 % 1015,2 hPa 0,0 mm 0,0 km/h (0 Bft) W-SW 242 ° 0 min 0,000 mm 0,8 UV-I 118 W/m² 14,0 °C 15,3 °C 0,0 km/h (0 Bft)
24.05.2018 18:03 15,3 °C 92 % 1015,2 hPa 0,0 mm 0,0 km/h (0 Bft) W-SW 242 ° 0 min 0,000 mm 0,8 UV-I 120 W/m² 14,0 °C 15,3 °C 0,0 km/h (0 Bft)
24.05.2018 18:04 15,3 °C 92 % 1015,2 hPa 0,0 mm 0,0 km/h (0 Bft) W-SW 242 ° 0 min 0,000 mm 0,8 UV-I 121 W/m² 14,0 °C 15,3 °C 0,0 km/h (0 Bft)
24.05.2018 18:05 15,3 °C 92 % 1015,2 hPa 0,0 mm 0,0 km/h (0 Bft) W-SW 242 ° 0 min 0,000 mm 0,8 UV-I 121 W/m² 14,0 °C 15,3 °C 0,0 km/h (0 Bft)
24.05.2018 18:06 15,3 °C 91 % 1015,2 hPa 0,0 mm 0,0 km/h (0 Bft) W-SW 242 ° 0 min 0,000 mm 0,8 UV-I 120 W/m² 13,8 °C 15,3 °C 0,0 km/h (0 Bft)
24.05.2018 18:07 15,2 °C 91 % 1015,1 hPa 0,0 mm 0,5 km/h (0 Bft) W-SW 242 ° 0 min 0,000 mm 0,8 UV-I 118 W/m² 13,7 °C 15,2 °C 3,2 km/h (1 Bft)
24.05.2018 18:08 15,2 °C 91 % 1015,2 hPa 0,0 mm 1,8 km/h (1 Bft) W-SW 242 ° 0 min 0,000 mm 0,8 UV-I 114 W/m² 13,7 °C 15,2 °C 4,8 km/h (1 Bft)
24.05.2018 18:09 15,3 °C 91 % 1015,2 hPa 0,0 mm 0,0 km/h (0 Bft) W-SW 242 ° 0 min 0,000 mm 0,7 UV-I 113 W/m² 13,8 °C 15,3 °C 0,0 km/h (0 Bft)
24.05.2018 18:10 15,3 °C 91 % 1015,2 hPa 0,0 mm 1,4 km/h (1 Bft) W-SW 246 ° 0 min 0,000 mm 0,7 UV-I 111 W/m² 13,8 °C 15,3 °C 3,2 km/h (1 Bft)
24.05.2018 18:11 15,3 °C 91 % 1015,1 hPa 0,0 mm 0,2 km/h (0 Bft) W-SW 246 ° 0 min 0,000 mm 0,7 UV-I 109 W/m² 13,8 °C 15,3 °C 1,6 km/h (1 Bft)
24.05.2018 18:12 15,3 °C 91 % 1015,2 hPa 0,0 mm 0,0 km/h (0 Bft) W-SW 246 ° 0 min 0,000 mm 0,7 UV-I 107 W/m² 13,8 °C 15,3 °C 0,0 km/h (0 Bft)
24.05.2018 18:13 15,2 °C 91 % 1015,1 hPa 0,0 mm 0,0 km/h (0 Bft) W-SW 246 ° 0 min 0,000 mm 0,7 UV-I 105 W/m² 13,7 °C 15,2 °C 0,0 km/h (0 Bft)
24.05.2018 18:14 15,2 °C 91 % 1015,1 hPa 0,0 mm 0,0 km/h (0 Bft) W-SW 246 ° 0 min 0,000 mm 0,7 UV-I 105 W/m² 13,7 °C 15,2 °C 0,0 km/h (0 Bft)
24.05.2018 18:15 15,1 °C 91 % 1015,2 hPa 0,0 mm 0,0 km/h (0 Bft) W-SW 246 ° 0 min 0,000 mm 0,7 UV-I 105 W/m² 13,6 °C 15,1 °C 0,0 km/h (0 Bft)
24.05.2018 18:16 15,1 °C 91 % 1015,2 hPa 0,0 mm 0,0 km/h (0 Bft) W-SW 246 ° 0 min 0,000 mm 0,7 UV-I 105 W/m² 13,6 °C 15,1 °C 0,0 km/h (0 Bft)
24.05.2018 18:17 15,1 °C 92 % 1015,2 hPa 0,0 mm 0,0 km/h (0 Bft) W-SW 246 ° 0 min 0,000 mm 0,7 UV-I 105 W/m² 13,8 °C 15,1 °C 0,0 km/h (0 Bft)
24.05.2018 18:18 15,0 °C 92 % 1015,1 hPa 0,0 mm 0,0 km/h (0 Bft) W-SW 246 ° 0 min 0,000 mm 0,7 UV-I 107 W/m² 13,7 °C 15,0 °C 0,0 km/h (0 Bft)
24.05.2018 18:19 14,9 °C 92 % 1015,1 hPa 0,0 mm 0,0 km/h (0 Bft) W-SW 246 ° 0 min 0,000 mm 0,6 UV-I 109 W/m² 13,6 °C 14,9 °C 0,0 km/h (0 Bft)
24.05.2018 18:20 15,0 °C 92 % 1015,2 hPa 0,0 mm 0,0 km/h (0 Bft) W-SW 246 ° 0 min 0,000 mm 0,6 UV-I 114 W/m² 13,7 °C 15,0 °C 0,0 km/h (0 Bft)
24.05.2018 18:21 15,0 °C 92 % 1015,1 hPa 0,0 mm 0,0 km/h (0 Bft) W-SW 246 ° 0 min 0,000 mm 0,7 UV-I 116 W/m² 13,7 °C 15,0 °C 0,0 km/h (0 Bft)
24.05.2018 18:22 15,1 °C 93 % 1015,1 hPa 0,0 mm 0,0 km/h (0 Bft) W-SW 246 ° 0 min 0,000 mm 0,7 UV-I 121 W/m² 14,0 °C 15,1 °C 0,0 km/h (0 Bft)
24.05.2018 18:23 15,1 °C 93 % 1015,1 hPa 0,0 mm 0,0 km/h (0 Bft) W-SW 246 ° 0 min 0,000 mm 0,7 UV-I 125 W/m² 14,0 °C 15,1 °C 0,0 km/h (0 Bft)
24.05.2018 18:24 15,1 °C 92 % 1015,2 hPa 0,0 mm 0,0 km/h (0 Bft) W-SW 246 ° 0 min 0,000 mm 0,7 UV-I 128 W/m² 13,8 °C 15,1 °C 0,0 km/h (0 Bft)
24.05.2018 18:25 15,1 °C 92 % 1015,1 hPa 0,0 mm 0,0 km/h (0 Bft) W-SW 246 ° 0 min 0,000 mm 0,7 UV-I 134 W/m² 13,8 °C 15,1 °C 0,0 km/h (0 Bft)
24.05.2018 18:26 15,2 °C 91 % 1015,1 hPa 0,0 mm 0,2 km/h (0 Bft) W-SW 246 ° 0 min 0,000 mm 0,7 UV-I 142 W/m² 13,7 °C 15,2 °C 1,6 km/h (1 Bft)
24.05.2018 18:27 15,3 °C 91 % 1015,1 hPa 0,0 mm 0,0 km/h (0 Bft) W-SW 246 ° 0 min 0,000 mm 0,8 UV-I 160 W/m² 13,8 °C 15,3 °C 0,0 km/h (0 Bft)
24.05.2018 18:28 15,4 °C 91 % 1015,1 hPa 0,0 mm 0,0 km/h (0 Bft) W-SW 246 ° 0 min 0,000 mm 0,8 UV-I 169 W/m² 13,9 °C 15,4 °C 0,0 km/h (0 Bft)
24.05.2018 18:29 15,4 °C 92 % 1015,2 hPa 0,0 mm 0,1 km/h (0 Bft) W-SW 246 ° 0 min 0,000 mm 0,8 UV-I 178 W/m² 14,1 °C 15,4 °C 1,6 km/h (1 Bft)
24.05.2018 18:30 15,4 °C 91 % 1015,2 hPa 0,0 mm 0,7 km/h (0 Bft) W-SW 246 ° 0 min 0,000 mm 0,9 UV-I 183 W/m² 13,9 °C 15,4 °C 3,2 km/h (1 Bft)
24.05.2018 18:31 15,6 °C 91 % 1015,1 hPa 0,0 mm 2,4 km/h (1 Bft) W-SW 246 ° 0 min 0,000 mm 0,9 UV-I 183 W/m² 14,1 °C 15,6 °C 3,2 km/h (1 Bft)
24.05.2018 18:32 15,6 °C 91 % 1015,1 hPa 0,0 mm 2,3 km/h (1 Bft) W-SW 246 ° 0 min 0,000 mm 0,9 UV-I 179 W/m² 14,1 °C 15,6 °C 4,8 km/h (1 Bft)
24.05.2018 18:33 15,7 °C 90 % 1015,2 hPa 0,0 mm 2,9 km/h (1 Bft) W-SW 246 ° 0 min 0,000 mm 0,9 UV-I 172 W/m² 14,1 °C 15,7 °C 3,2 km/h (1 Bft)
24.05.2018 18:34 15,8 °C 90 % 1015,1 hPa 0,0 mm 2,6 km/h (1 Bft) W-SW 246 ° 0 min 0,000 mm 0,9 UV-I 165 W/m² 14,2 °C 15,8 °C 4,8 km/h (1 Bft)
24.05.2018 18:35 15,8 °C 90 % 1015,2 hPa 0,0 mm 0,4 km/h (0 Bft) W-SW 246 ° 0 min 0,000 mm 0,9 UV-I 160 W/m² 14,2 °C 15,8 °C 3,2 km/h (1 Bft)
24.05.2018 18:36 15,8 °C 90 % 1015,2 hPa 0,0 mm 2,7 km/h (1 Bft) W-SW 246 ° 0 min 0,000 mm 0,9 UV-I 155 W/m² 14,2 °C 15,8 °C 4,8 km/h (1 Bft)
24.05.2018 18:37 15,9 °C 90 % 1015,3 hPa 0,0 mm 1,4 km/h (1 Bft) W-SW 246 ° 0 min 0,000 mm 0,9 UV-I 144 W/m² 14,3 °C 15,9 °C 3,2 km/h (1 Bft)
24.05.2018 18:38 15,9 °C 91 % 1015,3 hPa 0,0 mm 1,7 km/h (1 Bft) W-SW 246 ° 0 min 0,000 mm 0,9 UV-I 141 W/m² 14,4 °C 15,9 °C 3,2 km/h (1 Bft)
24.05.2018 18:39 15,9 °C 91 % 1015,3 hPa 0,0 mm 0,3 km/h (0 Bft) W-SW 246 ° 0 min 0,000 mm 0,9 UV-I 137 W/m² 14,4 °C 15,9 °C 1,6 km/h (1 Bft)
24.05.2018 18:40 15,9 °C 90 % 1015,3 hPa 0,0 mm 0,0 km/h (0 Bft) W-SW 246 ° 0 min 0,000 mm 0,9 UV-I 132 W/m² 14,3 °C 15,9 °C 0,0 km/h (0 Bft)
24.05.2018 18:41 15,9 °C 91 % 1015,2 hPa 0,0 mm 0,9 km/h (0 Bft) W-SW 246 ° 0 min 0,000 mm 0,8 UV-I 128 W/m² 14,4 °C 15,9 °C 1,6 km/h (1 Bft)
24.05.2018 18:42 15,8 °C 91 % 1015,2 hPa 0,0 mm 0,3 km/h (0 Bft) W-SW 246 ° 0 min 0,000 mm 0,8 UV-I 123 W/m² 14,3 °C 15,8 °C 1,6 km/h (1 Bft)
24.05.2018 18:43 15,7 °C 91 % 1015,2 hPa 0,0 mm 0,0 km/h (0 Bft) W-SW 246 ° 0 min 0,000 mm 0,8 UV-I 114 W/m² 14,2 °C 15,7 °C 0,0 km/h (0 Bft)
24.05.2018 18:44 15,7 °C 91 % 1015,2 hPa 0,0 mm 0,0 km/h (0 Bft) W-SW 246 ° 0 min 0,000 mm 0,8 UV-I 111 W/m² 14,2 °C 15,7 °C 0,0 km/h (0 Bft)
24.05.2018 18:45 15,6 °C 91 % 1015,2 hPa 0,0 mm 0,0 km/h (0 Bft) W-SW 246 ° 0 min 0,000 mm 0,8 UV-I 107 W/m² 14,1 °C 15,6 °C 0,0 km/h (0 Bft)
24.05.2018 18:46 15,6 °C 91 % 1015,2 hPa 0,0 mm 0,0 km/h (0 Bft) W-SW 246 ° 0 min 0,000 mm 0,7 UV-I 104 W/m² 14,1 °C 15,6 °C 0,0 km/h (0 Bft)
24.05.2018 18:47 15,5 °C 91 % 1015,2 hPa 0,0 mm 0,0 km/h (0 Bft) W-SW 246 ° 0 min 0,000 mm 0,7 UV-I 104 W/m² 14,0 °C 15,5 °C 0,0 km/h (0 Bft)
24.05.2018 18:48 15,4 °C 92 % 1015,2 hPa 0,0 mm 0,0 km/h (0 Bft) W-SW 246 ° 0 min 0,000 mm 0,7 UV-I 100 W/m² 14,1 °C 15,4 °C 0,0 km/h (0 Bft)
24.05.2018 18:49 15,4 °C 92 % 1015,2 hPa 0,0 mm 0,0 km/h (0 Bft) W-SW 246 ° 0 min 0,000 mm 0,7 UV-I 100 W/m² 14,1 °C 15,4 °C 0,0 km/h (0 Bft)
24.05.2018 18:50 15,5 °C 92 % 1015,2 hPa 0,0 mm 0,0 km/h (0 Bft) W-SW 246 ° 0 min 0,000 mm 0,7 UV-I 98 W/m² 14,2 °C 15,5 °C 0,0 km/h (0 Bft)
24.05.2018 18:51 15,5 °C 92 % 1015,2 hPa 0,0 mm 0,0 km/h (0 Bft) W-SW 246 ° 0 min 0,000 mm 0,7 UV-I 97 W/m² 14,2 °C 15,5 °C 0,0 km/h (0 Bft)
24.05.2018 18:52 15,5 °C 92 % 1015,2 hPa 0,0 mm 0,0 km/h (0 Bft) W-SW 246 ° 0 min 0,000 mm 0,7 UV-I 95 W/m² 14,2 °C 15,5 °C 0,0 km/h (0 Bft)
24.05.2018 18:53 15,6 °C 92 % 1015,2 hPa 0,0 mm 0,0 km/h (0 Bft) W-SW 246 ° 0 min 0,000 mm 0,7 UV-I 91 W/m² 14,3 °C 15,6 °C 0,0 km/h (0 Bft)
24.05.2018 18:54 15,6 °C 92 % 1015,3 hPa 0,0 mm 0,0 km/h (0 Bft) W-SW 246 ° 0 min 0,000 mm 0,7 UV-I 88 W/m² 14,3 °C 15,6 °C 0,0 km/h (0 Bft)
24.05.2018 18:55 15,6 °C 92 % 1015,2 hPa 0,0 mm 0,0 km/h (0 Bft) W-SW 246 ° 0 min 0,000 mm 0,7 UV-I 83 W/m² 14,3 °C 15,6 °C 0,0 km/h (0 Bft)
24.05.2018 18:56 15,6 °C 92 % 1015,2 hPa 0,0 mm 1,3 km/h (1 Bft) W-SW 246 ° 0 min 0,000 mm 0,7 UV-I 79 W/m² 14,3 °C 15,6 °C 3,2 km/h (1 Bft)
24.05.2018 18:57 15,6 °C 92 % 1015,3 hPa 0,0 mm 3,0 km/h (1 Bft) W-SW 246 ° 0 min 0,000 mm 0,6 UV-I 76 W/m² 14,3 °C 15,6 °C 4,8 km/h (1 Bft)
24.05.2018 18:58 15,7 °C 92 % 1015,3 hPa 0,0 mm 1,7 km/h (1 Bft) W-SW 246 ° 0 min 0,000 mm 0,6 UV-I 74 W/m² 14,4 °C 15,7 °C 3,2 km/h (1 Bft)
24.05.2018 18:59 15,7 °C 91 % 1015,3 hPa 0,0 mm 0,2 km/h (0 Bft) W-SW 246 ° 0 min 0,000 mm 0,6 UV-I 72 W/m² 14,2 °C 15,7 °C 1,6 km/h (1 Bft)
24.05.2018 19:00 15,6 °C 91 % 1015,3 hPa 0,0 mm 3,2 km/h (1 Bft) W-SW 246 ° 0 min 0,076 mm 0,6 UV-I 69 W/m² 14,1 °C 15,6 °C 4,8 km/h (1 Bft)
24.05.2018 19:01 15,6 °C 91 % 1015,3 hPa 0,0 mm 2,5 km/h (1 Bft) W-SW 246 ° 0 min 0,000 mm 0,6 UV-I 67 W/m² 14,1 °C 15,6 °C 3,2 km/h (1 Bft)
24.05.2018 19:02 15,6 °C 91 % 1015,3 hPa 0,0 mm 0,1 km/h (0 Bft) W-SW 246 ° 0 min 0,000 mm 0,6 UV-I 65 W/m² 14,1 °C 15,6 °C 1,6 km/h (1 Bft)
24.05.2018 19:03 15,6 °C 91 % 1015,3 hPa 0,0 mm 0,0 km/h (0 Bft) W-SW 246 ° 0 min 0,000 mm 0,6 UV-I 63 W/m² 14,1 °C 15,6 °C 0,0 km/h (0 Bft)
24.05.2018 19:04 15,5 °C 91 % 1015,3 hPa 0,0 mm 0,0 km/h (0 Bft) W-SW 246 ° 0 min 0,000 mm 0,6 UV-I 62 W/m² 14,0 °C 15,5 °C 0,0 km/h (0 Bft)
24.05.2018 19:05 15,4 °C 91 % 1015,4 hPa 0,0 mm 0,0 km/h (0 Bft) W-SW 246 ° 0 min 0,000 mm 0,6 UV-I 60 W/m² 13,9 °C 15,4 °C 0,0 km/h (0 Bft)
24.05.2018 19:06 15,4 °C 91 % 1015,4 hPa 0,0 mm 0,0 km/h (0 Bft) W-SW 246 ° 0 min 0,000 mm 0,6 UV-I 60 W/m² 13,9 °C 15,4 °C 0,0 km/h (0 Bft)
24.05.2018 19:07 15,3 °C 91 % 1015,4 hPa 0,0 mm 0,0 km/h (0 Bft) W-SW 246 ° 0 min 0,000 mm 0,6 UV-I 62 W/m² 13,8 °C 15,3 °C 0,0 km/h (0 Bft)
24.05.2018 19:08 15,3 °C 92 % 1015,4 hPa 0,0 mm 0,0 km/h (0 Bft) W-SW 246 ° 0 min 0,000 mm 0,6 UV-I 63 W/m² 14,0 °C 15,3 °C 0,0 km/h (0 Bft)
24.05.2018 19:09 15,2 °C 91 % 1015,4 hPa 0,0 mm 0,0 km/h (0 Bft) W-SW 246 ° 0 min 0,000 mm 0,6 UV-I 65 W/m² 13,7 °C 15,2 °C 0,0 km/h (0 Bft)
24.05.2018 19:10 15,2 °C 91 % 1015,5 hPa 0,0 mm 0,6 km/h (0 Bft) W-SW 246 ° 0 min 0,000 mm 0,6 UV-I 65 W/m² 13,7 °C 15,2 °C 1,6 km/h (1 Bft)
24.05.2018 19:11 15,2 °C 92 % 1015,4 hPa 0,0 mm 0,1 km/h (0 Bft) W-SW 246 ° 0 min 0,000 mm 0,6 UV-I 63 W/m² 13,9 °C 15,2 °C 1,6 km/h (1 Bft)
24.05.2018 19:12 15,2 °C 92 % 1015,4 hPa 0,0 mm 0,0 km/h (0 Bft) W-SW 246 ° 0 min 0,000 mm 0,6 UV-I 60 W/m² 13,9 °C 15,2 °C 0,0 km/h (0 Bft)
24.05.2018 19:13 15,1 °C 91 % 1015,4 hPa 0,0 mm 0,0 km/h (0 Bft) W-SW 246 ° 0 min 0,000 mm 0,5 UV-I 58 W/m² 13,6 °C 15,1 °C 0,0 km/h (0 Bft)
24.05.2018 19:14 15,1 °C 92 % 1015,5 hPa 0,0 mm 0,0 km/h (0 Bft) W-SW 246 ° 0 min 0,000 mm 0,5 UV-I 58 W/m² 13,8 °C 15,1 °C 0,0 km/h (0 Bft)
24.05.2018 19:15 15,1 °C 92 % 1015,5 hPa 0,0 mm 0,0 km/h (0 Bft) W-SW 246 ° 0 min 0,000 mm 0,5 UV-I 56 W/m² 13,8 °C 15,1 °C 0,0 km/h (0 Bft)
24.05.2018 19:16 15,0 °C 92 % 1015,5 hPa 0,0 mm 0,0 km/h (0 Bft) W-SW 246 ° 0 min 0,000 mm 0,5 UV-I 56 W/m² 13,7 °C 15,0 °C 0,0 km/h (0 Bft)
24.05.2018 19:17 14,9 °C 92 % 1015,5 hPa 0,0 mm 0,0 km/h (0 Bft) W-SW 246 ° 0 min 0,000 mm 0,5 UV-I 56 W/m² 13,6 °C 14,9 °C 0,0 km/h (0 Bft)
24.05.2018 19:18 14,9 °C 92 % 1015,5 hPa 0,0 mm 0,0 km/h (0 Bft) W-SW 246 ° 0 min 0,000 mm 0,5 UV-I 58 W/m² 13,6 °C 14,9 °C 0,0 km/h (0 Bft)
24.05.2018 19:19 14,9 °C 92 % 1015,5 hPa 0,0 mm 0,0 km/h (0 Bft) W-SW 246 ° 0 min 0,000 mm 0,5 UV-I 58 W/m² 13,6 °C 14,9 °C 0,0 km/h (0 Bft)
24.05.2018 19:20 14,8 °C 92 % 1015,5 hPa 0,0 mm 0,0 km/h (0 Bft) W-SW 246 ° 0 min 0,000 mm 0,5 UV-I 60 W/m² 13,5 °C 14,8 °C 0,0 km/h (0 Bft)
24.05.2018 19:21 14,8 °C 93 % 1015,5 hPa 0,0 mm 0,0 km/h (0 Bft) W-SW 246 ° 0 min 0,000 mm 0,5 UV-I 60 W/m² 13,7 °C 14,8 °C 0,0 km/h (0 Bft)
24.05.2018 19:22 14,8 °C 93 % 1015,5 hPa 0,0 mm 0,0 km/h (0 Bft) W-SW 246 ° 0 min 0,000 mm 0,5 UV-I 58 W/m² 13,7 °C 14,8 °C 0,0 km/h (0 Bft)
24.05.2018 19:23 14,8 °C 93 % 1015,5 hPa 0,0 mm 0,0 km/h (0 Bft) W-SW 246 ° 0 min 0,000 mm 0,0 UV-I 54 W/m² 13,7 °C 14,8 °C 0,0 km/h (0 Bft)
24.05.2018 19:24 14,8 °C 93 % 1015,5 hPa 0,0 mm 1,0 km/h (0 Bft) W-SW 246 ° 0 min 0,000 mm 0,0 UV-I 49 W/m² 13,7 °C 14,8 °C 3,2 km/h (1 Bft)
24.05.2018 19:25 14,8 °C 93 % 1015,5 hPa 0,0 mm 2,2 km/h (1 Bft) W-SW 246 ° 0 min 0,000 mm 0,0 UV-I 47 W/m² 13,7 °C 14,8 °C 3,2 km/h (1 Bft)
24.05.2018 19:26 14,8 °C 93 % 1015,5 hPa 0,0 mm 1,9 km/h (1 Bft) W-SW 246 ° 0 min 0,000 mm 0,0 UV-I 46 W/m² 13,7 °C 14,8 °C 3,2 km/h (1 Bft)
24.05.2018 19:27 14,8 °C 93 % 1015,5 hPa 0,0 mm 1,2 km/h (1 Bft) W-SW 246 ° 0 min 0,000 mm 0,0 UV-I 44 W/m² 13,7 °C 14,8 °C 3,2 km/h (1 Bft)
24.05.2018 19:28 14,7 °C 93 % 1015,5 hPa 0,0 mm 1,3 km/h (1 Bft) W-SW 246 ° 0 min 0,000 mm 0,0 UV-I 44 W/m² 13,6 °C 14,7 °C 1,6 km/h (1 Bft)
24.05.2018 19:29 14,7 °C 93 % 1015,5 hPa 0,0 mm 2,0 km/h (1 Bft) W-SW 246 ° 0 min 0,000 mm 0,0 UV-I 44 W/m² 13,6 °C 14,7 °C 3,2 km/h (1 Bft)
24.05.2018 19:30 14,7 °C 93 % 1015,5 hPa 0,0 mm 3,2 km/h (1 Bft) W-SW 246 ° 0 min 0,000 mm 0,0 UV-I 44 W/m² 13,6 °C 14,7 °C 4,8 km/h (1 Bft)
24.05.2018 19:31 14,6 °C 93 % 1015,5 hPa 0,0 mm 2,2 km/h (1 Bft) W-SW 246 ° 0 min 0,000 mm 0,0 UV-I 42 W/m² 13,5 °C 14,6 °C 3,2 km/h (1 Bft)
24.05.2018 19:32 14,6 °C 93 % 1015,5 hPa 0,0 mm 2,7 km/h (1 Bft) W-SW 246 ° 0 min 0,000 mm 0,0 UV-I 42 W/m² 13,5 °C 14,6 °C 3,2 km/h (1 Bft)
24.05.2018 19:33 14,6 °C 93 % 1015,5 hPa 0,0 mm 1,8 km/h (1 Bft) W-SW 246 ° 0 min 0,000 mm 0,0 UV-I 42 W/m² 13,5 °C 14,6 °C 3,2 km/h (1 Bft)
24.05.2018 19:34 14,6 °C 93 % 1015,5 hPa 0,0 mm 1,1 km/h (1 Bft) W-SW 246 ° 0 min 0,000 mm 0,0 UV-I 42 W/m² 13,5 °C 14,6 °C 1,6 km/h (1 Bft)
24.05.2018 19:35 14,6 °C 93 % 1015,4 hPa 0,0 mm 1,8 km/h (1 Bft) W-SW 246 ° 0 min 0,000 mm 0,0 UV-I 42 W/m² 13,5 °C 14,6 °C 3,2 km/h (1 Bft)
24.05.2018 19:36 14,4 °C 93 % 1015,5 hPa 0,0 mm 0,4 km/h (0 Bft) W-SW 246 ° 0 min 0,000 mm 0,0 UV-I 46 W/m² 13,3 °C 14,4 °C 1,6 km/h (1 Bft)
24.05.2018 19:37 14,4 °C 93 % 1015,5 hPa 0,0 mm 2,2 km/h (1 Bft) W-SW 246 ° 0 min 0,000 mm 0,0 UV-I 47 W/m² 13,3 °C 14,4 °C 3,2 km/h (1 Bft)
24.05.2018 19:38 14,4 °C 93 % 1015,5 hPa 0,0 mm 2,3 km/h (1 Bft) W-SW 246 ° 0 min 0,000 mm 0,0 UV-I 49 W/m² 13,3 °C 14,4 °C 3,2 km/h (1 Bft)
24.05.2018 19:39 14,4 °C 93 % 1015,5 hPa 0,0 mm 1,9 km/h (1 Bft) W-SW 246 ° 0 min 0,000 mm 0,0 UV-I 51 W/m² 13,3 °C 14,4 °C 3,2 km/h (1 Bft)
24.05.2018 19:40 14,4 °C 93 % 1015,5 hPa 0,0 mm 1,4 km/h (1 Bft) W-SW 246 ° 0 min 0,000 mm 0,0 UV-I 53 W/m² 13,3 °C 14,4 °C 3,2 km/h (1 Bft)
24.05.2018 19:41 14,6 °C 93 % 1015,6 hPa 0,0 mm 1,9 km/h (1 Bft) W-SW 246 ° 0 min 0,000 mm 0,0 UV-I 53 W/m² 13,5 °C 14,6 °C 4,8 km/h (1 Bft)
24.05.2018 19:42 14,6 °C 93 % 1015,6 hPa 0,0 mm 0,9 km/h (0 Bft) W-SW 246 ° 0 min 0,000 mm 0,0 UV-I 53 W/m² 13,5 °C 14,6 °C 3,2 km/h (1 Bft)
24.05.2018 19:43 14,7 °C 93 % 1015,7 hPa 0,0 mm 0,0 km/h (0 Bft) W-SW 246 ° 0 min 0,000 mm 0,0 UV-I 51 W/m² 13,6 °C 14,7 °C 0,0 km/h (0 Bft)
24.05.2018 19:44 14,8 °C 93 % 1015,7 hPa 0,0 mm 0,0 km/h (0 Bft) W-SW 246 ° 0 min 0,000 mm 0,0 UV-I 49 W/m² 13,7 °C 14,8 °C 0,0 km/h (0 Bft)
24.05.2018 19:45 14,8 °C 92 % 1015,7 hPa 0,0 mm 0,0 km/h (0 Bft) W-SW 246 ° 0 min 0,000 mm 0,0 UV-I 47 W/m² 13,5 °C 14,8 °C 0,0 km/h (0 Bft)
24.05.2018 19:46 14,8 °C 92 % 1015,7 hPa 0,0 mm 0,0 km/h (0 Bft) W-SW 246 ° 0 min 0,000 mm 0,0 UV-I 46 W/m² 13,5 °C 14,8 °C 0,0 km/h (0 Bft)
24.05.2018 19:47 14,8 °C 92 % 1015,7 hPa 0,0 mm 0,0 km/h (0 Bft) W-SW 246 ° 0 min 0,000 mm 0,0 UV-I 44 W/m² 13,5 °C 14,8 °C 0,0 km/h (0 Bft)
24.05.2018 19:48 14,8 °C 92 % 1015,8 hPa 0,0 mm 0,0 km/h (0 Bft) W-SW 246 ° 0 min 0,000 mm 0,0 UV-I 42 W/m² 13,5 °C 14,8 °C 0,0 km/h (0 Bft)
24.05.2018 19:49 14,9 °C 92 % 1015,8 hPa 0,0 mm 0,0 km/h (0 Bft) W-SW 246 ° 0 min 0,000 mm 0,0 UV-I 40 W/m² 13,6 °C 14,9 °C 0,0 km/h (0 Bft)
24.05.2018 19:50 14,9 °C 92 % 1015,8 hPa 0,0 mm 0,0 km/h (0 Bft) W-SW 246 ° 0 min 0,000 mm 0,0 UV-I 40 W/m² 13,6 °C 14,9 °C 0,0 km/h (0 Bft)
24.05.2018 19:51 14,9 °C 92 % 1015,8 hPa 0,0 mm 0,0 km/h (0 Bft) W-SW 246 ° 0 min 0,000 mm 0,0 UV-I 39 W/m² 13,6 °C 14,9 °C 0,0 km/h (0 Bft)
24.05.2018 19:52 14,9 °C 92 % 1015,8 hPa 0,0 mm 0,0 km/h (0 Bft) W-SW 246 ° 0 min 0,000 mm 0,0 UV-I 39 W/m² 13,6 °C 14,9 °C 0,0 km/h (0 Bft)
24.05.2018 19:53 14,8 °C 92 % 1015,9 hPa 0,0 mm 0,0 km/h (0 Bft) W-SW 246 ° 0 min 0,000 mm 0,0 UV-I 37 W/m² 13,5 °C 14,8 °C 0,0 km/h (0 Bft)
24.05.2018 19:54 14,8 °C 92 % 1015,9 hPa 0,0 mm 0,0 km/h (0 Bft) W-SW 246 ° 0 min 0,000 mm 0,0 UV-I 37 W/m² 13,5 °C 14,8 °C 0,0 km/h (0 Bft)
24.05.2018 19:55 14,8 °C 92 % 1015,9 hPa 0,0 mm 0,0 km/h (0 Bft) W-SW 246 ° 0 min 0,000 mm 0,0 UV-I 35 W/m² 13,5 °C 14,8 °C 0,0 km/h (0 Bft)
24.05.2018 19:56 14,8 °C 92 % 1016,0 hPa 0,0 mm 0,0 km/h (0 Bft) W-SW 246 ° 0 min 0,000 mm 0,0 UV-I 35 W/m² 13,5 °C 14,8 °C 0,0 km/h (0 Bft)
24.05.2018 19:57 14,8 °C 92 % 1016,0 hPa 0,0 mm 0,0 km/h (0 Bft) W-SW 246 ° 0 min 0,000 mm 0,0 UV-I 35 W/m² 13,5 °C 14,8 °C 0,0 km/h (0 Bft)
24.05.2018 19:58 14,8 °C 92 % 1016,1 hPa 0,0 mm 0,0 km/h (0 Bft) W-SW 246 ° 0 min 0,000 mm 0,0 UV-I 33 W/m² 13,5 °C 14,8 °C 0,0 km/h (0 Bft)
24.05.2018 19:59 14,8 °C 92 % 1016,0 hPa 0,0 mm 0,0 km/h (0 Bft) W-SW 246 ° 0 min 0,000 mm 0,0 UV-I 32 W/m² 13,5 °C 14,8 °C 0,0 km/h (0 Bft)
24.05.2018 20:00 14,7 °C 92 % 1016,1 hPa 0,0 mm 0,0 km/h (0 Bft) W-SW 246 ° 0 min 0,000 mm 0,0 UV-I 32 W/m² 13,4 °C 14,7 °C 0,0 km/h (0 Bft)
24.05.2018 20:01 14,7 °C 92 % 1016,1 hPa 0,0 mm 0,0 km/h (0 Bft) W-SW 246 ° 0 min 0,026 mm 0,0 UV-I 30 W/m² 13,4 °C 14,7 °C 0,0 km/h (0 Bft)
24.05.2018 20:02 14,6 °C 93 % 1016,1 hPa 0,0 mm 0,0 km/h (0 Bft) W-SW 246 ° 0 min 0,000 mm 0,0 UV-I 28 W/m² 13,5 °C 14,6 °C 0,0 km/h (0 Bft)
24.05.2018 20:03 14,6 °C 93 % 1016,1 hPa 0,0 mm 0,0 km/h (0 Bft) W-SW 246 ° 0 min 0,000 mm 0,0 UV-I 26 W/m² 13,5 °C 14,6 °C 0,0 km/h (0 Bft)
24.05.2018 20:04 14,6 °C 93 % 1016,1 hPa 0,0 mm 0,0 km/h (0 Bft) W-SW 246 ° 0 min 0,000 mm 0,0 UV-I 25 W/m² 13,5 °C 14,6 °C 0,0 km/h (0 Bft)
24.05.2018 20:05 14,6 °C 93 % 1016,1 hPa 0,0 mm 0,0 km/h (0 Bft) W-SW 246 ° 0 min 0,000 mm 0,0 UV-I 23 W/m² 13,5 °C 14,6 °C 0,0 km/h (0 Bft)
24.05.2018 20:06 14,6 °C 93 % 1016,1 hPa 0,0 mm 0,0 km/h (0 Bft) W-SW 246 ° 0 min 0,000 mm 0,0 UV-I 21 W/m² 13,5 °C 14,6 °C 0,0 km/h (0 Bft)
24.05.2018 20:07 14,4 °C 93 % 1016,1 hPa 0,0 mm 0,0 km/h (0 Bft) W-SW 246 ° 0 min 0,000 mm 0,0 UV-I 19 W/m² 13,3 °C 14,4 °C 0,0 km/h (0 Bft)
24.05.2018 20:08 14,4 °C 93 % 1016,2 hPa 0,0 mm 0,2 km/h (0 Bft) W-SW 246 ° 0 min 0,000 mm 0,0 UV-I 19 W/m² 13,3 °C 14,4 °C 1,6 km/h (1 Bft)
24.05.2018 20:09 14,4 °C 93 % 1016,1 hPa 0,0 mm 0,6 km/h (0 Bft) W-SW 246 ° 0 min 0,000 mm 0,0 UV-I 19 W/m² 13,3 °C 14,4 °C 1,6 km/h (1 Bft)
24.05.2018 20:10 14,4 °C 93 % 1016,1 hPa 0,0 mm 0,6 km/h (0 Bft) W-SW 246 ° 0 min 0,000 mm 0,0 UV-I 18 W/m² 13,3 °C 14,4 °C 1,6 km/h (1 Bft)
24.05.2018 20:11 14,3 °C 93 % 1016,1 hPa 0,0 mm 0,0 km/h (0 Bft) W-SW 246 ° 0 min 0,000 mm 0,0 UV-I 18 W/m² 13,2 °C 14,3 °C 0,0 km/h (0 Bft)
24.05.2018 20:12 14,3 °C 93 % 1016,1 hPa 0,0 mm 0,0 km/h (0 Bft) W-SW 246 ° 0 min 0,000 mm 0,0 UV-I 18 W/m² 13,2 °C 14,3 °C 0,0 km/h (0 Bft)
24.05.2018 20:13 14,3 °C 93 % 1016,1 hPa 0,0 mm 0,0 km/h (0 Bft) W-SW 246 ° 0 min 0,000 mm 0,0 UV-I 16 W/m² 13,2 °C 14,3 °C 0,0 km/h (0 Bft)
24.05.2018 20:14 14,3 °C 93 % 1016,1 hPa 0,0 mm 0,0 km/h (0 Bft) W-SW 246 ° 0 min 0,000 mm 0,0 UV-I 16 W/m² 13,2 °C 14,3 °C 0,0 km/h (0 Bft)
24.05.2018 20:15 14,3 °C 93 % 1016,2 hPa 0,0 mm 0,0 km/h (0 Bft) W-SW 246 ° 0 min 0,000 mm 0,0 UV-I 16 W/m² 13,2 °C 14,3 °C 0,0 km/h (0 Bft)
24.05.2018 20:16 14,3 °C 93 % 1016,1 hPa 0,0 mm 0,0 km/h (0 Bft) W-SW 246 ° 0 min 0,000 mm 0,0 UV-I 16 W/m² 13,2 °C 14,3 °C 0,0 km/h (0 Bft)
24.05.2018 20:17 14,2 °C 93 % 1016,2 hPa 0,0 mm 0,0 km/h (0 Bft) W-SW 246 ° 0 min 0,000 mm 0,0 UV-I 16 W/m² 13,1 °C 14,2 °C 0,0 km/h (0 Bft)
24.05.2018 20:18 14,2 °C 93 % 1016,2 hPa 0,0 mm 0,0 km/h (0 Bft) W-SW 246 ° 0 min 0,000 mm 0,0 UV-I 16 W/m² 13,1 °C 14,2 °C 0,0 km/h (0 Bft)
24.05.2018 20:19 14,2 °C 93 % 1016,2 hPa 0,0 mm 0,0 km/h (0 Bft) W-SW 246 ° 0 min 0,000 mm 0,0 UV-I 16 W/m² 13,1 °C 14,2 °C 0,0 km/h (0 Bft)
24.05.2018 20:20 14,2 °C 93 % 1016,1 hPa 0,0 mm 0,0 km/h (0 Bft) W-SW 246 ° 0 min 0,000 mm 0,0 UV-I 16 W/m² 13,1 °C 14,2 °C 0,0 km/h (0 Bft)
24.05.2018 20:21 14,2 °C 93 % 1016,1 hPa 0,0 mm 0,1 km/h (0 Bft) W-SW 246 ° 0 min 0,000 mm 0,0 UV-I 16 W/m² 13,1 °C 14,2 °C 1,6 km/h (1 Bft)
24.05.2018 20:22 14,2 °C 93 % 1016,1 hPa 0,0 mm 1,1 km/h (1 Bft) W-SW 246 ° 0 min 0,000 mm 0,0 UV-I 16 W/m² 13,1 °C 14,2 °C 3,2 km/h (1 Bft)
24.05.2018 20:23 14,2 °C 93 % 1016,2 hPa 0,0 mm 1,7 km/h (1 Bft) W-SW 246 ° 0 min 0,000 mm 0,0 UV-I 16 W/m² 13,1 °C 14,2 °C 3,2 km/h (1 Bft)
24.05.2018 20:24 14,2 °C 93 % 1016,1 hPa 0,0 mm 3,0 km/h (1 Bft) W-SW 246 ° 0 min 0,000 mm 0,0 UV-I 16 W/m² 13,1 °C 14,2 °C 3,2 km/h (1 Bft)
24.05.2018 20:25 14,2 °C 93 % 1016,2 hPa 0,0 mm 1,7 km/h (1 Bft) W-SW 246 ° 0 min 0,000 mm 0,0 UV-I 16 W/m² 13,1 °C 14,2 °C 3,2 km/h (1 Bft)
24.05.2018 20:26 14,2 °C 93 % 1016,2 hPa 0,0 mm 1,3 km/h (1 Bft) W-SW 246 ° 0 min 0,000 mm 0,0 UV-I 14 W/m² 13,1 °C 14,2 °C 3,2 km/h (1 Bft)
24.05.2018 20:27 14,2 °C 93 % 1016,2 hPa 0,0 mm 0,3 km/h (0 Bft) W-SW 246 ° 0 min 0,000 mm 0,0 UV-I 14 W/m² 13,1 °C 14,2 °C 1,6 km/h (1 Bft)
24.05.2018 20:28 14,2 °C 93 % 1016,2 hPa 0,0 mm 0,8 km/h (0 Bft) W-SW 246 ° 0 min 0,000 mm 0,0 UV-I 14 W/m² 13,1 °C 14,2 °C 1,6 km/h (1 Bft)
24.05.2018 20:29 14,2 °C 93 % 1016,2 hPa 0,0 mm 0,3 km/h (0 Bft) W-SW 246 ° 0 min 0,000 mm 0,0 UV-I 14 W/m² 13,1 °C 14,2 °C 1,6 km/h (1 Bft)
24.05.2018 20:30 14,2 °C 93 % 1016,2 hPa 0,0 mm 0,1 km/h (0 Bft) W-SW 246 ° 0 min 0,000 mm 0,0 UV-I 12 W/m² 13,1 °C 14,2 °C 1,6 km/h (1 Bft)
24.05.2018 20:31 14,2 °C 93 % 1016,2 hPa 0,0 mm 0,0 km/h (0 Bft) W-SW 246 ° 0 min 0,000 mm 0,0 UV-I 12 W/m² 13,1 °C 14,2 °C 0,0 km/h (0 Bft)
24.05.2018 20:32 14,1 °C 93 % 1016,2 hPa 0,0 mm 0,1 km/h (0 Bft) W-SW 246 ° 0 min 0,000 mm 0,0 UV-I 12 W/m² 13,0 °C 14,1 °C 1,6 km/h (1 Bft)
24.05.2018 20:33 14,1 °C 93 % 1016,2 hPa 0,0 mm 0,6 km/h (0 Bft) W-SW 246 ° 0 min 0,000 mm 0,0 UV-I 12 W/m² 13,0 °C 14,1 °C 1,6 km/h (1 Bft)
24.05.2018 20:34 14,1 °C 93 % 1016,3 hPa 0,0 mm 0,1 km/h (0 Bft) W-SW 246 ° 0 min 0,000 mm 0,0 UV-I 11 W/m² 13,0 °C 14,1 °C 1,6 km/h (1 Bft)
24.05.2018 20:35 14,0 °C 93 % 1016,3 hPa 0,0 mm 0,8 km/h (0 Bft) W-SW 246 ° 0 min 0,000 mm 0,0 UV-I 11 W/m² 12,9 °C 14,0 °C 3,2 km/h (1 Bft)
24.05.2018 20:36 13,9 °C 93 % 1016,3 hPa 0,0 mm 0,0 km/h (0 Bft) W-SW 246 ° 0 min 0,000 mm 0,0 UV-I 11 W/m² 12,8 °C 13,9 °C 0,0 km/h (0 Bft)
24.05.2018 20:37 13,9 °C 93 % 1016,3 hPa 0,0 mm 0,0 km/h (0 Bft) W-SW 246 ° 0 min 0,000 mm 0,0 UV-I 9 W/m² 12,8 °C 13,9 °C 0,0 km/h (0 Bft)
24.05.2018 20:38 14,0 °C 93 % 1016,3 hPa 0,0 mm 0,0 km/h (0 Bft) W-SW 246 ° 0 min 0,000 mm 0,0 UV-I 9 W/m² 12,9 °C 14,0 °C 0,0 km/h (0 Bft)
24.05.2018 20:39 13,9 °C 94 % 1016,3 hPa 0,0 mm 0,0 km/h (0 Bft) W-SW 246 ° 0 min 0,000 mm 0,0 UV-I 9 W/m² 12,9 °C 13,9 °C 0,0 km/h (0 Bft)
24.05.2018 20:40 13,9 °C 93 % 1016,2 hPa 0,0 mm 1,6 km/h (1 Bft) W-SW 246 ° 0 min 0,000 mm 0,0 UV-I 7 W/m² 12,8 °C 13,9 °C 3,2 km/h (1 Bft)
24.05.2018 20:41 13,9 °C 93 % 1016,3 hPa 0,0 mm 0,2 km/h (0 Bft) W-SW 246 ° 0 min 0,000 mm 0,0 UV-I 7 W/m² 12,8 °C 13,9 °C 1,6 km/h (1 Bft)
24.05.2018 20:42 13,9 °C 93 % 1016,3 hPa 0,0 mm 4,2 km/h (1 Bft) W-SW 246 ° 0 min 0,000 mm 0,0 UV-I 7 W/m² 12,8 °C 13,9 °C 6,4 km/h (2 Bft)
24.05.2018 20:43 13,9 °C 93 % 1016,3 hPa 0,0 mm 4,5 km/h (1 Bft) W-SW 242 ° 0 min 0,000 mm 0,0 UV-I 5 W/m² 12,8 °C 13,9 °C 6,4 km/h (2 Bft)
24.05.2018 20:44 13,9 °C 94 % 1016,3 hPa 0,0 mm 3,6 km/h (1 Bft) W-SW 237 ° 0 min 0,000 mm 0,0 UV-I 5 W/m² 12,9 °C 13,9 °C 4,8 km/h (1 Bft)
24.05.2018 20:45 13,9 °C 94 % 1016,4 hPa 0,2 mm 2,5 km/h (1 Bft) W-SW 237 ° 0 min 0,000 mm 0,0 UV-I 5 W/m² 12,9 °C 13,9 °C 4,8 km/h (1 Bft)
24.05.2018 20:46 13,9 °C 93 % 1016,4 hPa 0,0 mm 0,1 km/h (0 Bft) W-SW 237 ° 0 min 0,000 mm 0,0 UV-I 5 W/m² 12,8 °C 13,9 °C 1,6 km/h (1 Bft)
24.05.2018 20:47 13,9 °C 93 % 1016,4 hPa 0,0 mm 0,7 km/h (0 Bft) W-SW 237 ° 0 min 0,000 mm 0,0 UV-I 5 W/m² 12,8 °C 13,9 °C 3,2 km/h (1 Bft)
24.05.2018 20:48 13,9 °C 93 % 1016,4 hPa 0,0 mm 0,9 km/h (0 Bft) W-SW 237 ° 0 min 0,000 mm 0,0 UV-I 0 W/m² 12,8 °C 13,9 °C 3,2 km/h (1 Bft)
24.05.2018 20:49 13,9 °C 93 % 1016,4 hPa 0,0 mm 0,9 km/h (0 Bft) W-SW 237 ° 0 min 0,000 mm 0,0 UV-I 0 W/m² 12,8 °C 13,9 °C 1,6 km/h (1 Bft)
24.05.2018 20:50 13,9 °C 93 % 1016,4 hPa 0,0 mm 0,5 km/h (0 Bft) W-SW 237 ° 0 min 0,000 mm 0,0 UV-I 0 W/m² 12,8 °C 13,9 °C 3,2 km/h (1 Bft)
24.05.2018 20:51 13,8 °C 93 % 1016,4 hPa 0,0 mm 2,2 km/h (1 Bft) W-SW 237 ° 0 min 0,000 mm 0,0 UV-I 0 W/m² 12,7 °C 13,8 °C 4,8 km/h (1 Bft)
24.05.2018 20:52 13,8 °C 93 % 1016,4 hPa 0,0 mm 0,7 km/h (0 Bft) W-SW 237 ° 0 min 0,000 mm 0,0 UV-I 0 W/m² 12,7 °C 13,8 °C 3,2 km/h (1 Bft)
24.05.2018 20:53 13,8 °C 93 % 1016,5 hPa 0,0 mm 0,0 km/h (0 Bft) W-SW 237 ° 0 min 0,000 mm 0,0 UV-I 0 W/m² 12,7 °C 13,8 °C 0,0 km/h (0 Bft)
24.05.2018 20:54 13,8 °C 93 % 1016,5 hPa 0,0 mm 0,0 km/h (0 Bft) W-SW 237 ° 0 min 0,000 mm 0,0 UV-I 0 W/m² 12,7 °C 13,8 °C 0,0 km/h (0 Bft)
24.05.2018 20:55 13,8 °C 93 % 1016,5 hPa 0,0 mm 0,0 km/h (0 Bft) W-SW 237 ° 0 min 0,000 mm 0,0 UV-I 0 W/m² 12,7 °C 13,8 °C 0,0 km/h (0 Bft)
24.05.2018 20:56 13,8 °C 93 % 1016,5 hPa 0,0 mm 3,3 km/h (1 Bft) SW 228 ° 0 min 0,000 mm 0,0 UV-I 0 W/m² 12,7 °C 13,8 °C 8,0 km/h (2 Bft)
24.05.2018 20:57 13,8 °C 93 % 1016,6 hPa 0,0 mm 5,1 km/h (1 Bft) SW 226 ° 0 min 0,000 mm 0,0 UV-I 0 W/m² 12,7 °C 13,8 °C 6,4 km/h (2 Bft)
24.05.2018 20:58 13,8 °C 93 % 1016,5 hPa 0,0 mm 6,0 km/h (2 Bft) S-SW 193 ° 0 min 0,000 mm 0,0 UV-I 0 W/m² 12,7 °C 13,8 °C 8,0 km/h (2 Bft)
24.05.2018 20:59 13,8 °C 93 % 1016,5 hPa 0,0 mm 2,5 km/h (1 Bft) S-SW 193 ° 0 min 0,000 mm 0,0 UV-I 0 W/m² 12,7 °C 13,8 °C 4,8 km/h (1 Bft)
24.05.2018 21:00 13,8 °C 93 % 1016,5 hPa 0,0 mm 3,1 km/h (1 Bft) S-SW 201 ° 0 min 0,000 mm 0,0 UV-I 0 W/m² 12,7 °C 13,8 °C 4,8 km/h (1 Bft)
24.05.2018 21:01 13,7 °C 93 % 1016,5 hPa 0,0 mm 3,5 km/h (1 Bft) S-SW 202 ° 0 min 0,000 mm 0,0 UV-I 0 W/m² 12,6 °C 13,7 °C 4,8 km/h (1 Bft)
24.05.2018 21:02 13,7 °C 93 % 1016,6 hPa 0,0 mm 4,0 km/h (1 Bft) S 188 ° 0 min 0,000 mm 0,0 UV-I 0 W/m² 12,6 °C 13,7 °C 6,4 km/h (2 Bft)
24.05.2018 21:03 13,7 °C 93 % 1016,5 hPa 0,0 mm 3,7 km/h (1 Bft) S-SW 201 ° 0 min 0,000 mm 0,0 UV-I 0 W/m² 12,6 °C 13,7 °C 4,8 km/h (1 Bft)
24.05.2018 21:04 13,7 °C 93 % 1016,6 hPa 0,0 mm 4,5 km/h (1 Bft) S-SW 201 ° 0 min 0,000 mm 0,0 UV-I 0 W/m² 12,6 °C 13,7 °C 6,4 km/h (2 Bft)
24.05.2018 21:05 13,6 °C 93 % 1016,5 hPa 0,0 mm 4,2 km/h (1 Bft) SW 219 ° 0 min 0,000 mm 0,0 UV-I 0 W/m² 12,5 °C 13,6 °C 8,0 km/h (2 Bft)
24.05.2018 21:06 13,6 °C 93 % 1016,5 hPa 0,0 mm 6,2 km/h (2 Bft) S-SW 202 ° 0 min 0,000 mm 0,0 UV-I 0 W/m² 12,5 °C 13,6 °C 8,0 km/h (2 Bft)
24.05.2018 21:07 13,6 °C 93 % 1016,5 hPa 0,0 mm 5,5 km/h (1 Bft) S-SW 199 ° 0 min 0,000 mm 0,0 UV-I 0 W/m² 12,5 °C 13,6 °C 8,0 km/h (2 Bft)
24.05.2018 21:08 13,5 °C 93 % 1016,5 hPa 0,0 mm 0,3 km/h (0 Bft) S-SW 199 ° 0 min 0,000 mm 0,0 UV-I 0 W/m² 12,4 °C 13,5 °C 3,2 km/h (1 Bft)
24.05.2018 21:09 13,5 °C 93 % 1016,5 hPa 0,0 mm 0,0 km/h (0 Bft) S-SW 199 ° 0 min 0,000 mm 0,0 UV-I 0 W/m² 12,4 °C 13,5 °C 0,0 km/h (0 Bft)
24.05.2018 21:10 13,4 °C 92 % 1016,5 hPa 0,0 mm 1,6 km/h (1 Bft) S-SW 199 ° 0 min 0,000 mm 0,0 UV-I 0 W/m² 12,1 °C 13,4 °C 3,2 km/h (1 Bft)
24.05.2018 21:11 13,4 °C 92 % 1016,5 hPa 0,0 mm 1,9 km/h (1 Bft) S-SW 199 ° 0 min 0,000 mm 0,0 UV-I 0 W/m² 12,1 °C 13,4 °C 3,2 km/h (1 Bft)
24.05.2018 21:12 13,3 °C 92 % 1016,5 hPa 0,0 mm 1,9 km/h (1 Bft) S-SW 199 ° 0 min 0,000 mm 0,0 UV-I 0 W/m² 12,0 °C 13,3 °C 4,8 km/h (1 Bft)
24.05.2018 21:13 13,3 °C 93 % 1016,5 hPa 0,0 mm 2,6 km/h (1 Bft) S-SW 200 ° 0 min 0,000 mm 0,0 UV-I 0 W/m² 12,2 °C 13,3 °C 4,8 km/h (1 Bft)
24.05.2018 21:14 13,3 °C 93 % 1016,5 hPa 0,0 mm 3,8 km/h (1 Bft) S-SW 200 ° 0 min 0,000 mm 0,0 UV-I 0 W/m² 12,2 °C 13,3 °C 4,8 km/h (1 Bft)
24.05.2018 21:15 13,3 °C 93 % 1016,6 hPa 0,0 mm 3,4 km/h (1 Bft) S-SW 199 ° 0 min 0,000 mm 0,0 UV-I 0 W/m² 12,2 °C 13,3 °C 4,8 km/h (1 Bft)
24.05.2018 21:16 13,2 °C 93 % 1016,5 hPa 0,0 mm 2,3 km/h (1 Bft) S-SW 199 ° 0 min 0,000 mm 0,0 UV-I 0 W/m² 12,1 °C 13,2 °C 3,2 km/h (1 Bft)
24.05.2018 21:17 13,2 °C 93 % 1016,5 hPa 0,0 mm 2,3 km/h (1 Bft) S-SW 199 ° 0 min 0,000 mm 0,0 UV-I 0 W/m² 12,1 °C 13,2 °C 3,2 km/h (1 Bft)
24.05.2018 21:18 13,2 °C 93 % 1016,6 hPa 0,0 mm 2,0 km/h (1 Bft) S-SW 199 ° 0 min 0,000 mm 0,0 UV-I 0 W/m² 12,1 °C 13,2 °C 3,2 km/h (1 Bft)
24.05.2018 21:19 13,2 °C 93 % 1016,6 hPa 0,0 mm 1,3 km/h (1 Bft) S-SW 199 ° 0 min 0,000 mm 0,0 UV-I 0 W/m² 12,1 °C 13,2 °C 3,2 km/h (1 Bft)
24.05.2018 21:20 13,2 °C 93 % 1016,6 hPa 0,0 mm 0,3 km/h (0 Bft) S-SW 199 ° 0 min 0,000 mm 0,0 UV-I 0 W/m² 12,1 °C 13,2 °C 1,6 km/h (1 Bft)
24.05.2018 21:21 13,1 °C 93 % 1016,6 hPa 0,0 mm 1,5 km/h (1 Bft) S-SW 199 ° 0 min 0,000 mm 0,0 UV-I 0 W/m² 12,0 °C 13,1 °C 3,2 km/h (1 Bft)
24.05.2018 21:22 13,1 °C 93 % 1016,6 hPa 0,0 mm 1,9 km/h (1 Bft) S-SW 199 ° 0 min 0,000 mm 0,0 UV-I 0 W/m² 12,0 °C 13,1 °C 3,2 km/h (1 Bft)
24.05.2018 21:23 13,0 °C 93 % 1016,6 hPa 0,0 mm 2,2 km/h (1 Bft) S-SW 199 ° 0 min 0,000 mm 0,0 UV-I 0 W/m² 11,9 °C 13,0 °C 3,2 km/h (1 Bft)
24.05.2018 21:24 13,0 °C 93 % 1016,6 hPa 0,0 mm 4,8 km/h (1 Bft) S-SW 199 ° 0 min 0,000 mm 0,0 UV-I 0 W/m² 11,9 °C 13,0 °C 8,0 km/h (2 Bft)
24.05.2018 21:25 13,0 °C 93 % 1016,6 hPa 0,0 mm 5,0 km/h (1 Bft) S-SW 199 ° 0 min 0,000 mm 0,0 UV-I 0 W/m² 11,9 °C 13,0 °C 6,4 km/h (2 Bft)
24.05.2018 21:26 13,0 °C 93 % 1016,7 hPa 0,0 mm 2,7 km/h (1 Bft) S-SW 199 ° 0 min 0,000 mm 0,0 UV-I 0 W/m² 11,9 °C 13,0 °C 4,8 km/h (1 Bft)
24.05.2018 21:27 13,0 °C 93 % 1016,7 hPa 0,0 mm 2,4 km/h (1 Bft) S-SW 199 ° 0 min 0,000 mm 0,0 UV-I 0 W/m² 11,9 °C 13,0 °C 4,8 km/h (1 Bft)
24.05.2018 21:28 13,0 °C 93 % 1016,6 hPa 0,0 mm 1,3 km/h (1 Bft) S-SW 199 ° 0 min 0,000 mm 0,0 UV-I 0 W/m² 11,9 °C 13,0 °C 3,2 km/h (1 Bft)
24.05.2018 21:29 13,1 °C 93 % 1016,7 hPa 0,0 mm 0,6 km/h (0 Bft) S-SW 199 ° 0 min 0,000 mm 0,0 UV-I 0 W/m² 12,0 °C 13,1 °C 1,6 km/h (1 Bft)
24.05.2018 21:30 13,1 °C 93 % 1016,6 hPa 0,0 mm 1,3 km/h (1 Bft) S-SW 199 ° 0 min 0,000 mm 0,0 UV-I 0 W/m² 12,0 °C 13,1 °C 3,2 km/h (1 Bft)
24.05.2018 21:31 13,1 °C 93 % 1016,7 hPa 0,0 mm 0,7 km/h (0 Bft) S-SW 199 ° 0 min 0,000 mm 0,0 UV-I 0 W/m² 12,0 °C 13,1 °C 3,2 km/h (1 Bft)
24.05.2018 21:32 13,1 °C 93 % 1016,7 hPa 0,0 mm 1,0 km/h (0 Bft) S-SW 199 ° 0 min 0,000 mm 0,0 UV-I 0 W/m² 12,0 °C 13,1 °C 3,2 km/h (1 Bft)
24.05.2018 21:33 13,1 °C 93 % 1016,7 hPa 0,0 mm 0,4 km/h (0 Bft) S-SW 199 ° 0 min 0,000 mm 0,0 UV-I 0 W/m² 12,0 °C 13,1 °C 1,6 km/h (1 Bft)
24.05.2018 21:34 13,1 °C 93 % 1016,6 hPa 0,0 mm 0,1 km/h (0 Bft) S-SW 199 ° 0 min 0,000 mm 0,0 UV-I 0 W/m² 12,0 °C 13,1 °C 1,6 km/h (1 Bft)
24.05.2018 21:35 13,1 °C 93 % 1016,6 hPa 0,0 mm 0,0 km/h (0 Bft) S-SW 199 ° 0 min 0,000 mm 0,0 UV-I 0 W/m² 12,0 °C 13,1 °C 0,0 km/h (0 Bft)
24.05.2018 21:36 13,1 °C 93 % 1016,7 hPa 0,0 mm 0,0 km/h (0 Bft) S-SW 199 ° 0 min 0,000 mm 0,0 UV-I 0 W/m² 12,0 °C 13,1 °C 0,0 km/h (0 Bft)
24.05.2018 21:37 12,9 °C 93 % 1016,7 hPa 0,0 mm 0,0 km/h (0 Bft) S-SW 199 ° 0 min 0,000 mm 0,0 UV-I 0 W/m² 11,8 °C 12,9 °C 0,0 km/h (0 Bft)
24.05.2018 21:38 12,9 °C 93 % 1016,7 hPa 0,0 mm 0,0 km/h (0 Bft) S-SW 199 ° 0 min 0,000 mm 0,0 UV-I 0 W/m² 11,8 °C 12,9 °C 0,0 km/h (0 Bft)
24.05.2018 21:39 12,9 °C 93 % 1016,7 hPa 0,0 mm 0,0 km/h (0 Bft) S-SW 199 ° 0 min 0,000 mm 0,0 UV-I 0 W/m² 11,8 °C 12,9 °C 0,0 km/h (0 Bft)
24.05.2018 21:40 12,9 °C 93 % 1016,8 hPa 0,0 mm 0,0 km/h (0 Bft) S-SW 199 ° 0 min 0,000 mm 0,0 UV-I 0 W/m² 11,8 °C 12,9 °C 0,0 km/h (0 Bft)
24.05.2018 21:41 12,9 °C 93 % 1016,7 hPa 0,0 mm 0,0 km/h (0 Bft) S-SW 199 ° 0 min 0,000 mm 0,0 UV-I 0 W/m² 11,8 °C 12,9 °C 0,0 km/h (0 Bft)
24.05.2018 21:42 12,9 °C 93 % 1016,8 hPa 0,0 mm 0,1 km/h (0 Bft) S-SW 199 ° 0 min 0,000 mm 0,0 UV-I 0 W/m² 11,8 °C 12,9 °C 1,6 km/h (1 Bft)
24.05.2018 21:43 12,9 °C 93 % 1016,8 hPa 0,0 mm 1,7 km/h (1 Bft) S-SW 199 ° 0 min 0,000 mm 0,0 UV-I 0 W/m² 11,8 °C 12,9 °C 3,2 km/h (1 Bft)
24.05.2018 21:44 12,9 °C 93 % 1016,8 hPa 0,0 mm 1,5 km/h (1 Bft) S-SW 199 ° 0 min 0,000 mm 0,0 UV-I 0 W/m² 11,8 °C 12,9 °C 3,2 km/h (1 Bft)
24.05.2018 21:45 12,9 °C 93 % 1016,8 hPa 0,0 mm 0,0 km/h (0 Bft) S-SW 199 ° 0 min 0,000 mm 0,0 UV-I 0 W/m² 11,8 °C 12,9 °C 0,0 km/h (0 Bft)
24.05.2018 21:46 12,8 °C 93 % 1016,7 hPa 0,0 mm 0,0 km/h (0 Bft) S-SW 199 ° 0 min 0,000 mm 0,0 UV-I 0 W/m² 11,7 °C 12,8 °C 0,0 km/h (0 Bft)
24.05.2018 21:47 12,9 °C 93 % 1016,8 hPa 0,0 mm 0,0 km/h (0 Bft) S-SW 199 ° 0 min 0,000 mm 0,0 UV-I 0 W/m² 11,8 °C 12,9 °C 0,0 km/h (0 Bft)
24.05.2018 21:48 12,9 °C 93 % 1016,8 hPa 0,0 mm 0,0 km/h (0 Bft) S-SW 199 ° 0 min 0,000 mm 0,0 UV-I 0 W/m² 11,8 °C 12,9 °C 0,0 km/h (0 Bft)
24.05.2018 21:49 12,9 °C 93 % 1016,8 hPa 0,0 mm 0,0 km/h (0 Bft) S-SW 199 ° 0 min 0,000 mm 0,0 UV-I 0 W/m² 11,8 °C 12,9 °C 0,0 km/h (0 Bft)
24.05.2018 21:50 12,8 °C 93 % 1016,7 hPa 0,0 mm 0,0 km/h (0 Bft) S-SW 199 ° 0 min 0,000 mm 0,0 UV-I 0 W/m² 11,7 °C 12,8 °C 0,0 km/h (0 Bft)
24.05.2018 21:51 12,8 °C 93 % 1016,7 hPa 0,0 mm 0,0 km/h (0 Bft) S-SW 199 ° 0 min 0,000 mm 0,0 UV-I 0 W/m² 11,7 °C 12,8 °C 0,0 km/h (0 Bft)
24.05.2018 21:52 12,8 °C 93 % 1016,7 hPa 0,0 mm 0,0 km/h (0 Bft) S-SW 199 ° 0 min 0,000 mm 0,0 UV-I 0 W/m² 11,7 °C 12,8 °C 0,0 km/h (0 Bft)
24.05.2018 21:53 12,8 °C 93 % 1016,7 hPa 0,0 mm 0,0 km/h (0 Bft) S-SW 199 ° 0 min 0,000 mm 0,0 UV-I 0 W/m² 11,7 °C 12,8 °C 0,0 km/h (0 Bft)
24.05.2018 21:54 12,8 °C 93 % 1016,8 hPa 0,0 mm 0,0 km/h (0 Bft) S-SW 199 ° 0 min 0,000 mm 0,0 UV-I 0 W/m² 11,7 °C 12,8 °C 0,0 km/h (0 Bft)
24.05.2018 21:55 12,8 °C 93 % 1016,8 hPa 0,0 mm 0,0 km/h (0 Bft) S-SW 199 ° 0 min 0,000 mm 0,0 UV-I 0 W/m² 11,7 °C 12,8 °C 0,0 km/h (0 Bft)
24.05.2018 21:56 12,8 °C 93 % 1016,8 hPa 0,0 mm 3,2 km/h (1 Bft) NW 307 ° 0 min 0,000 mm 0,0 UV-I 0 W/m² 11,7 °C 12,8 °C 4,8 km/h (1 Bft)
24.05.2018 21:57 12,7 °C 93 % 1016,9 hPa 0,0 mm 7,4 km/h (2 Bft) NW 321 ° 0 min 0,000 mm 0,0 UV-I 0 W/m² 11,6 °C 12,7 °C 9,7 km/h (2 Bft)
24.05.2018 21:58 12,7 °C 94 % 1017,0 hPa 0,0 mm 5,4 km/h (1 Bft) W-NW 297 ° 0 min 0,000 mm 0,0 UV-I 0 W/m² 11,8 °C 12,7 °C 6,4 km/h (2 Bft)
24.05.2018 21:59 12,7 °C 94 % 1017,0 hPa 0,0 mm 5,2 km/h (1 Bft) W-NW 294 ° 0 min 0,000 mm 0,0 UV-I 0 W/m² 11,8 °C 12,7 °C 8,0 km/h (2 Bft)
24.05.2018 22:00 12,7 °C 94 % 1017,1 hPa 0,0 mm 6,4 km/h (2 Bft) N-NW 340 ° 0 min 0,000 mm 0,0 UV-I 0 W/m² 11,8 °C 12,7 °C 12,9 km/h (3 Bft)
24.05.2018 22:01 12,7 °C 94 % 1017,0 hPa 0,0 mm 9,4 km/h (2 Bft) W-SW 248 ° 0 min 0,000 mm 0,0 UV-I 0 W/m² 11,8 °C 12,7 °C 17,7 km/h (3 Bft)
24.05.2018 22:02 12,8 °C 94 % 1017,1 hPa 0,0 mm 6,0 km/h (2 Bft) W-SW 257 ° 0 min 0,000 mm 0,0 UV-I 0 W/m² 11,9 °C 12,8 °C 11,3 km/h (2 Bft)
24.05.2018 22:03 12,9 °C 94 % 1017,0 hPa 0,0 mm 3,6 km/h (1 Bft) W-SW 242 ° 0 min 0,000 mm 0,0 UV-I 0 W/m² 12,0 °C 12,9 °C 6,4 km/h (2 Bft)
24.05.2018 22:04 13,0 °C 94 % 1017,0 hPa 0,0 mm 3,2 km/h (1 Bft) W-SW 242 ° 0 min 0,000 mm 0,0 UV-I 0 W/m² 12,1 °C 13,0 °C 4,8 km/h (1 Bft)
24.05.2018 22:05 13,1 °C 94 % 1017,0 hPa 0,0 mm 1,7 km/h (1 Bft) W 279 ° 0 min 0,000 mm 0,0 UV-I 0 W/m² 12,2 °C 13,1 °C 4,8 km/h (1 Bft)
24.05.2018 22:06 13,1 °C 93 % 1017,0 hPa 0,0 mm 1,1 km/h (1 Bft) SW 234 ° 0 min 0,000 mm 0,0 UV-I 0 W/m² 12,0 °C 13,1 °C 3,2 km/h (1 Bft)
24.05.2018 22:07 13,2 °C 93 % 1016,9 hPa 0,0 mm 2,5 km/h (1 Bft) SW 228 ° 0 min 0,000 mm 0,0 UV-I 0 W/m² 12,1 °C 13,2 °C 4,8 km/h (1 Bft)
24.05.2018 22:08 13,2 °C 93 % 1017,0 hPa 0,0 mm 0,9 km/h (0 Bft) SW 228 ° 0 min 0,000 mm 0,0 UV-I 0 W/m² 12,1 °C 13,2 °C 3,2 km/h (1 Bft)
24.05.2018 22:09 13,2 °C 93 % 1016,9 hPa 0,0 mm 5,0 km/h (1 Bft) S-SW 212 ° 0 min 0,000 mm 0,0 UV-I 0 W/m² 12,1 °C 13,2 °C 8,0 km/h (2 Bft)
24.05.2018 22:10 13,2 °C 93 % 1017,0 hPa 0,0 mm 2,3 km/h (1 Bft) S-SW 212 ° 0 min 0,000 mm 0,0 UV-I 0 W/m² 12,1 °C 13,2 °C 3,2 km/h (1 Bft)
24.05.2018 22:11 13,2 °C 93 % 1017,0 hPa 0,0 mm 2,4 km/h (1 Bft) S-SW 212 ° 0 min 0,000 mm 0,0 UV-I 0 W/m² 12,1 °C 13,2 °C 4,8 km/h (1 Bft)
24.05.2018 22:12 13,1 °C 93 % 1016,9 hPa 0,0 mm 2,7 km/h (1 Bft) S-SW 200 ° 0 min 0,000 mm 0,0 UV-I 0 W/m² 12,0 °C 13,1 °C 4,8 km/h (1 Bft)
24.05.2018 22:13 13,0 °C 92 % 1016,9 hPa 0,0 mm 1,9 km/h (1 Bft) S-SW 200 ° 0 min 0,000 mm 0,0 UV-I 0 W/m² 11,7 °C 13,0 °C 4,8 km/h (1 Bft)
24.05.2018 22:14 13,0 °C 93 % 1016,9 hPa 0,0 mm 0,9 km/h (0 Bft) S-SW 200 ° 0 min 0,000 mm 0,0 UV-I 0 W/m² 11,9 °C 13,0 °C 3,2 km/h (1 Bft)
24.05.2018 22:15 12,9 °C 93 % 1016,9 hPa 0,0 mm 0,0 km/h (0 Bft) S-SW 200 ° 0 min 0,000 mm 0,0 UV-I 0 W/m² 11,8 °C 12,9 °C 0,0 km/h (0 Bft)
24.05.2018 22:16 12,9 °C 93 % 1016,9 hPa 0,0 mm 0,0 km/h (0 Bft) S-SW 200 ° 0 min 0,000 mm 0,0 UV-I 0 W/m² 11,8 °C 12,9 °C 0,0 km/h (0 Bft)
24.05.2018 22:17 12,8 °C 93 % 1016,9 hPa 0,0 mm 0,0 km/h (0 Bft) S-SW 200 ° 0 min 0,000 mm 0,0 UV-I 0 W/m² 11,7 °C 12,8 °C 0,0 km/h (0 Bft)
24.05.2018 22:18 12,8 °C 93 % 1016,9 hPa 0,0 mm 2,0 km/h (1 Bft) S-SW 200 ° 0 min 0,000 mm 0,0 UV-I 0 W/m² 11,7 °C 12,8 °C 3,2 km/h (1 Bft)
24.05.2018 22:19 12,8 °C 93 % 1016,8 hPa 0,0 mm 3,0 km/h (1 Bft) S-SW 200 ° 0 min 0,000 mm 0,0 UV-I 0 W/m² 11,7 °C 12,8 °C 4,8 km/h (1 Bft)
24.05.2018 22:20 12,7 °C 93 % 1016,8 hPa 0,0 mm 3,4 km/h (1 Bft) S-SW 200 ° 0 min 0,000 mm 0,0 UV-I 0 W/m² 11,6 °C 12,7 °C 4,8 km/h (1 Bft)
24.05.2018 22:21 12,6 °C 93 % 1016,8 hPa 0,0 mm 2,6 km/h (1 Bft) S-SW 200 ° 0 min 0,000 mm 0,0 UV-I 0 W/m² 11,5 °C 12,6 °C 3,2 km/h (1 Bft)
24.05.2018 22:22 12,6 °C 93 % 1016,8 hPa 0,0 mm 1,6 km/h (1 Bft) S-SW 200 ° 0 min 0,000 mm 0,0 UV-I 0 W/m² 11,5 °C 12,6 °C 3,2 km/h (1 Bft)
24.05.2018 22:23 12,5 °C 93 % 1016,8 hPa 0,0 mm 0,6 km/h (0 Bft) S-SW 200 ° 0 min 0,000 mm 0,0 UV-I 0 W/m² 11,4 °C 12,5 °C 1,6 km/h (1 Bft)
24.05.2018 22:24 12,4 °C 93 % 1016,8 hPa 0,0 mm 0,0 km/h (0 Bft) S-SW 200 ° 0 min 0,000 mm 0,0 UV-I 0 W/m² 11,3 °C 12,4 °C 0,0 km/h (0 Bft)
24.05.2018 22:25 12,3 °C 93 % 1016,8 hPa 0,0 mm 0,0 km/h (0 Bft) S-SW 200 ° 0 min 0,000 mm 0,0 UV-I 0 W/m² 11,2 °C 12,3 °C 0,0 km/h (0 Bft)
24.05.2018 22:26 12,3 °C 93 % 1016,8 hPa 0,0 mm 0,0 km/h (0 Bft) S-SW 200 ° 0 min 0,000 mm 0,0 UV-I 0 W/m² 11,2 °C 12,3 °C 0,0 km/h (0 Bft)
24.05.2018 22:27 12,3 °C 93 % 1016,8 hPa 0,0 mm 0,0 km/h (0 Bft) S-SW 200 ° 0 min 0,000 mm 0,0 UV-I 0 W/m² 11,2 °C 12,3 °C 0,0 km/h (0 Bft)
24.05.2018 22:28 12,2 °C 93 % 1016,9 hPa 0,0 mm 1,8 km/h (1 Bft) S-SW 200 ° 0 min 0,000 mm 0,0 UV-I 0 W/m² 11,1 °C 12,2 °C 3,2 km/h (1 Bft)
24.05.2018 22:29 12,2 °C 93 % 1016,9 hPa 0,0 mm 1,9 km/h (1 Bft) S-SW 200 ° 0 min 0,000 mm 0,0 UV-I 0 W/m² 11,1 °C 12,2 °C 3,2 km/h (1 Bft)
24.05.2018 22:30 12,2 °C 93 % 1016,9 hPa 0,0 mm 0,8 km/h (0 Bft) S-SW 200 ° 0 min 0,000 mm 0,0 UV-I 0 W/m² 11,1 °C 12,2 °C 1,6 km/h (1 Bft)
24.05.2018 22:31 12,2 °C 93 % 1016,9 hPa 0,0 mm 0,1 km/h (0 Bft) S-SW 200 ° 0 min 0,000 mm 0,0 UV-I 0 W/m² 11,1 °C 12,2 °C 1,6 km/h (1 Bft)
24.05.2018 22:32 12,1 °C 93 % 1016,9 hPa 0,0 mm 0,0 km/h (0 Bft) S-SW 200 ° 0 min 0,000 mm 0,0 UV-I 0 W/m² 11,0 °C 12,1 °C 0,0 km/h (0 Bft)
24.05.2018 22:33 12,2 °C 93 % 1016,8 hPa 0,0 mm 0,0 km/h (0 Bft) S-SW 200 ° 0 min 0,000 mm 0,0 UV-I 0 W/m² 11,1 °C 12,2 °C 0,0 km/h (0 Bft)
24.05.2018 22:34 12,1 °C 93 % 1016,9 hPa 0,0 mm 2,1 km/h (1 Bft) S-SW 200 ° 0 min 0,000 mm 0,0 UV-I 0 W/m² 11,0 °C 12,1 °C 3,2 km/h (1 Bft)
24.05.2018 22:35 12,1 °C 93 % 1016,9 hPa 0,0 mm 1,5 km/h (1 Bft) S-SW 200 ° 0 min 0,000 mm 0,0 UV-I 0 W/m² 11,0 °C 12,1 °C 3,2 km/h (1 Bft)
24.05.2018 22:36 12,1 °C 93 % 1016,8 hPa 0,0 mm 1,5 km/h (1 Bft) S-SW 200 ° 0 min 0,000 mm 0,0 UV-I 0 W/m² 11,0 °C 12,1 °C 3,2 km/h (1 Bft)
24.05.2018 22:37 12,0 °C 93 % 1016,9 hPa 0,0 mm 1,1 km/h (1 Bft) S-SW 200 ° 0 min 0,000 mm 0,0 UV-I 0 W/m² 10,9 °C 12,0 °C 3,2 km/h (1 Bft)
24.05.2018 22:38 12,0 °C 93 % 1016,8 hPa 0,0 mm 0,1 km/h (0 Bft) S-SW 200 ° 0 min 0,000 mm 0,0 UV-I 0 W/m² 10,9 °C 12,0 °C 1,6 km/h (1 Bft)
24.05.2018 22:39 11,9 °C 94 % 1016,9 hPa 0,0 mm 0,0 km/h (0 Bft) S-SW 200 ° 0 min 0,000 mm 0,0 UV-I 0 W/m² 11,0 °C 11,9 °C 0,0 km/h (0 Bft)
24.05.2018 22:40 11,9 °C 94 % 1016,8 hPa 0,0 mm 0,0 km/h (0 Bft) S-SW 200 ° 0 min 0,000 mm 0,0 UV-I 0 W/m² 11,0 °C 11,9 °C 0,0 km/h (0 Bft)
24.05.2018 22:41 11,9 °C 94 % 1016,8 hPa 0,0 mm 0,3 km/h (0 Bft) S-SW 200 ° 0 min 0,000 mm 0,0 UV-I 0 W/m² 11,0 °C 11,9 °C 1,6 km/h (1 Bft)
24.05.2018 22:42 11,9 °C 94 % 1016,8 hPa 0,0 mm 2,6 km/h (1 Bft) W 267 ° 0 min 0,000 mm 0,0 UV-I 0 W/m² 11,0 °C 11,9 °C 4,8 km/h (1 Bft)
24.05.2018 22:43 11,9 °C 94 % 1016,8 hPa 0,0 mm 2,0 km/h (1 Bft) W 267 ° 0 min 0,000 mm 0,0 UV-I 0 W/m² 11,0 °C 11,9 °C 3,2 km/h (1 Bft)
24.05.2018 22:44 11,8 °C 93 % 1016,9 hPa 0,0 mm 0,9 km/h (0 Bft) W 267 ° 0 min 0,000 mm 0,0 UV-I 0 W/m² 10,7 °C 11,8 °C 3,2 km/h (1 Bft)
24.05.2018 22:45 11,8 °C 93 % 1016,9 hPa 0,0 mm 2,0 km/h (1 Bft) W 269 ° 0 min 0,000 mm 0,0 UV-I 0 W/m² 10,7 °C 11,8 °C 3,2 km/h (1 Bft)
24.05.2018 22:46 11,7 °C 93 % 1017,0 hPa 0,0 mm 0,1 km/h (0 Bft) W 269 ° 0 min 0,000 mm 0,0 UV-I 0 W/m² 10,6 °C 11,7 °C 1,6 km/h (1 Bft)
24.05.2018 22:47 11,6 °C 93 % 1017,0 hPa 0,0 mm 0,0 km/h (0 Bft) W 269 ° 0 min 0,000 mm 0,0 UV-I 0 W/m² 10,5 °C 11,6 °C 0,0 km/h (0 Bft)
24.05.2018 22:48 11,4 °C 93 % 1017,0 hPa 0,0 mm 0,1 km/h (0 Bft) W 269 ° 0 min 0,000 mm 0,0 UV-I 0 W/m² 10,3 °C 11,4 °C 1,6 km/h (1 Bft)
24.05.2018 22:49 11,4 °C 93 % 1017,0 hPa 0,0 mm 0,0 km/h (0 Bft) W 269 ° 0 min 0,000 mm 0,0 UV-I 0 W/m² 10,3 °C 11,4 °C 0,0 km/h (0 Bft)
24.05.2018 22:50 11,4 °C 93 % 1017,0 hPa 0,0 mm 0,0 km/h (0 Bft) W 269 ° 0 min 0,000 mm 0,0 UV-I 0 W/m² 10,3 °C 11,4 °C 0,0 km/h (0 Bft)
24.05.2018 22:51 11,4 °C 94 % 1017,0 hPa 0,0 mm 1,1 km/h (1 Bft) W-SW 248 ° 0 min 0,000 mm 0,0 UV-I 0 W/m² 10,5 °C 11,4 °C 3,2 km/h (1 Bft)
24.05.2018 22:52 11,5 °C 94 % 1017,0 hPa 0,0 mm 1,3 km/h (1 Bft) W-SW 248 ° 0 min 0,000 mm 0,0 UV-I 0 W/m² 10,6 °C 11,5 °C 1,6 km/h (1 Bft)
24.05.2018 22:53 11,6 °C 94 % 1017,0 hPa 0,0 mm 0,9 km/h (0 Bft) W-SW 248 ° 0 min 0,000 mm 0,0 UV-I 0 W/m² 10,7 °C 11,6 °C 1,6 km/h (1 Bft)
24.05.2018 22:54 11,6 °C 94 % 1017,0 hPa 0,0 mm 2,2 km/h (1 Bft) W-SW 248 ° 0 min 0,000 mm 0,0 UV-I 0 W/m² 10,7 °C 11,6 °C 4,8 km/h (1 Bft)
24.05.2018 22:55 11,6 °C 94 % 1017,0 hPa 0,0 mm 2,5 km/h (1 Bft) W-SW 248 ° 0 min 0,000 mm 0,0 UV-I 0 W/m² 10,7 °C 11,6 °C 3,2 km/h (1 Bft)
24.05.2018 22:56 11,6 °C 94 % 1017,0 hPa 0,0 mm 2,9 km/h (1 Bft) SW 234 ° 0 min 0,000 mm 0,0 UV-I 0 W/m² 10,7 °C 11,6 °C 4,8 km/h (1 Bft)
24.05.2018 22:57 11,7 °C 94 % 1017,0 hPa 0,0 mm 1,3 km/h (1 Bft) SW 234 ° 0 min 0,000 mm 0,0 UV-I 0 W/m² 10,8 °C 11,7 °C 1,6 km/h (1 Bft)
24.05.2018 22:58 11,6 °C 94 % 1017,0 hPa 0,0 mm 2,7 km/h (1 Bft) SW 235 ° 0 min 0,000 mm 0,0 UV-I 0 W/m² 10,7 °C 11,6 °C 3,2 km/h (1 Bft)
24.05.2018 22:59 11,4 °C 94 % 1017,0 hPa 0,0 mm 3,9 km/h (1 Bft) W-SW 252 ° 0 min 0,000 mm 0,0 UV-I 0 W/m² 10,5 °C 11,4 °C 4,8 km/h (1 Bft)
24.05.2018 23:00 11,4 °C 93 % 1017,0 hPa 0,0 mm 0,3 km/h (0 Bft) W-SW 252 ° 0 min 0,000 mm 0,0 UV-I 0 W/m² 10,3 °C 11,4 °C 3,2 km/h (1 Bft)
24.05.2018 23:01 11,4 °C 94 % 1017,0 hPa 0,0 mm 0,0 km/h (0 Bft) W-SW 252 ° 0 min 0,000 mm 0,0 UV-I 0 W/m² 10,5 °C 11,4 °C 0,0 km/h (0 Bft)
24.05.2018 23:02 11,4 °C 94 % 1017,1 hPa 0,0 mm 2,5 km/h (1 Bft) W-SW 252 ° 0 min 0,000 mm 0,0 UV-I 0 W/m² 10,5 °C 11,4 °C 4,8 km/h (1 Bft)
24.05.2018 23:03 11,4 °C 94 % 1017,1 hPa 0,0 mm 3,0 km/h (1 Bft) W-SW 252 ° 0 min 0,000 mm 0,0 UV-I 0 W/m² 10,5 °C 11,4 °C 3,2 km/h (1 Bft)
24.05.2018 23:04 11,4 °C 94 % 1017,1 hPa 0,0 mm 3,1 km/h (1 Bft) S 190 ° 0 min 0,000 mm 0,0 UV-I 0 W/m² 10,5 °C 11,4 °C 4,8 km/h (1 Bft)
24.05.2018 23:05 11,3 °C 94 % 1017,1 hPa 0,0 mm 0,9 km/h (0 Bft) S 190 ° 0 min 0,000 mm 0,0 UV-I 0 W/m² 10,4 °C 11,3 °C 3,2 km/h (1 Bft)
24.05.2018 23:06 11,4 °C 94 % 1017,2 hPa 0,0 mm 0,0 km/h (0 Bft) S 190 ° 0 min 0,000 mm 0,0 UV-I 0 W/m² 10,5 °C 11,4 °C 0,0 km/h (0 Bft)
24.05.2018 23:07 11,4 °C 94 % 1017,1 hPa 0,0 mm 0,0 km/h (0 Bft) S 190 ° 0 min 0,000 mm 0,0 UV-I 0 W/m² 10,5 °C 11,4 °C 0,0 km/h (0 Bft)
24.05.2018 23:08 11,4 °C 94 % 1017,1 hPa 0,0 mm 0,0 km/h (0 Bft) S 190 ° 0 min 0,000 mm 0,0 UV-I 0 W/m² 10,5 °C 11,4 °C 0,0 km/h (0 Bft)
24.05.2018 23:09 11,4 °C 94 % 1017,1 hPa 0,0 mm 0,0 km/h (0 Bft) S 190 ° 0 min 0,000 mm 0,0 UV-I 0 W/m² 10,5 °C 11,4 °C 0,0 km/h (0 Bft)
24.05.2018 23:10 11,4 °C 94 % 1017,1 hPa 0,0 mm 0,0 km/h (0 Bft) S 190 ° 0 min 0,000 mm 0,0 UV-I 0 W/m² 10,5 °C 11,4 °C 0,0 km/h (0 Bft)
24.05.2018 23:11 11,3 °C 94 % 1017,1 hPa 0,0 mm 2,7 km/h (1 Bft) S 190 ° 0 min 0,000 mm 0,0 UV-I 0 W/m² 10,4 °C 11,3 °C 4,8 km/h (1 Bft)
24.05.2018 23:12 11,3 °C 94 % 1017,1 hPa 0,0 mm 4,3 km/h (1 Bft) S 190 ° 0 min 0,000 mm 0,0 UV-I 0 W/m² 10,4 °C 11,3 °C 4,8 km/h (1 Bft)
24.05.2018 23:13 11,4 °C 94 % 1017,2 hPa 0,0 mm 3,3 km/h (1 Bft) S 190 ° 0 min 0,000 mm 0,0 UV-I 0 W/m² 10,5 °C 11,4 °C 4,8 km/h (1 Bft)
24.05.2018 23:14 11,4 °C 94 % 1017,1 hPa 0,0 mm 1,7 km/h (1 Bft) S 190 ° 0 min 0,000 mm 0,0 UV-I 0 W/m² 10,5 °C 11,4 °C 3,2 km/h (1 Bft)
24.05.2018 23:15 11,5 °C 94 % 1017,2 hPa 0,0 mm 2,3 km/h (1 Bft) S 190 ° 0 min 0,000 mm 0,0 UV-I 0 W/m² 10,6 °C 11,5 °C 3,2 km/h (1 Bft)
24.05.2018 23:16 11,5 °C 94 % 1017,2 hPa 0,0 mm 2,3 km/h (1 Bft) S 190 ° 0 min 0,000 mm 0,0 UV-I 0 W/m² 10,6 °C 11,5 °C 3,2 km/h (1 Bft)
24.05.2018 23:17 11,4 °C 94 % 1017,2 hPa 0,0 mm 1,0 km/h (0 Bft) S 190 ° 0 min 0,000 mm 0,0 UV-I 0 W/m² 10,5 °C 11,4 °C 3,2 km/h (1 Bft)
24.05.2018 23:18 11,4 °C 94 % 1017,2 hPa 0,0 mm 0,0 km/h (0 Bft) S 190 ° 0 min 0,000 mm 0,0 UV-I 0 W/m² 10,5 °C 11,4 °C 0,0 km/h (0 Bft)
24.05.2018 23:19 11,3 °C 94 % 1017,2 hPa 0,0 mm 0,0 km/h (0 Bft) S 190 ° 0 min 0,000 mm 0,0 UV-I 0 W/m² 10,4 °C 11,3 °C 0,0 km/h (0 Bft)
24.05.2018 23:20 11,2 °C 94 % 1017,2 hPa 0,0 mm 0,0 km/h (0 Bft) S 190 ° 0 min 0,000 mm 0,0 UV-I 0 W/m² 10,3 °C 11,2 °C 0,0 km/h (0 Bft)
24.05.2018 23:21 11,1 °C 93 % 1017,2 hPa 0,0 mm 0,0 km/h (0 Bft) S 190 ° 0 min 0,000 mm 0,0 UV-I 0 W/m² 10,0 °C 11,1 °C 0,0 km/h (0 Bft)
24.05.2018 23:22 11,1 °C 94 % 1017,2 hPa 0,0 mm 0,0 km/h (0 Bft) S 190 ° 0 min 0,000 mm 0,0 UV-I 0 W/m² 10,2 °C 11,1 °C 0,0 km/h (0 Bft)
24.05.2018 23:23 11,1 °C 94 % 1017,2 hPa 0,0 mm 0,0 km/h (0 Bft) S 190 ° 0 min 0,000 mm 0,0 UV-I 0 W/m² 10,2 °C 11,1 °C 0,0 km/h (0 Bft)
24.05.2018 23:24 11,0 °C 94 % 1017,2 hPa 0,0 mm 0,0 km/h (0 Bft) S 190 ° 0 min 0,000 mm 0,0 UV-I 0 W/m² 10,1 °C 11,0 °C 0,0 km/h (0 Bft)
24.05.2018 23:25 10,9 °C 94 % 1017,2 hPa 0,0 mm 0,0 km/h (0 Bft) S 190 ° 0 min 0,000 mm 0,0 UV-I 0 W/m² 10,0 °C 10,9 °C 0,0 km/h (0 Bft)
24.05.2018 23:26 10,9 °C 94 % 1017,2 hPa 0,0 mm 0,0 km/h (0 Bft) S 190 ° 0 min 0,000 mm 0,0 UV-I 0 W/m² 10,0 °C 10,9 °C 0,0 km/h (0 Bft)
24.05.2018 23:27 10,8 °C 94 % 1017,3 hPa 0,0 mm 0,0 km/h (0 Bft) S 190 ° 0 min 0,000 mm 0,0 UV-I 0 W/m² 9,9 °C 10,8 °C 0,0 km/h (0 Bft)
24.05.2018 23:28 10,8 °C 94 % 1017,3 hPa 0,0 mm 0,0 km/h (0 Bft) S 190 ° 0 min 0,000 mm 0,0 UV-I 0 W/m² 9,9 °C 10,8 °C 0,0 km/h (0 Bft)
24.05.2018 23:29 10,9 °C 94 % 1017,2 hPa 0,0 mm 0,0 km/h (0 Bft) S 190 ° 0 min 0,000 mm 0,0 UV-I 0 W/m² 10,0 °C 10,9 °C 0,0 km/h (0 Bft)
24.05.2018 23:30 10,9 °C 94 % 1017,2 hPa 0,0 mm 0,0 km/h (0 Bft) S 190 ° 0 min 0,000 mm 0,0 UV-I 0 W/m² 10,0 °C 10,9 °C 0,0 km/h (0 Bft)
24.05.2018 23:31 11,1 °C 95 % 1017,2 hPa 0,0 mm 0,0 km/h (0 Bft) S 190 ° 0 min 0,000 mm 0,0 UV-I 0 W/m² 10,3 °C 11,1 °C 0,0 km/h (0 Bft)
24.05.2018 23:32 11,1 °C 95 % 1017,2 hPa 0,0 mm 0,0 km/h (0 Bft) S 190 ° 0 min 0,000 mm 0,0 UV-I 0 W/m² 10,3 °C 11,1 °C 0,0 km/h (0 Bft)
24.05.2018 23:33 11,1 °C 95 % 1017,2 hPa 0,0 mm 2,5 km/h (1 Bft) S 190 ° 0 min 0,000 mm 0,0 UV-I 0 W/m² 10,3 °C 11,1 °C 4,8 km/h (1 Bft)
24.05.2018 23:34 11,1 °C 95 % 1017,2 hPa 0,0 mm 3,9 km/h (1 Bft) S 190 ° 0 min 0,000 mm 0,0 UV-I 0 W/m² 10,3 °C 11,1 °C 6,4 km/h (2 Bft)
24.05.2018 23:35 11,1 °C 95 % 1017,2 hPa 0,0 mm 4,8 km/h (1 Bft) S 190 ° 0 min 0,000 mm 0,0 UV-I 0 W/m² 10,3 °C 11,1 °C 6,4 km/h (2 Bft)
24.05.2018 23:36 11,0 °C 94 % 1017,2 hPa 0,0 mm 3,4 km/h (1 Bft) S 190 ° 0 min 0,000 mm 0,0 UV-I 0 W/m² 10,1 °C 11,0 °C 4,8 km/h (1 Bft)
24.05.2018 23:37 11,0 °C 94 % 1017,2 hPa 0,0 mm 1,8 km/h (1 Bft) S 190 ° 0 min 0,000 mm 0,0 UV-I 0 W/m² 10,1 °C 11,0 °C 3,2 km/h (1 Bft)
24.05.2018 23:38 10,9 °C 94 % 1017,2 hPa 0,0 mm 0,1 km/h (0 Bft) S 190 ° 0 min 0,000 mm 0,0 UV-I 0 W/m² 10,0 °C 10,9 °C 1,6 km/h (1 Bft)
24.05.2018 23:39 10,9 °C 95 % 1017,2 hPa 0,0 mm 0,0 km/h (0 Bft) S 190 ° 0 min 0,000 mm 0,0 UV-I 0 W/m² 10,1 °C 10,9 °C 0,0 km/h (0 Bft)
24.05.2018 23:40 10,9 °C 94 % 1017,2 hPa 0,0 mm 0,0 km/h (0 Bft) S 190 ° 0 min 0,000 mm 0,0 UV-I 0 W/m² 10,0 °C 10,9 °C 0,0 km/h (0 Bft)
24.05.2018 23:41 10,9 °C 94 % 1017,2 hPa 0,0 mm 0,0 km/h (0 Bft) S 190 ° 0 min 0,000 mm 0,0 UV-I 0 W/m² 10,0 °C 10,9 °C 0,0 km/h (0 Bft)
24.05.2018 23:42 10,9 °C 94 % 1017,3 hPa 0,0 mm 0,0 km/h (0 Bft) S 190 ° 0 min 0,000 mm 0,0 UV-I 0 W/m² 10,0 °C 10,9 °C 0,0 km/h (0 Bft)
24.05.2018 23:43 10,8 °C 94 % 1017,3 hPa 0,0 mm 0,0 km/h (0 Bft) S 190 ° 0 min 0,000 mm 0,0 UV-I 0 W/m² 9,9 °C 10,8 °C 0,0 km/h (0 Bft)
24.05.2018 23:44 10,8 °C 94 % 1017,3 hPa 0,0 mm 0,0 km/h (0 Bft) S 190 ° 0 min 0,000 mm 0,0 UV-I 0 W/m² 9,9 °C 10,8 °C 0,0 km/h (0 Bft)
24.05.2018 23:45 10,8 °C 94 % 1017,3 hPa 0,0 mm 0,0 km/h (0 Bft) S 190 ° 0 min 0,000 mm 0,0 UV-I 0 W/m² 9,9 °C 10,8 °C 0,0 km/h (0 Bft)
24.05.2018 23:46 10,8 °C 94 % 1017,3 hPa 0,0 mm 0,0 km/h (0 Bft) S 190 ° 0 min 0,000 mm 0,0 UV-I 0 W/m² 9,9 °C 10,8 °C 0,0 km/h (0 Bft)
24.05.2018 23:47 10,9 °C 94 % 1017,4 hPa 0,0 mm 0,0 km/h (0 Bft) S 190 ° 0 min 0,000 mm 0,0 UV-I 0 W/m² 10,0 °C 10,9 °C 0,0 km/h (0 Bft)
24.05.2018 23:48 10,9 °C 95 % 1017,4 hPa 0,0 mm 0,0 km/h (0 Bft) S 190 ° 0 min 0,000 mm 0,0 UV-I 0 W/m² 10,1 °C 10,9 °C 0,0 km/h (0 Bft)
24.05.2018 23:49 10,9 °C 95 % 1017,4 hPa 0,0 mm 0,0 km/h (0 Bft) S 190 ° 0 min 0,000 mm 0,0 UV-I 0 W/m² 10,1 °C 10,9 °C 0,0 km/h (0 Bft)
24.05.2018 23:50 10,9 °C 94 % 1017,4 hPa 0,0 mm 0,0 km/h (0 Bft) S 190 ° 0 min 0,000 mm 0,0 UV-I 0 W/m² 10,0 °C 10,9 °C 0,0 km/h (0 Bft)
24.05.2018 23:51 10,8 °C 94 % 1017,4 hPa 0,0 mm 0,0 km/h (0 Bft) S 190 ° 0 min 0,000 mm 0,0 UV-I 0 W/m² 9,9 °C 10,8 °C 0,0 km/h (0 Bft)
24.05.2018 23:52 10,9 °C 95 % 1017,4 hPa 0,0 mm 0,0 km/h (0 Bft) S 190 ° 0 min 0,000 mm 0,0 UV-I 0 W/m² 10,1 °C 10,9 °C 0,0 km/h (0 Bft)
24.05.2018 23:53 10,9 °C 95 % 1017,3 hPa 0,0 mm 0,0 km/h (0 Bft) S 190 ° 0 min 0,000 mm 0,0 UV-I 0 W/m² 10,1 °C 10,9 °C 0,0 km/h (0 Bft)
24.05.2018 23:54 10,9 °C 95 % 1017,3 hPa 0,0 mm 0,0 km/h (0 Bft) S 190 ° 0 min 0,000 mm 0,0 UV-I 0 W/m² 10,1 °C 10,9 °C 0,0 km/h (0 Bft)
24.05.2018 23:55 10,9 °C 95 % 1017,3 hPa 0,0 mm 0,0 km/h (0 Bft) S 190 ° 0 min 0,000 mm 0,0 UV-I 0 W/m² 10,1 °C 10,9 °C 0,0 km/h (0 Bft)
24.05.2018 23:56 10,9 °C 95 % 1017,3 hPa 0,0 mm 0,0 km/h (0 Bft) S 190 ° 0 min 0,000 mm 0,0 UV-I 0 W/m² 10,1 °C 10,9 °C 0,0 km/h (0 Bft)
24.05.2018 23:57 10,9 °C 95 % 1017,3 hPa 0,0 mm 0,0 km/h (0 Bft) S 190 ° 0 min 0,000 mm 0,0 UV-I 0 W/m² 10,1 °C 10,9 °C 0,0 km/h (0 Bft)
24.05.2018 23:58 10,9 °C 95 % 1017,3 hPa 0,0 mm 0,0 km/h (0 Bft) S 190 ° 0 min 0,000 mm 0,0 UV-I 0 W/m² 10,1 °C 10,9 °C 0,0 km/h (0 Bft)
24.05.2018 23:59 11,0 °C 95 % 1017,3 hPa 0,0 mm 0,0 km/h (0 Bft) S 190 ° 0 min 0,000 mm 0,0 UV-I 0 W/m² 10,2 °C 11,0 °C 0,0 km/h (0 Bft)
_ Min-Zeit 03:56 12:11 18:34 - 23:59 - - - - - - 03:55 03:56 23:59
Minimum _ 9,2 °C 72 % 1015,1 hPa - 0,0 km/h (0 Bft) - - - - - - 8,4 °C 9,2 °C 0,0 km/h (0 Bft)
_ Max-Zeit 13:14 23:59 23:52 20:45 05:02 - - 13:14 13:01 12:05 12:07 13:14 13:14 22:01
Maximum _ 19,2 °C 95 % 1017,4 hPa 0,2 mm 10,0 km/h
S (2 Bft)
- - 1 min 0,305 mm 8,2 UV-I 1223 W/m² 15,3 °C 19,2 °C 17,7 km/h
W (3 Bft)
Durchschnitt _ 13,4 °C 90 % 1016,1 hPa #0,6 mm 1,2 km/h (1 Bft) S-SW - #37 min. #1,626 mm 2,1 UV-I 118 W/m² 11,8 °C 13,4 °C 2,2 km/h (1 Bft)